GFSNW_sfc_wetblb_000.txt.gz
Wetbulb
52.46 52.17 51.24 51.92 51.69 51.70 55.95 57.84 51.46 58.50 60.35 52.56 51.12 48.09 48.13 46.25 48.66 50.31 49.06 49.34 47.42 45.92 45.41 44.26 43.91 43.06 45.21 48.19 48.26 43.98 45.98 43.47 38.50 39.83 45.05 46.77 45.90 43.05 41.99 37.05 31.57 37.37 35.67 36.34
52.04 50.43 51.04 51.38 51.28 51.73 58.69 56.10 54.69 58.49 58.46 48.74 48.40 47.92 47.03 48.24 48.13 47.37 47.87 46.86 48.11 48.11 45.24 42.44 44.92 45.13 47.77 48.59 47.95 45.64 46.61 42.12 36.16 37.92 42.55 45.16 43.11 43.70 43.02 41.00 39.55 35.21 32.76 37.59
50.68 50.10 50.25 50.63 51.27 51.44 57.98 55.34 51.62 54.28 55.04 52.03 50.04 47.64 46.52 45.89 48.60 47.58 48.67 47.28 49.01 47.37 45.49 46.91 44.33 44.85 47.04 48.12 48.10 44.07 47.34 43.04 38.74 34.81 37.37 40.92 38.19 40.12 42.00 41.06 35.92 36.21 37.46 39.72
49.65 49.99 50.58 51.04 51.09 50.97 57.97 54.98 50.91 50.71 48.94 49.16 50.15 49.64 47.93 45.76 44.78 48.26 48.89 46.85 47.38 46.44 42.98 43.55 43.33 45.53 46.08 46.70 45.58 47.90 47.27 38.46 41.04 41.31 41.86 41.53 40.48 39.97 40.60 39.19 39.95 35.72 38.91 39.63
49.47 50.19 50.58 50.78 50.94 50.80 56.32 53.71 51.82 50.95 48.51 48.99 49.54 45.42 47.51 46.10 45.50 47.14 45.57 46.09 46.70 46.85 43.27 43.34 41.95 43.65 43.95 42.95 46.68 45.85 45.76 39.43 38.95 36.65 39.92 40.49 38.23 40.57 40.98 41.01 41.31 40.97 40.97 40.06
49.59 49.94 50.53 50.55 50.84 52.62 56.61 53.22 52.46 54.78 42.10 46.17 48.72 47.31 47.62 46.98 48.75 47.41 49.08 49.01 47.39 44.78 46.66 49.13 49.46 49.63 48.83 47.21 45.01 43.08 42.94 41.25 37.54 34.29 37.21 37.31 34.29 38.37 40.25 40.85 42.19 41.62 37.30 42.28
51.00 50.71 50.96 50.16 50.39 52.31 57.55 54.76 54.35 53.22 45.73 47.22 47.36 47.09 48.04 47.49 47.39 47.12 48.04 49.63 48.24 47.92 51.64 50.88 49.48 47.04 46.27 46.64 45.40 46.36 38.95 39.69 37.05 34.94 35.17 30.32 39.05 44.06 43.51 41.27 42.48 43.87 43.41 43.44
51.54 50.86 50.83 50.23 50.07 51.10 56.68 53.81 53.94 51.20 37.30 47.58 45.54 47.72 47.62 48.18 48.65 47.67 48.11 48.53 48.88 52.77 50.25 45.45 40.15 39.66 37.57 39.01 41.99 42.43 44.08 40.99 34.05 31.88 31.94 36.59 39.10 41.28 40.52 39.08 39.47 43.74 42.90 44.42
50.90 50.60 50.69 50.11 49.85 50.83 56.89 54.08 53.08 53.01 41.19 46.54 48.11 47.85 48.86 47.20 47.21 47.27 46.82 49.14 50.71 50.68 47.29 42.60 35.30 36.38 36.04 36.69 38.12 40.66 40.45 40.52 39.77 34.44 29.90 28.67 39.08 42.01 44.11 44.05 36.09 44.28 44.35 43.27
50.59 50.51 50.51 50.01 49.71 50.53 57.55 55.34 54.02 54.36 51.23 48.87 49.19 48.79 48.27 49.34 48.56 47.77 47.74 48.05 46.87 49.48 41.85 37.50 38.65 38.40 38.80 35.92 34.25 33.92 34.96 34.72 33.72 33.60 31.58 35.85 42.87 43.27 44.36 33.80 37.27 44.55 42.01 41.54
49.92 49.95 50.20 49.94 49.68 49.93 56.21 55.22 54.37 55.02 49.44 49.59 50.22 49.88 48.47 48.11 50.41 47.91 47.80 47.49 46.84 44.69 37.68 36.23 38.51 35.86 40.26 38.02 39.51 37.53 36.92 36.71 33.05 33.76 30.55 28.84 43.25 43.13 37.61 43.39 43.61 42.10 42.49 43.30
49.59 49.57 49.67 50.22 49.80 49.64 51.98 56.30 53.81 53.83 54.27 51.57 53.34 53.69 52.76 53.08 53.30 50.92 49.06 48.10 47.89 49.24 43.49 39.10 38.17 35.86 34.23 39.23 35.82 42.07 36.50 40.46 38.26 37.72 39.10 45.81 46.86 44.77 46.29 44.37 42.91 44.68 43.02 43.43
49.23 49.26 49.63 50.36 50.03 49.81 52.66 55.90 55.01 54.79 51.35 51.53 52.82 51.61 53.36 55.70 54.54 56.32 50.32 49.51 49.59 48.49 49.73 46.23 40.94 35.14 42.05 33.69 37.47 40.11 43.22 44.76 40.16 39.89 43.16 44.62 46.53 47.72 46.82 45.38 43.06 42.40 42.63 42.70
48.77 49.12 49.03 49.90 49.99 49.65 51.25 55.90 53.62 53.76 47.99 36.95 48.87 50.15 51.25 53.51 55.84 55.78 55.41 52.08 50.37 49.65 50.39 38.95 36.77 36.41 45.52 38.63 43.97 41.82 44.41 44.15 41.24 39.64 43.45 45.07 45.33 46.05 44.53 43.85 43.42 42.17 43.27 41.58
47.68 48.68 48.88 49.56 49.92 49.79 54.93 56.64 55.96 55.81 54.55 43.91 48.01 49.65 49.79 51.82 54.00 54.47 54.25 53.16 51.33 48.44 42.21 35.50 38.73 44.69 43.91 42.60 40.92 41.33 45.75 43.19 39.02 36.90 43.58 43.40 43.40 43.55 44.58 43.31 43.35 42.04 39.89 39.21
48.85 49.04 49.38 50.09 49.61 49.98 56.77 53.89 55.91 55.94 56.29 48.74 42.21 49.60 47.69 49.37 51.96 52.65 52.48 53.04 51.77 51.14 45.40 40.56 46.11 47.82 46.19 34.78 35.42 42.70 46.53 47.59 45.94 42.89 45.31 45.00 44.23 43.62 44.78 42.58 40.82 40.24 39.60 40.30
48.35 48.71 49.24 49.42 48.94 56.49 53.93 51.79 52.39 51.23 56.40 45.29 41.85 44.14 45.49 45.69 48.01 47.87 49.89 50.29 51.03 48.90 47.05 43.57 45.38 46.69 45.63 35.14 34.59 43.28 44.49 43.58 43.67 43.68 42.68 41.17 42.62 42.08 41.62 40.60 39.82 40.94 41.46 41.21
48.35 48.37 48.55 48.80 48.90 49.94 51.56 54.00 49.90 52.56 50.05 46.57 39.49 38.04 42.03 45.19 43.32 41.56 43.03 42.29 45.42 46.16 45.65 40.92 42.64 43.62 43.40 36.23 42.70 41.41 40.22 40.99 42.27 42.56 44.09 43.28 42.07 41.18 40.22 41.01 41.03 39.23 38.40 38.53
48.32 48.33 48.42 49.34 48.12 45.45 47.88 47.64 49.84 52.85 51.05 43.37 36.41 35.68 35.50 44.55 40.00 40.14 40.67 42.62 37.50 42.90 36.59 37.96 40.85 37.86 35.76 40.83 40.35 38.44 38.60 40.11 41.19 41.38 41.21 40.57 39.03 39.03 39.07 38.98 37.89 36.63 36.54 37.14
48.24 48.35 44.97 36.94 42.17 47.50 48.44 47.19 44.93 41.23 42.57 42.55 37.31 44.68 40.35 44.31 38.22 36.41 38.39 38.58 37.48 34.96 35.66 37.65 33.33 34.17 36.71 36.67 38.71 39.91 40.76 42.08 41.49 37.88 36.39 37.36 36.56 36.19 35.92 36.03 36.79 36.42 35.80 35.78
44.19 38.57 36.41 42.85 46.83 44.70 41.00 35.85 36.57 35.83 33.87 36.31 35.41 36.30 35.83 39.39 37.79 35.68 35.32 33.33 33.69 32.78 34.51 34.83 34.28 34.54 37.67 38.79 40.32 41.37 41.37 41.33 40.06 39.44 38.19 37.25 36.54 35.68 35.38 35.59 35.71 35.33 34.89 34.47
44.16 43.12 44.58 42.86 40.49 35.80 35.12 33.33 32.24 33.13 33.34 34.19 34.19 34.70 36.85 35.14 40.19 36.17 33.31 33.14 32.77 30.49 35.67 31.38 30.26 36.62 37.44 38.58 38.81 39.12 39.53 38.50 36.80 36.97 36.17 36.63 36.02 36.79 35.80 35.16 34.67 34.77 34.21 32.71
44.65 39.54 34.04 35.24 33.33 31.88 31.88 30.61 31.88 32.24 35.14 34.72 34.20 32.95 36.21 35.40 36.33 32.24 34.23 31.15 31.01 33.99 29.54 29.85 34.75 36.64 37.72 38.64 38.58 38.33 38.42 36.68 34.48 36.00 36.82 37.15 36.89 36.44 33.92 33.24 33.89 33.49 33.45 33.75
36.74 34.22 31.51 32.96 31.51 33.08 33.74 35.39 35.68 35.32 35.68 35.50 34.96 32.78 34.85 32.59 31.26 32.15 30.43 29.04 31.06 27.31 25.18 28.31 34.05 35.58 35.75 36.08 36.58 35.72 34.85 34.71 33.13 34.49 35.50 35.17 34.20 33.89 33.85 32.06 32.25 31.40 31.36 32.94
33.83 35.71 30.55 31.55 31.93 34.41 34.41 35.14 35.50 35.11 36.72 36.14 33.81 32.74 35.25 30.96 29.21 30.08 28.14 25.82 25.23 27.42 28.07 32.82 35.44 34.61 34.86 34.57 34.08 34.71 34.50 33.92 33.09 34.84 34.44 33.61 33.18 32.73 32.86 34.11 34.12 33.61 32.17 31.69
33.52 32.30 30.53 31.61 32.24 31.69 32.42 33.33 32.78 35.48 33.99 34.21 35.24 32.08 31.15 28.60 29.74 26.79 26.92 25.54 24.44 28.83 33.39 35.62 34.96 34.11 34.15 34.45 35.45 34.42 34.42 33.55 33.51 33.86 33.80 33.79 33.04 32.22 33.44 33.84 33.03 32.27 32.30 31.37
32.24 30.22 32.53 32.13 32.96 33.87 34.05 35.50 34.59 36.08 34.31 31.85 31.50 28.95 27.67 27.26 26.55 25.58 27.23 26.01 30.27 33.52 33.65 34.32 33.36 34.01 34.87 35.38 34.87 33.41 33.12 32.82 33.37 34.11 34.29 34.15 34.53 33.81 31.85 31.90 34.03 33.73 34.61 32.60

GFSNW_sfc_wetblb_006.txt.gz
Wetbulb
51.87 51.59 51.66 51.78 51.94 52.11 56.23 61.95 50.40 63.79 66.92 51.20 52.68 51.32 50.74 49.27 50.81 53.01 51.78 51.61 49.48 47.95 47.97 46.72 46.43 46.01 47.99 50.64 50.34 45.97 46.78 45.02 42.15 42.72 47.21 48.58 46.88 44.83 43.68 38.81 35.87 39.52 37.18 35.81
50.48 51.51 51.53 51.52 51.65 51.85 61.43 55.22 56.12 63.11 63.57 49.43 53.94 52.05 50.83 51.54 50.23 50.46 50.30 49.38 50.93 51.39 48.60 44.84 47.71 47.92 50.51 51.08 49.84 46.75 47.62 45.12 39.68 40.56 44.98 47.22 43.89 45.30 44.16 43.62 41.22 35.46 34.49 36.77
50.28 51.51 51.48 51.54 51.54 51.90 58.54 57.68 52.04 54.72 56.24 57.56 53.28 50.29 49.13 48.63 52.76 51.23 51.91 50.86 51.51 49.93 47.94 49.72 46.82 46.65 49.31 50.85 49.31 46.61 48.05 44.98 40.96 36.84 39.64 42.89 40.39 42.26 43.42 42.18 37.62 36.99 37.61 39.72
50.10 50.64 51.52 51.35 51.38 51.84 58.59 58.38 53.59 53.94 49.25 51.97 52.80 52.39 50.73 48.64 47.40 51.61 52.17 49.62 49.73 48.94 45.53 46.91 46.18 48.20 47.41 48.67 46.34 48.33 48.12 41.59 43.10 42.73 42.77 42.72 41.65 41.31 41.95 40.44 41.19 36.29 39.50 40.07
49.83 51.35 51.59 50.90 51.05 50.70 59.28 55.23 54.24 55.79 53.97 54.31 51.99 48.46 49.55 48.85 49.42 49.99 48.37 48.45 50.02 50.16 47.08 46.60 45.04 46.76 46.39 45.89 48.35 47.31 48.09 42.33 42.10 39.51 42.80 42.02 39.56 41.26 41.59 41.84 42.03 41.87 41.89 41.16
51.10 52.04 51.43 50.62 50.87 53.22 59.75 59.33 60.10 57.02 49.09 52.66 51.74 50.94 50.34 49.95 51.36 51.06 51.99 51.30 49.99 47.29 48.96 51.07 51.29 51.41 50.66 49.04 47.55 45.97 45.48 43.83 39.61 36.12 39.54 38.77 35.83 40.81 41.98 42.40 43.75 42.68 38.51 43.29
52.87 52.02 51.11 50.20 50.55 51.89 61.89 60.76 59.16 55.96 49.77 52.20 50.50 51.52 51.74 50.56 50.83 49.13 51.49 52.01 49.68 51.14 53.84 52.92 51.73 50.56 49.60 49.53 48.18 49.61 43.38 41.59 39.53 35.62 35.91 31.56 41.91 45.96 45.43 42.96 43.89 44.88 44.61 45.59
52.00 51.65 51.12 50.35 50.50 51.31 61.22 60.30 59.68 54.60 40.85 52.20 51.46 51.16 51.04 51.93 51.55 50.67 50.77 51.95 53.47 54.97 52.19 47.11 39.80 40.35 38.14 42.02 46.18 45.96 47.90 43.37 34.80 34.30 33.57 37.22 40.52 43.33 42.17 40.22 39.95 45.44 45.27 45.62
51.38 51.16 50.89 50.46 50.36 51.02 61.27 58.89 60.12 58.90 47.01 51.55 53.03 51.30 52.02 49.93 50.08 49.41 49.61 53.98 56.30 54.18 50.91 43.47 35.28 37.64 40.49 38.70 40.29 45.67 45.61 45.88 41.61 34.47 30.61 28.25 40.93 45.26 47.08 46.05 35.62 46.73 46.04 44.34
51.31 51.08 50.87 50.52 50.36 50.61 57.47 59.31 60.99 59.54 55.45 54.27 54.58 52.16 51.55 53.66 51.70 49.13 50.10 50.53 50.60 53.74 43.53 37.04 41.19 40.55 43.31 37.70 35.59 34.64 35.48 37.84 35.17 34.68 32.37 35.97 43.82 46.17 47.00 34.41 37.60 46.25 46.08 44.61
51.89 51.05 50.76 50.61 50.19 50.34 55.40 59.69 60.38 59.05 54.48 53.82 55.68 55.33 54.16 53.45 53.38 49.17 51.43 49.90 51.54 50.26 38.13 39.76 42.52 38.67 42.40 41.49 42.55 37.91 35.32 35.14 32.87 35.82 32.31 29.69 46.44 45.11 39.02 45.01 47.84 46.89 45.93 45.18
50.80 51.44 50.69 50.69 50.59 50.28 51.74 59.39 59.44 60.61 58.00 54.61 58.25 57.07 57.54 56.18 55.85 54.84 54.09 50.89 50.45 50.93 46.20 44.60 45.12 38.21 37.29 39.72 38.18 45.34 38.90 42.96 40.39 39.76 38.85 47.09 48.36 46.42 48.52 47.60 46.91 45.36 45.25 45.18
50.40 50.48 50.72 50.69 51.08 50.89 52.12 60.12 60.24 61.60 58.61 54.76 54.29 53.05 56.55 58.82 58.43 61.17 52.59 55.78 54.53 53.22 55.33 47.24 42.66 33.96 43.71 34.94 40.22 42.89 44.96 47.23 44.07 43.25 45.09 45.89 47.63 48.76 48.27 48.35 47.02 46.70 46.49 45.68
50.17 50.48 50.42 51.44 51.10 50.93 51.92 59.31 59.96 59.45 53.19 38.49 53.11 56.50 55.02 57.62 58.50 58.31 59.35 57.42 57.53 56.36 52.40 40.78 37.58 36.13 48.17 42.19 44.07 43.78 45.91 46.34 44.22 43.31 45.92 46.97 47.39 47.31 47.71 46.73 47.32 46.42 46.46 45.92
49.14 49.74 49.31 49.65 52.43 51.15 55.91 60.56 60.01 60.04 57.01 45.25 52.41 54.50 55.49 56.61 57.80 56.61 57.36 56.71 54.80 52.91 45.06 36.86 38.62 48.35 48.35 48.35 45.34 43.38 46.23 43.50 41.64 40.45 46.65 46.04 45.82 46.53 46.54 45.48 45.13 45.93 44.72 42.59
47.88 48.96 49.21 49.76 50.59 50.40 58.98 54.41 59.47 59.76 60.10 50.63 42.99 54.13 52.52 54.47 55.89 55.70 54.87 55.29 54.97 53.55 48.06 42.17 48.27 51.67 48.64 37.76 38.60 45.10 47.20 48.20 48.16 45.77 48.29 47.55 47.11 47.12 46.94 45.23 44.57 44.16 42.69 42.42
47.34 49.05 49.21 48.96 49.66 57.04 54.24 51.81 53.44 51.39 58.97 49.55 42.48 47.66 50.58 52.08 54.01 54.33 53.93 55.35 54.04 52.68 51.34 47.53 46.71 49.10 47.86 37.40 37.42 44.69 46.74 47.59 48.10 48.37 47.66 44.68 45.36 44.14 46.40 44.53 43.68 42.81 42.93 41.41
48.57 48.55 48.86 49.10 49.12 50.53 54.17 55.56 53.15 53.30 56.10 52.61 43.57 41.75 45.65 50.68 49.06 46.61 49.49 47.48 48.78 49.64 48.56 47.22 45.09 48.29 46.10 39.76 44.41 46.35 47.44 47.87 46.81 46.12 46.54 46.02 46.38 46.48 44.08 43.46 42.29 39.68 38.38 38.68
48.38 48.80 48.78 53.67 53.25 52.70 54.90 48.78 50.73 59.09 54.49 47.82 36.50 37.04 36.86 49.26 43.03 42.94 44.48 46.39 39.03 47.37 39.40 42.42 43.88 41.21 37.20 42.50 44.33 45.39 47.06 45.73 45.06 45.77 45.68 44.76 42.75 41.85 41.26 40.09 38.91 37.43 37.23 37.59
48.08 49.41 46.56 39.03 44.45 48.63 49.33 53.36 51.63 50.11 52.44 49.51 38.67 47.01 41.09 45.98 41.03 38.67 39.02 39.21 37.93 35.41 38.59 39.90 35.23 37.32 44.30 46.00 46.91 47.45 46.14 46.58 46.36 43.04 40.61 41.21 39.60 39.07 38.07 37.57 38.18 38.00 36.78 36.04
45.71 40.30 37.22 43.81 47.17 49.75 46.35 39.94 40.66 41.54 38.49 42.61 42.50 44.97 40.26 45.62 38.24 36.13 39.58 35.05 36.13 33.34 36.63 36.13 34.12 33.88 40.34 44.98 45.87 45.53 45.92 46.04 45.58 44.99 43.48 40.88 39.05 37.52 37.22 37.77 37.56 36.03 35.46 34.76
44.00 43.69 44.82 43.75 40.54 36.19 37.22 35.05 34.86 35.77 38.11 38.75 35.74 39.36 43.19 41.01 45.37 39.43 35.12 33.96 33.05 31.78 37.89 32.51 32.66 38.95 43.78 44.35 43.06 43.89 44.72 44.07 41.99 41.30 39.27 38.67 38.01 38.27 37.95 36.91 36.05 35.33 34.36 32.04
42.76 38.03 34.82 35.82 32.49 31.22 31.78 30.88 32.33 32.87 33.78 34.44 34.46 33.38 36.13 36.64 38.24 33.41 32.87 31.42 31.96 35.69 32.67 31.38 36.28 40.37 42.24 43.08 43.20 42.47 40.84 38.00 38.14 38.31 38.45 38.16 37.30 36.44 35.08 33.88 34.68 33.15 34.04 34.71
35.28 32.69 31.60 31.96 31.60 32.51 32.33 32.51 32.33 33.41 33.78 33.96 34.32 32.87 33.78 32.87 32.69 32.33 31.60 32.87 34.09 30.10 28.96 30.19 37.06 39.81 41.54 42.23 42.38 40.46 36.64 31.97 34.38 35.36 36.48 34.46 35.33 34.76 33.44 33.04 32.57 31.17 32.17 33.79
35.81 34.68 30.88 31.78 33.05 33.59 32.87 32.51 33.59 33.90 36.04 34.49 33.41 33.41 34.97 32.33 31.42 32.51 31.77 29.07 28.36 30.30 31.13 33.83 37.05 37.82 37.98 37.10 38.20 35.69 34.13 31.79 33.60 36.33 34.15 31.88 32.34 33.07 33.72 34.42 34.59 35.01 32.75 32.39
36.98 35.20 32.69 33.41 33.23 32.33 32.33 32.33 32.51 36.74 35.01 36.86 36.50 32.69 32.14 31.40 32.28 30.02 29.88 29.27 28.13 32.49 36.43 37.77 36.22 35.59 36.15 35.77 36.14 36.18 36.05 34.65 34.95 34.90 34.06 33.42 32.32 31.77 34.22 35.21 34.14 33.04 32.59 32.42
33.84 32.61 36.50 34.86 34.68 33.41 33.78 35.23 35.95 39.27 35.23 32.33 33.96 31.42 28.40 31.72 29.99 29.26 32.29 30.61 33.72 36.71 37.68 35.84 35.84 34.98 35.99 36.65 36.43 33.90 34.47 35.15 35.44 35.06 34.72 34.69 34.50 33.65 33.73 32.94 34.80 34.97 34.80 33.22

GFSNW_sfc_wetblb_009.txt.gz
Wetbulb
50.83 51.77 51.86 51.76 51.74 52.67 54.04 53.64 44.72 59.04 60.10 44.44 46.04 43.90 50.15 47.64 49.18 51.64 50.32 49.27 47.65 45.90 45.65 44.62 44.36 43.48 45.24 48.52 47.98 42.88 43.55 40.11 31.15 39.45 44.55 45.87 43.37 41.34 40.57 28.27 30.33 28.99 27.57 29.03
49.71 51.53 51.50 51.43 51.51 52.07 56.03 50.17 51.28 58.34 58.46 37.78 38.64 49.08 49.48 49.99 48.54 48.92 48.84 47.68 49.12 48.87 45.43 41.21 45.14 45.07 48.62 49.08 46.23 42.75 43.73 38.40 29.68 35.95 40.84 43.82 40.39 42.25 42.81 39.56 32.38 29.20 21.99 28.48
50.17 51.12 51.48 51.32 51.46 51.60 54.73 52.87 42.85 49.82 51.20 51.20 48.72 48.55 46.36 46.82 50.83 49.77 50.39 48.75 49.12 47.05 44.86 46.78 43.63 44.24 48.17 48.19 45.99 45.62 45.54 41.31 35.08 29.31 35.03 38.56 36.11 39.27 40.34 38.56 28.27 29.83 30.72 35.34
49.25 51.19 51.50 51.13 51.34 51.50 55.66 53.78 47.23 47.41 39.77 44.50 47.74 48.54 47.81 46.15 45.75 49.58 50.06 47.22 47.70 45.80 39.84 43.41 42.61 44.86 45.25 47.13 45.34 46.03 43.64 36.21 38.69 39.42 40.16 40.07 38.65 38.27 38.59 36.87 36.60 29.85 33.59 37.05
50.20 51.76 51.10 50.64 51.06 50.06 53.85 52.13 49.69 49.31 46.67 47.22 46.98 46.12 46.23 46.41 47.66 47.53 46.46 45.48 47.78 47.10 42.66 43.60 41.38 44.29 43.64 43.14 44.78 43.66 44.64 33.88 33.42 32.60 39.81 38.85 35.68 37.80 37.89 38.27 38.92 38.04 38.08 37.28
52.31 51.77 50.96 50.43 50.66 52.40 54.07 54.06 53.89 51.86 46.30 45.62 43.63 44.58 47.14 48.05 48.29 48.67 50.26 47.81 44.89 41.31 45.21 46.72 46.58 46.43 45.88 46.26 43.46 42.09 40.45 33.53 29.98 29.14 35.62 33.96 27.23 35.03 39.22 39.48 40.21 38.67 32.09 38.36
52.20 51.61 50.79 50.16 50.40 51.63 57.28 55.55 54.82 46.45 39.02 45.19 46.19 49.50 49.41 47.92 48.13 45.58 48.96 48.64 43.48 47.52 49.25 46.85 44.52 43.27 44.08 45.76 44.66 46.14 36.22 34.07 30.77 24.40 26.26 19.12 38.13 42.88 42.01 39.88 40.59 40.85 41.76 41.62
51.41 51.00 50.80 50.15 50.41 51.15 56.12 55.56 55.25 45.70 35.30 47.14 47.95 48.27 48.21 47.88 48.70 46.94 47.57 48.91 49.30 50.00 48.05 36.54 32.91 31.91 31.13 36.91 43.48 43.27 43.80 33.70 25.59 26.06 25.17 31.18 37.41 40.85 38.91 36.41 35.67 43.00 41.52 41.62
50.95 50.68 50.59 50.70 50.27 50.81 56.72 54.82 55.54 51.70 40.78 42.63 51.80 47.25 47.41 43.17 43.11 43.91 46.64 51.13 51.66 50.70 37.92 31.23 27.76 27.15 32.96 33.10 37.87 41.56 42.23 36.41 29.19 27.05 18.75 16.69 33.67 42.33 44.64 42.84 28.85 43.45 42.76 41.08
50.75 50.57 50.49 50.56 50.33 50.55 55.34 54.88 55.98 55.46 45.28 48.92 50.09 45.94 45.17 48.60 45.90 42.57 45.37 45.97 44.36 47.55 34.52 33.51 30.97 29.81 39.06 31.15 29.90 27.29 27.62 27.23 24.10 29.00 18.31 28.51 39.82 43.61 44.54 29.19 30.62 42.64 42.71 41.05
50.96 50.37 50.29 50.43 50.53 50.37 54.62 54.55 55.55 55.14 46.64 48.39 52.05 52.70 48.95 48.65 47.09 39.14 44.91 41.64 41.44 35.98 33.20 30.95 31.64 30.19 31.67 32.31 37.04 32.53 29.11 26.10 28.37 29.13 22.67 22.08 43.22 42.09 33.85 38.14 43.19 43.28 41.59 41.64
50.98 50.09 50.13 50.49 50.53 50.50 51.59 54.39 55.85 56.91 52.64 50.23 53.71 52.77 52.71 51.70 51.27 48.62 46.65 42.55 46.13 44.02 37.70 34.20 35.60 31.29 34.70 31.09 27.54 40.44 31.61 34.89 31.22 32.31 30.84 39.71 43.55 42.14 44.25 44.52 43.36 41.69 42.92 43.87
50.65 50.31 50.14 50.49 50.81 50.84 51.74 55.06 55.10 56.37 48.41 48.77 49.48 49.16 53.42 55.69 54.21 55.24 45.67 45.67 50.08 48.03 48.11 40.16 39.56 31.97 36.04 29.09 32.32 32.36 39.44 43.40 33.69 36.09 41.04 42.29 42.74 45.33 45.96 45.13 43.64 43.78 43.78 44.04
50.25 50.17 49.97 49.60 50.84 50.83 51.57 54.94 55.36 53.19 47.05 36.05 45.88 53.27 51.46 54.60 55.10 54.91 54.56 52.04 52.31 50.51 44.50 37.70 36.23 32.09 42.04 32.95 35.85 33.34 38.54 41.55 38.81 35.74 41.17 42.53 43.92 44.40 44.40 44.32 45.19 44.84 45.98 45.34
48.10 48.30 48.78 49.04 50.27 50.52 52.51 56.17 55.43 55.43 50.69 38.19 40.44 51.02 52.77 54.35 54.04 53.27 53.65 51.62 49.91 45.16 38.52 35.14 34.11 34.48 36.98 33.01 34.34 32.65 42.85 39.27 34.19 32.41 42.01 41.55 41.81 43.75 45.87 44.74 44.75 45.58 43.82 39.59
47.59 48.64 49.10 49.33 48.84 49.51 54.45 50.32 54.62 52.94 55.41 43.68 36.53 48.74 48.48 50.61 51.65 51.34 50.94 51.09 49.74 47.86 39.65 34.76 41.53 47.16 39.15 33.78 31.93 41.29 45.16 46.01 45.46 41.14 45.31 44.68 44.34 44.49 45.00 43.63 42.15 41.04 40.04 39.55
47.47 48.74 49.32 49.53 49.53 52.47 49.48 48.02 50.34 49.54 53.04 40.91 37.05 37.91 46.08 47.71 49.80 48.50 48.83 50.19 48.05 46.59 40.56 36.01 35.86 39.56 43.04 32.71 33.94 41.79 44.87 45.26 45.21 45.96 44.68 41.73 43.03 42.32 44.37 42.33 41.11 41.71 40.02 37.32
47.48 48.11 49.38 49.75 49.35 48.96 50.19 52.02 50.10 49.92 50.27 44.86 37.34 37.83 37.14 47.06 38.17 38.55 44.82 40.20 43.13 44.21 42.20 41.00 37.32 39.03 34.65 32.22 40.78 43.73 45.60 45.71 44.24 44.24 44.64 44.20 44.88 44.23 43.00 41.71 38.35 35.89 34.58 34.34
48.50 49.18 49.32 52.18 49.73 45.60 48.61 48.33 49.00 54.38 49.13 38.01 34.04 35.08 33.33 44.57 39.59 39.24 38.41 42.40 35.49 42.64 35.50 37.45 39.77 35.30 35.38 39.61 41.71 43.20 43.73 42.87 42.32 43.82 44.58 44.54 42.76 40.24 38.00 36.41 35.23 33.87 32.96 33.04
48.50 49.69 46.76 39.11 43.08 47.54 48.37 49.38 43.86 40.69 40.38 40.54 35.67 39.37 36.72 42.12 35.85 34.76 35.65 34.40 33.84 33.66 35.39 39.10 33.30 36.01 40.38 43.20 43.54 43.42 43.28 44.23 44.60 41.42 39.54 39.24 37.79 35.16 34.82 34.57 34.65 34.06 32.73 32.78
45.46 39.82 36.94 43.27 47.11 47.75 42.06 38.04 36.16 37.94 35.35 39.26 38.96 39.14 37.20 40.60 35.00 34.20 35.11 33.11 33.30 31.49 31.09 34.11 31.20 32.14 36.55 41.25 42.23 42.85 44.31 44.46 43.08 40.92 39.71 38.40 36.57 34.89 34.08 33.61 32.31 31.66 30.85 30.49
43.67 43.22 44.50 42.90 39.52 36.19 35.85 34.40 34.20 34.58 34.85 35.24 35.11 36.74 39.08 36.72 41.61 34.49 33.66 33.25 32.56 29.65 35.22 32.19 28.99 32.39 39.73 40.64 40.50 41.84 40.82 39.90 38.46 38.34 36.71 36.44 36.31 35.33 32.73 31.66 31.25 31.44 30.93 26.67
42.38 38.19 34.53 36.86 32.16 31.24 31.44 30.11 31.61 32.22 32.56 33.81 33.45 32.93 33.82 35.16 36.58 32.75 32.53 31.62 30.57 33.40 31.45 29.30 29.23 38.54 40.22 40.66 35.62 35.08 36.09 34.85 35.04 35.62 35.78 35.01 34.28 33.66 30.62 29.35 30.71 26.78 30.16 31.10
34.77 33.46 30.64 31.42 30.69 30.69 30.32 31.05 31.61 32.21 32.39 32.57 32.93 32.18 32.74 32.21 32.39 31.98 30.29 31.06 31.24 28.11 25.20 22.67 33.19 36.88 38.00 38.32 35.22 33.78 32.25 30.79 30.94 31.89 32.41 30.69 30.40 29.98 28.44 28.50 28.11 23.86 28.02 29.92
33.43 33.39 29.72 30.13 31.44 31.83 32.00 32.19 32.19 32.69 34.49 33.30 32.54 32.37 33.43 31.45 30.13 31.09 29.56 26.97 26.20 27.91 28.11 30.74 32.98 34.77 35.26 33.57 33.62 31.42 29.97 29.25 30.45 31.70 30.51 27.71 27.05 28.25 29.96 30.06 29.96 30.40 26.81 28.14
32.74 32.53 30.05 32.18 32.19 31.85 32.06 32.06 31.88 35.01 32.93 33.66 33.28 31.27 31.26 29.21 29.78 28.10 28.08 27.12 25.86 29.24 31.29 31.86 32.85 32.65 32.37 32.68 32.69 32.33 32.58 31.60 31.69 31.84 31.35 30.27 27.07 25.31 30.19 30.32 29.41 26.74 28.86 28.87
32.00 30.70 33.43 32.51 32.28 32.11 32.42 32.77 33.30 36.91 33.30 31.62 31.83 29.14 26.57 29.45 27.37 27.14 30.17 28.11 31.05 32.48 31.64 31.80 32.51 32.28 32.41 32.64 32.90 31.11 31.72 31.98 31.90 31.90 31.43 30.93 30.76 26.99 27.57 28.70 31.66 30.81 30.98 28.60

GFSNW_sfc_wetblb_012.txt.gz
Wetbulb
50.95 51.48 51.67 51.67 51.95 52.52 52.29 50.56 42.34 55.37 51.76 39.98 42.35 41.43 47.84 46.97 47.28 49.87 48.39 47.56 46.52 43.65 43.91 42.76 41.98 41.53 43.52 46.95 46.11 40.06 42.02 37.28 29.98 37.40 42.67 43.73 41.23 39.19 37.51 26.83 29.80 27.33 26.28 27.65
50.04 51.25 51.34 51.39 51.58 52.24 51.82 47.71 48.47 55.75 49.71 33.49 34.62 45.07 47.81 47.85 46.63 46.74 46.65 46.07 47.29 47.11 43.53 40.10 43.49 43.38 46.67 46.07 44.24 41.40 41.32 35.78 28.27 34.20 39.22 41.75 39.08 40.13 40.61 35.97 29.79 27.87 21.00 26.53
49.22 50.81 51.26 51.18 51.32 51.60 53.40 49.30 40.79 46.50 49.14 45.59 43.36 44.18 44.31 44.95 48.70 47.85 48.21 46.80 47.60 45.15 43.14 44.81 41.87 42.57 46.19 45.67 43.67 44.61 44.49 38.74 33.54 29.57 33.65 36.46 33.67 36.97 38.94 35.81 26.81 28.45 28.17 32.87
49.49 51.34 50.91 50.80 51.29 50.97 52.06 50.55 44.03 44.37 37.62 40.69 44.54 46.61 45.87 44.24 43.60 47.47 47.91 45.26 45.82 43.89 38.77 41.52 40.47 43.13 43.58 44.85 44.22 43.91 41.64 34.34 36.41 36.50 37.81 37.57 36.14 35.53 35.64 34.75 34.89 29.58 32.48 34.19
50.77 51.10 50.50 50.46 50.77 51.27 50.95 49.41 47.53 45.72 40.90 44.59 44.87 44.86 44.47 44.59 45.66 45.79 44.53 43.25 45.61 44.66 40.56 41.76 40.18 42.17 41.19 40.15 42.51 41.62 42.27 32.42 32.66 32.32 37.79 37.26 33.23 35.88 36.00 35.76 36.46 35.87 35.59 35.65
51.64 51.02 50.20 50.15 50.58 51.99 52.34 54.14 51.69 47.14 42.47 41.22 41.51 42.49 44.96 46.02 46.89 46.44 47.92 45.76 42.72 40.03 43.57 44.14 43.98 44.45 44.60 44.26 41.64 40.53 37.66 31.79 28.22 26.72 33.01 32.42 26.04 34.16 36.96 37.05 37.95 36.82 31.30 36.74
51.61 50.87 49.93 49.86 50.43 53.14 57.41 55.02 51.77 44.50 37.18 41.83 43.21 47.50 47.35 46.08 46.13 44.51 46.81 46.23 42.34 46.43 48.40 44.27 42.77 41.25 42.36 44.00 43.34 42.92 34.36 31.97 26.59 22.39 23.96 16.68 35.16 40.48 40.09 38.08 38.67 39.76 39.18 39.07
50.73 50.28 50.06 49.78 50.18 51.17 53.23 53.12 51.60 43.36 33.90 43.90 45.55 46.40 45.95 46.36 46.45 45.24 45.88 46.73 47.25 47.61 43.68 33.45 31.80 30.52 31.89 35.51 41.68 42.26 39.88 29.78 26.09 19.92 23.61 28.17 34.69 39.07 37.77 35.54 34.77 41.03 39.67 39.83
50.03 49.98 49.94 49.79 50.16 51.27 53.08 52.41 53.70 46.37 39.49 40.45 48.91 44.60 45.69 41.62 40.89 42.04 45.10 49.45 49.86 45.36 34.05 29.63 26.51 24.92 29.23 31.25 36.34 39.94 38.86 32.45 26.79 26.83 16.86 15.28 30.23 39.94 42.57 40.89 29.45 41.55 41.32 39.82
49.80 49.91 50.03 50.09 50.08 50.96 53.73 51.92 54.06 51.42 43.26 46.61 47.79 43.52 43.92 45.79 42.77 40.54 43.14 44.01 42.95 42.61 28.93 31.56 28.22 29.32 36.03 29.78 28.61 26.32 26.92 24.57 23.08 18.39 16.14 25.92 35.66 41.38 42.50 28.37 29.75 41.68 41.38 39.97
49.44 49.60 49.75 49.74 49.86 50.46 53.48 51.77 53.73 51.51 44.14 46.49 50.81 50.69 46.59 46.57 43.82 38.48 43.14 40.50 39.17 35.27 29.63 26.76 31.28 30.12 31.04 30.76 34.73 31.59 28.78 25.86 24.06 22.99 17.01 21.66 40.06 40.74 33.62 36.31 40.65 42.18 40.91 40.68
49.27 49.37 49.64 49.86 50.03 50.28 53.12 50.85 54.63 54.83 48.89 47.82 51.67 51.42 50.78 50.51 49.05 46.46 43.93 41.24 41.96 40.05 34.97 34.18 35.43 31.37 33.80 28.99 27.74 37.83 30.97 32.28 29.81 31.97 31.00 37.94 40.91 40.51 41.49 43.29 42.02 40.95 40.25 41.30
49.38 49.35 49.12 49.61 50.11 50.67 53.49 52.44 52.83 51.98 43.55 45.23 47.48 47.84 52.25 54.04 52.73 52.21 44.01 42.44 48.21 45.48 42.77 37.09 33.29 27.22 32.53 29.69 31.62 32.77 38.04 41.01 33.03 34.58 39.14 39.96 41.61 42.77 44.06 43.81 42.35 42.64 42.64 42.03
48.34 47.78 47.78 48.09 49.08 50.28 52.92 52.39 52.90 48.50 42.80 34.83 43.35 51.97 50.13 53.65 54.13 53.72 51.54 50.45 49.45 46.08 41.24 36.17 35.53 29.32 38.34 29.80 33.18 31.99 36.25 39.65 37.67 34.18 38.79 40.86 42.55 42.72 43.00 42.40 42.63 42.93 43.95 44.82
48.09 48.25 48.63 49.21 48.83 49.59 53.29 53.15 51.78 52.68 46.68 37.62 39.11 48.86 51.44 52.31 52.80 52.29 51.57 50.36 47.58 41.95 36.52 33.16 33.13 31.52 34.89 31.95 31.44 31.85 40.18 37.83 33.42 33.67 39.67 39.36 40.65 42.73 43.77 42.80 43.29 45.61 43.32 37.52
47.94 48.45 49.51 50.09 49.58 50.13 53.37 48.06 52.41 50.78 51.89 41.42 34.71 45.30 46.34 48.92 51.06 50.51 49.70 49.19 47.43 43.90 38.63 35.10 37.87 43.96 35.98 33.70 34.89 39.41 43.40 44.38 43.35 40.21 44.01 43.98 43.69 43.49 44.62 43.37 42.61 40.95 38.40 35.47
47.94 48.98 49.06 49.68 48.49 50.07 48.74 44.90 49.53 48.95 49.69 39.60 36.56 36.11 43.63 46.52 47.93 45.07 45.88 46.93 45.87 44.80 38.53 35.25 35.72 36.78 40.28 33.46 32.04 39.89 43.17 44.60 44.34 45.09 43.95 40.94 41.81 40.70 43.42 40.83 40.86 38.12 35.74 34.89
47.96 49.26 49.48 49.82 48.68 49.98 49.13 49.89 48.75 49.48 46.84 41.23 34.84 33.22 35.83 44.98 36.69 37.51 42.18 38.96 42.34 41.88 40.14 38.40 36.76 37.12 34.20 34.23 39.91 42.74 44.44 44.96 43.61 44.31 43.26 43.12 43.15 42.67 40.41 39.99 36.65 34.71 33.14 33.02
48.56 49.03 49.78 48.83 47.58 45.21 49.10 47.51 47.20 51.53 46.26 37.80 32.96 34.10 32.57 42.04 39.04 37.11 35.49 39.47 33.87 39.66 35.89 35.86 38.09 34.59 35.31 39.02 40.33 41.94 43.12 42.53 42.36 42.98 42.63 43.11 41.84 39.67 36.63 35.84 35.10 32.89 31.89 31.95
48.57 47.76 43.45 39.48 43.27 47.18 47.91 45.86 40.76 40.87 41.82 38.53 34.21 37.89 35.81 41.15 34.42 34.06 34.03 33.83 33.32 33.68 35.75 38.88 33.50 34.96 39.21 40.43 43.08 43.00 42.38 42.99 43.08 39.40 37.46 35.71 35.26 34.35 34.77 34.47 34.49 33.19 32.27 31.85
45.87 40.93 37.51 43.39 46.84 45.26 40.55 36.59 34.92 36.90 34.97 38.21 37.08 37.21 36.35 37.78 34.83 34.05 33.82 33.14 32.78 32.10 31.03 34.38 30.45 31.81 34.98 39.47 40.23 41.33 41.36 40.86 40.28 40.50 38.49 37.21 36.16 34.95 34.42 32.81 31.90 31.53 31.09 30.75
43.96 43.55 44.42 42.62 39.47 36.64 35.66 34.21 34.05 34.05 33.80 34.47 34.77 35.30 38.91 35.86 38.29 35.09 33.83 33.08 32.58 29.47 34.52 32.22 29.34 33.03 37.10 37.93 36.87 36.68 37.97 37.95 37.02 37.48 36.41 36.31 35.87 34.95 32.11 30.83 30.37 30.67 30.24 25.65
42.63 38.53 35.11 37.68 32.66 32.39 33.35 32.52 32.02 32.20 32.33 33.64 33.32 33.68 33.67 35.34 36.61 32.78 32.75 31.50 30.61 32.61 31.12 29.72 30.93 37.58 34.77 35.27 35.69 35.03 36.12 35.50 35.31 35.71 35.95 34.88 33.55 32.32 30.36 29.29 30.05 26.09 29.11 30.24
35.11 33.64 30.49 31.65 29.76 29.96 29.96 30.60 31.62 32.02 32.22 32.42 32.60 32.01 32.57 32.22 32.40 32.02 30.55 31.09 31.10 28.14 25.73 23.86 32.39 35.71 35.03 35.74 35.58 34.07 32.54 31.52 31.35 31.51 31.34 30.53 29.53 29.17 27.54 25.30 25.09 23.95 26.17 28.91
33.19 31.48 28.82 28.16 30.62 31.83 32.15 32.22 32.20 32.57 33.80 32.78 32.39 32.02 33.29 31.28 30.14 30.73 29.03 26.76 25.47 27.36 26.66 30.00 31.86 35.01 34.39 32.58 32.20 31.14 29.88 29.33 30.29 30.65 29.74 27.32 26.38 26.98 28.33 28.20 27.36 28.88 24.05 23.62
33.11 32.06 30.08 31.83 31.41 31.48 32.07 32.07 31.90 34.14 32.58 32.96 32.57 31.10 30.35 28.11 29.04 26.80 26.95 26.00 24.57 28.15 30.39 32.07 32.90 32.93 32.27 32.91 32.19 31.69 32.25 31.69 31.29 31.08 31.03 29.74 25.33 23.30 29.07 29.07 27.06 24.83 23.61 25.74
30.42 30.26 32.55 31.59 32.04 31.63 32.26 32.63 32.96 35.87 32.94 30.53 31.09 25.62 24.91 28.84 26.62 26.41 29.78 26.44 29.26 31.48 32.40 31.94 32.06 31.77 32.10 32.02 32.44 30.95 31.63 31.67 31.40 31.39 30.96 30.26 29.91 26.21 26.43 26.99 30.54 30.05 30.18 26.45

GFSNW_sfc_wetblb_018.txt.gz
Wetbulb
52.22 51.94 51.86 51.84 51.87 51.82 51.34 43.72 38.27 50.24 46.74 39.53 38.34 38.82 44.22 46.23 43.82 46.27 45.37 44.22 41.99 39.72 40.33 39.13 38.63 38.45 39.95 42.91 43.15 38.08 38.90 35.17 29.57 33.44 39.16 40.53 37.56 34.86 33.58 25.47 27.02 25.50 24.48 25.65
51.65 51.43 51.46 51.63 51.71 52.71 49.90 43.85 47.86 53.20 46.05 32.61 32.22 40.10 44.05 45.28 43.25 43.47 43.63 42.65 43.85 43.71 40.53 37.43 39.68 40.13 43.18 41.74 40.89 39.20 39.13 33.67 28.40 31.73 35.63 37.62 35.49 36.58 34.56 31.56 28.95 27.70 20.61 25.47
51.19 51.26 51.28 51.41 51.57 52.68 49.94 46.11 41.51 45.08 43.69 39.93 39.01 39.10 40.68 41.44 45.21 44.27 44.90 43.65 44.15 42.10 40.27 41.55 38.92 39.27 42.48 41.66 40.95 43.92 42.05 34.93 31.36 28.03 30.38 33.32 32.06 35.22 34.55 32.71 24.62 26.35 26.21 28.44
49.95 50.56 51.13 51.41 51.27 51.87 51.26 44.12 41.56 43.94 38.77 40.12 38.72 40.69 42.11 40.99 40.56 44.36 44.54 42.29 42.41 41.20 36.99 37.95 37.29 40.05 39.74 41.12 42.98 41.32 38.31 32.54 32.63 32.68 34.07 33.58 32.24 32.86 34.28 32.52 31.65 28.84 29.86 29.70
48.87 50.61 51.00 50.93 51.09 51.49 48.77 46.50 41.55 40.00 38.75 43.50 42.86 40.07 41.42 41.65 41.95 42.51 40.97 41.22 41.98 41.13 39.05 39.72 38.12 39.45 37.34 35.55 40.08 38.43 38.18 30.50 30.29 31.22 33.73 33.37 31.50 33.29 32.95 33.15 33.01 32.78 32.28 32.43
50.10 50.95 50.58 50.62 50.95 51.06 47.13 47.96 47.41 43.27 37.91 39.07 39.94 39.91 42.86 43.22 43.81 43.64 44.07 43.47 40.59 37.81 40.44 41.72 41.17 41.17 40.84 40.54 39.10 36.51 33.82 30.26 26.89 23.65 29.16 27.92 24.48 30.82 32.71 32.54 33.46 33.55 29.71 34.71
50.94 50.34 50.10 50.18 50.79 51.20 50.49 50.04 47.64 41.59 33.27 36.34 40.49 43.30 44.24 43.31 43.04 42.20 42.98 43.19 40.11 42.12 43.30 41.85 41.08 39.51 40.75 41.47 40.23 38.97 31.61 28.62 23.65 20.78 22.64 16.63 31.49 35.76 35.34 34.66 35.31 35.81 35.61 36.49
50.40 49.86 49.52 49.94 50.27 51.16 51.33 51.07 47.78 41.47 30.39 36.64 40.27 42.93 43.05 43.46 43.81 42.52 42.97 44.43 43.78 43.88 39.07 34.09 33.33 30.01 32.16 33.34 37.83 35.18 35.13 28.05 23.41 19.59 20.99 27.30 31.92 34.34 34.70 33.70 33.52 38.12 36.99 36.88
49.40 49.44 49.31 49.62 50.21 51.49 53.14 50.96 47.80 45.24 39.01 38.77 44.25 42.74 42.32 39.22 38.32 39.09 41.71 45.93 44.51 40.41 30.27 28.62 25.68 25.93 30.23 29.23 33.58 36.90 33.45 29.86 25.37 18.04 16.20 15.10 29.63 34.78 38.50 37.58 28.90 37.75 38.73 37.09
49.40 49.33 49.25 49.92 50.72 51.87 53.16 50.36 49.83 47.02 41.71 44.08 44.44 41.55 41.55 42.10 39.72 38.14 41.05 42.02 39.51 39.12 26.50 22.93 23.61 25.89 31.53 27.81 26.95 26.65 26.49 24.58 20.28 13.42 15.34 24.51 33.04 38.16 39.30 28.36 30.19 37.89 39.16 37.91
49.23 49.25 49.23 49.86 51.37 51.44 54.24 50.67 51.71 47.67 42.32 44.92 47.86 47.48 43.49 43.10 41.29 37.25 40.97 39.48 37.95 31.71 29.25 26.44 26.17 23.44 29.38 29.58 31.71 31.11 29.62 27.58 21.66 21.64 14.66 21.57 36.52 38.58 33.03 36.17 36.13 39.51 39.29 38.63
47.32 47.07 48.12 49.31 50.82 51.46 54.03 52.02 52.98 50.59 46.90 46.06 49.11 49.58 49.09 47.98 45.94 43.10 40.77 41.25 39.45 38.84 31.72 26.30 26.78 29.31 28.97 27.86 26.10 34.01 28.91 31.23 27.97 29.10 29.27 35.47 37.39 37.82 39.20 39.11 38.76 40.08 39.86 40.46
47.59 47.75 48.30 49.40 50.65 51.53 52.55 51.73 49.10 46.62 42.54 44.69 45.97 45.99 50.40 51.78 50.23 48.72 41.76 38.85 43.55 40.29 38.77 32.42 28.62 25.25 29.36 26.83 28.51 29.32 34.66 36.18 30.09 32.13 35.86 36.19 37.47 39.08 39.94 40.31 40.44 41.02 41.61 40.98
47.52 48.28 48.84 50.35 50.71 51.21 51.80 50.35 48.84 44.16 40.29 35.21 42.09 49.30 47.99 51.19 51.98 50.88 48.24 45.88 43.44 41.21 38.55 31.88 31.41 27.08 34.47 28.21 31.44 30.75 34.79 36.26 34.09 32.06 36.55 36.75 39.25 40.45 40.90 40.93 41.94 41.80 42.26 42.24
48.58 48.53 49.27 51.09 51.08 51.15 51.56 49.66 48.80 48.44 43.48 36.19 37.03 46.13 47.47 49.16 50.49 48.87 47.87 46.15 43.50 39.59 34.59 32.69 31.52 29.45 32.38 32.48 31.91 30.34 37.03 35.82 31.46 31.16 37.73 37.50 37.91 40.49 41.98 41.77 41.93 42.49 41.58 40.16
47.83 48.33 48.30 49.17 50.23 49.90 45.89 43.31 48.35 49.70 46.05 40.71 35.46 42.52 43.93 46.37 48.05 47.62 47.00 46.39 43.23 40.99 37.79 32.94 35.06 37.96 33.91 32.92 31.70 37.48 39.53 40.41 39.45 38.57 38.42 39.45 40.04 41.31 41.99 41.98 41.28 40.95 37.39 34.56
48.39 48.58 48.56 49.15 49.45 49.55 43.41 40.40 46.02 47.34 45.75 38.68 35.57 34.02 40.80 42.83 44.41 42.50 43.55 44.67 42.50 41.46 38.21 33.03 34.16 35.68 36.32 30.49 28.39 39.62 40.56 41.45 42.13 42.38 40.87 39.67 40.37 40.93 41.93 41.90 37.12 35.89 34.91 34.93
48.91 48.31 48.37 48.76 48.85 48.63 47.23 48.06 47.61 47.30 42.03 38.21 32.18 31.71 34.88 42.24 37.10 37.65 41.90 38.17 40.71 41.08 38.88 37.01 34.13 36.35 34.69 33.25 37.61 39.99 41.56 42.27 42.01 42.07 42.26 41.44 41.13 39.25 35.26 35.45 34.78 33.29 34.25 35.45
48.88 47.53 48.15 48.24 46.58 46.31 46.89 47.23 47.05 46.76 43.57 34.29 31.88 31.31 30.65 41.05 37.75 36.38 37.05 38.69 34.22 39.29 35.32 35.13 38.28 33.30 33.51 35.96 35.39 37.03 38.39 39.19 40.33 41.62 41.28 40.84 36.58 33.34 33.58 34.51 35.47 35.13 34.35 33.57
47.30 46.48 41.92 38.62 43.81 47.14 46.52 44.01 39.67 38.95 38.11 39.15 33.31 36.83 34.49 41.63 34.22 34.23 33.98 33.86 33.83 34.01 33.28 38.65 33.68 33.81 36.26 33.23 33.91 34.48 35.14 37.40 40.03 36.22 33.93 32.19 32.98 34.52 35.22 35.25 36.04 35.60 34.15 32.05
43.71 39.21 37.86 44.71 45.05 42.69 37.15 34.11 34.22 37.18 34.50 37.19 36.00 35.92 35.21 39.41 35.39 34.42 32.38 33.61 32.41 32.04 32.24 33.84 31.94 31.22 30.31 33.63 33.85 34.95 35.52 35.87 35.62 35.81 35.99 36.59 36.12 35.15 35.08 34.47 33.43 32.10 31.25 30.54
43.07 42.68 42.58 39.51 37.28 35.25 33.72 32.54 33.66 33.92 33.16 33.81 34.39 35.08 38.42 35.13 35.82 35.10 33.86 32.15 32.18 29.79 33.91 32.20 28.50 29.43 32.80 33.79 34.73 36.07 36.32 36.25 35.80 36.39 35.92 36.60 36.67 36.40 34.48 33.26 31.65 30.82 30.46 28.13
41.40 37.70 33.82 36.62 33.46 33.27 26.99 30.86 31.97 32.04 32.18 33.12 33.13 33.31 32.94 34.89 35.95 33.13 32.91 32.00 30.99 32.66 30.36 29.41 30.37 34.56 35.85 35.12 35.51 34.80 35.92 34.94 34.35 34.52 34.87 34.27 33.08 31.79 30.34 29.29 29.92 28.37 29.29 30.03
35.97 34.22 33.10 31.74 30.55 29.95 30.15 31.07 31.62 31.46 32.18 32.39 32.59 32.20 32.74 32.23 32.91 31.85 31.44 31.28 31.07 28.34 25.29 24.78 30.70 32.91 33.24 33.93 34.38 34.74 31.85 30.07 31.07 30.79 30.47 30.16 30.17 29.71 28.40 27.36 27.11 26.47 27.73 28.49
33.09 32.32 27.97 27.68 30.17 31.23 31.46 32.02 32.18 32.20 33.45 32.59 32.39 32.38 33.37 31.44 30.62 30.33 29.18 22.43 18.82 21.41 19.60 29.07 31.47 32.39 32.92 32.48 32.57 29.91 29.26 26.56 28.84 30.11 29.68 26.93 26.65 27.18 28.43 28.62 28.36 28.69 26.29 25.54
32.57 31.64 29.79 31.09 30.69 30.73 32.04 32.07 32.06 33.96 33.39 32.75 32.71 31.23 28.96 27.71 29.00 25.65 23.09 21.05 16.51 19.85 28.86 31.67 32.38 31.62 32.00 32.80 32.52 30.83 31.69 31.43 30.74 30.83 30.98 29.75 25.84 24.26 28.49 28.00 26.31 22.37 21.32 22.66
31.08 30.49 32.38 31.97 32.18 31.86 32.07 32.44 32.59 35.23 32.74 30.69 30.36 22.07 23.65 28.22 24.24 23.59 27.21 23.76 26.07 31.09 31.85 32.51 33.01 32.42 32.77 32.97 32.61 30.62 31.13 31.20 30.54 30.01 29.74 29.63 28.90 24.08 24.88 26.86 29.73 28.87 28.31 22.22

GFSNW_sfc_wetblb_021.txt.gz
Wetbulb
51.95 51.87 52.30 52.24 51.87 51.84 51.27 45.60 40.76 51.88 49.16 42.01 40.15 39.64 42.89 46.56 46.32 47.99 47.07 45.52 44.07 42.06 42.55 41.53 40.74 40.78 42.95 44.99 46.07 42.60 42.37 39.46 36.18 38.10 42.63 44.10 42.51 39.60 38.80 34.10 31.03 30.79 30.97 34.17
51.68 51.63 52.13 51.57 51.58 52.50 49.53 43.33 49.08 54.04 48.30 36.71 36.59 42.14 45.24 46.97 45.04 45.41 45.97 45.16 45.86 45.94 42.72 39.91 42.03 42.48 45.23 44.55 44.43 42.67 42.72 38.29 34.07 36.40 39.90 41.94 40.51 39.89 36.97 35.54 34.68 31.72 33.07 34.81
51.42 51.62 51.56 51.33 51.44 52.56 50.44 47.61 43.58 47.40 43.51 42.00 41.01 41.39 42.94 43.38 46.53 46.10 46.15 44.92 45.90 44.35 42.73 43.17 40.77 41.78 44.73 44.69 44.27 43.88 44.07 37.86 36.87 33.65 35.67 38.09 36.90 38.17 37.32 37.60 33.16 32.17 33.93 36.17
51.35 51.58 51.34 51.27 51.33 51.87 50.09 45.61 43.38 46.62 40.36 39.49 40.52 42.47 43.38 42.65 42.69 46.43 46.47 44.76 44.80 43.02 39.78 40.70 39.91 42.36 42.09 43.65 44.19 43.73 42.45 37.26 37.00 36.10 36.66 37.00 36.65 37.03 36.93 36.05 36.31 35.19 35.74 34.66
51.03 51.16 50.96 50.91 51.14 51.76 49.29 44.05 42.44 41.43 41.14 43.03 41.20 40.55 42.59 42.53 43.99 44.67 43.87 43.41 44.25 44.90 41.27 42.22 40.25 41.82 40.39 39.42 43.07 41.89 40.40 35.91 35.74 34.29 35.92 35.48 35.30 36.50 36.76 37.16 36.68 36.45 36.17 36.64
49.72 50.45 50.63 50.60 51.12 51.67 48.50 49.19 47.01 44.26 37.74 41.81 39.17 39.55 42.18 43.48 45.29 45.28 45.48 45.19 43.26 41.63 44.33 44.74 43.22 43.15 42.81 42.76 42.15 39.07 37.69 35.07 32.68 29.97 31.69 32.08 29.86 34.82 36.73 36.60 37.85 39.27 35.28 41.00
49.16 50.47 50.41 50.44 51.36 50.89 51.16 50.35 46.76 41.95 34.59 38.91 39.86 43.09 44.82 43.81 44.74 43.87 44.68 45.12 43.46 44.24 45.98 44.66 44.51 42.64 42.32 42.17 39.83 40.25 34.90 32.20 29.10 30.08 27.81 26.50 36.60 39.48 38.78 37.45 38.41 39.04 38.65 40.01
50.55 50.12 49.92 50.08 51.07 51.51 52.21 51.50 47.75 41.86 33.56 38.47 40.99 43.39 43.53 44.26 44.79 44.02 44.53 45.26 44.81 45.51 42.75 38.53 36.30 34.93 35.49 36.38 37.64 36.55 37.25 32.81 27.60 30.09 28.11 31.54 36.02 35.68 36.95 36.69 38.19 40.83 39.86 40.59
49.69 49.45 49.63 49.92 50.73 51.61 53.11 51.55 49.09 45.78 38.71 38.17 44.00 43.46 43.78 41.01 40.66 41.70 43.13 46.02 45.80 42.02 35.08 34.39 31.98 31.71 34.76 33.05 36.11 38.38 35.19 34.01 33.85 26.79 27.58 25.57 34.85 37.50 41.76 41.53 34.68 41.55 41.63 40.44
49.19 49.22 49.36 49.88 50.23 51.37 53.20 51.88 50.27 48.57 43.11 46.03 45.69 43.27 42.99 43.61 42.04 40.51 41.65 43.03 43.12 42.68 33.22 32.36 32.43 32.85 33.98 31.78 29.80 30.09 32.41 30.77 30.51 23.31 29.50 31.08 36.58 39.89 42.19 33.62 36.26 40.11 42.04 41.77
49.17 49.06 49.43 49.75 50.06 51.37 53.38 51.59 52.41 50.01 44.09 47.18 49.71 47.73 44.04 43.93 44.03 40.77 42.82 42.36 41.57 36.60 34.58 34.52 32.36 33.14 33.68 33.05 34.59 33.72 32.92 31.20 29.84 25.36 26.43 28.04 38.78 41.07 37.88 41.97 41.72 41.96 42.76 42.76
48.06 49.03 49.64 49.56 50.19 50.78 52.74 51.83 53.17 50.78 48.49 47.54 50.22 50.85 51.28 50.90 48.11 44.80 42.96 44.30 41.65 41.82 36.74 33.31 32.32 32.49 31.76 31.55 32.55 36.10 32.68 35.92 34.76 33.59 35.07 40.03 40.47 42.78 43.92 42.54 42.23 43.55 43.50 44.26
47.90 49.03 50.01 50.47 50.92 51.22 53.37 52.96 51.00 47.99 44.83 46.54 47.96 47.83 51.28 51.98 50.97 50.85 44.27 41.60 45.22 42.02 41.73 36.30 34.58 33.29 34.33 32.38 32.67 34.88 36.96 37.75 36.10 35.51 39.26 37.98 40.15 42.50 42.58 43.77 43.87 44.41 45.12 45.53
48.64 49.16 49.60 50.26 50.80 51.18 52.66 51.56 50.26 45.89 42.78 36.73 44.05 49.26 48.61 51.05 52.31 51.52 49.41 45.90 43.85 42.35 41.18 35.76 34.17 34.57 36.12 32.85 35.46 35.29 37.83 37.67 36.18 35.47 38.81 40.14 41.49 42.37 44.66 44.83 43.87 43.66 44.80 45.23
49.58 49.84 49.70 50.32 50.84 51.23 52.26 51.02 50.08 48.73 45.70 38.42 39.91 46.62 47.59 49.50 49.69 47.85 47.46 46.08 44.46 41.95 37.84 34.67 35.70 34.34 35.70 34.35 34.70 34.05 38.73 38.65 36.84 37.08 42.10 41.95 42.28 43.42 44.34 44.16 44.51 44.96 44.28 42.19
48.19 49.29 50.40 50.93 50.47 49.05 49.77 46.23 49.05 48.64 46.44 42.85 37.25 43.28 43.87 46.26 47.89 47.48 46.74 46.72 44.17 42.92 40.68 36.28 37.36 39.57 37.98 33.62 33.68 39.50 40.45 42.05 41.83 41.61 42.16 42.31 43.51 43.41 45.01 44.70 44.61 43.53 42.25 39.06
48.27 49.03 49.66 50.08 49.39 50.35 43.85 42.21 47.08 46.96 46.02 40.15 35.86 36.82 41.51 43.16 44.88 44.14 44.77 46.26 43.50 43.67 39.86 35.65 36.65 38.78 37.68 33.51 34.12 39.43 40.77 41.85 42.86 43.85 43.50 42.57 43.28 43.43 43.26 39.53 36.37 36.47 36.13 36.67
48.16 48.62 48.71 49.11 48.73 48.54 48.03 48.31 47.26 47.10 42.07 39.71 33.96 33.69 37.35 42.80 39.76 38.22 42.26 40.04 42.60 41.94 39.52 37.32 36.08 37.99 37.35 35.00 37.32 36.30 37.18 38.07 42.86 41.62 43.71 43.01 39.48 37.13 35.34 36.66 37.85 36.95 36.10 36.09
47.58 47.67 47.92 48.54 47.12 45.85 46.72 47.07 46.69 46.53 43.83 35.42 31.53 33.14 33.50 42.44 38.07 37.10 38.61 39.83 35.81 39.79 36.19 37.24 39.97 34.34 33.04 32.16 33.05 33.38 34.64 34.83 36.01 38.74 35.75 35.62 35.21 35.70 37.03 37.14 36.25 34.17 33.25 33.42
47.09 46.67 43.44 38.67 44.67 46.58 46.60 43.86 40.26 39.76 38.46 40.09 33.29 36.81 34.66 41.24 35.64 34.92 35.26 35.28 34.74 34.52 36.55 39.15 34.72 33.42 32.49 34.29 34.99 35.40 35.27 35.90 37.55 36.76 32.57 34.49 34.92 34.72 34.86 34.56 34.89 34.71 33.55 32.75
44.68 41.13 39.43 44.65 45.22 43.77 38.18 34.94 35.45 36.28 33.96 37.08 36.09 37.20 36.58 39.58 36.96 34.55 34.72 34.37 33.65 33.21 34.58 34.90 33.21 30.40 30.63 34.34 35.33 36.23 36.63 36.91 36.79 37.19 36.87 36.61 35.79 34.33 33.75 33.56 33.81 34.58 34.33 33.17
43.92 43.65 43.37 41.58 39.07 35.70 35.11 32.91 33.83 34.23 33.31 34.31 34.72 35.25 38.76 35.99 38.60 36.56 34.51 33.29 33.10 31.99 35.60 32.92 29.43 29.95 34.22 34.34 34.69 34.69 35.48 35.81 35.47 36.09 35.43 35.51 35.36 35.62 34.94 34.44 33.56 32.59 32.12 30.95
42.16 38.36 34.79 37.22 34.17 32.23 26.92 31.09 32.33 32.15 32.74 33.44 33.63 33.63 34.01 36.12 35.90 33.47 34.55 32.92 31.75 34.01 31.82 30.12 30.03 33.84 34.34 34.54 35.03 33.82 34.52 34.36 34.85 34.75 34.88 33.73 32.92 32.42 31.65 30.73 31.34 30.90 31.46 31.65
34.36 33.33 31.45 29.63 32.18 30.77 31.17 32.18 32.56 32.00 32.38 32.74 33.47 32.92 33.65 33.10 33.29 32.38 32.74 31.04 31.73 29.96 27.41 26.75 31.40 32.68 33.24 34.81 35.47 34.25 32.99 31.00 32.03 31.71 31.82 31.14 31.00 31.08 30.07 29.06 29.11 28.18 30.07 31.08
32.83 33.42 27.11 27.96 30.49 31.72 31.58 32.17 32.50 32.30 33.57 33.10 33.10 32.92 34.41 32.20 31.63 31.39 30.42 26.10 24.71 25.63 24.59 29.25 31.43 32.61 33.59 32.98 32.95 30.78 30.63 27.54 30.09 31.65 30.97 26.87 27.04 28.23 29.27 29.98 30.06 29.61 26.63 27.14
32.73 31.84 29.83 31.22 30.95 31.11 32.02 32.02 32.02 34.27 32.71 33.07 33.39 31.35 30.43 28.94 30.56 28.32 27.39 25.04 22.33 24.41 30.07 31.85 32.32 32.47 33.06 33.22 32.68 32.27 32.88 32.11 32.04 31.76 31.06 30.15 28.27 27.54 29.28 29.56 29.50 27.81 28.26 27.27
31.23 30.63 32.38 32.20 32.20 31.64 31.84 32.56 32.20 34.76 33.07 31.65 31.22 28.03 26.61 29.53 26.96 26.08 28.83 26.38 28.29 31.60 31.87 32.58 32.71 32.97 33.31 34.28 34.09 32.03 31.47 31.00 30.64 30.68 30.12 29.22 28.99 27.03 27.47 26.60 27.68 27.15 27.74 25.36

GFSNW_sfc_wetblb_024.txt.gz
Wetbulb
51.83 52.95 52.66 52.14 52.15 52.06 51.87 53.84 47.44 59.01 58.96 50.50 50.79 46.66 48.26 48.64 50.35 51.82 49.52 49.91 48.17 46.59 46.97 45.78 44.95 44.90 46.77 49.60 49.86 46.73 47.66 46.78 42.01 43.48 46.64 47.86 47.02 45.01 44.28 38.90 36.30 39.02 38.09 39.22
50.07 52.67 52.15 52.01 51.77 52.11 53.26 50.08 53.40 57.59 54.48 45.71 46.38 47.96 48.33 50.90 49.13 49.74 49.78 48.48 49.49 49.61 47.69 44.35 46.70 47.03 47.44 47.69 48.62 47.92 48.01 45.02 39.63 40.27 43.90 46.15 44.64 45.43 44.27 42.93 42.33 37.85 36.92 39.57
48.69 52.35 51.80 51.64 51.65 52.21 56.28 52.34 48.12 53.06 52.14 51.13 48.63 46.75 47.08 47.15 50.56 49.85 50.37 49.27 50.49 49.12 46.83 48.14 45.88 46.39 46.85 47.39 47.97 43.94 47.38 45.49 43.33 39.65 41.02 44.62 41.83 43.35 43.94 43.27 38.39 38.67 39.60 41.04
48.27 51.80 51.63 51.52 51.61 51.77 54.76 53.45 50.23 53.18 45.73 45.88 48.62 49.18 48.36 46.34 46.86 50.23 51.23 48.80 49.57 48.55 45.18 45.82 45.58 47.27 45.35 46.95 45.35 48.19 48.21 43.03 43.00 42.08 41.96 42.04 42.29 42.74 43.07 41.62 42.69 38.84 41.21 41.04
47.93 51.41 51.45 51.30 51.41 51.85 53.94 50.57 50.26 50.73 50.00 48.80 47.61 45.43 47.24 46.46 48.04 49.33 48.35 48.88 49.51 50.01 47.29 47.91 46.10 47.63 46.67 46.17 47.43 47.54 46.15 42.69 41.70 39.49 40.87 40.72 39.79 42.60 43.21 43.70 43.68 42.85 43.18 42.50
50.63 51.40 50.94 50.78 50.98 52.35 54.40 55.99 53.35 53.35 44.31 47.25 46.53 46.00 47.21 47.63 51.04 48.72 50.01 51.39 49.87 48.37 48.54 50.16 51.17 49.97 49.58 48.61 47.67 46.21 44.71 42.79 39.72 36.37 37.61 38.11 35.65 40.90 42.82 43.12 44.78 44.08 40.79 45.31
51.19 50.83 50.60 50.45 51.00 51.76 58.15 58.09 55.46 51.64 44.74 46.19 45.43 46.83 48.58 49.27 51.00 49.46 48.80 51.17 50.37 48.67 51.99 51.94 51.00 49.55 48.22 47.77 45.81 46.68 42.60 41.60 38.76 37.31 33.82 31.90 41.06 43.66 43.40 43.45 44.66 45.89 45.25 46.29
50.26 50.33 50.15 50.26 50.79 51.23 58.25 58.61 56.11 51.95 40.88 47.48 46.40 47.36 48.36 49.96 49.97 48.81 49.60 49.01 50.39 52.53 49.96 46.92 42.95 43.32 42.75 43.00 43.13 43.36 44.44 41.75 35.36 36.73 34.93 38.48 40.40 40.76 40.41 40.32 41.40 46.25 45.60 46.52
49.18 49.76 49.89 50.23 50.66 51.47 57.85 59.03 58.31 56.25 48.26 46.12 49.29 48.19 49.74 48.56 49.07 48.11 46.26 48.54 50.98 48.54 47.70 45.28 40.43 38.39 40.94 38.88 40.83 42.82 41.35 42.12 41.50 35.03 35.37 33.54 40.62 42.20 45.52 45.43 38.55 45.10 46.24 46.45
49.53 49.49 49.63 50.05 50.31 51.43 57.84 57.46 57.25 57.16 52.39 50.76 51.70 48.78 48.68 51.71 50.55 48.83 46.77 46.80 46.89 47.93 45.65 43.25 42.80 40.96 40.95 38.02 36.19 35.49 38.62 38.18 37.37 36.12 36.62 38.73 43.05 43.11 46.09 36.55 39.26 47.00 46.96 47.73
49.11 49.11 49.35 49.69 50.08 51.03 57.52 57.01 57.82 58.00 52.93 51.52 53.06 52.19 50.52 49.96 51.99 48.85 48.15 47.98 47.26 46.46 44.72 44.65 42.40 41.70 40.99 39.66 40.81 39.44 39.05 38.24 37.25 34.96 34.92 33.25 43.90 44.67 41.09 46.09 48.58 47.77 48.39 49.22
48.82 48.89 49.09 49.53 50.19 51.25 55.04 55.49 56.91 58.69 55.71 52.97 55.44 54.66 54.88 54.48 54.95 52.83 50.56 51.14 49.43 50.58 47.33 44.74 43.17 38.39 36.54 40.68 39.40 41.71 38.40 42.82 42.32 41.04 42.16 44.69 46.43 47.74 49.38 48.63 47.86 48.80 48.75 49.61
48.28 48.53 49.14 49.68 50.44 51.40 54.36 56.39 56.40 57.65 54.47 52.91 54.16 52.52 55.02 56.58 55.74 56.39 51.20 51.05 52.03 49.81 50.64 47.82 46.10 37.74 44.18 37.60 41.31 41.50 42.94 43.67 42.08 40.42 44.50 45.19 46.36 47.69 48.43 49.04 48.66 49.44 50.09 49.62
48.34 48.84 49.15 49.48 50.56 51.53 54.25 56.63 55.45 56.26 53.47 42.81 50.31 54.06 52.65 54.79 56.25 55.48 54.43 53.31 51.18 49.76 51.37 47.72 41.44 42.70 44.62 43.23 43.34 43.24 44.74 43.52 42.16 41.60 44.81 46.13 47.30 48.01 48.32 48.86 49.99 49.88 50.54 50.03
48.68 49.01 49.33 49.91 50.96 51.38 55.02 54.95 54.04 54.71 52.54 46.40 49.80 51.87 51.71 53.46 53.91 52.88 53.62 52.78 51.56 50.68 47.45 42.43 45.23 44.42 43.99 41.84 42.66 42.09 44.26 43.38 41.96 41.89 45.58 45.50 46.56 48.63 49.57 48.30 48.82 49.52 48.83 49.02
49.37 49.93 50.33 50.50 50.78 51.98 58.79 53.24 53.66 52.72 55.00 52.79 46.15 50.04 49.30 51.91 53.10 52.42 51.86 51.91 51.31 51.54 50.02 44.79 45.31 43.61 46.06 38.73 41.65 43.46 44.48 45.51 45.78 44.36 47.50 47.93 48.74 48.82 48.62 47.50 44.59 44.31 43.81 44.14
49.22 49.75 49.08 49.13 50.14 55.32 52.05 49.87 51.56 49.01 52.63 51.63 44.36 46.54 48.05 48.54 50.96 48.41 50.80 51.79 50.46 51.42 46.53 41.68 44.06 45.07 46.39 38.93 41.71 40.35 41.38 42.46 44.03 45.66 46.95 46.80 45.24 43.05 42.96 42.44 42.35 41.95 41.54 40.18
49.45 49.52 49.36 49.30 49.34 50.48 53.42 51.95 48.14 48.97 51.04 51.59 42.84 41.90 47.14 48.65 45.71 43.07 45.66 45.86 49.23 45.62 42.04 41.60 40.98 41.78 43.38 40.46 37.74 39.10 39.82 41.23 44.61 41.78 44.26 43.83 42.31 42.36 41.91 42.63 40.73 37.05 34.97 34.41
48.29 48.65 49.48 53.95 51.68 52.70 53.23 47.13 47.32 53.16 52.32 45.97 37.92 41.91 39.50 45.73 41.47 41.99 43.91 45.49 38.81 44.14 41.30 42.17 44.39 38.33 35.83 33.51 34.82 35.71 36.74 37.62 39.61 40.10 41.68 41.67 40.16 38.11 37.15 36.07 35.09 34.07 34.32 34.97
47.71 52.39 50.67 47.09 49.10 46.43 48.25 50.36 49.89 48.09 46.84 44.98 36.65 41.97 39.09 44.21 41.59 38.82 41.13 41.01 38.23 36.98 40.32 41.54 39.37 31.81 33.95 34.84 35.57 36.46 37.37 39.94 42.03 38.28 35.07 35.23 34.13 34.43 34.73 35.13 35.81 36.45 36.71 37.04
51.26 48.19 45.25 50.61 46.78 50.73 46.20 41.50 41.52 43.28 38.10 40.40 39.54 42.19 39.92 42.75 40.02 37.69 39.65 37.37 37.92 35.56 38.48 38.17 35.56 30.63 32.04 35.39 35.74 37.23 38.24 38.49 38.12 37.51 36.58 36.22 36.23 35.86 35.66 36.33 37.35 37.52 36.49 36.09
48.35 48.78 47.82 48.32 45.49 43.85 37.24 35.56 37.34 38.13 36.14 38.12 38.56 38.68 41.01 39.83 42.28 39.80 37.90 36.29 36.29 34.56 39.84 35.50 32.93 31.02 34.25 34.59 34.84 36.29 37.41 38.02 38.09 38.77 37.76 37.94 37.53 37.82 37.13 36.18 35.08 34.37 33.63 33.25
49.24 45.50 39.40 43.06 38.07 35.02 35.74 32.28 34.82 34.44 35.20 35.27 35.68 35.18 38.58 40.27 41.57 36.63 37.90 34.66 34.66 38.60 34.24 32.77 31.88 32.80 34.26 34.60 36.14 36.43 37.16 37.10 36.91 36.16 36.11 35.89 35.21 35.21 34.30 33.51 34.18 34.24 34.43 34.86
40.39 38.07 33.39 34.84 33.93 33.01 33.57 35.20 35.02 33.39 34.11 35.38 37.92 35.74 39.17 36.83 35.20 35.74 34.66 32.30 33.14 31.94 30.59 30.25 31.11 32.90 34.14 34.77 35.86 35.80 34.61 33.45 34.24 34.77 34.89 33.57 33.04 32.87 33.54 33.01 32.62 32.80 32.61 32.82
35.84 37.15 29.93 30.67 31.92 32.84 32.48 32.84 33.37 33.73 35.03 35.56 35.92 35.92 39.10 34.84 33.39 34.11 33.21 31.21 30.41 31.69 31.46 31.06 32.62 33.48 34.54 35.26 35.42 34.94 33.42 32.48 34.57 35.38 33.04 32.14 32.39 33.10 33.27 33.31 32.31 31.36 31.02 30.31
35.42 33.90 32.30 32.84 32.66 31.94 32.30 32.48 32.12 34.89 34.29 34.84 35.20 33.39 33.39 32.12 34.11 32.30 31.74 30.68 29.42 31.10 33.19 33.25 34.15 33.49 34.71 35.06 34.36 35.28 35.95 35.19 34.62 34.33 33.95 32.73 31.52 31.46 31.71 31.54 29.24 28.76 28.74 27.49
33.36 32.30 33.02 32.48 32.66 31.94 31.94 32.84 33.21 35.46 34.47 32.30 35.33 32.48 30.04 33.70 31.65 30.14 33.54 31.77 33.74 34.32 34.04 34.59 34.16 34.61 34.89 35.70 36.36 34.13 34.05 34.30 34.25 33.30 32.05 31.20 30.25 29.08 27.93 26.48 27.07 27.17 27.64 27.60

GFSNW_sfc_wetblb_027.txt.gz
Wetbulb
50.21 51.73 52.18 53.10 52.68 52.08 51.69 53.71 47.28 60.29 63.28 49.36 51.73 48.35 50.30 49.96 51.12 54.03 50.49 50.37 48.54 47.08 47.60 45.88 45.69 46.05 48.57 52.47 52.10 47.77 50.16 47.40 43.23 45.22 49.47 50.32 49.44 47.24 47.08 40.70 38.92 41.42 40.59 40.44
49.71 50.85 51.77 52.38 52.12 52.01 53.45 50.97 53.42 60.83 59.60 46.56 49.37 51.33 50.13 51.49 51.00 51.40 50.21 48.44 50.36 50.23 47.82 44.88 46.91 47.56 50.85 51.48 51.50 48.97 50.65 45.50 40.74 42.35 46.42 48.62 45.67 46.99 47.10 45.82 44.57 40.02 38.13 40.55
49.63 50.88 51.39 51.70 51.94 52.43 56.25 52.63 47.94 53.42 55.28 54.55 51.17 49.06 48.23 47.97 52.70 51.67 51.74 49.68 52.08 50.33 48.54 50.23 47.58 48.19 49.40 50.89 51.33 45.42 48.86 47.11 44.16 40.31 43.21 46.68 44.25 45.50 46.54 45.12 39.89 40.38 41.15 42.85
49.96 49.79 50.60 51.49 51.70 52.04 54.99 53.73 50.30 52.71 47.11 50.89 52.23 50.83 49.29 47.32 47.75 52.15 53.03 50.62 50.37 49.29 46.72 48.12 47.62 50.02 48.32 49.64 46.09 49.44 50.29 44.45 46.26 46.31 45.84 45.32 44.92 44.42 45.33 43.84 44.13 41.38 43.14 42.89
49.43 49.67 49.19 51.34 51.58 51.84 51.55 50.88 51.36 53.33 51.64 52.42 50.44 47.72 48.25 47.26 49.64 50.68 49.67 49.16 50.08 50.62 48.19 48.91 47.09 50.06 49.35 48.45 50.37 50.04 50.30 44.11 45.29 42.89 45.80 44.67 42.98 44.89 44.81 44.97 44.77 44.26 44.66 44.14
49.04 48.92 49.11 49.53 51.30 51.78 50.74 55.99 57.26 54.46 49.66 51.57 48.63 49.51 48.92 48.65 52.02 52.06 53.14 51.94 51.11 50.30 51.37 53.93 54.28 54.16 53.33 52.21 50.38 49.20 48.13 45.52 42.20 37.72 41.59 41.71 37.06 42.88 44.65 45.29 46.34 45.84 42.51 46.54
48.49 47.63 47.94 47.21 51.17 52.51 56.52 55.77 57.13 50.52 47.87 50.34 48.39 49.50 50.30 49.64 51.94 50.72 52.21 54.23 52.44 53.19 55.93 55.25 54.13 52.55 51.29 50.68 49.87 51.73 46.83 45.64 43.25 38.97 36.08 30.82 42.55 46.37 45.40 44.51 46.02 47.19 46.71 47.31
48.17 47.69 47.88 48.14 50.74 51.20 57.69 59.71 57.03 53.58 45.08 49.76 48.73 49.07 49.61 51.14 53.29 52.47 52.50 52.26 54.87 56.32 54.29 48.72 44.71 45.25 44.36 45.20 46.70 46.59 48.49 45.30 39.12 37.96 36.63 40.59 42.37 43.74 42.94 42.13 42.46 47.08 45.91 46.74
48.14 47.84 47.93 50.22 50.66 50.95 55.56 60.40 61.40 57.21 52.17 49.09 50.48 48.90 50.28 49.89 51.16 50.62 49.09 53.46 56.04 53.95 52.25 48.17 41.40 39.42 42.86 41.77 43.89 46.25 44.74 46.45 42.52 37.72 34.92 31.89 42.71 44.83 47.26 46.94 39.51 46.77 47.18 46.96
48.39 48.75 49.95 50.08 50.31 50.83 54.71 60.75 61.66 56.87 51.36 52.38 52.36 49.38 49.27 52.89 52.82 51.13 49.72 50.09 49.89 52.32 50.01 44.01 44.33 42.58 45.47 40.40 39.18 37.28 40.69 41.17 38.83 38.41 37.53 41.19 46.00 46.00 47.76 38.10 41.39 48.54 48.57 48.29
49.40 49.65 49.73 49.85 50.17 50.79 54.24 60.57 61.94 58.87 54.43 53.98 54.89 54.43 52.04 52.27 53.49 50.54 51.86 50.18 50.60 50.08 45.96 47.34 46.18 44.41 44.77 43.47 44.66 42.26 40.91 40.31 37.96 40.73 35.09 33.23 46.93 46.65 41.71 47.61 49.40 49.23 49.62 49.86
49.07 49.35 49.40 49.46 49.81 50.58 52.59 58.55 61.82 63.52 57.48 55.08 58.62 57.83 57.93 57.36 57.40 55.50 53.43 52.52 52.18 52.58 49.64 49.93 50.15 41.76 40.69 44.66 40.22 46.36 41.19 45.56 44.41 43.48 43.62 47.98 48.74 47.73 49.73 50.30 49.13 49.45 49.59 50.54
48.72 48.84 49.31 49.62 49.88 50.86 52.67 60.26 62.14 60.81 56.89 54.85 55.01 54.21 57.11 58.92 59.33 60.00 53.53 55.62 56.06 54.69 56.89 52.31 50.96 41.27 48.34 39.65 44.20 45.78 46.70 47.63 44.42 43.30 45.91 46.80 47.87 49.44 49.95 50.46 50.22 51.01 51.54 51.43
48.53 48.64 48.84 49.36 49.84 50.81 51.90 59.01 61.70 60.43 56.60 47.61 52.14 57.09 54.77 57.49 58.69 58.16 58.74 57.96 56.70 56.56 56.01 52.87 44.05 44.04 50.25 47.34 47.59 46.24 47.54 47.03 44.94 44.73 46.98 47.85 48.67 50.01 50.33 50.75 51.58 51.60 52.31 52.13
48.31 48.54 48.97 49.40 50.25 51.76 56.67 60.06 59.20 59.92 56.30 48.20 51.05 54.86 55.02 56.73 57.24 56.36 57.01 56.53 54.86 53.48 51.21 45.16 48.20 50.08 48.56 48.03 47.63 46.07 48.22 46.00 44.15 43.03 47.53 47.24 48.37 50.87 50.81 50.29 49.13 48.88 48.99 49.08
48.21 48.49 49.09 49.61 50.09 52.37 57.54 55.57 57.61 55.07 60.20 54.26 48.34 53.74 52.66 55.36 56.45 55.59 55.18 55.90 55.85 55.87 53.26 49.28 50.65 48.79 50.44 42.65 43.93 46.76 46.81 46.85 46.83 46.34 48.82 49.45 50.11 48.32 47.80 45.95 45.43 45.94 45.03 44.98
48.36 48.64 49.13 49.76 50.76 56.88 54.04 51.66 54.65 50.67 59.50 53.34 47.34 47.80 51.75 52.94 54.30 53.38 54.50 55.58 54.78 55.79 52.50 48.33 50.15 48.46 49.76 42.46 43.72 44.50 43.70 44.98 46.70 46.88 48.06 47.96 45.88 44.30 46.28 45.13 43.13 40.80 39.36 38.74
48.89 49.15 49.66 49.65 48.90 49.94 54.22 51.72 48.45 52.65 54.18 54.84 45.62 44.27 49.12 52.60 50.63 47.28 51.77 50.98 54.10 49.41 45.91 46.95 46.15 46.87 48.28 43.60 42.17 42.56 43.10 45.80 44.47 44.77 46.28 45.59 45.92 44.92 42.27 41.32 39.60 37.36 35.47 35.58
49.22 49.54 49.74 55.92 56.11 55.35 53.04 46.64 50.15 55.93 53.37 48.87 39.09 41.78 39.22 50.46 45.98 47.21 47.55 50.83 43.55 47.89 43.21 45.15 47.43 40.77 40.17 37.40 38.63 39.99 40.95 41.76 42.30 44.05 43.91 41.98 39.77 37.93 37.85 37.98 37.13 36.27 36.37 37.75
49.26 55.69 53.32 50.88 52.51 48.48 48.34 52.48 52.57 51.23 50.65 48.15 40.36 47.58 43.64 47.77 45.05 42.03 42.49 43.90 41.51 38.82 41.88 45.62 41.98 35.37 35.47 36.61 38.15 39.71 40.55 42.89 42.55 37.46 35.10 35.85 35.58 36.12 37.61 38.35 38.70 38.93 38.98 39.00
54.99 51.98 46.73 51.03 47.91 52.41 49.60 43.91 45.04 47.36 42.15 42.76 41.89 45.95 42.59 46.37 42.07 38.39 42.21 38.88 40.18 36.92 40.45 39.67 37.63 34.39 33.96 36.46 37.39 39.35 39.93 40.72 40.88 40.15 38.86 39.46 39.10 37.76 37.65 37.79 38.15 37.45 36.44 35.87
50.41 51.37 51.32 51.37 49.18 46.77 39.31 37.28 40.13 40.73 38.27 39.36 39.65 40.27 42.29 42.36 45.98 41.54 41.18 37.00 38.79 35.71 42.49 38.39 34.34 32.07 35.00 35.66 36.70 38.34 39.79 40.04 39.26 39.73 38.86 39.21 39.04 39.03 37.69 36.49 35.89 35.71 35.73 34.05
53.08 49.32 42.17 45.32 40.47 36.92 34.20 33.64 34.96 34.36 37.46 37.04 38.70 36.85 41.89 42.08 43.48 39.26 39.68 35.65 36.59 42.05 35.84 34.70 33.14 33.77 34.81 35.99 37.65 37.96 39.17 39.33 38.96 38.13 37.97 37.42 36.28 36.08 35.86 34.83 34.90 36.36 35.89 36.24
43.50 40.31 34.92 35.83 33.65 33.65 33.47 34.92 35.10 33.83 35.28 38.73 41.04 37.64 40.06 39.45 36.55 38.00 33.65 33.47 37.01 32.90 32.34 33.20 31.83 33.53 34.55 36.98 37.90 37.63 35.95 35.10 36.59 36.61 36.15 34.88 34.89 34.47 34.20 33.53 33.36 32.97 32.48 32.78
37.46 38.39 31.10 31.48 32.57 33.11 32.93 33.47 34.56 35.01 37.14 38.91 39.96 39.32 41.86 36.92 35.83 37.61 34.92 31.66 32.12 33.93 32.94 33.03 33.03 34.39 35.69 35.91 36.99 36.62 34.88 33.60 36.12 36.77 34.02 33.82 35.38 34.68 34.15 33.20 31.92 30.86 29.54 29.21
36.52 34.69 32.19 33.29 33.11 32.02 32.57 32.57 32.38 35.43 35.47 36.90 40.81 36.55 35.65 33.47 35.47 32.57 34.00 33.09 32.24 32.39 34.68 34.44 34.61 34.21 35.46 36.64 37.10 36.66 37.81 37.49 36.66 36.33 35.18 33.69 32.40 33.41 32.94 31.02 29.31 30.77 28.70 27.37
34.91 33.11 34.02 33.83 32.93 31.84 32.38 33.11 32.75 35.19 34.74 32.75 35.65 34.02 32.20 35.44 33.49 31.56 35.33 32.75 34.32 34.78 34.67 35.06 34.84 35.43 36.16 36.69 36.68 35.31 36.32 36.26 36.47 35.66 34.53 33.22 31.75 30.67 29.48 28.13 28.44 28.68 28.66 27.56

GFSNW_sfc_wetblb_030.txt.gz
Wetbulb
47.94 49.85 51.04 51.89 53.01 52.51 51.26 50.79 43.04 58.09 60.42 46.62 47.17 46.43 48.75 49.70 51.18 51.95 50.74 50.18 48.21 46.17 47.16 45.65 44.81 44.87 47.84 51.75 51.16 47.40 49.62 46.96 42.44 44.15 49.04 50.25 48.40 46.58 45.78 41.58 38.21 42.02 40.76 39.17
47.19 49.36 50.13 51.42 52.42 52.18 50.69 46.75 49.94 58.64 57.91 41.84 44.51 48.84 49.46 50.63 49.91 50.62 50.15 48.47 49.82 49.68 47.20 44.36 46.38 47.37 52.10 52.97 51.19 48.52 50.25 45.25 39.13 41.16 46.14 48.77 45.41 46.09 46.31 46.82 45.54 40.30 37.93 39.49
46.37 49.13 49.53 51.03 52.22 52.23 52.04 48.99 44.65 51.70 53.94 51.02 47.78 47.36 47.21 47.50 52.31 50.57 51.70 49.98 50.37 48.98 46.86 49.15 46.49 47.28 49.98 51.92 51.76 46.89 51.48 46.46 42.58 39.00 42.16 45.88 43.90 45.21 45.62 44.78 40.41 39.71 39.86 41.83
47.61 49.01 49.33 50.16 51.76 51.99 51.16 49.97 47.19 50.78 44.23 47.72 49.17 50.96 48.66 46.78 47.13 50.81 52.01 49.28 48.62 48.58 46.13 46.36 46.62 48.72 49.18 50.37 46.62 49.36 49.56 42.65 44.46 44.94 46.24 46.01 45.36 44.66 44.81 43.22 44.15 39.93 42.78 42.42
48.37 48.68 49.35 49.75 51.33 51.73 48.52 47.82 48.84 52.63 49.38 49.90 48.78 48.17 48.39 47.33 48.65 49.45 48.96 48.28 49.33 50.28 47.41 48.20 46.35 48.83 49.04 47.38 49.92 49.31 50.22 44.31 45.13 43.38 46.27 45.91 43.27 45.15 45.17 44.39 44.30 44.00 44.03 43.38
47.84 48.69 49.19 49.74 50.96 51.11 48.07 52.23 55.54 51.71 48.02 48.52 47.33 48.60 49.99 49.22 51.10 51.83 52.31 51.23 50.38 49.21 51.01 53.76 54.08 54.76 53.75 52.35 50.21 48.69 48.58 46.14 43.13 38.74 42.49 41.08 35.23 42.27 43.58 44.17 45.59 45.30 41.50 46.51
48.20 49.09 49.15 49.14 49.75 50.78 51.73 53.26 56.09 49.15 46.04 47.52 48.21 50.07 51.26 49.53 50.94 50.92 52.45 53.54 51.82 53.65 56.67 55.91 54.66 53.13 52.23 52.39 51.59 52.54 47.92 46.80 44.62 39.72 36.04 30.97 42.27 46.99 45.62 44.13 45.05 46.22 45.79 46.42
47.90 48.40 49.02 48.58 47.67 48.15 51.84 56.50 55.80 50.40 44.21 49.55 49.53 51.41 51.42 51.12 51.60 52.14 52.36 53.74 56.08 57.62 54.97 49.01 45.05 45.40 43.46 46.19 48.14 48.41 50.12 46.42 40.60 37.00 36.40 40.11 42.28 44.32 43.37 42.43 42.15 46.28 45.23 45.96
47.66 47.95 47.51 48.16 48.25 48.29 49.70 52.38 58.47 55.77 50.49 48.99 52.30 50.37 52.08 48.87 50.60 50.61 50.35 55.63 58.65 57.64 53.11 49.28 41.78 39.83 42.33 41.21 43.22 46.66 46.05 48.61 43.39 38.66 35.82 32.20 43.03 45.13 47.47 46.55 38.89 46.96 47.09 46.73
47.63 47.69 47.14 47.13 47.77 48.31 46.56 52.01 55.66 55.83 48.89 54.08 52.70 49.93 50.30 54.04 52.85 49.87 50.73 50.52 50.98 54.19 50.88 41.14 45.75 42.96 46.09 41.06 39.70 36.34 40.64 41.96 37.75 37.83 37.06 40.37 46.76 46.87 47.76 38.13 40.93 48.33 48.43 48.28
47.59 47.50 47.31 47.36 47.57 47.62 47.20 50.87 54.53 54.33 51.44 54.67 56.17 55.59 52.91 53.48 53.76 48.87 51.67 50.22 51.30 52.23 46.59 47.43 47.90 44.47 46.24 44.58 44.90 41.72 39.83 40.09 36.76 41.68 34.82 32.46 47.68 46.30 41.57 47.76 50.30 49.34 49.28 49.60
47.46 47.77 47.43 47.36 47.55 47.74 50.35 48.89 53.55 55.22 54.83 55.25 59.02 57.84 58.52 57.59 57.91 55.56 53.75 53.24 51.95 52.54 50.22 50.64 51.31 40.39 39.91 45.09 40.89 47.33 41.69 45.48 43.75 42.97 42.29 49.20 49.46 48.27 49.88 50.87 49.24 49.75 50.16 50.48
47.42 48.01 48.10 49.17 49.75 50.36 51.57 50.56 52.95 55.76 55.95 54.55 55.04 54.18 57.27 59.18 59.80 61.95 53.34 56.33 56.65 55.45 59.09 53.91 51.50 39.41 49.49 38.80 45.21 46.92 47.34 49.13 46.16 45.11 46.52 47.37 48.68 49.44 50.18 50.79 50.30 50.70 51.30 51.32
48.24 48.49 48.56 49.37 49.79 50.24 50.66 50.81 53.72 58.63 56.00 45.76 51.41 57.78 55.31 58.21 59.38 59.79 60.47 60.08 60.25 59.59 58.02 54.33 43.24 42.64 52.05 48.37 49.11 47.84 47.91 47.89 45.05 45.22 47.19 48.28 49.08 50.11 50.35 50.48 51.02 49.98 50.54 49.88
48.64 48.86 48.82 49.36 50.08 50.73 51.95 53.46 57.51 60.35 55.63 47.67 50.39 54.84 56.07 57.19 58.01 57.22 58.72 59.14 57.54 55.79 51.58 41.86 49.06 51.63 50.05 49.56 49.22 47.55 48.78 46.42 45.27 44.27 47.54 47.56 47.70 47.94 49.14 46.98 46.13 46.27 46.08 44.34
48.28 48.80 49.08 49.47 49.95 50.17 52.14 53.20 58.50 59.24 60.57 53.69 47.80 53.28 53.54 55.67 56.84 56.01 56.44 57.21 57.30 55.99 53.56 50.08 51.57 51.37 51.43 41.81 44.38 47.38 47.63 48.40 48.04 46.88 48.43 48.70 48.07 47.20 46.23 42.79 42.65 42.65 42.04 41.64
48.07 48.57 49.07 49.61 49.25 52.54 52.20 50.39 51.99 49.50 58.62 54.04 44.92 45.45 51.92 55.21 54.93 54.45 54.23 56.31 55.82 55.17 52.93 50.88 49.80 48.55 50.17 41.69 44.55 45.56 45.48 46.21 47.72 47.35 47.85 44.77 46.44 43.26 43.70 41.54 40.48 40.19 39.57 39.20
48.16 48.71 49.09 49.33 49.25 51.15 52.81 52.72 49.78 50.42 55.91 55.49 43.92 39.88 48.34 53.14 51.24 48.39 52.51 52.60 53.48 50.57 47.56 49.01 48.94 46.86 49.94 44.37 44.03 44.26 44.76 46.08 45.27 45.58 46.68 44.70 43.54 42.22 41.01 41.08 40.09 37.79 37.04 37.24
48.64 49.18 49.05 52.04 53.75 54.26 52.64 49.30 49.67 58.25 53.62 48.84 38.83 40.95 38.10 51.35 46.59 46.72 48.10 50.89 43.26 48.26 43.81 47.44 47.07 41.91 40.59 41.73 42.03 42.14 43.14 43.73 42.76 43.12 42.92 41.71 39.88 39.00 39.00 38.78 38.40 36.80 36.66 37.19
49.19 51.83 52.67 45.60 53.42 49.37 49.20 52.68 51.16 51.79 51.16 48.24 41.91 47.16 43.06 46.76 44.07 41.18 42.60 44.29 40.90 38.64 42.32 45.99 40.64 35.77 37.49 39.21 40.88 41.79 42.29 43.75 42.36 37.81 36.39 37.41 36.99 37.22 37.68 37.93 38.13 37.10 36.58 36.54
56.73 52.72 46.23 51.51 48.84 52.72 49.56 42.67 43.69 45.51 42.41 42.88 43.18 46.50 42.80 46.51 41.53 38.38 42.71 38.57 40.49 37.19 39.98 39.98 37.12 35.27 35.04 38.43 39.30 40.40 41.38 43.00 41.73 40.37 40.08 39.45 38.78 37.60 37.33 36.59 36.67 35.53 35.23 33.65
52.39 51.68 52.68 52.18 48.14 45.24 38.37 37.56 39.37 39.77 37.91 38.95 39.95 41.62 42.87 43.62 47.02 41.38 41.15 36.48 39.44 35.24 41.75 37.35 35.35 34.24 36.07 37.26 37.93 39.27 40.30 40.21 39.43 39.62 38.81 39.08 38.43 38.13 36.72 35.70 34.86 34.88 34.32 32.31
53.96 48.12 41.55 43.81 39.19 35.38 35.57 32.83 35.53 33.95 35.62 36.89 38.73 36.23 41.48 42.13 43.02 38.83 38.95 35.02 36.47 42.28 35.49 34.27 33.85 34.52 35.81 37.34 38.31 38.52 39.68 40.02 38.98 38.39 38.26 36.94 35.54 35.90 35.18 33.26 33.87 34.60 33.76 31.90
43.47 38.10 33.03 33.57 33.03 32.12 32.30 33.39 33.57 33.39 34.30 36.29 39.19 37.38 39.01 38.28 35.93 37.38 33.21 33.75 37.33 32.85 31.30 33.11 32.47 34.09 35.90 37.75 38.45 37.81 36.20 34.82 36.22 35.96 35.47 34.26 33.73 32.91 32.51 31.45 31.01 29.15 29.23 29.37
37.16 37.15 30.66 30.82 32.11 32.66 32.66 33.21 33.93 34.39 37.09 38.28 39.45 40.10 40.49 35.57 34.48 36.47 33.63 31.94 31.60 33.42 32.86 32.92 33.18 34.72 36.43 36.60 36.94 34.61 34.34 33.88 35.24 34.75 33.43 32.89 33.13 32.94 31.64 30.28 30.13 29.09 26.76 26.42
34.97 33.60 31.71 32.66 32.47 31.70 32.29 32.30 32.30 35.08 35.02 38.98 41.14 36.65 34.30 33.21 34.66 33.50 33.74 33.33 31.79 32.09 33.64 33.64 34.44 35.12 36.14 36.74 36.18 35.96 36.74 36.54 35.50 34.85 33.83 32.79 31.75 31.29 30.35 29.15 28.58 26.96 25.63 22.87
34.11 31.94 32.66 33.03 32.09 31.58 31.94 32.66 32.82 36.03 34.84 33.03 35.38 33.21 31.38 35.41 33.58 31.53 34.25 31.40 32.98 33.27 33.30 34.43 35.16 35.38 36.34 36.83 36.10 35.34 35.95 36.24 35.66 34.77 34.00 32.40 31.35 30.35 29.46 27.77 27.51 28.39 27.96 23.74

GFSNW_sfc_wetblb_033.txt.gz
Wetbulb
47.21 48.28 49.67 50.59 51.52 52.04 51.49 49.98 42.17 52.16 55.24 43.99 43.47 40.46 45.17 47.32 48.94 51.72 49.62 48.32 46.63 43.51 44.02 43.43 41.46 41.89 47.54 48.28 48.99 44.77 45.93 42.49 36.77 41.97 47.14 47.37 44.90 42.68 42.26 30.83 32.58 34.03 29.49 32.17
47.15 47.63 48.81 50.02 51.15 51.54 49.25 46.02 46.32 53.14 52.11 36.68 38.67 42.61 45.41 48.04 47.95 48.10 48.13 47.14 48.25 48.84 43.64 42.81 43.28 45.80 49.81 50.47 48.18 45.36 46.30 39.79 31.84 35.79 41.74 45.04 42.12 43.44 43.15 42.75 37.70 33.60 26.06 31.45
46.72 47.34 47.78 49.32 50.35 51.50 50.48 46.61 40.75 48.32 49.67 44.65 41.76 40.22 42.00 43.91 49.88 49.06 49.68 48.45 48.73 45.99 43.53 46.02 42.86 44.75 48.94 50.05 47.92 45.80 47.69 42.64 37.15 30.98 36.91 42.50 39.67 42.26 42.88 40.08 30.18 32.11 33.04 37.20
45.96 46.89 47.87 48.38 49.87 50.79 50.30 46.92 42.52 46.65 41.12 42.79 42.24 43.37 43.71 44.06 44.60 49.52 50.08 47.21 46.89 44.73 40.96 42.84 42.87 46.02 46.28 48.81 46.36 46.78 45.10 38.06 39.70 41.02 43.32 44.41 43.88 42.46 41.90 39.36 39.48 33.79 37.09 39.13
46.09 46.68 46.68 47.36 49.42 50.46 47.49 44.36 44.09 48.14 47.06 46.48 44.17 42.73 42.69 44.05 46.37 47.61 46.10 45.81 46.82 45.87 43.70 44.69 42.24 46.23 45.02 44.00 45.85 44.40 45.73 38.24 39.07 37.42 43.52 41.96 39.29 41.60 41.52 41.35 41.41 39.50 40.13 39.38
46.39 46.95 46.80 46.56 48.93 49.78 45.67 47.25 48.45 48.25 44.63 44.73 42.94 41.48 44.41 45.69 48.10 48.93 49.78 48.15 46.32 45.75 47.88 49.56 49.08 49.75 48.44 48.07 44.97 42.72 42.81 39.85 34.34 31.25 37.06 36.64 29.23 37.35 39.73 41.20 42.00 40.44 35.54 39.56
46.50 46.58 46.87 46.44 48.92 49.36 49.43 46.79 48.64 44.71 40.56 44.77 43.48 44.57 45.68 47.15 47.53 47.02 49.54 49.53 47.00 50.01 52.81 51.18 49.75 47.96 47.80 49.61 47.78 48.19 42.33 40.26 33.79 29.08 29.43 21.31 37.37 43.25 42.50 40.34 41.07 41.04 40.91 40.93
46.15 46.49 46.97 47.86 48.90 49.64 48.08 49.09 48.78 47.64 34.37 45.26 44.92 44.35 46.44 48.87 49.90 48.41 49.24 51.46 51.94 52.95 50.11 42.96 38.82 36.22 35.83 41.20 45.80 45.00 46.48 38.15 32.08 27.42 27.33 34.30 38.93 41.30 40.71 38.63 37.40 42.18 41.01 42.04
47.33 47.36 47.68 48.32 48.62 49.75 48.61 46.96 49.04 49.43 45.51 44.19 48.01 44.65 47.60 45.54 45.86 45.80 48.59 52.59 52.32 52.27 46.28 36.76 32.94 30.66 37.21 36.81 39.62 44.70 43.83 41.86 31.54 29.38 24.94 20.50 36.21 41.82 44.86 42.99 31.56 43.27 43.47 42.55
46.88 47.40 47.83 48.58 49.11 49.62 47.75 47.12 49.74 47.87 46.84 49.96 48.54 44.68 45.42 50.02 47.19 44.62 46.60 48.83 47.48 50.35 35.07 34.98 31.22 31.11 42.44 33.98 33.42 31.57 31.24 31.74 27.94 25.19 24.28 31.61 43.79 44.29 45.13 30.46 32.66 43.58 44.03 43.43
46.77 47.17 47.76 48.17 48.03 48.53 46.37 45.51 48.77 48.54 48.13 50.33 51.18 51.20 49.43 49.50 48.45 42.43 47.14 46.67 45.27 42.88 36.43 35.13 33.03 30.76 35.32 36.09 41.29 36.28 33.25 31.42 27.07 30.91 29.10 27.35 44.89 43.07 36.01 41.28 43.23 44.22 43.86 43.99
46.97 47.31 47.25 47.71 47.99 48.30 47.95 43.73 49.26 51.32 47.93 49.63 54.97 54.00 54.45 54.69 53.08 49.35 47.64 47.35 46.93 47.43 42.55 39.70 37.59 35.58 34.26 34.62 29.86 42.93 33.84 39.14 34.53 35.88 34.15 43.16 43.63 43.10 45.02 44.93 43.98 44.33 44.88 46.28
47.04 47.25 47.06 47.07 47.46 47.96 47.32 45.04 49.65 50.44 47.91 46.94 50.80 49.62 53.97 56.83 55.94 56.00 46.93 49.75 51.44 49.56 51.22 44.88 41.11 35.12 36.86 30.65 33.20 36.50 41.93 45.56 38.73 38.65 42.37 42.81 44.17 47.10 47.63 47.42 45.84 46.33 44.10 43.76
47.08 47.08 47.13 47.16 47.30 47.80 47.76 45.26 48.47 51.00 47.51 40.57 48.99 56.38 52.34 56.49 56.80 57.64 55.82 54.63 54.55 53.73 50.90 41.06 37.27 35.90 44.34 34.44 38.99 38.54 41.61 42.68 41.06 39.40 42.73 44.82 44.92 45.82 45.13 44.72 44.95 42.32 41.93 41.01
46.56 47.17 47.63 47.63 47.73 48.01 48.86 49.08 50.42 53.05 49.45 43.76 46.45 52.23 54.28 55.85 55.18 55.36 57.00 54.58 52.32 48.76 41.28 34.39 36.80 42.75 40.93 39.18 38.96 37.09 42.99 41.52 35.01 33.92 44.16 42.37 41.72 43.27 43.66 41.61 40.86 41.62 39.85 37.81
46.37 47.04 47.79 48.20 48.98 49.99 49.97 45.26 51.39 52.77 52.64 47.17 38.89 50.20 51.10 52.24 52.45 52.95 53.12 52.81 51.34 50.55 45.24 39.68 43.99 46.18 40.34 33.45 31.20 42.26 43.36 44.59 44.88 43.00 44.91 43.55 41.63 40.74 41.08 39.56 39.30 39.16 38.23 37.67
47.58 47.97 48.02 48.49 49.53 51.04 47.67 46.08 51.32 51.30 51.22 47.26 38.86 40.29 49.35 51.60 51.27 49.11 49.84 51.90 50.46 49.13 46.02 40.28 41.66 41.68 43.12 33.65 31.99 41.43 43.17 44.13 44.43 45.20 45.03 41.25 41.43 37.59 39.22 38.39 37.89 37.61 36.79 36.43
48.16 48.44 48.55 49.13 50.30 51.60 49.21 53.53 50.51 49.38 52.16 48.43 38.33 37.62 43.42 51.27 44.96 40.95 47.42 45.80 46.04 44.82 41.77 40.72 38.31 40.43 35.87 32.38 39.35 41.72 43.45 43.41 42.51 41.43 43.06 40.49 39.85 39.29 38.09 37.92 37.15 35.53 35.29 35.34
48.27 48.70 49.34 51.12 51.31 48.98 50.87 50.47 48.21 53.39 49.69 38.64 34.93 36.71 35.81 48.06 42.92 41.52 44.05 44.41 36.88 45.01 36.32 37.45 39.24 32.62 32.63 38.28 38.98 40.21 41.45 41.25 39.75 40.18 39.63 38.90 37.34 37.07 36.79 35.94 35.22 34.41 34.52 34.75
49.08 50.77 49.70 42.71 49.74 48.58 48.99 49.34 44.06 43.57 44.37 41.75 37.29 42.52 37.98 44.19 37.46 36.38 36.52 36.71 35.64 34.86 37.07 40.80 35.25 32.53 36.95 37.42 38.71 39.69 40.63 41.51 39.88 35.22 33.66 34.63 34.43 34.91 36.35 35.67 35.51 34.99 34.13 32.85
50.59 46.64 42.55 48.07 48.48 49.04 43.26 35.36 34.88 37.11 33.91 35.76 38.67 41.10 39.35 43.84 36.36 34.90 36.55 34.56 34.48 31.93 33.63 34.10 33.29 31.96 35.52 39.47 39.30 39.96 40.15 41.47 40.35 39.27 38.63 38.20 37.41 35.69 34.51 33.45 33.38 32.22 30.58 29.25
50.01 49.04 50.20 48.09 46.11 38.09 34.22 32.49 33.87 34.67 33.60 34.60 36.17 37.48 41.47 38.17 43.82 34.42 36.36 33.56 32.25 30.77 37.73 33.44 31.06 32.66 36.03 37.02 37.61 38.83 39.72 39.32 38.75 39.10 38.05 37.77 37.14 35.85 34.25 33.59 32.33 30.68 29.51 29.24
48.48 43.30 38.04 41.25 35.20 32.67 31.74 29.16 32.13 32.10 33.09 34.87 35.10 34.56 35.82 37.75 39.61 34.92 34.61 33.98 32.41 34.59 32.86 30.81 30.83 34.21 35.87 36.98 37.55 37.56 38.73 38.57 37.18 35.48 35.32 34.78 33.34 33.03 32.05 30.98 31.43 29.25 27.59 27.84
38.21 34.72 30.91 32.38 30.79 29.70 29.59 30.86 31.82 32.02 32.56 33.30 34.92 34.01 34.19 33.85 33.60 33.47 31.75 32.16 33.38 30.18 25.05 25.37 31.16 33.96 35.63 36.63 37.33 36.45 35.17 33.20 33.75 32.95 32.02 30.65 30.47 29.87 29.34 27.40 26.49 26.78 26.68 26.80
33.14 32.72 28.12 28.25 30.90 32.14 32.19 32.38 32.55 32.85 34.69 34.19 34.92 34.54 36.27 33.11 32.87 32.70 32.01 30.65 28.65 30.05 29.10 30.72 32.99 34.69 35.72 34.91 34.04 33.24 32.06 31.56 32.30 33.38 31.83 30.67 29.50 27.91 27.53 27.70 27.29 26.02 23.22 22.22
33.21 31.72 30.55 31.94 31.73 31.03 31.57 31.94 32.02 34.61 33.29 34.56 34.15 32.91 32.47 31.76 32.32 31.39 30.95 27.06 26.10 29.11 30.72 32.50 34.52 34.74 34.21 33.36 33.66 34.78 34.72 32.90 32.69 32.43 31.68 30.85 28.66 26.64 26.55 27.10 25.24 21.17 19.62 16.95
31.65 30.27 31.84 31.82 31.60 30.53 31.46 31.84 32.53 35.55 33.45 32.03 32.19 30.19 29.40 32.41 30.48 28.80 30.26 27.36 29.82 30.75 31.81 33.54 34.70 34.79 34.40 33.71 33.73 33.74 33.64 33.04 31.85 31.31 30.32 28.60 28.56 27.23 25.94 24.02 24.96 25.34 23.67 16.17

GFSNW_sfc_wetblb_039.txt.gz
Wetbulb
47.55 48.80 48.85 48.78 48.95 49.17 48.40 44.06 37.15 50.73 52.61 42.37 41.19 35.67 40.98 44.39 45.12 47.27 46.15 45.92 44.47 41.33 40.16 38.17 38.14 38.43 41.23 43.78 44.97 40.76 42.66 37.79 32.86 38.01 43.27 44.40 41.17 39.08 37.93 29.51 30.23 30.23 27.51 30.23
47.62 48.32 48.30 48.25 48.37 48.83 46.05 40.30 42.73 51.28 50.19 36.30 37.30 39.58 40.43 44.01 43.67 43.86 43.94 44.03 45.45 44.60 39.68 36.67 39.37 40.18 45.34 46.73 43.92 41.79 43.13 36.41 30.21 34.20 38.37 40.68 39.63 39.93 40.15 37.45 32.80 30.22 25.23 30.24
48.26 48.30 47.92 47.57 48.38 49.21 46.91 42.01 36.43 44.46 46.32 43.73 39.34 37.19 38.46 40.20 45.94 43.58 44.70 44.59 46.06 43.24 40.75 41.70 39.44 41.50 45.43 46.24 45.18 45.75 44.27 38.14 35.21 31.25 35.10 38.95 35.71 38.97 38.89 37.25 28.92 30.50 30.35 33.91
48.25 47.62 47.68 47.66 47.18 48.24 46.53 41.52 37.95 40.99 38.37 39.16 40.32 39.73 39.11 38.75 39.97 43.94 44.35 41.36 43.16 42.40 38.58 38.87 38.97 42.34 43.50 44.65 44.59 43.26 42.57 36.23 36.57 37.33 38.18 39.54 38.72 38.89 38.21 36.12 35.84 31.82 35.06 34.80
47.26 47.26 47.39 47.19 46.95 47.38 44.32 37.96 40.42 41.20 39.54 42.14 39.71 39.32 38.01 38.33 40.83 42.00 40.94 40.07 44.09 42.74 40.28 41.41 39.72 42.02 41.10 41.13 42.53 40.61 41.78 34.82 35.70 33.24 37.61 37.56 36.30 38.89 37.97 37.93 37.25 36.75 36.14 35.80
47.05 46.91 46.90 46.66 46.88 46.00 41.29 42.90 44.75 43.10 39.85 39.27 38.81 38.52 38.30 39.25 42.21 43.29 44.24 44.04 43.59 41.19 43.87 45.79 45.43 45.52 45.00 44.46 42.21 39.41 38.82 36.17 31.55 29.60 33.06 33.07 28.71 34.34 37.35 37.83 38.90 38.68 33.36 37.60
46.70 46.52 46.27 46.32 46.66 45.05 43.19 43.57 44.97 41.91 34.82 38.84 38.07 39.99 41.02 39.66 41.67 39.82 43.75 44.33 41.70 46.00 48.34 46.62 45.74 44.35 43.95 44.65 43.47 43.31 37.50 34.61 30.29 27.13 27.94 21.23 35.88 39.42 39.58 37.41 36.47 37.52 37.61 38.07
46.29 45.82 45.73 46.04 46.29 46.20 42.30 44.62 43.88 43.10 34.98 39.47 40.94 39.87 40.58 41.56 42.82 41.38 41.99 44.90 46.96 49.46 45.95 40.10 37.11 33.99 36.77 37.84 41.75 42.69 41.91 34.31 29.21 26.82 26.54 31.58 36.09 36.85 37.02 35.37 33.42 38.11 37.30 38.69
45.34 45.34 45.51 45.84 46.33 46.10 43.87 42.80 45.56 44.85 39.93 37.93 43.93 40.71 41.58 38.90 38.79 39.22 41.68 48.96 49.94 48.46 41.30 34.38 32.44 31.42 35.54 34.40 36.36 40.57 38.25 36.76 32.62 26.12 24.08 22.15 34.30 38.48 40.65 39.73 29.52 39.50 39.34 38.96
44.81 45.06 45.19 45.15 45.45 46.40 44.48 42.57 44.14 45.21 40.55 44.66 44.39 42.12 40.85 43.39 40.45 38.78 41.32 44.93 45.58 46.62 33.61 30.75 30.60 29.91 38.46 31.97 31.93 30.31 30.78 30.00 28.38 22.57 22.74 29.15 37.05 40.77 40.82 30.28 31.57 40.32 40.71 40.07
44.36 44.89 45.20 45.36 45.55 46.00 45.15 42.17 47.64 45.45 41.58 42.12 47.01 46.43 43.97 44.14 42.84 38.43 42.82 45.26 43.33 38.22 34.68 34.19 32.27 29.38 34.56 32.54 35.76 33.40 33.10 29.37 24.80 25.43 21.59 25.74 40.56 39.58 34.47 36.63 39.10 40.88 40.36 40.95
44.25 44.75 45.03 45.34 45.93 46.46 45.46 40.65 46.48 49.49 43.64 42.55 47.07 46.65 47.71 47.06 46.66 44.65 44.34 43.87 44.32 43.85 39.92 36.93 34.88 32.79 28.59 32.70 29.36 38.29 32.41 35.20 32.27 33.43 32.22 39.15 40.06 39.53 40.75 41.41 41.31 41.39 42.22 42.73
44.54 44.94 45.41 45.62 45.86 46.26 45.67 42.85 47.46 45.99 41.57 41.39 42.83 43.97 48.86 51.00 49.87 51.27 44.14 44.08 48.32 47.28 47.45 42.36 38.55 34.62 33.66 30.24 30.54 34.05 37.95 40.57 35.23 36.03 39.03 39.96 40.69 41.12 41.60 42.33 41.56 41.49 42.77 41.31
45.13 45.24 45.36 45.45 45.86 46.25 46.41 44.21 47.66 45.77 43.77 36.80 41.70 51.96 48.92 53.21 53.32 52.22 50.79 49.81 50.82 48.98 47.21 40.19 35.83 33.08 40.12 31.03 36.22 35.62 38.21 40.23 37.14 36.16 38.80 40.10 40.12 39.15 38.76 38.32 38.63 37.77 38.05 37.84
45.24 45.29 45.45 45.94 46.18 46.51 46.55 47.03 47.27 48.86 42.51 38.49 41.88 47.51 50.21 53.23 53.12 51.66 51.89 50.79 48.79 43.83 39.70 32.86 35.07 39.45 40.20 36.73 36.02 34.10 39.96 38.51 35.29 33.76 40.95 39.49 39.29 39.27 39.44 37.68 36.78 37.03 36.12 35.14
45.79 45.88 45.74 45.97 46.42 47.19 45.13 39.68 45.24 48.85 49.21 42.06 35.73 44.93 48.14 51.34 51.68 51.40 49.60 50.19 48.34 45.80 42.34 37.72 42.08 44.53 41.64 34.93 30.96 39.44 40.97 41.99 41.49 40.48 43.70 39.95 38.81 37.86 37.90 36.14 35.52 35.56 34.63 34.30
46.14 46.75 47.02 47.11 46.77 45.48 40.83 38.31 42.50 47.08 48.99 41.73 35.80 36.61 45.18 51.23 48.60 47.86 48.19 49.05 46.31 47.70 44.85 39.76 40.65 41.31 39.29 32.57 30.37 39.89 40.61 40.84 39.76 39.49 38.95 35.87 36.65 34.36 36.08 35.69 35.47 35.57 34.43 34.31
46.55 46.50 46.66 46.75 46.71 45.13 40.44 48.46 46.78 48.33 45.96 44.53 35.23 35.28 39.57 48.83 43.78 41.16 46.65 42.56 45.86 44.54 42.13 38.02 36.33 39.40 34.06 34.59 37.86 38.38 39.78 39.59 39.16 38.16 39.71 37.86 35.94 35.18 34.43 34.78 34.25 32.79 32.06 31.77
46.70 46.59 46.86 46.21 44.23 38.62 41.78 49.15 49.50 51.37 47.25 38.14 34.15 34.49 34.04 44.60 40.03 41.15 39.47 42.39 36.67 42.39 36.32 37.05 39.13 33.92 33.96 37.39 37.97 37.85 39.11 38.33 35.60 36.15 35.63 35.37 33.97 33.21 33.31 33.04 32.17 30.23 29.29 29.96
46.78 45.10 42.86 36.29 43.18 47.89 47.36 46.64 42.05 43.70 44.24 42.54 35.25 40.22 37.05 43.48 35.78 35.53 36.41 35.37 34.67 34.67 37.05 38.16 34.97 34.01 35.44 35.83 37.67 37.76 37.44 37.07 36.33 33.55 32.20 32.86 32.88 32.31 32.34 31.99 31.69 30.52 28.91 28.96
44.52 40.27 38.99 47.43 48.57 45.80 40.73 34.90 34.84 36.31 33.37 36.23 37.71 39.17 38.38 41.89 35.53 34.11 34.43 33.93 33.15 33.12 35.15 35.01 32.30 32.42 34.26 37.00 36.94 37.92 38.26 38.39 38.86 38.51 37.10 36.64 35.31 33.51 32.69 31.04 30.02 29.48 29.23 28.70
44.38 46.87 47.83 45.42 42.50 37.51 32.97 31.37 32.48 33.19 32.35 34.65 35.04 36.50 40.27 36.59 40.66 35.12 34.93 32.95 32.16 31.05 36.10 33.71 31.19 33.13 35.08 37.62 37.73 38.58 38.84 38.22 37.95 38.26 36.88 36.40 35.29 34.05 31.65 29.91 29.26 29.23 29.59 27.09
46.64 41.36 35.83 37.87 32.82 30.92 30.25 28.34 30.43 31.14 32.24 34.13 34.11 33.77 33.95 35.58 36.83 32.03 28.66 28.61 29.88 33.22 32.38 31.00 31.01 34.91 37.23 37.59 37.14 36.93 38.15 37.46 36.28 35.33 34.88 33.71 31.89 31.13 29.94 28.77 29.22 27.68 26.92 26.34
36.21 32.09 28.12 29.85 27.45 28.61 28.62 30.49 31.17 31.74 31.93 32.86 33.41 33.22 33.57 33.22 32.58 31.76 26.09 31.77 31.53 27.97 25.76 26.69 31.32 34.13 35.70 35.74 35.56 34.54 33.50 32.95 32.85 32.27 31.59 29.97 28.54 27.39 27.75 27.23 26.62 25.01 24.09 24.24
32.06 32.00 26.66 27.98 31.20 31.52 31.71 32.11 32.29 32.77 33.71 33.22 33.90 33.74 35.01 32.45 31.99 31.69 31.22 30.11 27.18 26.58 20.98 29.90 32.30 34.09 34.15 33.15 32.44 31.62 30.76 30.72 30.78 30.66 29.45 28.48 27.20 26.28 26.18 26.66 25.70 23.67 21.82 20.23
30.65 30.74 29.01 30.57 30.08 30.29 31.22 31.49 31.94 34.57 32.85 32.67 32.29 29.53 26.69 30.61 31.07 29.77 27.36 27.39 24.63 26.79 29.32 31.73 32.76 32.32 32.33 32.07 31.92 31.95 31.69 30.55 29.76 29.55 29.08 28.06 27.20 25.96 25.72 25.72 23.20 21.03 19.34 17.79
28.63 28.90 31.88 31.19 30.81 30.07 30.93 31.28 31.60 34.65 33.21 31.52 27.91 28.97 27.19 31.72 26.72 24.86 27.37 23.81 26.90 29.64 31.34 32.44 32.57 31.96 31.84 32.16 31.84 31.40 30.99 29.81 29.21 28.59 28.35 27.24 26.47 24.54 23.47 22.37 22.65 22.65 20.71 18.27

GFSNW_sfc_wetblb_042.txt.gz
Wetbulb
48.24 47.77 48.23 48.93 49.75 48.90 47.05 42.81 33.63 49.34 52.27 42.26 41.63 38.21 38.62 42.75 44.15 46.79 44.60 44.21 43.62 41.60 38.54 36.74 36.66 37.22 40.36 42.39 42.90 39.45 41.14 36.12 30.64 36.41 41.18 41.97 39.11 38.27 36.37 29.06 29.09 29.20 26.70 29.38
48.23 47.55 47.97 48.58 49.38 48.31 43.85 38.90 39.31 50.45 48.91 35.58 36.24 40.55 40.54 41.10 42.94 42.68 42.92 42.45 44.17 43.95 38.38 35.10 38.04 38.50 42.47 43.81 42.02 40.04 41.60 34.44 28.75 32.35 36.11 38.91 37.64 38.93 37.97 35.33 31.65 29.59 24.98 29.89
48.14 47.36 47.68 48.11 48.96 48.65 44.46 39.90 32.87 42.28 43.99 42.49 37.55 37.15 37.64 37.23 44.05 42.55 43.75 42.93 44.55 42.21 39.89 40.12 36.72 38.48 42.98 45.00 43.14 44.70 43.58 36.56 33.26 30.07 32.94 36.93 34.66 37.36 37.70 36.04 28.45 30.00 29.66 33.02
47.80 47.28 47.42 48.27 48.59 48.25 44.36 40.48 34.74 40.25 35.22 36.88 38.19 38.11 37.99 36.54 36.57 42.91 43.24 40.46 42.17 41.17 38.05 37.81 36.84 40.59 42.10 42.88 44.49 42.64 41.34 34.64 35.43 35.47 36.94 37.73 36.76 37.14 36.41 34.98 34.76 32.09 34.60 33.46
47.74 47.03 46.90 47.81 47.84 48.07 41.64 37.17 36.65 39.93 37.32 38.20 37.49 38.04 36.36 36.45 38.02 40.63 39.08 39.14 40.96 41.94 39.04 40.40 37.33 41.01 39.95 39.71 41.05 40.40 39.99 34.39 33.88 32.98 35.96 35.91 34.64 37.16 36.32 35.63 35.12 35.03 34.71 34.62
47.54 47.01 46.79 47.33 47.14 46.76 40.34 43.38 41.97 39.98 37.83 37.38 35.64 35.54 36.96 37.31 40.66 41.96 43.45 42.29 41.11 38.87 41.71 44.94 44.49 44.29 43.92 42.44 39.74 38.51 37.39 34.97 30.93 30.00 32.26 33.24 28.66 33.83 36.77 36.28 36.84 37.61 32.67 37.50
47.22 47.13 46.93 47.04 47.29 46.55 42.84 43.78 41.84 39.58 32.91 37.50 36.11 37.07 38.77 38.41 40.14 39.38 43.14 43.88 41.41 43.59 48.47 46.45 44.88 43.10 42.50 42.86 41.99 41.57 35.74 33.53 29.95 26.29 27.37 21.64 35.11 37.74 37.85 36.96 37.04 37.58 36.45 36.57
46.71 46.90 47.04 46.94 46.84 47.24 43.36 43.74 42.94 39.48 28.77 37.60 38.31 39.10 38.19 40.37 41.68 41.15 42.13 44.21 46.04 46.71 45.76 40.22 36.60 35.33 34.43 36.18 40.20 39.67 38.93 33.11 29.04 26.79 26.26 30.77 34.27 35.97 35.91 34.90 34.38 37.22 35.67 36.87
46.01 46.72 46.62 46.37 46.69 46.93 43.59 43.50 43.72 42.03 38.82 35.27 40.69 39.27 40.28 37.38 37.44 37.91 40.47 45.59 46.80 46.78 41.04 34.36 32.01 31.26 34.82 33.64 35.45 39.15 37.16 35.12 31.88 25.36 23.71 21.92 33.38 37.90 39.31 38.21 29.81 38.09 38.25 37.96
46.42 46.40 46.62 46.44 46.62 46.95 41.96 41.57 43.88 40.09 38.64 43.46 42.01 38.91 38.19 41.58 39.56 36.36 38.97 41.68 44.25 45.10 31.20 30.88 30.66 31.30 38.02 31.77 32.62 31.38 30.13 29.22 26.90 21.21 22.70 29.46 37.17 38.67 39.22 29.84 31.52 38.43 39.80 38.96
46.01 45.88 45.68 45.95 46.19 46.40 42.40 40.72 44.29 40.28 40.04 41.71 45.44 44.75 41.06 41.61 41.58 35.87 38.96 40.04 41.34 37.18 34.83 34.48 32.39 29.29 34.27 32.78 35.62 34.59 34.03 30.00 25.09 24.81 22.32 27.11 39.07 37.98 34.19 36.81 37.47 38.94 39.18 39.40
45.42 45.48 45.67 45.79 45.74 46.09 43.87 39.25 44.56 45.72 40.55 42.16 45.77 45.03 45.45 44.35 45.03 42.51 41.55 40.38 41.45 41.68 38.64 34.97 32.71 30.57 27.94 32.55 30.58 37.03 33.24 36.17 32.90 34.03 33.70 39.24 39.26 38.33 39.27 39.78 39.16 39.51 40.13 40.86
44.74 45.00 45.59 45.48 45.52 45.93 44.35 41.38 42.94 41.38 39.07 39.84 41.09 40.49 47.07 47.46 47.38 48.51 41.35 42.03 46.48 43.87 44.79 39.34 37.10 32.41 33.94 30.75 32.02 34.50 36.07 38.29 34.78 35.40 38.17 38.90 40.28 40.28 40.59 41.20 40.57 41.51 41.77 40.48
43.94 44.27 44.89 44.96 45.28 45.57 44.78 40.26 44.14 41.28 42.07 33.70 36.96 48.64 46.54 51.54 50.22 48.71 48.30 46.84 48.48 47.27 44.62 38.43 34.82 33.77 39.12 32.33 37.13 36.21 37.52 38.34 36.33 34.91 38.51 38.64 39.89 39.13 38.58 37.91 38.51 38.02 37.44 36.66
44.30 44.51 44.58 44.89 45.47 45.80 44.29 43.59 44.16 46.32 41.38 35.86 37.86 44.58 46.97 50.65 51.48 50.51 50.27 48.93 46.18 42.89 39.48 33.23 34.71 38.91 38.29 35.27 37.25 34.07 39.22 37.58 35.22 35.03 39.99 39.52 39.11 38.21 38.41 37.52 36.30 36.72 35.83 34.69
44.49 44.44 44.84 45.10 45.19 45.55 42.86 37.78 45.18 45.80 47.07 39.56 33.59 44.37 44.26 48.40 52.00 51.28 49.04 49.32 45.80 43.28 39.98 35.66 40.93 44.40 41.79 35.76 33.60 39.88 40.75 41.92 41.16 40.78 42.12 38.55 37.99 36.71 37.11 35.80 35.25 35.52 35.09 34.95
44.59 44.71 45.08 45.19 45.43 43.03 39.74 38.26 43.14 48.14 48.35 40.48 33.77 33.99 43.64 49.87 50.44 47.87 47.25 46.43 44.55 44.34 41.08 36.10 39.72 40.12 40.93 31.49 32.84 39.44 40.44 41.76 40.23 39.46 39.17 36.07 37.33 34.86 35.47 34.81 34.60 34.95 33.58 33.63
44.82 45.01 45.31 45.47 45.64 44.88 39.97 44.43 47.04 47.91 44.22 42.15 32.74 34.54 38.53 46.97 43.54 42.38 45.99 41.62 41.77 42.55 39.05 36.08 36.20 39.22 33.69 34.28 37.53 38.40 38.45 38.90 37.92 37.44 38.07 38.17 35.54 34.97 33.74 33.85 33.48 32.09 31.34 31.58
45.01 45.26 45.20 45.23 43.00 39.09 39.79 46.80 46.89 48.34 43.16 33.48 32.06 33.14 33.06 43.41 40.00 41.95 40.84 39.92 34.90 41.56 34.22 36.96 38.24 32.92 34.54 35.64 36.62 37.91 38.14 38.50 34.91 35.48 35.32 34.97 33.19 32.41 32.61 32.45 31.81 31.08 30.99 31.26
45.90 44.26 41.65 35.25 38.42 46.45 46.56 44.14 41.14 41.05 43.28 42.33 34.60 39.69 37.11 40.49 34.36 35.49 35.82 36.04 34.59 34.59 36.45 39.77 34.00 34.52 36.49 36.31 37.95 38.18 36.79 35.97 35.98 32.64 31.20 32.09 31.30 31.11 31.38 31.56 32.21 32.19 31.25 31.20
40.49 38.46 36.94 41.98 47.41 44.02 40.09 34.16 33.47 35.91 33.59 36.09 37.17 38.13 38.46 41.90 34.43 33.66 34.18 33.15 33.50 32.76 35.19 33.62 32.19 32.68 34.91 37.19 37.92 38.30 37.78 37.41 37.68 37.36 36.04 35.46 33.76 32.15 30.91 30.77 30.82 30.86 30.89 30.11
40.93 44.67 46.47 44.12 39.74 35.74 32.88 31.45 32.08 32.08 32.49 34.31 34.75 36.19 40.10 36.56 40.97 35.27 34.55 32.41 32.19 31.28 36.11 33.82 31.48 32.88 35.88 36.66 36.71 37.27 37.99 37.25 36.79 36.62 35.08 34.55 34.14 33.04 31.31 30.13 29.72 29.70 29.00 26.92
45.59 40.07 35.82 35.69 31.96 30.35 29.05 27.12 30.21 30.72 32.03 33.86 33.86 33.50 34.71 35.98 36.94 33.12 32.20 31.28 30.71 33.66 32.47 30.35 30.37 34.81 36.78 37.23 37.02 36.46 37.48 36.81 35.99 35.41 34.50 33.10 31.73 31.73 30.56 29.24 29.33 28.25 26.75 26.25
34.17 31.76 27.32 25.08 23.83 28.07 28.46 30.01 31.10 31.49 31.82 32.58 33.14 32.96 33.63 32.61 32.88 31.79 31.86 31.48 32.00 27.95 25.84 26.46 31.04 33.63 33.83 34.74 35.49 34.52 33.35 32.96 32.66 31.82 31.37 30.22 29.68 28.83 28.74 28.19 27.42 26.55 25.45 24.34
31.60 31.42 25.92 26.88 30.92 31.46 31.48 31.85 32.20 32.53 33.45 32.59 33.14 33.38 35.00 32.32 31.09 31.43 31.21 29.68 26.05 26.56 25.35 28.85 31.82 32.82 32.82 32.30 32.16 31.73 31.12 30.88 30.19 29.72 28.01 27.42 27.56 26.73 25.57 25.44 25.36 24.56 22.99 21.44
31.66 30.14 28.01 30.32 29.37 28.30 29.64 30.23 30.83 34.09 32.71 32.91 32.78 30.84 30.98 30.32 30.30 26.69 24.50 25.61 21.34 24.92 28.63 31.36 32.17 31.76 31.57 31.68 31.56 31.33 31.08 30.30 29.76 29.18 28.35 27.44 26.23 25.35 23.90 23.28 22.28 21.43 20.56 19.03
28.53 28.03 28.66 27.69 28.60 26.23 27.32 28.59 29.46 33.06 33.29 30.89 30.67 22.18 22.16 27.82 23.63 20.03 22.61 19.97 24.84 26.26 30.44 31.63 31.99 31.37 30.98 31.30 30.86 30.52 30.45 29.76 29.17 28.78 28.12 26.66 26.26 24.62 23.01 20.81 21.42 22.01 20.51 19.34

GFSNW_sfc_wetblb_045.txt.gz
Wetbulb
49.59 49.54 49.19 48.56 48.63 49.24 47.69 41.78 33.66 45.27 50.32 39.33 39.77 35.39 39.37 42.19 42.76 46.62 45.40 45.42 44.17 42.94 40.59 38.04 38.29 39.15 42.26 43.65 44.42 41.48 44.44 41.03 36.04 39.66 43.93 44.97 43.79 42.41 41.27 36.98 33.94 34.23 32.88 35.44
49.37 49.35 49.02 48.35 48.34 48.79 44.52 37.18 38.05 46.94 47.55 32.55 34.67 38.97 40.10 41.72 41.11 42.52 43.53 43.18 44.97 46.01 42.22 37.32 39.74 40.30 44.05 43.63 43.72 43.04 43.92 38.47 34.35 36.31 40.14 43.19 42.03 41.93 40.68 38.65 36.93 34.02 34.62 36.76
49.44 49.47 48.74 48.19 48.16 48.67 44.57 38.62 31.63 40.01 42.04 41.30 36.80 36.33 36.96 38.03 42.58 41.90 44.59 43.62 45.31 43.79 41.85 42.67 40.05 40.02 44.11 44.37 44.73 44.59 45.71 39.65 37.84 34.13 37.51 40.74 38.51 40.12 40.69 40.99 35.71 36.52 35.99 39.57
48.60 49.39 48.56 48.01 48.03 48.39 43.69 39.44 34.98 38.86 33.50 34.55 37.03 38.75 37.72 36.63 36.90 41.97 43.81 41.58 42.57 42.17 38.80 40.28 38.53 42.53 44.20 45.08 45.22 44.90 45.34 38.50 38.43 38.75 39.19 40.24 40.57 40.35 39.41 39.17 40.26 37.85 40.39 37.79
48.13 48.80 48.19 47.65 47.78 48.22 41.37 36.36 36.09 39.24 38.07 37.82 36.17 37.90 36.34 36.13 38.18 39.48 39.11 40.10 41.78 42.42 40.51 41.52 40.12 42.50 43.22 42.30 43.26 43.15 42.88 38.82 38.48 36.99 38.66 39.68 38.95 40.13 39.79 39.45 39.35 39.29 39.31 39.19
48.12 48.78 47.94 47.42 47.52 47.15 40.16 42.12 41.12 39.29 37.59 36.14 33.79 34.55 37.02 37.54 40.54 41.47 42.99 42.45 41.41 40.20 42.78 45.49 45.94 45.91 45.87 46.11 43.96 41.21 40.14 38.20 36.11 34.06 35.71 36.90 33.39 37.81 39.66 40.35 40.94 41.86 37.81 43.73
47.85 48.57 47.57 47.11 47.53 46.57 43.55 43.24 40.99 37.60 32.60 35.71 34.40 35.78 38.34 37.86 39.43 38.56 41.64 43.54 40.95 44.17 49.04 48.29 47.13 45.01 44.13 44.05 43.68 44.82 39.40 37.99 35.28 32.57 31.83 29.07 40.44 41.36 42.04 41.23 41.35 42.09 41.23 42.41
47.25 47.94 47.08 46.95 47.66 47.50 43.10 43.30 41.37 38.94 32.90 37.02 36.86 37.01 37.25 40.02 41.41 40.04 41.33 44.23 46.29 47.28 45.81 39.88 38.72 37.71 37.88 39.29 41.57 41.73 42.01 37.21 32.47 32.62 32.38 35.76 38.29 39.89 40.02 39.15 40.48 42.58 42.46 41.84
46.83 47.17 46.81 46.88 47.39 47.32 44.35 42.19 43.30 42.18 35.94 35.26 40.24 37.77 38.34 36.77 37.20 38.40 41.25 46.48 47.96 47.02 40.69 35.88 31.82 33.78 36.59 35.64 37.55 40.28 37.82 38.56 39.14 30.27 30.92 29.52 39.08 41.77 42.41 42.76 35.49 42.88 42.13 41.22
47.21 46.59 46.48 46.93 47.23 46.94 44.24 42.66 44.26 42.09 38.03 40.89 41.74 38.77 37.82 40.78 39.75 37.62 40.38 42.43 43.11 45.94 35.32 33.80 32.88 33.72 40.09 35.00 34.46 34.38 34.36 33.72 33.66 29.91 33.40 35.51 40.70 41.86 42.97 35.68 39.22 42.70 42.70 42.96
46.50 46.16 46.09 46.38 46.70 46.69 44.29 41.51 44.99 41.39 38.57 40.32 43.18 44.05 41.34 41.54 40.74 36.36 40.03 40.83 41.36 39.91 35.00 35.41 35.31 33.94 37.87 36.93 38.21 36.68 36.30 34.20 32.79 31.82 32.74 32.58 42.28 40.11 38.83 44.36 42.60 43.23 43.60 44.45
46.13 46.04 46.18 46.47 46.31 46.53 44.58 39.62 44.33 44.65 38.90 39.64 44.42 45.56 46.39 44.91 46.21 42.49 43.00 41.14 40.95 41.72 39.43 37.76 36.42 35.22 33.80 36.94 34.94 38.85 36.61 39.52 37.89 38.71 39.18 44.71 43.02 45.71 44.74 43.94 44.41 43.35 44.41 43.96
46.34 46.30 46.15 46.27 46.51 46.53 43.52 41.19 42.11 40.36 35.20 37.48 40.89 41.12 47.26 48.29 46.82 49.58 41.40 42.70 46.37 44.04 46.54 41.35 40.45 35.51 37.21 33.22 34.50 37.42 38.87 40.78 40.33 40.79 42.65 42.68 43.39 44.22 44.50 44.45 44.46 44.12 45.38 44.41
45.65 46.04 46.06 46.36 46.02 45.36 44.29 41.34 42.24 40.90 38.77 32.57 37.05 47.36 44.26 50.21 49.75 48.16 48.83 47.90 49.43 48.65 46.27 39.82 37.23 36.99 41.18 36.70 40.20 39.17 41.00 41.17 39.29 39.29 41.07 42.04 43.88 43.89 44.30 42.43 42.78 41.71 42.02 41.75
45.38 45.67 45.76 46.01 45.64 45.15 43.36 43.16 43.02 43.50 38.21 34.02 36.12 44.01 46.75 48.40 49.93 48.35 48.75 48.30 47.59 45.43 41.86 36.74 38.60 40.10 39.34 37.63 39.18 37.06 41.46 40.35 38.11 38.66 44.27 44.89 45.22 46.10 42.38 41.38 41.16 41.12 39.16 37.90
45.10 45.11 45.27 45.41 45.12 44.34 41.28 36.20 43.84 46.20 44.61 36.57 32.03 42.87 42.94 47.73 50.12 50.26 49.42 48.76 47.46 46.64 43.57 40.10 42.91 44.45 42.13 36.42 36.27 41.92 42.89 44.07 44.66 43.52 43.46 40.14 38.78 39.58 41.02 39.98 39.49 39.05 38.92 37.96
44.55 44.90 44.94 45.10 45.15 42.25 38.42 36.17 41.57 44.84 44.48 37.88 32.77 34.21 41.75 46.81 49.33 47.91 48.32 49.14 47.11 46.46 43.60 40.49 42.25 42.77 42.60 35.20 36.08 42.15 42.35 43.52 42.40 40.79 41.27 39.14 38.72 38.71 38.00 37.75 37.28 37.25 36.59 36.64
44.40 44.63 44.89 45.08 44.91 43.81 40.66 44.48 45.21 44.82 40.99 41.26 33.30 32.86 37.85 47.30 43.24 42.54 46.85 44.80 45.33 44.43 42.90 39.69 40.39 40.35 37.11 36.65 40.84 40.74 40.26 40.38 40.06 38.54 39.50 39.82 36.89 36.09 35.20 35.66 35.70 33.95 33.05 32.94
44.71 44.61 44.97 43.52 41.55 38.28 40.04 46.04 47.32 48.06 41.76 33.48 32.24 31.85 33.19 43.88 39.97 40.81 40.52 42.72 37.10 42.64 37.45 39.70 41.00 35.65 37.13 39.26 38.92 38.88 38.74 39.45 36.73 36.23 36.58 36.73 35.66 34.06 33.87 34.40 34.11 32.61 31.92 32.35
44.86 42.28 38.58 34.02 38.24 45.53 46.27 44.03 40.52 40.08 40.45 40.61 33.33 38.92 36.52 41.00 36.01 36.41 33.42 36.36 35.30 35.32 37.88 40.34 35.50 36.63 37.55 37.30 38.30 40.29 38.11 37.06 36.67 34.09 32.76 32.76 32.67 33.03 32.88 32.59 33.55 33.07 32.51 32.00
40.75 35.06 33.63 40.24 45.93 42.29 39.64 33.66 33.19 35.10 32.74 36.81 37.25 38.51 38.81 42.30 36.25 34.20 34.52 33.51 32.93 33.11 35.05 36.30 34.59 34.50 35.87 37.97 37.90 38.16 38.18 38.36 38.60 38.20 36.61 36.33 34.71 33.32 32.34 32.15 32.91 32.65 32.38 30.24
41.72 42.53 44.37 43.91 39.82 34.86 32.11 30.88 31.97 31.26 32.54 34.90 35.09 37.37 40.54 37.79 41.40 35.53 34.17 32.59 32.59 31.88 36.12 33.30 31.82 32.65 36.70 37.14 37.37 37.92 38.64 37.90 36.91 36.67 35.28 34.79 33.91 33.86 32.47 31.76 31.54 30.71 29.56 28.33
43.99 38.37 34.85 35.49 32.66 29.33 28.39 27.93 30.29 30.53 32.16 33.63 33.85 33.49 34.88 36.09 37.39 32.95 33.33 32.24 31.68 33.60 31.92 29.13 30.07 33.40 34.53 36.63 36.86 36.40 37.23 36.20 35.34 34.14 33.79 32.88 32.18 32.19 31.36 29.47 29.51 29.60 28.12 27.91
33.14 31.80 25.61 28.15 26.02 28.09 28.93 29.54 31.11 32.95 31.83 32.21 33.11 32.93 33.64 32.95 32.87 32.22 32.42 31.86 32.90 29.44 26.09 26.28 30.36 31.80 32.19 34.06 34.62 33.54 32.37 32.01 31.72 31.44 31.14 30.50 29.94 29.13 29.37 29.13 29.06 27.32 25.79 25.92
31.41 29.99 25.54 27.40 31.08 31.06 31.44 31.86 32.04 31.97 33.25 32.90 33.30 33.82 35.10 32.24 32.01 32.06 32.01 30.44 25.11 25.15 23.98 27.97 30.75 32.36 32.92 32.36 32.30 31.38 30.44 29.76 29.31 29.27 28.23 27.84 27.76 27.32 27.09 27.74 27.28 25.69 24.36 23.49
29.63 25.66 24.29 27.25 26.16 24.39 26.10 26.30 28.21 32.62 31.95 33.31 33.62 31.53 31.22 28.23 27.82 24.28 21.32 23.17 19.56 22.52 25.08 26.96 31.82 31.58 31.35 30.90 30.65 30.29 30.04 29.24 29.01 28.76 28.26 27.26 26.18 25.34 24.39 24.35 23.36 22.55 22.50 21.31
28.66 24.46 25.62 24.29 24.72 23.08 24.35 26.16 27.12 31.25 32.54 27.73 28.28 20.86 20.55 26.37 20.99 18.00 20.43 16.97 19.94 22.78 24.17 30.72 32.00 31.17 30.83 31.22 30.90 30.47 30.09 29.14 28.65 27.89 27.03 25.37 24.57 24.37 23.53 21.87 22.40 22.56 21.43 21.30

GFSNW_sfc_wetblb_048.txt.gz
Wetbulb
49.80 49.95 50.01 49.98 49.55 49.09 48.06 42.88 34.32 49.63 51.62 36.95 38.34 34.25 41.03 42.94 44.18 49.17 47.22 47.90 46.55 44.75 43.92 42.26 41.28 42.20 44.99 48.70 49.41 45.08 48.34 45.47 40.87 43.18 47.79 49.09 48.17 46.14 46.36 40.36 38.16 40.92 40.08 40.12
49.61 49.62 49.77 49.72 49.30 48.95 45.51 36.87 38.47 49.09 46.90 30.56 33.73 38.94 40.37 42.62 43.05 45.53 45.94 45.63 47.58 48.01 44.60 40.80 43.46 44.64 48.87 48.72 48.43 46.85 47.69 43.55 38.53 40.04 43.71 46.76 45.06 46.49 46.82 45.82 43.82 40.12 38.33 40.72
49.38 49.54 49.42 49.58 49.12 49.01 45.94 38.04 32.56 39.84 41.30 42.78 38.38 37.24 36.35 38.13 44.10 44.09 47.09 46.47 48.20 46.47 44.46 45.51 41.46 43.24 45.43 48.05 49.10 46.82 48.65 45.24 41.86 37.80 40.97 44.70 42.54 44.39 45.74 44.84 40.65 40.89 41.67 42.90
47.84 49.13 49.21 49.34 49.19 48.34 45.82 38.60 36.65 39.62 32.75 36.12 39.93 41.04 39.11 37.52 37.53 44.02 46.34 44.98 45.87 45.18 41.73 42.13 41.40 43.11 45.20 46.03 45.77 47.91 48.51 42.13 44.18 44.14 44.70 44.58 43.62 43.47 44.53 43.25 44.32 41.32 43.66 44.18
47.46 48.41 48.75 48.92 48.74 48.11 41.72 34.13 37.87 42.22 39.10 39.27 37.45 39.29 36.90 37.63 39.54 41.13 41.41 42.18 45.16 46.46 43.49 43.62 41.19 43.90 44.18 45.02 47.03 47.00 48.52 42.49 44.49 41.99 44.55 43.88 42.06 43.94 44.37 44.86 44.82 45.31 45.48 44.88
47.57 47.85 48.25 48.47 48.63 47.05 40.12 42.49 45.38 42.45 38.83 37.88 35.05 37.67 38.73 38.58 41.68 43.47 44.19 44.44 43.23 43.48 45.31 47.77 47.50 47.68 47.23 47.55 46.39 46.08 45.57 43.96 41.79 38.04 42.89 42.33 36.70 42.61 44.41 45.27 46.87 46.52 43.22 47.52
47.33 47.45 47.44 48.01 48.39 46.67 45.97 45.14 44.30 39.83 35.28 37.55 35.68 37.12 39.41 39.62 41.31 40.79 44.13 45.49 43.71 47.28 50.16 49.49 48.30 46.61 46.38 47.79 48.07 49.24 45.26 44.35 43.45 38.77 36.71 32.69 43.82 47.52 48.23 46.30 47.50 48.87 48.11 49.00
47.06 47.07 47.20 47.11 48.02 47.07 45.14 47.56 44.43 40.80 36.30 38.88 38.43 37.65 38.34 40.60 42.77 42.36 43.15 45.63 47.55 50.26 46.78 41.60 37.77 38.75 39.80 43.54 46.62 47.38 48.45 45.69 40.43 38.22 37.07 41.67 41.69 43.80 44.95 44.61 45.34 49.57 48.54 49.34
46.95 46.97 46.93 46.59 47.42 47.06 45.64 47.08 49.47 45.36 39.49 37.55 41.08 39.17 39.11 38.06 40.22 41.63 43.88 48.06 50.86 48.85 44.50 41.37 35.43 32.98 34.75 38.08 41.05 44.29 45.64 46.17 44.07 37.51 35.86 34.21 43.69 47.98 49.60 48.15 41.96 49.66 49.44 48.59
46.64 46.56 46.52 47.22 46.94 46.91 45.79 45.73 49.93 46.39 39.84 42.86 43.05 39.34 38.13 41.91 41.12 40.83 43.07 45.20 45.63 48.35 42.30 38.82 36.55 35.54 41.06 35.13 37.45 37.09 38.57 39.56 38.79 39.60 38.89 42.50 47.31 47.97 48.71 39.91 43.73 49.89 50.18 50.14
46.35 46.30 46.79 46.73 46.75 46.83 45.40 44.54 49.28 47.29 41.73 42.24 44.23 45.28 42.33 42.76 43.01 40.59 43.97 43.79 44.31 43.19 39.33 39.60 39.98 39.40 40.90 40.93 42.15 40.97 39.24 38.52 38.43 40.87 38.28 36.00 47.78 45.63 44.29 50.08 50.49 51.23 50.74 51.01
45.86 46.64 46.55 46.38 46.94 46.47 46.61 41.78 47.32 48.67 44.29 38.75 43.94 45.45 47.43 45.94 48.20 46.09 46.98 44.02 44.06 44.85 41.68 43.16 43.27 40.99 40.83 41.20 37.45 45.02 39.51 44.76 43.40 43.23 43.86 50.58 49.28 50.68 51.51 52.94 52.02 50.41 51.39 50.98
46.25 46.85 46.27 46.39 47.05 46.42 45.41 43.04 45.27 45.17 41.83 41.63 39.94 38.91 46.33 49.81 50.31 53.35 44.97 47.07 47.96 46.63 49.87 46.26 45.31 42.19 44.68 40.51 41.41 42.82 44.90 46.02 43.58 43.26 48.45 48.91 50.10 51.02 50.74 50.87 51.33 51.01 51.83 51.35
46.41 46.29 45.97 46.98 47.08 46.50 45.34 42.69 45.97 45.29 41.09 35.22 37.28 45.90 44.12 50.00 51.18 51.69 51.90 50.09 51.95 51.22 49.54 46.99 43.90 42.74 46.38 44.46 45.12 43.29 46.79 44.71 45.01 45.95 49.07 46.89 49.09 51.01 52.05 49.79 49.44 49.23 50.44 50.78
45.74 45.84 46.57 46.82 46.00 45.81 46.37 45.77 46.24 46.63 41.28 35.01 37.27 43.26 45.30 45.32 49.30 50.57 51.07 50.47 50.18 50.16 46.86 41.08 42.21 47.12 45.61 44.89 44.23 44.62 46.52 45.80 44.10 44.12 50.23 49.29 51.62 53.13 52.84 50.04 48.37 48.95 49.13 48.20
46.16 46.18 45.88 45.23 45.34 45.14 42.64 37.98 44.41 47.69 45.84 38.39 32.80 43.77 42.96 44.61 48.01 48.46 49.01 50.04 49.21 49.64 47.71 47.10 48.21 48.40 46.46 41.96 41.77 46.88 48.40 49.24 50.22 48.71 47.85 47.93 46.12 46.44 50.75 50.15 48.83 48.69 47.92 48.23
45.56 45.19 44.78 44.96 44.74 45.53 40.88 38.43 43.39 45.82 46.24 39.12 33.45 37.11 43.33 44.84 45.24 49.53 49.30 50.37 48.91 48.37 46.74 45.95 47.04 47.75 46.83 43.59 40.90 47.29 48.61 49.35 48.45 46.93 44.93 44.88 43.51 44.75 44.17 45.74 45.67 44.72 46.29 45.69
45.08 44.52 44.70 44.65 44.45 44.62 43.77 47.93 46.21 48.45 44.50 42.91 33.81 34.54 40.63 48.06 44.55 42.67 48.68 45.81 47.52 48.31 47.01 47.18 45.27 46.48 45.67 41.60 45.96 48.49 47.45 46.05 45.72 45.50 44.07 44.14 43.22 42.56 41.84 41.67 42.28 41.68 41.44 41.53
44.92 44.97 44.55 44.40 43.45 41.24 40.96 45.84 46.00 49.52 44.63 35.87 33.01 33.43 35.52 46.54 43.98 43.86 42.16 45.25 37.75 46.27 43.36 44.65 46.32 43.47 40.80 43.75 45.90 47.04 45.84 44.51 45.41 41.71 41.83 41.34 41.05 40.35 38.94 39.73 39.79 38.98 37.59 38.10
44.23 43.39 39.18 35.28 41.11 45.05 44.18 41.21 38.69 39.07 40.43 39.71 34.70 38.85 35.49 42.71 38.12 39.93 40.45 37.95 37.04 34.89 41.37 46.20 41.91 41.86 43.03 41.75 42.31 43.66 43.98 43.43 42.71 40.27 39.04 39.01 38.46 38.61 38.09 37.91 38.84 37.21 36.63 35.92
42.67 38.15 36.97 43.80 45.86 42.66 40.35 35.40 34.64 35.29 32.15 37.45 40.57 40.32 36.50 43.78 37.43 37.52 41.10 37.46 34.33 32.89 37.07 40.38 37.06 35.57 35.41 39.33 41.09 42.19 40.71 41.28 42.87 44.30 43.40 42.54 41.16 38.67 37.74 36.21 36.64 36.22 34.59 32.77
41.57 41.48 45.22 44.94 40.90 38.99 34.17 32.53 33.98 32.85 33.33 37.00 37.48 38.80 38.98 40.26 44.22 38.25 35.86 35.59 33.43 32.17 36.70 35.59 31.18 33.22 35.24 36.85 37.97 39.60 41.50 42.06 41.59 41.79 41.09 40.23 39.37 38.80 36.94 35.22 33.72 32.72 31.36 30.43
44.34 41.22 36.62 37.47 34.73 29.27 30.31 28.69 32.20 32.26 32.35 34.38 36.11 34.87 40.01 39.30 38.46 35.04 35.71 34.34 33.62 35.05 31.97 29.60 29.65 32.49 34.52 33.78 34.80 34.23 35.21 35.42 35.37 35.44 35.45 34.96 34.16 34.34 32.69 30.17 30.32 30.14 29.47 29.39
36.21 33.34 28.88 31.79 29.50 30.74 31.40 30.53 32.89 32.71 32.17 32.89 34.34 33.80 34.51 33.60 33.43 33.43 33.43 32.53 34.45 31.24 28.58 27.08 29.96 30.14 32.59 33.71 33.57 32.85 31.32 31.55 31.39 31.01 30.76 30.09 29.47 29.34 29.80 29.78 29.95 29.30 28.56 28.85
31.81 32.09 26.73 27.55 30.29 29.65 30.29 30.85 33.80 33.40 32.86 33.25 32.80 34.34 36.16 33.07 33.62 32.29 34.19 31.00 25.39 25.55 23.49 27.02 29.91 29.75 32.85 32.17 31.57 30.25 29.55 29.30 29.20 29.77 29.13 29.47 30.01 29.62 28.98 29.32 29.03 28.07 27.14 26.42
29.46 25.34 23.36 26.27 26.75 24.96 25.89 26.75 27.58 31.63 31.50 32.15 34.22 34.02 31.38 28.12 28.00 25.33 23.01 24.06 19.26 22.26 24.54 27.82 30.35 32.44 32.08 32.00 31.52 30.80 30.76 30.46 30.08 29.76 29.30 28.57 27.42 26.44 25.90 26.38 25.81 25.76 25.51 24.37
27.34 24.13 25.03 23.56 23.78 22.46 24.16 25.84 27.23 30.68 32.51 29.69 29.09 23.25 22.32 28.50 23.18 19.39 21.58 18.64 21.26 23.36 25.93 25.93 28.47 30.88 31.03 31.06 31.00 30.54 30.22 29.22 28.60 27.60 27.17 27.06 27.46 27.67 26.45 24.36 24.59 24.55 24.28 23.78

GFSNW_sfc_wetblb_051.txt.gz
Wetbulb
50.49 50.70 50.70 50.62 50.31 49.98 48.02 42.96 34.86 47.98 52.59 37.50 37.95 33.90 40.26 43.49 45.21 46.93 45.74 47.10 47.21 44.20 46.51 45.21 44.17 44.30 46.94 49.43 49.37 45.16 49.13 46.74 42.64 44.65 49.44 50.56 49.02 47.19 47.28 41.54 40.67 43.09 41.62 41.69
50.23 50.48 50.35 50.32 50.11 49.92 45.50 38.59 39.37 50.63 49.59 31.05 33.67 38.27 38.93 41.77 42.64 43.99 43.51 44.48 47.86 49.10 46.51 43.69 45.97 45.96 49.73 49.83 48.70 47.36 48.95 44.54 39.61 41.79 46.09 48.94 47.07 48.51 48.62 48.25 46.70 41.48 38.64 41.26
48.88 49.25 49.54 50.09 49.88 49.94 46.08 39.03 32.98 39.72 42.21 42.64 38.39 36.77 37.73 37.44 44.25 44.19 44.99 44.55 47.50 46.49 46.36 48.11 45.23 45.84 48.20 50.19 49.54 48.62 49.00 46.18 42.89 39.15 42.54 45.99 43.76 45.52 47.01 46.27 42.57 41.93 41.96 43.73
47.88 48.14 48.90 49.68 49.64 49.80 45.36 39.13 36.74 39.36 32.65 36.48 39.87 40.16 39.18 37.05 37.65 44.17 45.63 42.45 42.60 44.81 42.43 44.67 44.59 46.90 46.39 47.86 47.78 48.86 49.08 43.26 44.57 44.77 45.95 46.12 45.38 45.12 45.44 44.37 45.29 42.05 44.18 44.25
47.67 47.82 48.11 48.82 49.41 49.55 42.72 34.02 38.72 41.92 40.28 40.21 38.22 38.74 37.44 37.94 39.66 41.65 41.49 41.86 42.58 45.38 43.57 45.17 44.06 46.50 45.48 44.66 47.87 47.69 49.69 43.53 45.14 42.44 45.38 45.06 43.09 45.04 45.08 45.23 45.63 45.65 45.78 45.19
47.72 47.78 47.74 48.67 49.12 48.72 41.16 40.91 44.84 43.42 38.84 38.59 37.19 37.65 38.36 38.51 41.65 42.98 44.12 44.76 44.07 42.39 45.87 49.27 50.49 49.07 48.62 48.27 46.74 46.31 46.03 45.33 42.73 39.13 44.11 44.06 39.93 43.78 44.71 45.38 46.58 46.42 43.24 47.52
47.95 47.66 47.63 47.87 48.55 48.57 42.12 43.72 44.90 40.48 36.31 37.93 38.24 39.21 40.39 39.46 41.25 40.72 43.64 45.06 44.19 47.17 51.48 51.05 49.27 47.08 46.15 47.31 47.01 48.70 45.76 45.22 44.15 39.93 39.17 33.42 44.06 48.90 48.20 46.32 47.31 48.42 48.44 49.42
48.11 47.37 47.33 47.17 48.48 48.52 43.71 46.49 44.33 41.99 37.68 39.50 39.15 39.18 40.23 41.46 43.02 42.12 43.13 45.38 47.92 50.77 48.54 43.05 40.12 39.08 38.82 41.64 45.67 45.99 48.92 46.29 41.80 38.50 38.29 41.65 44.33 46.67 46.82 45.74 45.34 49.37 48.81 50.23
47.21 46.97 47.05 46.83 47.08 48.39 45.81 48.87 49.20 45.65 39.20 38.84 41.82 39.03 41.27 39.00 40.79 41.83 42.52 48.07 51.85 50.11 44.53 41.00 35.14 32.43 35.96 35.15 37.41 45.77 46.99 48.07 43.75 41.08 35.90 33.33 43.73 48.35 51.11 50.35 42.87 50.41 50.72 50.35
46.33 46.44 46.87 46.80 47.42 48.26 45.84 46.37 49.08 45.95 39.35 43.02 42.73 39.31 40.30 43.13 42.62 40.57 43.14 46.34 46.24 49.14 41.55 37.94 35.99 35.63 40.75 35.19 35.62 38.19 40.97 42.55 39.95 40.54 38.87 42.11 47.98 49.60 51.80 41.60 43.96 51.62 51.34 50.89
46.62 46.87 46.62 46.75 47.24 47.82 45.73 44.40 48.88 46.72 42.36 43.24 43.70 45.01 43.48 42.48 43.39 39.73 43.67 43.20 44.17 43.41 39.33 39.01 38.71 39.62 40.34 39.95 41.84 41.03 39.68 38.93 39.59 41.47 38.97 36.63 50.84 49.55 45.53 50.64 54.00 53.28 53.17 52.92
46.11 46.41 46.28 46.62 47.11 47.36 46.95 43.19 48.29 50.76 44.44 41.98 46.63 48.37 49.88 47.58 48.21 45.98 46.72 44.57 44.76 45.34 41.96 43.47 43.28 42.69 43.43 41.07 37.65 44.76 39.66 44.14 42.57 44.02 44.19 51.23 51.32 51.77 53.32 54.45 53.66 54.56 54.13 53.90
46.09 46.27 46.45 46.66 47.13 47.08 47.12 47.70 48.61 46.85 41.65 42.92 44.33 44.29 47.69 49.52 51.59 53.79 45.58 47.31 49.25 47.98 50.31 46.13 45.09 41.11 44.29 40.98 41.63 43.02 46.22 48.58 46.08 45.70 48.65 50.28 52.31 52.68 54.00 54.69 54.61 55.30 55.30 54.10
46.02 46.16 46.08 46.56 46.46 46.71 47.04 45.78 47.93 46.34 42.87 37.13 39.99 47.48 45.14 49.41 50.30 51.36 52.15 50.54 52.22 51.15 49.86 46.96 45.63 43.07 46.44 43.76 44.41 43.08 45.80 47.09 45.56 45.60 47.81 49.99 51.74 52.68 53.75 54.20 54.38 53.94 53.37 53.87
46.28 46.49 46.16 45.96 46.57 46.76 47.03 47.02 48.16 48.49 42.74 38.39 40.03 44.25 46.54 48.02 47.28 48.53 49.60 50.70 49.20 48.52 46.31 46.26 43.08 45.91 44.94 46.71 46.72 43.91 46.73 45.73 43.70 43.73 48.36 50.31 51.25 53.51 54.48 54.37 53.74 53.07 52.32 52.39
46.14 46.18 46.69 46.18 46.14 45.95 44.75 38.31 45.72 48.14 47.59 41.01 37.30 44.23 44.33 46.32 46.54 45.86 47.09 49.87 49.72 48.99 46.47 46.63 47.10 48.57 46.49 44.21 41.42 45.78 46.82 49.17 50.33 48.75 51.93 51.85 52.25 50.07 50.30 53.09 54.59 53.98 52.61 52.95
45.66 45.91 45.63 45.63 45.44 45.20 41.54 40.14 44.95 46.64 48.89 42.19 36.36 36.61 44.13 45.86 44.34 43.53 45.88 49.34 48.35 48.96 47.90 46.58 46.90 47.50 47.55 46.28 41.02 44.71 47.30 50.00 50.96 52.42 49.85 47.97 48.60 48.59 48.60 51.10 53.36 50.20 51.98 52.14
45.11 45.01 45.32 45.60 45.58 45.23 44.38 47.15 45.99 47.81 44.88 43.73 33.06 35.24 38.30 43.48 39.40 37.85 47.31 45.89 47.58 47.15 45.52 47.18 45.81 47.87 47.82 41.66 45.39 47.15 48.32 49.32 49.91 50.12 49.24 48.31 46.99 46.65 46.58 48.07 47.36 47.94 48.08 48.61
44.54 44.22 44.47 44.98 43.10 41.24 43.98 45.86 45.79 49.90 45.35 36.65 35.19 33.00 34.16 42.94 38.42 41.48 42.52 45.90 41.03 47.23 43.96 44.33 46.04 43.49 40.65 43.14 45.16 45.35 45.79 47.32 46.56 47.69 46.06 45.87 44.69 45.73 44.56 44.44 44.70 44.53 44.47 44.72
44.05 43.90 40.70 37.23 42.69 45.50 45.26 43.40 39.34 40.86 43.36 40.58 35.47 40.48 36.63 42.02 41.96 40.13 39.74 39.52 40.29 36.80 42.82 47.17 42.34 42.22 39.64 37.46 40.75 44.67 44.74 45.24 45.70 44.23 44.20 44.97 44.21 44.11 43.33 43.37 44.32 43.83 42.97 42.49
44.67 41.26 38.07 43.32 45.33 43.01 38.98 33.89 34.40 34.81 34.11 37.58 40.00 40.92 38.96 43.91 38.81 37.53 42.61 35.17 37.48 35.53 38.28 41.24 39.83 35.08 32.18 35.68 37.04 41.18 43.75 44.97 45.02 45.31 46.14 46.00 45.58 44.99 43.21 41.99 41.60 40.82 39.52 37.55
42.54 43.78 44.80 42.66 39.13 37.61 34.44 33.30 35.32 35.61 35.03 38.34 38.50 40.89 43.34 44.07 43.57 36.66 38.93 36.42 35.52 33.00 36.61 34.60 28.36 30.98 33.01 34.38 34.23 35.35 37.88 39.43 39.43 41.27 41.84 42.10 42.69 42.76 40.81 38.37 36.00 34.15 32.37 31.15
47.28 42.84 38.42 37.05 35.93 30.33 30.40 28.27 32.37 32.95 34.99 34.40 37.17 37.70 41.87 42.01 39.46 34.81 35.35 34.08 33.00 34.22 32.27 29.37 29.53 32.46 32.90 34.22 34.53 34.02 33.97 33.64 33.60 32.62 32.39 32.11 31.99 32.32 31.96 30.30 30.74 30.69 29.44 28.79
36.97 35.17 30.46 31.52 29.30 28.25 27.78 28.46 31.31 32.81 33.18 33.54 34.08 36.08 36.38 34.99 32.81 32.09 33.18 32.45 35.02 32.09 28.98 25.77 28.64 30.16 32.98 34.17 34.19 32.22 30.65 30.88 30.78 30.18 30.12 29.40 29.33 29.22 30.18 30.53 30.74 29.80 29.00 28.96
32.33 33.06 25.99 27.85 30.88 30.13 30.78 32.27 33.01 32.60 32.98 32.63 33.36 34.20 34.76 33.54 32.27 32.63 33.66 31.18 25.55 25.15 23.80 26.34 29.08 30.64 33.13 32.11 31.95 31.51 31.16 31.14 31.25 31.20 29.92 29.54 29.48 28.94 28.53 29.30 29.43 28.44 27.23 25.72
29.88 25.95 25.76 27.22 28.73 25.71 26.55 27.12 28.94 32.92 33.25 32.81 33.90 33.18 30.30 28.75 29.74 26.49 25.16 24.42 20.26 22.83 26.05 27.71 29.88 31.24 31.36 31.18 31.31 31.07 31.35 30.74 30.16 29.58 28.66 28.29 27.66 27.45 27.30 27.63 27.14 26.70 26.23 25.36
26.66 24.60 25.82 25.74 24.62 23.66 24.96 26.57 27.39 31.87 32.54 30.62 30.76 25.55 24.42 29.93 24.31 20.51 22.72 20.62 23.04 25.73 25.73 27.31 27.95 28.11 29.38 30.20 30.19 29.92 29.83 29.20 29.10 28.98 28.75 28.49 28.37 27.65 26.31 24.18 24.78 24.67 24.47 24.68

GFSNW_sfc_wetblb_054.txt.gz
Wetbulb
50.55 50.84 50.99 50.70 50.64 50.60 48.75 43.17 34.21 47.78 49.77 36.65 38.01 34.27 38.15 41.59 41.44 43.58 43.19 43.97 42.34 42.06 44.22 44.07 44.54 43.42 46.63 50.30 49.47 45.34 48.30 46.35 41.04 43.55 48.30 49.30 47.89 45.99 46.26 40.41 39.23 42.96 40.45 39.90
50.36 50.33 50.52 50.64 50.44 50.45 46.68 38.95 38.79 47.61 47.60 31.05 32.98 37.96 37.21 40.13 40.48 40.64 41.90 41.77 43.78 45.01 43.70 41.07 45.44 47.20 49.84 51.12 49.17 47.28 47.58 43.46 38.40 39.82 44.99 48.05 45.14 47.06 47.30 47.05 46.08 41.33 36.74 39.93
48.64 48.93 50.31 50.72 50.38 50.45 47.35 38.83 32.45 39.98 41.69 41.49 36.35 35.41 35.91 36.07 41.36 41.16 42.45 43.16 45.22 43.49 42.25 45.52 43.45 45.61 49.26 51.38 49.49 48.21 48.46 45.48 42.22 37.43 40.83 45.26 43.49 45.25 47.26 46.07 40.57 41.17 41.66 43.78
48.48 48.64 48.98 49.83 50.39 50.24 46.91 38.91 34.75 39.73 31.63 34.29 38.03 39.23 37.91 35.77 36.09 40.59 42.33 40.77 42.45 42.19 39.73 40.75 40.01 45.79 47.37 48.59 48.12 49.84 48.86 42.11 44.63 44.70 45.16 45.84 45.35 44.68 45.22 44.32 44.76 41.17 43.63 44.10
47.95 48.16 48.21 49.18 50.06 50.07 44.83 32.51 36.80 40.89 38.58 38.32 37.11 36.99 36.95 36.22 38.53 38.87 37.52 38.94 41.87 43.76 40.84 41.79 39.19 43.43 46.14 44.73 47.98 47.02 48.53 42.45 44.40 42.32 44.55 44.40 42.79 45.16 45.09 45.03 44.88 44.66 45.43 45.29
47.13 47.34 47.54 47.88 48.27 48.96 43.46 40.31 44.03 41.32 37.81 37.69 35.88 35.27 38.01 38.06 40.49 41.70 41.84 41.64 42.14 42.15 43.58 47.34 48.15 45.14 47.20 48.48 47.05 45.81 45.50 44.47 41.95 37.55 43.58 42.60 36.72 43.43 44.67 45.20 46.73 45.72 42.41 47.09
47.14 47.23 47.35 47.36 47.66 47.88 43.65 40.11 43.70 37.53 33.42 36.96 36.66 38.00 39.27 38.68 39.97 39.46 42.42 43.68 42.22 46.21 51.06 50.35 48.59 46.18 42.96 43.66 47.74 48.78 44.98 43.93 42.74 37.89 38.33 30.88 43.09 48.32 47.46 45.56 46.40 47.54 47.08 48.03
47.37 46.97 47.18 47.25 47.36 48.07 44.73 44.37 42.91 39.48 35.01 38.85 38.55 38.91 39.27 40.27 41.33 41.04 42.34 44.52 46.53 49.71 48.63 42.28 37.69 36.01 35.87 39.78 46.24 45.70 46.64 43.85 40.18 36.31 36.01 40.66 43.42 45.92 45.70 44.52 44.09 48.57 47.68 48.77
47.39 47.40 47.45 47.39 47.44 47.87 45.92 44.66 47.83 43.72 37.65 37.80 41.39 39.24 40.48 38.29 38.54 39.80 42.56 46.61 49.59 48.38 42.81 40.08 32.39 30.57 33.64 32.82 38.74 46.14 45.56 44.59 40.34 40.51 33.83 30.93 42.67 47.67 49.98 49.63 39.82 49.67 49.66 50.06
47.02 47.26 47.43 47.55 47.53 47.71 46.28 44.48 47.74 44.89 38.15 42.77 42.51 39.02 39.59 42.73 40.76 39.16 42.56 43.05 44.47 49.10 40.43 36.11 35.11 33.99 39.47 33.18 33.90 34.50 37.25 36.81 36.42 37.75 36.34 40.79 46.91 48.60 49.86 39.15 40.88 51.44 51.71 51.61
47.21 46.99 47.05 47.13 47.44 47.44 46.33 43.97 47.50 44.61 39.79 43.44 44.39 43.66 41.25 42.26 42.20 38.09 43.55 41.73 43.67 40.45 37.82 37.53 37.54 36.97 38.03 37.38 39.41 38.80 36.40 34.56 36.53 38.92 36.39 34.03 50.19 48.83 43.49 47.76 51.12 53.91 53.21 54.06
46.52 46.49 46.86 47.25 47.24 47.15 47.20 43.07 47.68 49.86 44.06 42.03 46.97 47.29 48.42 47.42 47.26 44.36 45.17 43.45 43.51 43.55 39.40 41.65 41.49 40.34 41.00 39.30 34.50 44.25 36.71 40.45 38.66 41.89 42.23 49.84 49.90 50.01 52.68 53.15 53.11 53.86 53.99 54.46
45.84 46.15 46.79 47.06 46.98 47.45 46.97 45.00 47.33 48.23 40.29 42.01 43.22 42.68 47.87 49.57 50.21 52.84 43.43 46.37 47.42 44.32 48.17 44.37 43.71 40.32 42.66 37.62 38.24 41.25 44.97 46.83 43.22 43.72 45.90 45.97 50.09 52.00 52.67 53.56 53.12 54.43 54.98 55.35
46.45 46.03 46.10 46.61 46.68 47.00 47.39 44.77 48.42 46.62 42.10 36.04 39.00 48.24 45.47 50.18 50.54 50.32 50.64 49.15 50.74 51.02 49.18 46.08 44.27 42.10 46.56 41.29 41.94 40.34 43.84 45.86 45.00 44.72 46.95 47.61 48.13 50.06 51.91 52.93 54.28 54.44 54.66 54.18
46.29 46.28 46.45 46.93 47.31 47.48 47.81 47.68 47.84 48.57 42.76 35.98 38.73 44.78 46.64 48.52 48.62 48.19 48.86 49.46 48.09 45.55 42.96 44.36 42.33 45.21 45.54 47.35 44.93 42.02 45.82 43.92 41.64 42.55 48.44 48.56 49.72 51.40 54.63 51.32 52.08 53.90 52.81 52.83
46.12 46.59 46.58 46.47 46.97 47.18 44.56 38.01 45.89 48.39 47.52 39.70 34.83 44.72 43.54 45.55 47.45 46.67 46.61 47.16 47.35 47.52 44.01 43.59 45.85 48.92 46.10 42.31 39.36 44.96 46.58 47.11 47.03 46.66 49.57 50.59 51.77 50.71 51.53 49.95 50.88 53.77 53.91 53.31
46.01 46.17 45.91 46.43 46.12 46.02 42.71 39.99 44.47 47.69 48.32 40.52 36.28 36.85 43.30 45.51 45.28 44.87 44.80 46.71 46.17 46.45 45.76 45.20 45.28 45.29 45.47 43.27 39.09 44.82 46.98 48.15 50.30 51.69 50.67 49.48 49.96 48.11 48.44 48.24 50.31 51.54 53.03 52.53
45.87 46.10 45.77 45.75 45.91 46.06 43.70 46.12 46.27 47.65 44.00 41.71 34.87 34.65 39.17 45.26 40.69 39.61 44.87 43.54 44.94 44.93 43.07 45.76 44.45 46.08 47.10 40.16 43.79 45.56 46.00 47.86 48.57 49.51 51.41 49.38 48.94 48.18 48.27 48.01 48.36 47.43 49.42 48.97
45.02 45.42 45.80 45.07 44.32 41.62 43.16 45.62 45.69 50.53 44.43 36.70 36.26 32.74 32.81 43.41 40.45 41.75 44.19 44.73 36.55 44.68 42.73 43.33 45.31 42.62 37.01 34.88 36.19 39.24 42.46 43.36 44.03 46.69 46.83 46.99 46.00 45.75 46.45 44.98 45.05 44.60 44.40 45.38
45.33 45.46 41.01 37.69 42.42 45.37 45.14 43.74 40.43 41.08 42.48 42.18 35.23 40.49 35.42 38.57 37.20 38.30 40.49 42.20 36.81 36.19 40.97 45.51 42.03 34.61 35.36 34.33 35.60 37.24 37.97 41.03 44.48 43.37 43.19 44.25 44.19 45.92 45.28 44.00 44.99 44.94 44.50 42.67
44.78 40.19 37.75 43.60 45.75 42.82 39.24 34.62 34.10 36.12 32.77 37.62 38.10 38.82 36.92 39.79 34.12 34.15 40.49 36.21 36.67 33.80 38.31 38.66 38.14 28.22 30.86 33.86 34.69 35.51 36.23 39.26 40.09 42.89 42.90 43.22 43.81 44.80 43.98 41.25 40.07 37.31 34.48 32.27
42.40 42.64 43.83 42.78 38.92 35.58 33.58 32.43 33.96 33.19 32.91 38.00 38.05 39.48 41.23 39.80 42.22 32.49 34.44 33.43 33.62 32.17 36.84 33.58 27.60 28.79 32.23 32.72 32.67 32.77 33.71 34.67 34.24 35.42 36.02 36.11 36.21 36.10 34.32 32.68 31.22 30.66 30.54 29.69
46.58 42.54 37.71 36.24 35.93 30.42 29.67 27.43 30.35 30.92 33.02 33.59 34.27 34.90 38.11 40.93 39.25 33.08 33.41 32.35 31.60 35.51 31.44 26.22 26.87 29.54 32.13 33.03 32.59 30.90 31.59 31.04 30.58 30.13 30.40 30.38 29.97 30.35 29.94 28.13 28.04 27.66 26.73 26.52
37.84 35.23 29.58 31.10 27.27 28.05 27.21 27.48 29.39 32.34 32.54 32.52 33.43 34.17 33.61 33.80 33.08 31.81 31.81 31.61 33.19 30.19 25.37 22.00 25.91 30.01 30.60 31.86 32.46 31.10 30.35 30.36 29.73 29.25 29.19 28.67 28.61 28.51 29.05 28.68 28.10 26.95 25.78 25.92
31.27 31.07 24.86 25.88 29.72 29.20 29.55 29.45 31.35 32.33 33.12 33.08 33.62 33.44 36.06 32.70 32.67 31.51 32.64 29.41 22.44 22.77 21.10 24.01 27.43 29.96 30.20 29.92 30.13 29.55 29.09 28.65 28.25 28.60 27.64 27.16 26.90 26.43 26.02 26.77 26.34 25.58 24.62 24.11
28.79 25.58 24.81 26.00 26.19 24.91 26.54 26.95 28.46 31.77 31.20 32.79 32.99 33.08 30.70 27.91 27.85 24.33 22.70 22.46 18.67 20.87 24.05 26.11 27.83 28.28 28.84 28.84 29.29 29.37 29.52 29.08 28.29 27.89 27.30 26.50 25.08 24.37 24.43 25.22 25.27 25.29 25.05 24.35
26.75 24.68 26.62 25.90 25.31 24.17 26.38 27.80 27.75 31.81 29.20 30.56 30.30 24.30 23.70 29.95 23.00 19.62 22.65 19.85 21.57 23.50 23.92 25.96 26.39 26.11 26.74 27.49 28.00 28.22 28.39 28.06 27.40 26.94 26.67 26.31 26.79 26.00 24.64 23.18 24.28 24.56 24.72 24.35

GFSNW_sfc_wetblb_057.txt.gz
Wetbulb
49.74 50.35 50.77 50.90 51.28 50.88 49.19 43.73 34.71 46.09 47.90 35.75 36.29 31.27 34.53 38.84 38.71 41.67 39.84 39.40 38.15 36.54 37.55 37.04 38.35 38.93 43.35 47.17 46.39 42.56 44.73 41.33 36.53 40.19 46.61 48.10 46.02 42.49 41.86 35.48 35.33 36.77 33.30 34.16
49.38 49.62 50.31 50.63 50.76 50.71 47.01 39.76 38.96 46.06 44.91 30.11 30.54 35.30 34.99 37.05 36.13 38.20 37.63 37.45 39.41 39.69 37.33 34.57 41.76 43.25 47.15 48.99 46.34 43.82 44.06 39.87 34.53 37.71 41.71 45.72 42.82 43.42 44.50 43.48 41.42 36.25 31.02 35.03
49.14 49.57 49.79 49.81 50.38 50.78 47.69 38.46 31.63 38.71 40.95 38.20 32.75 32.04 32.65 33.12 39.21 37.17 38.63 38.45 39.74 37.47 36.01 39.99 40.09 41.59 46.19 47.39 46.39 47.95 46.96 41.02 38.26 33.33 37.21 42.46 39.91 43.11 43.80 42.72 33.92 36.22 36.40 39.88
48.78 49.23 49.22 49.90 50.30 50.44 47.66 36.90 33.21 37.47 32.09 33.12 34.07 34.01 34.71 32.82 33.24 38.29 38.35 35.80 36.28 36.10 33.12 36.74 37.70 42.85 43.81 46.21 47.02 46.85 45.42 38.77 40.51 41.71 43.26 44.27 43.43 43.09 42.82 41.41 42.29 37.96 40.26 41.21
49.11 48.89 49.05 48.64 48.79 49.65 45.65 32.19 35.24 38.54 34.46 36.89 34.23 34.54 32.85 32.37 35.24 36.13 35.11 33.91 36.16 37.42 34.45 36.17 36.54 42.37 42.66 41.32 44.47 43.41 46.18 37.33 39.88 38.34 42.46 43.03 41.73 43.54 43.54 43.36 44.47 43.80 43.62 42.60
48.38 48.41 48.28 48.49 48.60 48.28 43.86 40.83 39.94 38.93 35.88 34.58 33.45 32.32 32.64 34.35 36.27 38.05 39.30 38.23 36.04 34.59 37.20 41.23 45.51 45.40 45.09 44.19 42.71 40.63 41.67 38.77 37.15 33.72 40.74 40.60 34.36 40.08 42.35 43.13 44.10 43.99 39.22 42.32
47.65 47.79 47.79 47.73 48.11 48.12 44.30 40.85 41.61 36.37 33.14 33.75 32.91 35.00 35.18 34.88 37.32 35.83 39.06 40.68 37.33 39.87 47.31 47.99 45.13 43.41 43.51 43.48 43.14 45.19 38.97 39.86 37.20 30.69 33.90 28.87 40.01 44.93 44.53 43.35 45.03 44.97 44.01 43.98
46.77 46.51 46.72 46.83 47.31 47.83 44.93 42.00 41.17 38.08 32.08 35.34 34.98 34.99 35.00 36.44 38.02 37.10 38.85 40.64 42.76 43.09 40.37 36.97 35.32 33.83 36.19 38.96 42.07 42.67 42.89 40.32 33.10 31.98 32.71 37.09 41.10 43.35 42.08 41.47 40.76 45.61 44.25 44.58
46.87 46.82 46.74 46.65 46.89 47.34 45.49 43.96 43.56 41.52 34.81 34.55 38.41 35.75 36.73 34.16 34.85 35.26 37.40 42.66 43.94 42.41 37.36 33.65 29.25 27.57 33.45 32.51 35.52 42.24 39.09 42.23 35.36 31.45 29.22 28.01 37.78 44.60 47.93 47.02 35.68 46.88 46.72 45.87
47.07 47.20 47.12 46.84 46.90 47.33 45.57 43.64 44.23 40.80 34.00 39.51 39.80 36.10 35.63 39.57 37.90 35.62 37.50 38.88 39.20 41.64 32.87 29.46 29.54 31.20 37.45 30.62 30.30 30.92 32.18 32.56 31.86 32.19 31.58 34.58 43.55 46.54 48.43 35.63 35.60 47.55 48.09 47.22
47.04 47.09 47.16 47.34 47.09 47.20 45.87 43.44 45.23 41.06 37.00 40.00 42.36 43.71 39.12 39.52 39.32 34.70 37.37 37.51 39.04 37.45 30.65 30.21 29.09 27.06 34.43 34.56 37.07 35.56 33.45 31.31 30.68 33.14 30.16 28.76 46.31 46.46 40.30 42.68 46.94 48.22 48.70 47.78
46.33 46.81 46.95 47.27 47.41 47.12 47.06 41.97 45.87 45.37 40.80 41.27 45.02 45.68 46.38 45.80 44.56 41.76 40.16 38.58 38.79 38.74 34.53 33.29 33.96 28.60 31.38 32.40 29.07 40.88 33.82 37.10 35.16 36.82 34.85 44.61 46.09 47.53 48.12 47.85 46.80 49.55 49.17 49.06
46.46 46.42 46.82 47.18 47.42 47.49 46.92 43.71 44.59 43.38 40.09 40.38 40.99 39.31 45.85 48.20 47.41 48.19 39.83 39.57 43.35 41.92 42.68 38.75 36.58 30.30 35.20 28.65 32.00 36.09 40.58 43.41 38.29 39.32 42.05 42.94 45.30 47.73 48.81 49.38 48.77 49.96 50.82 50.30
45.86 46.26 46.93 47.03 47.29 47.51 47.09 43.68 45.25 43.87 40.56 33.94 38.61 46.82 44.89 48.27 47.67 47.92 47.80 46.09 47.44 45.00 43.60 38.35 37.39 34.70 39.65 33.81 37.01 36.20 39.31 41.81 39.87 40.03 43.40 44.63 46.98 46.77 48.05 49.03 50.16 49.05 50.55 49.81
46.35 46.16 46.47 46.86 47.23 47.52 46.30 46.42 46.16 46.65 39.98 32.49 36.25 43.36 46.01 47.03 46.36 45.99 47.08 46.14 44.04 43.57 37.50 33.20 34.88 38.88 39.32 39.05 38.53 35.90 41.00 38.51 35.94 36.67 43.86 43.84 46.37 48.24 49.82 48.45 47.92 48.30 49.07 49.21
45.96 45.69 46.90 47.10 46.92 47.61 45.29 39.15 45.39 47.88 46.06 38.46 31.89 41.70 42.11 45.12 46.19 45.25 44.92 44.79 43.98 42.34 40.61 37.71 42.17 44.98 40.76 30.04 32.32 40.89 42.49 42.99 42.77 41.53 46.18 45.86 46.84 47.44 47.42 47.83 47.58 48.83 48.89 49.33
46.14 45.71 46.06 45.71 45.87 45.53 40.79 37.32 41.80 46.81 45.38 39.00 31.97 32.35 40.89 43.16 43.34 40.75 41.26 43.47 42.40 41.44 41.92 39.47 39.30 40.28 41.01 30.44 30.26 38.59 41.60 43.59 45.25 45.76 46.28 44.70 44.59 43.53 45.63 45.88 46.94 46.91 47.91 47.30
46.05 46.24 46.03 46.28 46.59 45.96 42.04 44.59 46.55 46.60 42.24 39.56 28.51 28.02 34.74 42.01 36.22 35.75 41.15 38.46 40.47 41.56 39.57 39.32 39.78 41.76 40.34 30.22 34.83 37.00 38.70 41.25 42.68 43.21 44.93 44.17 44.53 45.06 44.56 44.29 43.82 43.51 43.22 43.78
45.73 46.01 45.84 44.22 42.96 38.07 40.69 46.37 46.85 46.10 42.31 32.58 30.45 28.03 29.59 40.10 37.50 37.31 37.78 39.36 30.22 40.91 34.81 37.28 38.95 34.94 28.74 31.09 32.71 33.91 35.85 36.90 38.83 43.01 43.80 43.93 43.13 43.79 42.77 42.36 41.96 40.56 38.35 37.41
46.11 44.93 40.39 34.73 40.15 45.49 45.30 42.36 38.95 39.12 39.79 38.43 29.50 34.43 30.34 37.83 35.02 34.66 32.61 30.06 29.30 31.33 34.68 40.91 34.10 28.75 33.62 32.56 33.66 34.48 34.58 36.48 38.78 39.14 37.94 38.85 39.46 41.11 37.88 36.90 36.17 34.66 32.34 30.61
42.53 38.46 36.06 40.52 45.03 40.67 37.18 30.50 31.49 34.03 29.63 32.78 33.22 35.10 33.86 38.80 32.80 32.90 33.17 30.63 31.05 26.25 31.11 33.20 30.68 24.82 28.13 32.48 32.44 32.51 33.45 34.82 34.91 37.21 36.96 37.30 36.54 36.24 34.39 32.05 31.10 29.89 28.24 26.34
41.39 41.30 42.76 41.52 38.10 34.75 31.73 30.04 31.50 28.73 28.39 33.30 32.41 32.40 37.81 36.70 39.14 33.67 33.86 31.51 32.31 28.25 35.62 29.79 22.42 25.85 29.90 30.88 30.49 30.67 31.14 31.56 31.27 31.94 31.70 32.01 31.93 31.81 30.23 28.71 27.01 26.42 25.99 25.25
43.59 40.21 34.93 35.83 32.79 26.74 21.14 23.86 28.91 28.27 30.45 31.60 32.90 33.08 32.86 35.91 35.29 31.66 32.08 29.55 29.55 33.54 27.71 21.00 22.08 27.77 29.49 30.02 30.02 29.21 29.76 29.62 29.22 28.96 29.05 28.42 27.57 27.81 26.93 25.48 25.74 25.28 24.22 24.21
33.15 31.75 21.65 24.52 20.23 23.24 23.10 24.65 26.04 30.53 30.48 30.05 31.31 32.65 32.87 32.20 31.82 31.46 30.62 30.18 30.68 24.87 19.28 16.90 23.29 25.92 27.84 28.99 29.25 27.89 26.59 26.70 26.05 25.91 25.79 24.96 24.53 24.09 24.59 24.62 25.00 23.94 22.73 23.05
25.37 25.63 21.03 20.76 26.70 24.56 25.63 27.38 28.59 29.77 30.73 30.56 31.63 32.02 33.94 30.65 29.49 28.96 29.27 24.75 18.15 19.16 15.87 20.64 24.80 26.78 27.42 27.28 27.62 26.87 25.91 25.18 24.41 24.59 24.18 23.88 24.15 23.60 23.29 24.24 24.19 23.88 23.22 22.85
25.21 22.71 19.86 22.63 21.40 20.65 22.68 23.94 25.49 30.11 29.13 30.03 31.81 31.34 24.91 24.09 23.22 19.50 19.15 17.88 14.35 16.65 20.80 23.50 24.85 24.31 25.83 26.20 26.33 26.16 26.13 25.73 25.16 25.12 24.50 23.88 23.14 22.75 23.04 23.81 23.63 23.24 22.96 22.08
25.05 21.40 24.27 23.23 22.62 22.17 23.59 26.04 25.44 29.46 28.66 26.82 26.83 20.55 19.61 25.94 18.67 16.46 19.87 15.38 17.69 20.03 21.98 22.63 22.83 23.23 23.63 24.12 24.04 25.03 25.91 25.65 25.45 25.18 24.97 24.43 24.98 24.39 23.10 21.60 23.06 23.54 23.23 22.19

GFSNW_sfc_wetblb_060.txt.gz
Wetbulb
48.91 49.59 50.04 50.62 50.80 50.60 49.18 44.17 34.57 45.97 47.63 34.66 34.91 30.54 33.79 38.52 36.78 39.87 38.22 38.25 36.49 34.50 36.67 35.46 35.69 36.39 40.92 46.58 45.96 40.41 43.43 38.38 34.35 37.87 43.88 45.43 44.60 41.76 40.75 33.89 33.32 34.56 30.98 32.84
48.26 48.71 49.60 49.94 50.32 50.35 46.92 40.19 38.60 45.74 43.51 28.86 30.25 33.02 33.59 35.87 35.41 36.29 36.45 36.17 37.55 37.66 34.30 32.79 36.60 39.15 45.74 47.36 45.55 42.85 43.38 37.38 32.15 34.07 39.97 43.51 41.01 42.09 43.23 41.31 38.94 34.88 30.72 34.83
48.13 48.61 48.87 49.50 50.01 50.48 47.46 37.17 31.43 39.04 40.11 36.79 32.15 30.99 31.08 32.24 38.13 35.54 36.55 36.20 37.46 35.78 33.72 35.96 33.82 36.59 43.60 47.01 46.26 46.12 44.98 41.10 36.35 32.13 34.97 39.85 38.29 40.90 43.06 40.66 32.33 34.38 35.44 39.26
47.94 48.42 48.88 49.14 49.66 49.80 47.17 35.81 33.00 36.71 31.89 33.15 34.08 33.63 33.10 30.91 31.27 37.16 37.83 34.40 34.22 33.48 30.53 32.67 32.38 37.86 42.24 46.05 46.09 45.46 44.26 37.27 38.98 40.23 40.90 41.91 41.54 41.59 41.43 39.77 39.52 35.40 38.07 40.06
47.55 48.04 48.22 48.51 49.04 49.59 44.19 31.63 34.19 38.00 33.11 36.68 34.09 33.91 30.86 30.96 33.29 34.82 33.53 32.73 34.79 34.85 32.11 33.36 31.93 35.25 36.22 40.42 44.22 42.11 43.07 36.40 38.94 36.93 40.94 41.28 39.92 41.65 42.94 42.73 40.68 40.20 40.81 40.57
47.71 48.10 48.19 48.49 48.67 48.61 43.11 43.42 40.58 38.89 35.87 35.24 33.03 31.43 31.67 32.65 34.44 35.96 37.65 36.72 34.96 33.30 34.92 37.26 38.29 42.60 43.77 43.83 41.18 39.98 37.81 37.41 34.94 30.86 37.99 38.98 32.84 39.32 41.38 41.77 42.86 41.57 37.56 42.34
47.94 48.10 48.08 48.35 48.56 48.48 44.17 42.02 41.68 36.63 32.00 33.35 32.96 34.23 34.66 33.23 34.73 33.21 36.72 37.91 35.39 38.89 42.12 44.48 43.33 41.50 42.01 42.65 42.57 43.67 37.17 35.54 35.81 31.29 31.81 27.74 38.93 43.81 43.68 41.87 43.58 44.51 42.90 43.35
47.33 47.53 47.96 47.91 48.12 48.60 44.21 43.71 41.21 37.93 32.21 34.26 33.69 34.26 34.43 35.43 35.84 34.70 36.57 38.84 40.63 42.29 38.11 34.08 31.09 30.03 32.72 36.47 41.34 43.03 43.30 38.19 31.98 30.80 30.52 35.42 39.02 41.68 41.15 40.60 40.67 44.98 44.12 44.40
46.26 46.31 46.77 47.44 47.29 47.67 45.74 43.75 43.72 39.65 34.80 34.35 36.92 34.16 35.22 32.41 32.30 33.04 35.58 40.93 42.22 40.31 34.28 30.52 25.20 22.36 29.32 30.46 35.95 42.34 39.46 39.14 33.92 31.27 28.03 26.40 36.21 43.14 45.93 45.39 34.50 44.31 45.25 45.34
46.51 46.55 46.58 46.50 46.70 47.07 44.92 43.91 44.05 39.85 32.58 37.84 38.11 34.08 33.74 36.92 34.63 31.84 34.66 36.13 36.47 39.53 30.25 26.14 26.24 26.00 33.78 28.21 28.53 29.92 30.07 29.47 29.81 30.92 30.56 32.80 41.37 44.84 46.46 35.53 35.54 45.34 47.07 46.51
46.55 46.69 46.79 46.74 46.63 46.71 45.05 41.96 44.36 40.48 35.16 36.70 40.88 41.54 36.67 37.02 36.59 31.90 34.67 35.20 36.03 35.85 30.53 29.03 27.44 25.06 32.00 31.77 34.56 32.86 30.42 28.64 28.98 31.78 30.70 27.13 44.57 44.98 38.13 40.98 45.30 47.23 47.48 46.24
46.78 46.78 46.89 47.05 47.13 46.72 46.39 40.55 44.79 45.14 39.13 38.13 44.48 44.10 45.84 43.46 42.28 38.36 37.04 36.14 36.53 38.00 34.23 31.19 30.47 25.68 26.03 30.56 27.35 38.21 30.94 35.69 32.59 34.71 33.94 43.11 45.27 45.53 48.11 47.13 45.47 46.80 46.32 47.66
46.50 46.60 46.87 47.04 47.15 47.24 46.18 43.01 43.92 42.64 38.27 37.03 38.45 39.96 46.04 47.34 46.53 47.63 38.26 38.22 41.94 42.02 41.45 36.86 34.05 28.83 32.43 27.10 27.88 32.04 37.13 41.88 37.69 38.02 41.40 43.39 44.72 46.56 48.20 47.84 47.01 48.94 47.81 47.78
46.16 46.39 46.37 46.83 47.20 47.27 46.99 42.84 44.61 42.08 39.23 31.77 36.47 44.09 42.63 46.70 47.05 46.97 47.18 44.61 45.89 45.50 42.89 36.88 31.66 29.71 37.32 29.73 33.81 33.73 37.59 40.77 39.14 38.55 41.60 43.38 44.27 46.29 46.76 47.44 49.16 48.69 48.70 47.23
46.14 46.32 46.64 46.85 47.13 47.18 46.55 45.54 45.27 44.63 37.51 31.55 35.35 42.50 44.29 46.17 45.29 44.91 45.48 43.39 42.44 42.45 38.84 35.57 31.83 35.62 35.09 35.27 35.84 33.98 38.91 38.00 36.23 35.82 42.10 40.94 42.29 45.95 48.54 46.35 46.81 47.93 47.61 47.37
45.60 46.55 46.69 47.08 46.87 47.26 44.06 38.96 44.51 45.65 44.39 37.65 30.97 39.84 42.23 43.36 44.21 43.22 42.77 43.02 42.30 41.35 39.73 36.27 37.79 41.87 36.63 29.49 30.31 37.97 39.05 39.81 42.06 39.81 42.73 43.26 44.24 44.52 45.82 45.85 45.64 47.38 47.32 47.83
45.95 46.47 46.51 46.60 46.67 44.65 39.52 36.03 41.86 46.39 46.11 37.82 32.14 32.10 39.54 43.42 43.09 41.65 42.35 43.62 43.48 42.76 41.21 38.30 39.01 39.44 40.96 29.58 29.92 35.56 37.82 38.84 41.45 41.61 43.41 42.49 41.88 41.36 43.68 43.93 44.62 45.31 45.24 44.78
46.00 46.09 46.34 46.23 46.02 45.78 42.29 45.67 46.01 46.28 41.97 39.06 29.61 29.36 33.13 41.25 36.02 36.62 41.41 39.73 40.62 40.64 39.07 40.31 38.16 40.20 39.05 31.68 31.51 34.38 36.02 37.06 39.65 39.18 41.93 41.73 43.00 42.73 41.87 42.57 42.49 39.68 36.07 34.48
45.99 46.02 45.64 44.05 42.78 39.75 41.62 46.30 46.06 45.96 39.92 29.84 25.84 25.16 28.46 39.34 37.04 36.86 37.40 37.97 30.53 38.21 30.20 35.27 37.99 32.76 24.62 28.46 30.58 31.95 32.89 34.50 36.57 39.97 39.40 40.08 39.57 37.54 36.94 37.87 36.67 33.22 30.98 30.18
46.16 43.83 38.45 33.22 40.46 45.41 44.65 40.66 36.25 35.89 37.10 36.17 27.98 32.68 30.06 37.07 33.28 32.32 32.02 29.96 28.83 31.29 33.56 37.95 29.52 25.88 30.51 30.57 31.87 31.33 31.94 33.92 35.26 35.96 35.10 36.37 37.26 34.11 32.65 31.31 30.83 29.54 28.05 27.15
39.29 35.23 35.90 41.00 44.57 39.43 35.37 30.91 30.34 33.21 28.90 31.14 31.59 33.55 31.55 36.97 32.16 32.70 31.16 31.45 31.56 26.63 31.34 29.54 24.27 21.99 26.38 30.09 29.28 30.49 31.21 32.42 32.51 34.10 33.98 34.67 34.35 33.56 31.27 28.94 27.83 26.71 25.74 24.52
39.67 40.28 41.21 39.41 38.23 35.04 29.39 29.02 29.64 28.54 30.19 32.75 32.57 34.65 36.56 35.43 36.93 33.09 33.61 29.28 30.92 25.95 32.53 21.76 16.37 24.30 28.41 28.70 27.78 28.17 29.04 29.48 28.99 29.42 28.54 28.54 28.20 27.78 26.59 25.35 24.31 24.14 23.94 23.47
41.66 37.85 34.89 31.82 27.24 19.17 17.97 22.13 26.22 25.96 29.54 29.87 31.51 32.34 33.05 34.78 35.22 31.83 31.71 29.00 28.73 32.53 22.59 17.66 20.62 25.17 26.68 26.74 26.40 25.91 26.67 26.58 25.65 25.22 25.67 25.27 25.07 25.84 25.14 23.60 24.07 23.78 22.48 22.45
30.10 27.05 18.42 19.06 14.87 19.84 19.63 20.03 20.60 27.05 28.08 27.81 30.46 31.22 31.99 31.83 31.06 31.06 28.51 26.98 26.97 17.03 14.17 13.22 21.62 23.91 25.10 25.88 25.81 24.34 23.32 24.04 23.76 23.50 23.49 22.97 22.74 22.44 23.12 23.14 23.35 22.48 21.27 21.75
23.35 23.03 14.80 17.46 22.55 20.52 21.85 22.95 24.53 26.78 26.89 28.94 30.06 31.81 32.04 28.16 26.44 25.37 26.47 20.47 13.20 15.30 11.36 18.36 22.25 24.36 24.83 24.78 25.18 24.40 23.72 22.79 22.58 22.92 22.54 22.42 22.74 22.45 22.21 23.32 23.64 23.17 22.32 21.44
24.62 22.27 17.50 20.34 17.02 17.38 18.07 18.07 22.51 27.52 28.09 29.49 30.37 27.60 23.13 22.05 21.05 18.82 17.10 14.79 11.08 14.85 18.23 21.49 22.45 21.73 22.65 23.78 24.49 24.34 24.31 23.87 23.67 23.64 23.45 23.04 22.48 21.94 22.05 22.43 22.06 21.44 21.56 20.70
23.46 20.08 23.28 21.56 21.62 20.36 21.43 23.33 23.13 28.12 26.91 22.56 23.89 16.32 17.04 22.99 17.88 15.16 16.98 12.83 16.07 18.55 19.40 20.40 20.60 20.82 21.21 22.08 22.00 21.63 21.14 20.52 21.43 23.09 24.01 23.80 24.47 23.63 21.94 19.87 20.97 21.41 20.98 20.25

GFSNW_sfc_wetblb_063.txt.gz
Wetbulb
47.60 47.92 48.46 48.96 49.45 49.92 48.65 44.12 34.75 45.66 46.70 34.46 34.31 28.44 32.12 37.58 36.05 38.66 36.92 37.00 35.62 33.63 34.33 32.78 33.75 35.27 38.60 45.80 45.25 40.78 41.99 37.38 33.10 36.91 42.84 43.75 41.83 40.23 40.70 34.08 32.18 32.72 30.18 34.33
47.20 47.64 47.78 48.56 49.04 49.70 46.50 39.65 37.55 45.81 43.41 29.17 29.92 32.58 32.21 34.95 34.91 35.18 34.94 34.58 36.25 36.49 33.03 29.10 33.93 36.89 43.26 46.41 45.19 42.61 43.51 37.11 29.96 33.43 38.06 40.23 38.44 40.13 40.82 39.60 36.77 34.23 30.28 32.98
46.92 47.29 47.42 48.10 48.74 49.53 46.59 35.22 31.27 38.31 39.93 35.43 31.72 30.86 30.32 30.83 36.15 34.69 35.80 34.73 35.69 34.00 32.33 34.49 31.68 33.88 39.84 43.50 46.47 45.97 44.89 39.41 36.05 30.03 33.83 37.79 35.84 38.73 40.57 39.33 32.90 33.30 35.34 36.78
46.69 47.17 47.48 48.22 48.25 49.06 45.72 34.38 32.37 37.40 31.13 33.09 33.43 33.56 32.36 30.43 29.82 35.63 36.02 32.94 33.07 31.41 29.00 30.95 30.42 34.05 38.08 42.51 45.52 44.53 42.39 36.15 37.91 37.26 38.83 39.89 39.28 39.79 39.78 38.42 38.37 34.17 36.73 37.59
46.80 47.13 47.52 47.68 48.17 48.75 43.15 31.28 34.24 37.65 33.29 36.51 33.39 33.64 31.16 30.61 32.47 33.11 32.41 31.78 34.04 33.41 30.08 31.56 29.36 33.10 33.11 35.53 41.06 42.12 42.68 34.23 36.58 33.07 38.79 38.15 37.53 39.36 40.15 39.20 38.64 38.06 39.49 37.64
46.56 47.03 47.07 47.36 47.90 48.14 41.04 41.41 40.77 38.93 35.85 34.79 32.90 31.60 32.14 32.75 35.10 35.56 35.87 35.34 33.70 31.98 33.96 35.97 37.17 36.81 37.35 38.82 40.17 37.79 38.30 35.78 33.45 30.00 35.78 35.17 31.19 37.13 39.22 40.17 42.76 39.79 36.15 40.35
46.58 46.74 46.82 46.98 47.47 47.97 44.08 43.11 41.43 36.12 31.89 32.81 32.92 34.46 34.26 32.57 34.29 31.99 35.90 36.77 34.65 37.54 40.02 40.94 40.66 39.57 39.74 40.54 41.79 41.67 36.49 35.10 33.47 28.87 31.91 25.01 36.75 40.87 42.05 40.79 42.32 43.20 41.73 42.90
46.79 46.86 46.86 47.04 47.25 47.82 44.29 43.99 41.64 37.79 32.06 34.97 34.21 34.84 34.46 35.02 35.26 34.33 34.38 36.60 38.96 40.69 36.94 32.87 30.10 28.13 30.78 34.80 40.07 40.67 39.76 35.42 31.65 26.68 27.92 32.49 34.57 39.34 39.77 38.75 39.05 43.77 43.08 44.24
46.07 46.46 47.40 47.38 47.56 48.00 46.32 44.51 44.79 40.20 35.08 33.51 37.58 34.91 35.60 32.55 31.59 32.28 34.64 39.52 42.04 39.17 33.64 30.13 26.62 21.86 26.88 28.71 35.34 41.82 41.34 39.90 32.49 31.06 26.61 23.01 31.52 40.25 43.76 44.01 33.59 43.06 44.64 45.62
46.35 46.47 46.13 46.03 46.65 47.58 46.27 43.38 44.50 39.58 32.40 37.72 39.13 34.78 33.98 36.91 33.92 31.16 33.82 35.54 36.09 37.94 28.15 26.90 27.02 25.34 31.04 25.14 28.74 31.30 31.98 32.16 31.10 30.01 27.08 30.94 38.34 42.23 45.49 34.48 34.12 45.13 45.90 44.87
45.81 45.96 45.84 46.24 46.70 46.49 45.84 43.33 44.89 40.45 34.53 36.79 40.73 41.23 37.92 36.99 36.25 30.74 33.55 34.38 33.75 31.32 27.14 27.22 26.71 23.06 28.76 29.32 31.55 31.06 29.76 27.89 26.10 28.79 27.00 25.60 42.89 40.93 35.84 40.59 44.03 45.91 45.99 45.96
45.96 46.07 46.44 46.33 46.31 46.48 46.00 40.37 44.95 44.76 38.47 36.25 42.75 42.06 42.42 42.19 41.58 37.77 37.02 35.47 36.00 35.72 30.42 28.72 29.37 24.72 23.89 29.05 25.48 35.15 29.29 32.65 29.66 31.88 32.51 40.94 42.64 41.96 43.88 44.97 45.75 45.52 45.53 46.93
46.39 46.37 46.55 46.77 46.95 46.87 45.37 41.91 43.36 42.29 37.40 37.53 37.50 36.83 43.74 47.10 47.16 45.32 35.51 36.59 39.85 38.67 38.71 33.44 31.66 26.26 29.86 24.03 26.51 30.72 33.65 38.04 33.81 35.21 38.36 40.11 42.25 44.74 46.81 48.06 47.53 47.39 47.13 47.10
46.30 46.60 46.76 46.81 47.04 47.14 46.28 42.44 43.67 40.76 38.65 32.38 32.66 42.41 39.62 45.34 46.96 47.17 46.36 42.58 43.81 42.04 40.04 34.44 31.83 32.06 35.38 28.09 32.03 31.38 33.76 35.90 34.97 35.42 39.66 41.67 43.60 44.37 46.02 46.03 47.79 48.12 48.67 47.93
46.30 46.47 46.78 46.90 47.11 47.41 46.47 44.34 44.44 42.97 36.69 29.54 30.40 40.79 41.75 42.96 45.47 44.70 45.17 44.07 42.61 39.30 36.31 34.36 34.10 34.20 36.93 37.03 35.62 30.95 37.43 35.67 32.74 31.12 39.71 38.98 41.62 44.32 45.35 45.67 44.95 46.80 46.71 46.28
45.58 46.51 46.72 46.70 46.90 46.86 44.14 37.72 43.89 44.58 44.35 36.13 27.34 38.08 40.09 41.29 43.73 42.92 41.78 41.62 41.08 41.61 39.42 34.18 38.42 41.37 37.67 29.40 30.72 36.70 38.42 38.92 38.96 38.32 40.08 40.23 42.58 43.71 43.74 43.78 43.88 45.02 44.22 42.01
46.03 45.94 46.60 46.60 46.58 45.18 38.50 36.24 41.48 45.35 45.17 36.60 31.39 29.09 40.22 43.01 41.71 40.80 39.76 43.07 41.51 39.60 38.08 35.65 36.02 37.76 40.45 30.86 27.88 33.76 35.74 36.16 37.88 40.41 40.21 41.15 42.22 40.60 41.69 42.14 41.33 39.34 36.59 34.80
46.05 46.51 46.51 46.47 46.19 45.65 42.61 44.43 45.46 45.77 41.58 39.06 31.27 31.55 34.58 43.00 37.01 36.02 40.76 38.25 39.52 40.28 37.02 38.85 37.18 38.75 36.87 26.43 29.95 32.40 33.59 35.26 38.01 37.15 40.74 40.10 40.62 38.44 36.87 37.18 36.43 32.91 30.63 29.11
46.12 45.75 45.26 43.65 42.55 38.68 41.38 46.01 45.81 45.03 40.58 31.96 28.35 25.89 29.24 39.45 36.20 36.36 37.53 38.35 32.01 38.94 33.20 34.31 37.31 29.95 22.79 26.69 29.00 29.15 30.63 31.57 33.31 35.39 38.94 39.03 35.82 34.30 33.75 31.93 31.80 28.79 26.67 26.58
45.13 42.22 37.97 32.93 40.87 46.08 45.40 41.93 36.88 35.72 38.22 34.46 26.67 30.74 33.23 37.39 32.91 29.65 32.43 32.67 31.95 30.35 32.75 35.69 27.36 24.17 28.19 28.97 28.44 29.42 30.01 32.42 33.75 33.17 33.33 33.83 35.32 32.05 29.82 28.49 28.34 27.17 25.92 25.53
40.02 37.37 34.87 41.47 44.87 40.01 36.09 31.03 31.00 32.21 26.66 29.55 30.66 31.64 31.18 36.25 32.51 31.95 32.72 31.60 30.77 27.13 31.23 27.66 23.10 20.99 25.35 27.07 26.04 27.46 29.20 30.48 30.47 31.86 30.26 29.96 29.79 28.82 27.25 25.86 25.64 25.14 24.74 23.75
38.64 39.87 40.34 39.83 35.06 29.35 27.00 22.66 26.26 28.13 28.28 31.71 33.41 34.69 34.98 33.24 37.86 32.69 33.23 31.24 30.70 23.40 29.04 22.40 16.83 22.42 25.36 25.07 24.52 25.12 25.91 26.31 26.02 26.54 25.96 25.99 25.23 25.07 24.04 23.18 22.51 22.57 22.71 22.02
39.35 34.66 29.03 27.10 22.62 16.04 15.20 20.81 24.82 24.29 27.81 27.89 31.16 32.35 33.03 34.76 35.38 32.31 31.52 28.42 27.74 28.93 19.93 16.34 18.47 23.45 24.55 24.65 24.13 23.51 24.46 24.41 24.17 23.88 24.01 23.78 23.26 23.86 23.11 21.58 21.95 21.68 20.82 21.36
27.51 24.10 15.72 16.66 12.63 17.61 18.73 19.62 21.30 24.55 26.55 27.03 29.83 31.42 31.72 31.63 30.47 29.20 24.53 24.18 24.39 15.41 11.82 11.73 18.82 22.08 22.93 23.91 24.09 22.59 21.66 22.53 22.37 21.87 21.96 21.63 21.33 21.07 21.59 21.35 21.35 20.02 18.97 19.32
23.10 21.77 12.66 15.70 21.44 21.22 21.27 22.87 25.38 26.82 28.20 28.57 30.48 30.82 29.37 25.37 23.85 23.51 22.54 15.77 10.14 12.90 8.13 14.07 20.79 22.52 22.61 22.64 23.14 22.36 21.85 21.64 21.45 21.94 21.31 20.86 20.58 20.21 19.89 21.16 21.57 21.32 20.38 19.74
23.72 20.56 15.69 18.09 14.16 15.03 15.74 17.46 20.36 26.06 26.40 27.88 27.35 23.49 22.64 20.21 20.34 17.22 15.29 12.07 8.93 11.03 14.45 19.72 20.18 19.50 19.69 19.53 20.63 21.39 22.63 22.66 22.42 22.64 22.13 21.79 20.63 19.82 19.77 20.55 20.08 19.74 19.27 18.11
22.47 19.20 22.00 17.59 11.26 12.46 16.03 19.32 21.35 26.28 23.80 21.51 21.18 14.39 14.93 22.69 17.15 11.40 14.58 11.05 14.26 16.38 16.88 18.26 19.18 18.82 19.05 20.10 20.44 20.45 20.39 19.76 20.26 20.63 21.34 21.81 22.49 21.56 19.68 17.71 19.18 19.53 19.12 18.25

GFSNW_sfc_wetblb_066.txt.gz
Wetbulb
45.49 45.63 46.55 47.20 48.06 48.24 46.75 42.47 33.80 45.22 46.38 34.21 33.99 29.46 30.91 36.64 33.92 37.57 35.71 36.05 34.52 32.82 33.05 30.91 32.38 34.34 39.92 42.95 44.41 38.48 41.50 35.70 29.97 35.49 41.99 42.56 39.75 37.57 38.15 31.00 29.73 31.07 29.09 33.13
45.68 45.93 46.23 47.48 47.80 47.80 43.59 38.01 38.27 45.40 44.34 29.56 30.06 32.79 31.69 32.87 33.86 34.21 33.80 33.56 34.75 35.31 31.60 28.02 32.16 34.77 41.41 44.35 43.69 41.69 42.34 37.22 29.94 32.11 36.93 39.76 37.34 38.53 39.31 38.23 35.00 31.86 29.64 32.06
45.98 46.42 46.66 47.41 47.17 47.66 44.38 35.13 30.36 37.78 40.04 37.68 33.04 30.68 30.47 29.64 34.92 33.46 34.68 33.59 34.49 32.97 31.17 33.21 30.64 33.03 37.92 40.73 43.49 45.52 44.64 39.39 36.36 31.54 34.32 37.59 35.17 37.83 39.05 37.77 31.93 31.49 34.33 35.54
45.73 46.12 46.50 46.66 46.52 47.41 43.95 35.87 31.07 36.69 30.06 32.90 33.39 33.15 32.54 29.76 30.18 33.89 34.44 31.51 31.89 30.33 27.46 29.12 28.84 32.96 35.73 37.85 41.15 42.92 40.87 33.62 37.35 38.36 38.13 38.25 36.77 35.48 36.39 36.78 36.43 32.96 34.35 36.07
45.66 45.93 45.77 46.34 46.62 47.18 41.88 31.32 33.09 37.84 34.94 36.16 34.16 32.74 30.90 30.73 31.79 32.99 30.72 30.37 33.22 32.42 29.30 30.27 28.34 31.52 31.40 31.92 36.47 39.25 40.97 32.27 35.56 32.65 37.30 37.26 34.57 36.38 37.14 38.08 37.79 37.24 36.67 37.00
45.54 45.84 45.90 46.01 46.43 46.22 40.38 40.55 40.25 38.74 36.11 34.66 32.78 31.21 32.16 31.88 34.44 35.13 35.37 34.39 33.46 31.27 32.74 34.78 35.38 35.79 35.78 35.43 33.94 33.35 36.68 34.12 30.99 27.50 34.15 34.33 28.32 34.74 34.34 35.57 38.48 38.42 34.84 38.91
45.69 45.54 45.50 46.08 46.36 46.15 42.85 40.64 40.22 34.99 31.06 33.21 32.61 34.15 33.79 33.28 34.15 32.19 35.46 36.05 33.14 37.31 38.58 38.22 37.11 35.64 34.55 34.67 34.66 36.79 34.75 33.93 31.50 26.49 28.23 22.88 32.40 40.70 39.58 38.38 38.31 39.02 38.93 41.09
45.80 45.61 45.66 45.84 46.45 46.96 43.69 43.70 40.79 36.46 30.36 35.38 33.53 34.76 34.15 34.77 35.69 34.73 34.96 36.90 38.78 40.63 38.36 33.20 29.53 27.39 30.51 33.72 37.34 37.42 38.68 34.34 27.89 23.49 25.03 29.25 32.40 35.70 37.68 36.66 35.41 40.00 40.40 42.33
45.73 45.61 45.82 46.10 46.40 47.01 45.14 43.77 44.58 40.78 34.17 32.13 37.61 34.65 36.10 32.74 32.09 32.59 34.49 39.52 40.59 38.40 33.39 30.41 26.39 23.11 26.10 27.07 32.69 39.32 37.34 36.57 32.72 29.29 22.97 18.51 28.77 38.96 44.32 43.11 30.75 42.01 43.09 43.30
45.78 46.21 46.28 46.56 46.52 47.09 45.45 43.33 44.90 40.10 32.97 38.50 38.55 34.83 35.43 37.16 34.53 31.83 33.74 35.57 35.55 37.21 27.99 27.35 27.03 26.12 30.36 24.82 28.39 29.15 32.10 32.19 30.31 30.30 28.57 29.03 35.95 41.10 44.79 33.25 29.83 40.87 43.51 43.17
45.24 45.49 45.73 45.94 46.45 46.99 45.68 42.68 45.47 40.61 35.19 38.63 41.08 41.21 37.73 37.55 35.98 30.95 33.66 34.21 34.64 33.00 28.71 28.24 28.58 24.12 27.77 27.46 30.92 30.58 29.45 28.16 28.18 29.17 28.21 24.01 40.46 39.94 35.33 39.89 40.92 41.15 42.49 43.77
45.18 45.38 45.66 45.80 45.57 45.67 46.74 39.18 45.43 45.17 38.64 37.22 41.60 42.86 43.12 41.08 41.36 37.57 36.94 35.23 34.60 33.49 28.91 27.55 28.30 24.01 22.91 27.91 24.27 33.14 27.56 31.46 28.63 30.58 29.24 37.23 40.33 39.84 43.16 42.69 41.53 42.24 44.85 45.79
46.04 45.94 45.63 45.78 45.89 46.01 44.31 40.61 42.98 41.76 35.25 36.04 38.46 36.92 42.02 44.35 43.57 44.21 36.51 36.70 40.16 36.13 36.46 31.91 30.09 25.69 28.24 22.81 25.83 29.12 32.04 35.89 32.77 32.63 35.61 37.89 39.06 41.02 43.28 43.88 44.09 45.86 47.14 46.35
46.56 46.56 46.18 45.92 46.17 46.21 45.20 41.49 43.70 41.28 37.99 32.00 33.62 42.15 41.45 45.55 45.26 45.38 44.54 41.70 43.85 43.01 40.17 33.07 29.29 27.30 32.95 26.39 29.70 28.78 32.04 34.00 33.14 33.36 36.67 38.64 39.90 40.81 42.20 43.10 45.62 47.05 48.41 47.58
46.29 46.56 46.51 46.49 46.43 46.43 44.85 43.99 43.93 42.61 36.65 30.50 31.23 39.50 41.23 44.57 44.30 43.25 44.73 43.56 41.52 40.02 36.59 33.05 30.18 32.51 33.10 32.66 33.84 32.75 36.69 33.36 30.65 31.12 37.62 37.50 38.13 41.09 42.76 41.94 42.85 43.54 44.53 45.56
45.96 46.40 46.79 46.77 46.68 46.68 43.01 36.56 43.41 43.27 41.77 34.72 26.20 36.49 37.28 39.44 40.92 42.41 42.62 43.27 42.11 40.99 38.03 33.98 35.92 38.50 34.69 24.95 26.58 35.11 37.88 37.68 37.95 37.10 40.12 38.56 39.60 40.85 39.50 40.46 39.11 37.73 35.62 34.71
45.94 46.08 46.40 46.83 46.49 44.72 37.74 35.90 40.64 43.84 43.67 35.51 28.24 27.89 39.97 39.63 41.48 40.83 40.17 42.72 41.44 39.79 38.32 36.19 37.04 36.44 38.49 31.96 26.19 31.58 33.98 34.79 35.80 39.11 37.40 37.86 38.64 37.23 35.95 36.15 36.75 34.57 32.09 31.06
45.55 46.10 46.26 46.52 46.33 44.93 41.02 42.76 44.82 44.19 40.62 38.16 30.33 31.01 35.96 40.17 36.37 36.26 40.97 37.48 38.86 39.81 37.73 38.08 34.64 36.88 35.19 28.53 28.42 30.62 31.16 32.01 34.78 35.76 36.20 39.06 38.32 35.42 33.54 33.38 32.43 28.98 27.27 26.58
46.36 46.13 46.19 44.25 42.20 39.04 41.72 45.19 45.30 44.85 40.30 31.00 30.15 27.34 29.58 40.23 36.56 37.76 37.54 38.29 32.53 37.89 33.65 34.90 36.51 28.59 22.28 25.25 26.30 27.42 28.54 28.94 29.98 32.87 34.80 36.67 34.62 32.45 30.87 29.87 28.43 27.04 26.02 25.79
44.79 42.74 37.92 33.88 40.63 45.75 45.11 39.73 35.39 36.16 36.89 36.61 30.70 32.46 32.59 36.57 34.18 32.22 33.51 33.45 31.16 28.03 33.78 33.56 26.51 22.72 26.99 26.22 26.55 27.06 27.91 29.80 30.70 29.74 30.50 29.78 30.93 28.76 26.46 26.13 26.36 25.72 24.86 24.21
40.87 37.69 33.47 41.85 45.27 39.51 34.94 30.51 30.83 31.78 29.55 31.60 32.39 32.20 33.35 37.62 30.89 30.21 32.05 31.07 31.34 28.10 30.72 28.49 22.68 20.07 23.87 24.98 24.52 25.52 26.07 27.06 27.45 29.19 27.90 27.45 27.65 26.44 25.28 24.10 23.97 23.47 22.74 21.42
40.62 40.00 40.85 39.81 32.64 30.18 29.83 27.46 29.30 28.95 27.70 31.01 33.09 34.18 32.30 34.69 37.55 33.18 32.34 30.89 30.45 21.98 28.03 21.67 15.03 20.50 23.78 23.67 23.02 23.69 24.45 24.69 24.01 24.80 24.44 24.53 24.16 24.32 23.28 22.12 21.18 21.15 21.20 20.37
36.76 32.74 26.93 25.93 20.23 13.68 15.28 22.41 23.19 22.59 26.26 27.32 30.97 31.78 33.08 34.17 35.16 32.20 31.28 28.10 23.62 27.04 18.54 15.10 17.16 21.33 22.62 22.81 22.43 22.07 23.24 23.31 23.10 22.69 22.60 22.40 22.01 22.55 21.34 19.91 20.43 20.19 19.43 19.72
26.71 22.04 11.68 10.96 7.42 14.80 16.59 18.00 19.13 23.76 26.16 26.45 29.28 31.40 30.08 30.66 28.68 26.23 22.83 21.63 21.97 13.90 10.84 10.30 17.22 19.80 21.71 22.47 22.82 21.51 20.99 21.33 20.71 20.17 20.35 20.23 20.15 19.70 20.14 19.60 19.65 18.72 17.42 17.92
22.66 21.47 10.95 12.75 18.58 18.76 18.76 20.90 22.57 25.54 27.09 28.05 30.69 27.55 27.07 23.90 22.58 21.75 20.64 14.60 11.42 11.94 7.08 12.54 18.69 20.60 21.66 21.44 22.00 21.49 21.18 20.83 20.59 20.77 20.02 19.70 19.66 19.17 18.40 19.34 19.67 19.25 18.39 17.84
22.75 19.34 14.97 16.95 15.24 14.86 16.29 17.93 17.18 24.26 24.99 28.35 26.80 24.86 21.59 19.31 19.43 15.71 13.32 11.57 7.90 9.91 15.06 18.09 19.42 19.40 19.58 19.41 19.74 19.95 21.23 21.59 21.19 21.14 20.56 20.01 19.09 18.13 18.06 18.64 17.91 17.10 16.68 15.82
20.71 15.44 17.06 11.13 11.37 11.90 14.97 17.70 19.89 24.76 24.70 19.98 21.79 15.76 14.75 21.96 14.72 10.40 13.00 9.98 12.65 15.32 16.18 17.54 18.15 17.79 17.99 19.07 19.36 19.20 19.16 18.91 19.29 19.82 20.69 20.17 20.52 19.78 17.85 15.60 16.89 17.19 16.97 16.02

GFSNW_sfc_wetblb_069.txt.gz
Wetbulb
45.27 45.18 45.13 45.32 45.77 46.78 44.52 39.70 31.85 45.56 47.27 34.43 33.89 29.86 31.73 35.54 33.89 37.47 36.11 36.18 34.53 33.22 33.08 31.82 32.80 34.16 38.13 41.60 44.88 39.90 42.78 37.37 33.09 36.05 42.33 43.89 42.91 40.49 40.83 35.18 33.89 35.56 34.60 36.11
44.66 44.71 44.89 45.25 46.07 46.04 41.40 36.21 36.55 45.59 44.93 29.14 30.47 34.00 32.38 33.04 33.37 34.44 34.39 33.64 35.31 36.07 32.91 29.73 32.74 35.08 40.82 40.82 40.55 40.53 42.67 37.41 32.61 34.12 38.83 42.19 38.97 39.82 40.28 40.00 38.99 34.88 32.66 35.84
44.45 44.24 44.79 45.45 45.74 46.05 42.27 35.68 29.83 36.77 39.78 38.44 33.21 31.33 30.97 29.46 34.71 33.65 35.10 34.13 35.34 33.90 32.49 34.71 32.04 33.30 38.09 40.41 39.76 43.73 44.95 39.64 35.49 31.58 34.78 38.59 35.99 37.86 39.18 37.92 33.84 34.35 35.65 38.01
44.03 44.25 44.75 45.36 45.61 46.25 41.37 35.52 31.11 36.19 29.07 31.59 33.92 34.03 32.83 29.61 29.41 34.17 34.93 32.50 33.30 31.81 28.80 30.43 31.36 34.02 35.19 38.00 40.13 43.75 42.25 35.19 37.84 37.98 38.50 38.96 37.72 37.51 37.96 36.10 37.81 34.71 37.78 38.31
44.09 44.30 45.18 45.60 45.58 46.48 38.62 32.09 32.56 36.79 34.71 35.41 33.72 33.61 32.25 30.44 31.52 33.10 30.89 30.56 33.33 33.47 30.38 31.56 30.15 32.63 33.22 33.04 37.63 37.66 38.91 34.40 37.26 34.41 38.22 37.95 35.46 37.77 38.00 38.00 38.58 38.19 38.45 38.82
45.03 45.15 45.53 45.90 46.19 44.83 37.79 39.10 39.39 37.14 33.03 33.30 32.68 32.10 32.71 32.35 34.52 35.13 36.26 34.64 33.34 32.65 34.13 37.09 37.74 37.77 37.13 36.53 34.28 33.25 34.26 36.08 33.65 29.67 34.83 35.37 30.03 34.88 37.08 39.29 39.79 39.49 35.69 40.28
44.78 45.07 45.00 45.24 45.71 45.10 40.93 40.53 39.44 33.04 27.59 32.11 32.64 35.17 34.52 33.23 34.24 32.55 35.83 36.69 34.86 37.83 41.21 40.60 38.99 37.06 36.05 36.13 35.75 36.81 33.06 33.94 33.54 30.20 31.22 23.53 34.88 39.87 40.60 39.10 40.56 42.16 40.90 41.78
45.12 45.14 45.28 45.27 45.59 45.83 41.88 41.82 39.35 35.38 29.15 31.82 33.26 34.89 34.00 35.28 36.44 34.86 35.33 37.32 39.46 41.36 38.34 33.94 31.00 30.71 32.28 34.46 35.73 35.33 36.40 34.24 31.62 29.09 28.11 31.74 34.89 37.66 37.26 37.41 37.55 42.34 42.29 44.23
45.69 46.06 46.17 45.81 45.40 45.61 43.61 41.90 43.07 39.35 32.48 31.35 35.68 35.34 35.93 32.78 32.90 33.76 35.42 40.22 42.52 40.76 35.92 32.89 25.55 24.00 27.71 27.95 32.98 38.57 36.73 37.40 33.36 30.91 25.77 23.27 33.51 39.58 44.69 43.34 33.08 43.24 43.15 43.48
45.55 45.38 45.87 46.18 45.62 45.78 43.71 42.00 44.00 39.76 32.66 37.49 37.49 34.16 34.63 37.52 35.10 32.92 34.69 36.16 36.30 38.93 33.72 28.52 26.95 25.63 31.91 26.63 28.22 28.88 31.23 32.18 28.74 29.95 28.32 32.20 38.77 41.13 45.55 32.64 35.79 43.92 44.07 44.23
45.59 45.40 45.38 45.97 45.75 45.82 44.05 41.90 45.02 40.30 34.41 37.91 40.35 40.71 37.94 37.97 36.59 32.31 35.14 34.49 34.89 34.40 30.22 29.91 28.85 28.31 30.77 30.07 32.70 32.02 30.46 29.52 29.64 30.66 28.38 25.52 41.12 41.73 37.16 40.82 44.80 44.35 45.30 45.63
45.08 45.19 45.17 45.16 46.15 46.34 45.85 40.03 45.20 44.99 38.16 37.85 42.80 43.88 44.65 43.09 41.42 38.32 37.68 35.94 35.25 36.36 32.62 31.72 32.12 29.20 29.39 30.96 26.75 35.25 30.12 34.73 32.88 34.30 34.21 40.32 42.97 42.68 44.29 44.74 43.62 44.68 45.01 46.68
45.37 45.28 45.00 45.26 45.46 46.24 45.90 41.25 43.93 41.93 34.08 36.90 38.66 37.88 42.99 44.89 44.69 45.42 36.24 37.70 39.96 37.57 39.66 34.88 33.19 28.95 32.28 28.57 29.77 32.92 35.26 38.01 34.86 34.75 37.91 39.69 41.82 43.20 44.40 44.39 43.67 45.14 46.45 46.84
45.83 45.88 45.16 45.03 45.39 45.45 43.01 40.60 43.92 40.45 37.76 32.98 35.31 42.24 41.29 45.48 45.45 45.03 44.81 42.56 44.33 43.49 41.68 36.46 32.57 31.06 34.69 31.40 33.12 32.91 35.62 36.58 35.35 35.61 38.56 39.59 41.78 42.17 42.37 42.40 44.04 42.54 42.06 42.62
46.33 46.24 46.30 45.81 45.46 45.46 43.27 43.54 43.74 44.21 38.32 31.52 33.31 39.56 41.73 43.96 43.58 43.10 44.76 43.62 42.18 40.55 36.74 34.07 34.14 35.14 36.37 35.90 35.99 33.10 37.68 35.85 34.12 33.38 37.70 37.12 38.03 41.76 40.95 39.63 39.26 37.82 36.45 35.64
46.41 46.38 46.45 46.24 45.67 45.42 41.06 34.13 42.77 44.61 44.06 35.75 30.02 38.40 38.49 41.44 42.55 41.81 41.01 41.95 41.87 40.91 37.91 35.92 37.70 40.12 37.45 32.67 30.94 35.89 37.33 37.42 37.74 36.92 38.98 39.52 40.50 41.77 37.62 36.87 37.25 35.90 33.82 32.09
45.85 46.36 46.59 46.32 45.58 42.68 37.81 36.03 41.02 44.55 44.17 35.35 29.91 31.44 38.88 41.13 40.93 40.23 40.21 40.88 39.26 39.45 37.46 35.80 36.97 38.51 39.71 33.49 30.23 31.62 32.98 33.13 34.11 36.69 37.25 38.51 39.11 37.06 36.17 34.87 34.61 33.28 31.36 29.80
45.83 46.29 46.36 46.14 45.67 44.34 40.90 43.70 44.45 43.94 40.33 38.21 31.37 31.23 34.91 40.11 35.73 35.58 41.44 38.57 39.66 38.81 36.32 37.50 36.17 37.79 36.73 31.73 28.51 28.92 29.68 30.63 33.46 32.31 34.36 34.81 37.99 35.24 32.61 32.56 32.43 29.51 27.61 27.11
46.11 46.31 46.27 44.07 41.82 36.67 40.44 45.08 45.34 44.87 39.92 31.42 31.67 29.87 29.79 38.78 36.65 37.92 37.93 39.36 32.45 39.06 34.18 35.55 37.32 30.94 28.74 24.29 24.31 24.85 26.06 26.03 27.96 30.54 32.57 33.89 33.42 29.37 28.59 28.54 28.11 26.99 25.19 25.51
45.46 42.99 37.92 34.67 40.85 45.39 44.37 39.89 36.15 36.61 37.58 37.09 30.53 33.49 32.07 36.94 35.03 33.54 33.18 34.23 32.80 30.26 32.94 33.93 27.94 23.19 24.77 24.83 25.07 25.00 25.24 26.36 27.60 26.95 27.02 27.38 28.53 27.03 25.60 25.21 25.58 25.36 23.67 23.10
41.98 36.19 34.23 42.01 44.28 39.57 36.04 31.55 30.89 32.36 30.08 33.01 33.40 34.49 32.64 37.50 32.17 32.24 33.76 32.42 31.96 27.44 30.00 28.58 23.02 20.57 22.18 24.83 24.03 24.60 25.25 25.84 25.91 26.92 26.11 26.05 26.22 25.28 23.93 23.19 23.39 22.77 21.61 19.95
39.44 38.38 39.84 36.23 31.85 30.89 30.29 28.70 30.09 29.58 27.63 30.65 33.12 33.89 34.96 35.35 35.98 33.91 32.61 31.60 31.22 25.37 28.49 21.60 16.01 20.07 22.62 22.92 22.22 22.82 23.93 24.29 23.51 24.34 23.58 23.54 23.13 22.67 21.96 21.23 20.40 19.79 19.64 18.66
36.83 31.60 26.02 26.51 21.00 13.70 14.30 22.46 22.31 23.58 25.51 27.19 30.70 32.10 33.19 34.38 35.79 32.83 32.29 27.54 22.04 26.88 19.28 14.39 17.16 20.44 21.86 21.95 22.12 21.80 22.97 22.71 22.32 22.04 22.40 21.57 20.69 21.04 20.40 18.92 19.61 19.25 18.20 18.46
26.82 22.65 12.43 13.08 10.09 16.03 17.12 18.05 19.20 24.26 26.40 26.29 29.32 29.76 29.10 29.15 27.47 25.98 22.14 22.12 22.62 14.97 11.47 10.87 17.55 20.04 21.18 22.34 22.72 21.23 20.17 20.59 20.17 20.22 19.98 19.50 19.26 19.02 19.53 19.35 18.99 17.54 16.22 16.34
21.61 20.12 10.81 13.73 18.69 19.39 19.68 21.65 23.06 24.75 26.47 28.03 30.49 26.77 26.74 23.71 21.01 21.83 20.76 16.46 11.70 12.33 10.81 15.10 18.77 20.73 21.58 21.39 21.85 21.14 20.45 20.22 19.91 20.03 19.09 18.45 18.25 17.68 17.34 18.47 18.44 18.15 17.52 16.96
21.23 17.40 13.19 15.67 14.70 15.21 16.87 18.30 19.39 24.35 23.97 28.65 27.89 24.40 21.11 18.56 17.99 14.75 12.10 12.55 8.74 11.31 15.78 18.69 19.89 19.11 19.16 19.19 19.69 19.96 21.06 20.98 20.45 20.09 19.83 18.95 18.06 17.31 17.21 17.59 17.03 16.45 16.01 14.44
18.05 14.44 16.18 13.49 15.03 14.90 16.72 17.94 19.71 23.82 24.38 20.22 21.63 16.05 15.08 20.79 13.85 10.00 13.10 10.02 13.06 15.58 15.71 17.09 17.73 17.39 17.79 18.72 18.83 19.19 19.30 19.03 19.49 19.67 19.63 19.00 19.30 18.49 16.76 14.74 16.05 16.48 16.00 15.02

GFSNW_sfc_wetblb_072.txt.gz
Wetbulb
44.92 45.58 45.43 45.55 45.45 45.94 44.17 40.62 32.09 47.83 50.34 35.76 35.87 31.43 35.13 37.96 37.01 39.72 38.23 38.09 36.60 35.60 35.73 33.88 34.99 34.96 39.09 42.80 43.53 40.92 44.32 40.81 36.60 38.82 44.34 45.35 45.48 42.69 43.40 37.72 37.15 39.95 39.42 39.69
44.58 45.14 45.39 45.30 45.59 45.54 43.32 35.91 36.75 47.29 45.64 29.99 31.27 35.06 35.49 37.45 36.37 36.99 36.63 36.16 37.97 38.64 35.42 31.95 34.87 37.23 42.39 42.21 40.57 38.99 43.30 39.40 33.33 35.35 40.04 43.85 42.04 43.09 43.21 43.21 42.53 38.25 35.98 39.25
44.51 44.86 45.21 45.07 45.79 45.74 44.16 36.96 30.39 38.01 39.71 37.56 35.44 33.45 33.49 32.60 38.20 37.19 38.18 37.16 38.16 36.79 35.44 37.78 34.43 35.47 39.32 42.10 40.81 42.74 44.22 40.05 37.20 33.81 36.85 41.06 38.21 40.24 42.50 41.67 37.86 38.42 39.42 41.34
44.04 44.72 44.95 44.79 45.79 45.69 42.58 36.92 31.86 37.23 31.12 31.57 34.93 35.59 34.77 32.95 32.81 37.19 38.43 35.65 36.17 35.27 32.49 34.43 34.12 37.21 38.10 40.08 41.66 43.05 44.29 36.63 38.64 38.82 39.18 39.35 38.92 39.03 39.95 38.90 40.21 37.25 40.68 41.47
44.31 44.31 44.47 45.11 45.51 45.59 40.29 32.64 33.11 35.97 33.52 35.32 34.82 35.11 31.96 33.90 35.40 35.71 34.25 34.39 36.46 37.00 34.29 35.62 33.92 35.97 36.62 36.04 39.36 38.96 41.65 36.09 38.74 35.57 38.51 39.17 37.35 39.48 40.28 40.31 40.58 41.89 42.99 42.07
44.67 44.20 44.95 45.02 45.60 45.19 38.30 39.75 40.78 36.48 33.30 33.73 31.99 31.25 34.19 34.77 37.66 38.17 38.94 37.39 35.76 35.39 37.51 40.48 41.23 41.52 40.83 39.58 37.65 35.94 36.35 37.55 35.36 31.35 36.91 37.05 32.60 37.87 39.79 41.06 42.49 43.36 39.74 43.48
45.04 44.81 44.85 44.95 45.42 45.47 42.88 41.38 40.31 33.64 27.21 30.90 33.07 34.06 34.23 34.70 36.99 35.67 38.65 39.44 36.72 39.41 44.17 43.32 42.95 41.73 40.50 40.66 39.82 40.61 36.01 37.16 36.89 32.82 34.16 25.45 37.82 42.29 42.02 40.84 42.64 44.53 43.77 45.53
45.37 44.95 44.80 44.88 45.16 45.68 43.86 43.89 40.31 35.66 29.82 33.31 32.99 32.41 35.12 37.59 38.38 37.33 38.01 39.50 41.14 43.16 39.37 35.17 33.06 34.07 34.97 36.87 39.32 39.56 39.95 37.01 33.47 30.00 30.52 34.49 36.78 40.19 39.86 38.77 38.75 44.26 43.85 46.06
45.43 44.85 44.80 44.83 45.16 45.38 42.48 41.77 45.02 38.42 32.90 32.82 36.07 34.04 34.82 33.24 34.26 35.89 38.18 40.96 43.93 40.94 36.87 33.83 27.60 27.00 30.75 30.93 35.03 40.31 39.47 39.20 34.85 32.88 27.20 25.57 36.56 42.66 45.93 45.47 35.73 44.93 45.26 45.06
45.58 45.38 45.33 45.33 45.57 46.08 43.82 41.45 44.29 38.48 32.49 35.82 37.92 35.62 35.20 38.02 36.66 35.07 36.94 37.77 37.55 39.84 34.96 30.80 28.96 28.78 34.36 29.36 30.37 30.72 31.27 32.79 31.24 31.55 30.84 34.77 41.81 43.71 46.97 34.34 37.07 45.51 46.17 46.15
45.94 45.93 45.84 45.82 46.01 46.06 44.71 41.45 43.83 39.13 34.78 36.57 39.93 41.54 39.06 39.51 38.92 34.17 37.30 36.01 35.29 34.18 32.18 31.87 31.48 31.24 33.46 32.55 35.41 32.39 31.38 29.47 29.67 32.69 28.79 26.73 44.29 43.97 38.89 43.50 45.94 46.23 47.05 47.52
45.77 45.86 46.00 45.87 45.66 45.94 45.69 39.63 44.16 44.09 39.94 37.54 44.08 44.01 45.47 44.15 43.33 40.32 38.86 37.29 36.88 37.97 34.74 35.93 35.76 32.95 35.79 33.72 29.28 39.31 32.78 37.72 35.95 36.49 36.29 44.12 46.15 45.36 46.93 47.58 45.98 46.83 47.47 48.41
45.77 45.70 45.68 45.89 45.71 46.03 45.30 41.32 43.10 41.86 36.74 36.85 38.86 38.93 44.51 47.83 47.21 47.16 37.60 38.90 41.06 40.71 43.40 39.36 37.77 32.73 37.27 31.61 33.11 36.07 39.15 41.97 38.03 38.21 40.98 42.75 44.01 45.84 46.87 46.89 46.43 46.95 46.81 46.52
46.29 45.91 45.59 45.59 45.51 45.89 45.58 41.65 44.07 41.06 37.56 33.68 36.33 43.84 42.18 47.45 48.09 46.43 45.55 43.37 43.77 43.31 42.72 38.04 36.85 34.08 39.49 35.63 37.48 36.68 39.67 40.58 38.27 38.48 41.59 43.04 43.78 45.32 45.63 45.52 46.61 45.00 44.54 43.71
46.28 46.36 45.96 45.31 45.31 45.61 45.52 44.09 44.49 44.64 39.71 34.20 36.16 41.65 44.19 46.18 45.85 44.13 44.37 43.18 42.36 41.06 37.84 36.49 35.86 39.16 38.65 39.82 39.39 36.70 41.02 38.68 36.95 36.01 42.05 41.27 41.72 44.92 44.89 43.61 43.92 43.21 41.03 40.39
46.24 46.35 46.17 45.67 45.41 44.32 40.99 33.70 42.06 44.71 45.05 37.57 32.49 41.40 40.64 43.11 43.95 42.18 41.75 42.48 42.07 40.98 38.37 37.18 38.62 42.77 39.93 35.40 34.14 39.93 42.05 41.11 40.52 39.44 40.19 40.15 41.64 43.71 41.62 41.05 42.01 40.47 38.69 37.08
46.08 46.26 46.21 45.74 45.35 41.94 38.67 38.48 41.04 45.43 45.29 38.22 34.17 35.05 40.63 42.76 42.63 42.12 42.09 42.21 39.08 38.81 36.79 37.25 38.06 39.87 40.39 36.21 33.58 36.36 36.28 36.60 36.66 38.40 37.81 38.63 39.23 36.70 36.91 36.93 39.04 38.42 36.82 35.01
46.29 46.22 45.93 45.51 44.12 43.89 41.01 43.46 45.16 45.86 42.21 40.10 33.03 32.83 35.49 41.28 37.16 37.05 41.92 38.12 38.44 37.44 37.42 38.51 37.78 40.01 37.86 33.88 30.97 31.92 32.29 33.98 36.28 33.67 34.76 34.11 36.24 33.57 31.50 32.36 32.83 31.33 29.57 29.06
46.33 45.97 45.27 42.64 40.32 37.35 41.32 44.88 45.16 47.55 41.38 34.54 33.49 31.43 30.34 40.46 37.63 39.07 38.92 39.13 33.52 39.00 33.32 36.43 38.22 35.68 30.73 24.95 26.28 27.01 27.64 27.56 28.78 31.93 34.65 33.16 31.35 29.33 28.55 28.17 27.09 26.49 24.94 25.36
44.19 42.58 37.22 33.35 39.81 45.19 44.60 40.92 34.47 35.68 37.93 38.99 35.35 37.87 34.06 37.76 37.00 35.09 35.13 37.14 35.09 32.57 36.55 35.20 32.22 25.79 26.29 26.48 26.60 26.84 27.02 27.43 28.21 28.18 30.24 29.49 29.12 28.83 26.87 26.00 26.48 25.62 24.03 22.55
43.12 37.06 35.48 42.09 44.73 41.11 37.62 33.68 33.49 33.37 31.88 34.71 37.24 35.92 34.29 39.19 34.32 33.56 36.06 34.11 34.41 30.22 30.64 33.07 28.80 24.48 24.56 26.54 25.90 26.57 26.96 27.51 27.13 27.33 26.80 27.60 27.02 26.91 25.51 23.97 24.08 22.48 21.91 19.77
41.63 39.10 39.07 37.61 34.08 36.04 33.34 31.47 32.94 32.50 30.14 33.50 34.03 34.71 37.28 35.88 37.05 34.49 34.95 33.11 32.79 27.90 31.86 28.86 23.86 22.13 23.96 24.77 24.06 24.54 25.64 25.90 25.39 26.19 25.29 25.28 24.88 24.96 23.74 22.93 21.57 20.79 20.41 19.94
40.16 35.18 29.66 31.02 26.32 23.95 25.00 24.86 27.32 28.30 30.50 31.96 32.36 32.99 35.48 36.44 34.00 33.17 34.01 29.25 25.80 30.92 26.35 21.61 20.93 22.71 23.76 24.01 24.38 23.49 24.72 24.66 24.33 23.63 23.80 23.33 22.59 22.96 21.83 19.77 20.34 20.20 19.13 19.47
30.00 27.07 19.43 21.29 19.60 21.73 22.59 24.86 26.22 28.38 29.86 30.23 33.70 33.35 33.46 33.59 31.28 30.45 27.08 26.25 28.18 21.75 19.26 16.09 21.15 21.97 22.82 24.13 24.25 22.74 21.48 22.07 21.68 21.00 20.64 20.01 19.93 19.72 20.02 19.53 19.42 18.53 17.18 17.55
25.05 24.88 17.93 19.56 23.31 24.49 24.49 26.51 27.86 28.73 29.97 32.51 33.49 32.41 33.34 28.40 26.13 26.49 25.30 20.47 16.61 17.72 16.95 19.51 22.01 22.39 22.49 23.03 23.02 22.26 21.35 21.06 20.78 21.06 20.02 19.58 19.34 18.87 18.56 19.22 19.40 18.80 17.86 17.49
23.66 21.51 20.99 23.35 24.51 22.95 24.27 24.75 26.06 28.19 29.33 33.28 33.82 28.61 25.36 22.15 22.66 19.39 16.38 16.43 13.81 15.64 19.09 21.22 21.66 20.62 21.05 21.26 22.02 22.27 22.49 22.12 21.49 21.16 20.71 19.93 18.74 18.19 18.25 18.47 17.74 17.22 16.75 15.70
21.03 19.83 22.62 22.35 22.48 20.98 22.21 23.45 24.50 27.89 29.91 27.29 27.36 21.60 19.20 23.79 18.26 13.13 16.41 13.68 15.93 17.55 18.25 19.79 20.67 20.48 20.36 21.10 21.06 21.12 21.40 21.63 21.44 21.18 20.76 20.13 20.47 20.01 18.54 16.56 17.62 17.83 16.99 15.59

GFSNW_sfc_wetblb_075.txt.gz
Wetbulb
44.72 44.79 44.91 45.83 45.92 45.93 43.09 40.94 32.77 48.68 50.55 36.89 36.78 31.72 36.28 39.29 39.20 41.47 40.17 40.62 39.59 38.15 38.61 36.77 36.95 36.89 40.20 43.91 44.41 41.90 44.13 42.04 36.51 37.89 44.06 45.79 44.78 42.13 42.73 37.70 37.12 40.84 39.70 40.37
44.56 45.01 45.13 45.17 45.75 45.84 42.83 35.63 37.17 47.94 47.85 30.58 31.85 36.75 36.48 38.37 37.83 38.43 38.46 38.03 39.87 41.13 38.47 34.21 37.60 38.34 43.68 43.19 41.54 39.98 41.59 40.19 34.62 36.18 40.89 44.63 42.62 44.33 44.51 44.43 43.55 38.22 35.31 39.95
44.33 44.62 44.91 44.78 45.28 45.84 44.18 37.96 32.17 37.58 42.13 38.95 34.82 34.16 34.43 34.50 40.16 39.13 39.96 38.71 40.41 38.90 37.39 40.10 36.54 37.65 40.64 43.15 42.51 42.55 43.26 40.86 38.48 32.92 36.88 42.00 39.87 42.30 44.12 42.90 38.17 38.81 39.31 41.91
44.18 44.72 44.60 45.04 45.15 45.67 43.23 37.68 33.58 38.21 33.13 35.04 36.00 35.43 35.05 34.46 34.56 39.39 39.96 37.27 37.81 37.16 34.41 36.34 36.36 39.27 40.25 41.84 42.53 42.85 42.64 36.60 39.96 41.03 40.69 40.13 41.27 41.56 42.73 41.63 42.44 38.62 41.77 42.68
44.54 44.55 45.18 45.27 45.50 45.59 41.32 33.57 33.91 37.55 36.09 37.37 35.41 35.05 33.39 34.51 36.83 37.54 35.91 35.53 37.98 38.57 35.33 36.13 35.59 38.72 38.48 38.29 41.24 40.20 42.40 35.78 37.93 36.58 40.39 39.93 37.21 40.63 41.57 41.81 42.09 42.42 42.88 42.81
45.51 44.90 45.22 45.41 45.54 45.04 40.06 39.91 41.33 38.38 34.24 35.08 33.55 34.57 34.85 34.54 37.25 37.71 40.13 38.97 38.01 36.91 38.64 41.12 42.70 43.09 41.84 41.56 39.57 38.99 38.37 37.64 36.04 32.41 37.98 38.02 34.18 38.54 39.67 41.38 43.43 43.17 39.94 45.18
46.12 46.10 45.30 45.24 45.59 45.39 42.94 41.63 40.72 34.41 29.64 32.86 33.51 35.24 35.73 36.10 36.39 34.83 38.38 41.53 39.09 41.39 45.52 45.30 44.27 42.82 41.44 41.18 41.42 41.86 37.62 37.73 37.36 33.28 35.34 26.73 38.90 43.67 43.14 42.16 43.53 45.14 44.87 45.94
46.30 46.46 46.09 44.94 45.42 45.76 45.46 43.23 40.41 36.18 30.06 33.52 34.13 34.65 35.24 37.57 38.31 36.67 37.05 40.23 43.08 44.88 41.85 36.15 33.77 34.49 34.91 37.55 40.52 40.59 41.17 38.22 34.49 31.20 31.79 35.97 38.40 40.85 40.48 39.80 40.05 45.42 44.29 45.99
46.31 46.16 46.12 44.87 45.20 45.80 45.63 44.97 45.42 39.62 34.16 32.67 36.66 35.09 36.63 34.75 34.92 36.61 39.04 42.33 44.95 43.20 38.36 35.07 29.37 28.35 32.57 32.56 35.91 41.41 40.09 40.21 35.72 33.36 28.07 25.82 37.60 43.47 46.69 45.46 37.32 46.21 46.05 45.70
46.23 45.89 45.56 44.78 44.99 45.21 45.07 42.88 45.82 40.28 34.82 37.72 39.08 35.19 35.35 39.11 37.39 35.01 37.74 38.77 39.03 41.20 34.98 31.79 30.31 30.87 36.30 31.05 31.81 32.54 33.52 34.39 31.59 31.80 30.62 35.52 42.86 44.84 46.61 35.30 37.41 45.36 46.34 46.80
46.05 46.00 45.77 45.48 44.66 45.04 42.79 39.64 45.07 40.76 36.66 38.28 40.51 40.74 38.25 39.63 38.89 35.43 37.71 37.22 36.65 34.76 32.77 32.65 33.14 32.94 35.23 34.52 36.75 35.10 33.70 31.49 30.71 32.98 30.14 27.80 44.42 44.59 39.57 44.87 47.53 47.57 47.87 47.97
45.96 46.05 46.02 45.63 45.38 45.38 45.04 39.47 43.18 45.13 38.18 38.75 44.24 43.55 44.58 43.77 42.67 39.83 39.18 37.83 37.18 38.65 35.32 37.00 37.70 34.53 37.24 35.27 30.85 40.75 33.52 37.46 35.54 36.34 36.62 44.55 47.44 46.44 47.70 48.34 46.85 47.22 47.26 47.77
46.09 46.07 46.10 46.16 46.12 46.00 45.19 41.75 42.38 41.19 36.73 38.18 40.02 39.95 45.11 47.07 46.81 48.80 38.03 39.83 41.14 41.48 45.11 40.19 38.44 34.38 38.44 32.73 34.64 36.74 40.66 41.88 38.63 37.65 42.94 42.26 46.26 46.84 48.55 48.12 47.11 47.89 47.89 47.36
46.07 46.23 46.16 46.02 46.24 46.19 45.93 41.70 42.70 41.34 38.01 32.61 37.56 45.59 42.43 47.47 47.07 46.18 45.93 43.23 44.29 43.26 43.32 38.47 37.92 35.97 41.32 36.88 38.53 37.65 40.41 41.55 39.76 39.44 42.31 43.91 44.68 46.70 46.80 46.48 47.44 46.92 46.52 46.23
46.28 46.44 46.33 46.16 46.16 46.16 45.36 43.67 44.14 45.14 40.23 35.08 36.18 43.21 45.68 45.57 44.97 44.89 45.61 44.36 42.36 40.16 37.12 35.88 35.83 40.33 39.73 40.73 40.29 37.70 42.26 39.60 37.38 36.10 43.05 43.49 44.13 45.21 45.43 44.39 43.88 44.26 43.14 42.61
46.26 46.49 46.56 46.32 45.84 45.67 43.36 33.74 43.12 47.04 47.23 39.43 34.40 43.39 41.75 43.37 43.79 43.44 43.47 43.98 41.72 39.96 37.32 37.00 41.71 43.40 39.99 36.01 34.73 41.05 43.13 43.89 42.54 40.60 42.62 42.84 44.26 43.80 41.43 40.11 39.74 41.13 42.11 40.46
46.16 46.42 46.39 45.94 45.40 43.26 38.42 38.30 41.93 45.67 46.28 37.53 33.64 35.79 41.24 44.16 43.70 43.38 42.79 42.74 40.86 39.23 36.68 37.06 38.89 40.83 41.10 37.21 33.72 36.38 38.97 39.89 40.84 40.48 40.01 40.98 40.28 37.29 38.27 38.24 37.25 37.69 38.08 36.32
46.17 46.21 45.71 45.39 44.16 43.53 40.58 45.13 45.53 45.56 40.56 40.49 34.49 35.03 37.40 42.57 37.26 37.26 41.77 36.02 38.18 38.34 37.56 37.85 38.24 41.01 39.69 34.23 33.38 34.77 34.44 36.55 38.20 36.40 38.35 37.62 36.54 34.64 32.92 33.29 33.92 33.08 30.61 28.39
46.26 45.58 45.04 42.61 40.03 37.67 40.27 45.58 45.54 46.58 41.13 35.96 36.06 32.58 31.12 41.00 38.04 39.70 39.22 40.48 34.81 39.28 34.97 36.45 39.21 37.00 31.12 26.98 28.32 29.62 30.34 30.53 30.85 33.41 37.00 34.92 33.44 33.07 32.08 31.86 31.13 29.76 27.79 26.93
43.79 41.57 37.48 33.56 39.77 45.04 43.64 39.54 35.61 36.71 39.33 40.60 35.91 40.39 34.06 38.93 38.32 36.78 37.27 38.48 34.27 32.23 34.48 37.51 34.46 26.10 28.18 29.30 29.96 30.01 29.68 29.97 30.18 29.41 30.64 30.00 30.44 30.06 28.36 27.11 27.06 26.58 25.10 24.29
42.13 36.07 36.23 41.98 44.89 40.98 37.54 33.54 34.44 35.33 33.69 37.43 38.64 37.42 36.00 40.81 34.89 34.71 36.39 34.18 35.95 31.23 32.91 34.25 32.34 25.67 25.15 28.24 28.12 29.18 29.76 30.32 29.89 29.62 28.32 28.49 28.72 28.19 27.26 25.48 25.03 24.36 23.51 22.10
42.11 39.38 40.89 39.30 37.13 35.65 33.72 32.35 34.09 33.12 31.16 36.13 34.66 36.21 38.15 38.32 39.77 37.15 35.74 33.36 35.28 29.10 36.16 32.97 27.04 24.01 26.36 26.78 26.13 26.42 27.37 27.76 27.19 27.71 26.78 26.94 26.65 26.73 25.30 24.12 22.89 22.45 22.12 21.73
42.59 38.66 33.71 35.73 31.79 28.13 29.44 26.23 28.84 30.27 32.94 34.32 33.90 32.91 36.01 36.05 36.86 34.61 35.19 31.56 29.17 35.11 30.34 25.84 23.25 24.77 25.00 25.21 25.55 24.58 25.96 26.25 25.79 24.90 25.14 24.88 24.03 24.39 22.98 21.33 21.87 21.47 20.46 21.17
33.86 31.37 23.43 27.66 25.44 25.69 26.27 27.94 29.46 30.30 32.52 32.42 36.18 35.54 35.10 36.25 32.27 32.29 29.31 29.08 30.64 25.52 23.85 20.88 23.22 23.43 24.29 24.76 25.22 23.88 22.61 22.79 22.33 21.99 21.78 21.36 21.03 20.60 21.21 20.88 20.92 19.81 18.74 19.15
28.56 28.30 22.24 23.07 26.12 27.16 28.13 30.08 31.06 31.55 33.49 34.07 36.46 36.39 35.32 31.23 28.94 29.35 28.16 24.44 21.63 22.26 20.89 22.20 23.70 23.60 24.14 24.02 24.01 23.40 22.63 22.35 22.29 22.58 21.30 20.93 20.62 19.98 19.52 20.26 20.40 19.76 18.85 18.51
25.82 25.38 24.27 27.33 28.40 27.41 28.40 29.46 29.97 31.43 32.25 35.45 38.11 32.44 29.02 25.13 27.09 23.78 20.53 21.08 19.73 19.61 22.16 23.46 23.59 22.47 22.73 23.13 23.55 23.56 23.89 23.47 22.89 22.42 21.83 21.07 19.96 19.05 19.00 19.07 18.40 18.15 17.86 16.92
24.56 22.67 26.22 27.26 26.35 25.06 26.21 28.31 28.60 32.13 33.31 29.49 32.45 25.99 22.04 28.46 23.14 18.47 21.10 18.45 19.88 21.78 21.95 23.07 23.33 22.65 22.51 22.89 22.88 23.15 23.43 22.92 22.90 22.47 22.16 21.49 21.98 21.53 19.91 17.96 19.04 18.79 18.17 16.73

GFSNW_sfc_wetblb_078.txt.gz
Wetbulb
44.51 44.76 44.73 45.00 45.05 45.40 43.41 39.67 31.53 48.38 49.76 36.36 36.37 32.60 35.49 39.29 38.73 41.40 39.37 39.49 38.34 37.86 38.69 37.48 37.53 38.00 41.22 43.65 42.70 40.13 43.73 39.64 34.25 37.25 43.66 44.35 43.46 40.64 40.28 33.70 34.41 38.31 37.03 38.41
44.62 44.54 44.74 45.03 45.13 44.66 42.20 35.76 35.86 45.29 47.50 30.44 32.37 35.44 35.31 37.22 37.50 37.80 38.28 37.07 39.09 40.08 37.48 34.23 38.04 39.51 43.77 43.46 41.35 39.07 40.20 37.97 32.31 35.02 39.62 43.37 39.57 41.11 41.76 41.91 40.40 35.04 34.05 37.79
44.28 44.31 44.45 45.00 45.02 44.79 42.60 37.75 31.18 36.97 41.97 39.20 34.78 33.25 33.45 33.76 39.53 38.21 39.14 38.12 39.69 37.86 36.23 38.79 36.55 38.24 41.87 42.83 42.30 42.52 41.91 37.77 35.93 31.88 34.96 39.04 37.63 40.23 41.56 41.29 35.46 36.88 37.16 39.88
44.61 44.61 44.73 44.72 44.72 44.02 42.38 37.32 32.92 37.12 31.92 33.82 34.44 35.60 35.31 33.80 33.62 38.88 39.63 36.87 37.14 36.16 33.33 35.34 35.31 38.69 40.22 42.28 42.91 41.72 40.74 34.57 37.87 37.91 40.11 40.23 38.51 39.50 40.50 38.60 39.72 36.72 39.77 40.47
44.75 45.04 44.91 45.37 44.96 44.86 39.88 33.16 32.60 36.81 34.17 36.28 34.79 34.66 33.07 33.07 35.60 36.64 35.75 35.28 37.49 37.66 34.61 36.00 34.20 37.43 38.02 37.89 41.50 40.26 41.66 34.98 36.96 34.46 38.94 39.22 37.60 39.87 40.76 41.24 41.32 41.13 41.64 40.65
45.11 45.40 45.56 45.49 45.55 44.73 38.80 39.48 40.26 36.11 34.19 33.81 32.72 33.71 34.13 34.39 36.66 37.85 38.22 37.73 36.87 36.26 37.71 40.33 41.41 42.27 41.70 41.03 39.31 38.50 38.19 36.02 34.36 30.55 37.02 36.90 33.20 38.10 39.43 40.55 42.56 41.82 37.98 43.35
45.77 45.47 45.68 45.81 45.37 45.09 41.89 40.56 39.09 34.19 29.20 32.09 32.54 34.69 36.04 35.36 36.58 35.39 38.73 39.97 37.01 40.83 44.87 44.89 43.61 42.81 41.87 40.73 40.64 41.55 36.70 36.09 35.94 31.71 34.31 25.58 38.10 43.82 43.10 41.21 42.46 44.14 44.63 45.80
46.07 46.02 46.44 46.14 45.65 45.66 43.59 43.16 40.40 35.58 29.62 32.98 33.36 34.13 34.66 36.79 38.12 36.86 37.88 39.80 42.08 42.93 41.93 36.53 32.93 33.59 34.85 36.82 39.22 39.15 40.72 36.81 32.90 30.21 30.13 34.74 37.66 40.84 39.75 38.97 39.09 44.32 44.01 45.64
45.95 46.19 46.21 46.28 46.02 45.64 44.29 43.78 45.18 39.62 33.75 31.48 35.83 33.88 35.56 33.19 34.16 35.69 38.17 42.64 44.19 41.95 38.42 34.16 27.18 25.99 30.99 30.79 34.67 40.45 39.80 40.29 34.43 32.94 27.26 24.98 36.54 41.81 46.06 44.90 35.21 45.71 46.09 45.30
45.76 45.98 46.25 46.19 46.46 45.91 44.30 41.85 45.79 39.94 32.57 36.29 37.60 33.95 33.90 38.00 36.67 34.75 37.23 37.76 38.98 41.75 35.15 30.28 28.58 28.37 35.60 29.75 30.81 32.05 33.29 34.11 30.76 30.80 29.11 33.95 41.10 44.47 46.42 34.08 36.42 45.37 46.06 46.14
45.87 46.09 46.14 46.07 46.23 46.12 43.97 41.67 45.82 40.38 35.37 36.22 39.06 39.84 36.13 37.77 38.12 34.20 37.51 36.53 37.22 35.81 31.06 30.64 31.15 31.60 34.11 33.48 35.73 33.98 32.51 30.77 30.43 32.04 28.50 26.71 44.23 43.20 37.47 43.27 45.72 46.32 46.23 46.20
45.96 46.26 46.16 46.28 45.72 44.86 44.64 40.09 44.62 45.19 37.59 36.71 42.87 43.02 43.97 42.40 42.00 38.89 38.79 35.96 36.84 38.81 34.32 35.31 36.05 33.54 36.84 34.71 29.89 39.71 32.20 36.56 33.81 34.86 34.47 43.70 46.77 45.30 47.07 47.37 45.52 45.10 45.49 45.85
46.07 46.35 46.28 46.19 45.86 45.11 44.24 41.05 43.32 42.09 36.91 36.53 37.44 37.28 43.62 46.47 45.60 46.85 34.75 39.68 41.48 39.43 41.30 38.37 37.58 33.58 37.50 32.12 33.52 36.28 39.54 41.68 38.02 37.83 41.05 43.00 44.03 46.10 46.71 46.55 45.86 45.87 45.44 45.18
46.25 46.51 46.49 46.09 46.14 45.81 44.57 40.27 41.96 40.20 37.40 30.25 34.64 45.07 41.25 45.77 47.09 46.01 43.95 42.79 43.92 42.74 40.49 35.75 36.31 33.95 39.53 35.59 37.32 36.90 39.70 40.56 37.94 37.56 39.60 42.00 42.32 42.96 44.43 44.61 44.58 43.91 44.23 43.47
46.33 46.60 46.51 46.35 46.37 46.25 45.11 43.52 42.93 43.32 38.15 33.64 35.34 41.77 44.43 45.68 45.02 43.54 45.21 43.68 42.29 40.42 37.24 35.27 33.96 38.86 38.80 40.03 39.86 36.58 41.12 37.61 35.88 36.06 40.78 41.23 39.65 41.80 42.86 41.58 40.90 41.60 41.58 40.55
46.21 46.53 46.64 46.44 46.11 45.95 42.64 32.98 42.32 43.92 42.99 36.05 33.80 42.14 41.28 43.78 44.70 43.00 42.32 43.17 42.43 40.04 36.81 35.32 39.35 43.10 39.97 35.36 33.96 38.32 40.58 41.13 41.03 37.57 40.18 42.04 41.58 39.57 39.56 38.98 38.82 39.45 38.66 36.78
46.17 46.44 46.41 46.49 46.00 44.29 37.40 37.72 41.79 44.46 44.15 37.17 33.36 34.71 41.76 44.03 43.24 42.66 41.86 43.82 41.25 39.60 36.07 35.59 38.34 39.61 39.86 37.76 32.40 35.32 35.42 38.12 39.03 38.44 39.32 39.95 36.93 34.65 36.06 36.55 37.43 37.51 35.10 32.91
46.05 46.40 46.23 46.39 45.98 43.82 39.96 45.46 45.48 45.23 40.44 40.06 32.48 33.95 37.22 43.18 38.41 37.37 42.44 37.98 38.37 37.67 37.04 38.12 36.97 39.38 39.58 32.95 32.97 33.81 33.30 35.80 35.25 34.48 37.94 36.71 36.69 36.31 34.48 35.41 34.99 33.95 29.95 29.02
46.30 46.40 45.40 42.05 39.94 36.91 40.37 45.52 45.28 46.42 41.05 33.96 34.95 32.19 30.88 41.32 37.82 39.49 38.58 37.44 32.58 38.61 34.95 36.63 38.20 35.97 28.04 27.51 28.40 29.01 29.74 29.82 30.07 33.21 35.49 35.10 33.74 31.86 30.59 29.62 28.93 27.57 25.95 25.65
43.91 42.09 37.18 33.16 39.60 45.73 44.88 40.08 34.18 36.61 38.51 39.68 35.23 39.63 33.96 38.52 37.96 36.83 36.40 37.34 34.48 31.08 34.48 38.80 34.17 26.42 29.26 30.24 30.29 29.92 29.80 30.33 30.48 28.42 27.80 28.88 29.09 29.03 27.47 25.96 26.20 25.32 23.82 23.01
40.82 36.69 36.19 41.98 44.70 40.63 36.14 32.43 33.16 33.31 32.78 37.10 38.13 37.54 34.90 41.43 35.11 34.79 37.76 34.12 35.20 29.37 32.58 32.47 30.39 24.57 25.90 28.35 27.86 28.44 29.00 29.47 28.84 29.43 28.49 28.31 28.25 27.75 26.14 24.74 24.49 23.67 22.86 21.61
41.72 39.94 41.50 40.70 36.83 34.52 32.75 32.25 33.83 33.29 31.29 36.26 36.36 36.92 38.33 38.59 40.04 35.75 34.01 31.79 34.19 28.37 36.00 32.90 23.98 23.50 26.06 26.69 25.84 25.93 27.28 27.10 26.47 27.08 26.16 26.18 26.12 25.97 24.48 23.00 22.16 21.93 21.93 21.53
43.09 38.46 34.91 35.42 32.87 29.87 28.86 26.27 29.63 29.89 33.73 34.71 35.67 33.59 35.72 37.04 37.67 34.97 34.86 30.33 29.48 35.00 30.90 23.63 22.28 24.22 25.05 25.29 25.24 24.32 25.09 25.24 24.64 24.01 23.89 23.12 22.58 22.88 21.77 20.49 21.02 20.60 19.88 20.22
34.77 32.04 24.42 28.48 25.69 25.90 26.16 27.65 29.20 30.81 32.98 33.16 36.93 34.38 35.30 34.43 33.04 32.25 30.35 29.48 31.20 26.72 25.09 19.11 21.68 22.80 24.26 25.18 25.21 23.34 21.80 22.24 21.61 21.37 21.33 20.90 20.45 19.92 20.59 20.28 20.04 18.89 17.67 18.36
29.62 30.23 23.07 23.58 26.89 28.72 30.50 32.08 32.16 32.46 33.34 33.70 35.27 35.83 34.64 31.76 29.77 30.55 28.91 25.65 23.41 21.77 19.14 20.85 22.68 23.72 24.08 23.70 23.73 22.95 22.53 22.25 21.85 21.51 20.31 20.06 19.68 19.05 18.70 19.42 19.17 18.57 17.89 17.40
27.95 26.70 26.04 29.39 28.69 27.80 29.14 30.90 30.16 32.87 33.34 36.14 38.00 32.36 28.25 25.89 27.79 24.66 22.44 23.79 19.74 19.56 21.87 23.26 23.11 22.27 22.66 22.82 23.07 23.33 23.30 22.55 21.95 21.70 20.84 20.22 19.13 18.15 17.81 18.44 18.18 18.15 17.85 16.86
25.42 24.02 28.30 29.26 28.07 26.85 28.12 30.15 30.42 34.26 33.93 30.59 32.82 25.95 23.08 28.80 23.59 19.76 20.40 18.01 20.11 21.41 21.45 22.56 22.93 22.22 21.94 22.47 22.85 23.15 22.80 22.21 22.01 21.77 21.56 21.10 21.44 21.30 19.61 17.36 18.24 18.04 17.17 16.81

GFSNW_sfc_wetblb_081.txt.gz
Wetbulb
44.87 44.78 44.70 44.91 44.88 44.92 42.73 38.12 28.84 42.58 44.56 32.99 33.90 29.17 33.29 37.62 36.75 39.58 37.28 37.73 35.62 34.54 35.50 34.67 35.12 36.37 39.19 41.12 40.17 37.00 40.15 35.80 30.71 33.81 40.94 43.39 41.79 38.14 37.68 33.25 32.86 35.32 35.15 34.78
44.56 44.58 44.66 44.71 44.68 44.44 40.67 34.12 31.41 41.10 42.22 26.24 29.78 34.24 33.83 35.74 35.00 35.64 36.29 35.60 37.77 37.96 34.24 30.86 35.26 37.19 42.25 41.96 39.34 36.08 38.58 33.86 29.04 32.78 38.43 42.28 38.08 39.96 40.20 38.85 38.02 34.12 31.92 35.93
44.74 44.97 44.85 44.85 44.76 44.28 40.57 34.33 21.65 32.14 36.18 35.77 32.92 30.81 31.55 32.21 38.03 36.42 37.17 35.84 36.87 35.17 33.18 35.68 32.88 35.13 41.58 41.76 40.92 42.15 40.03 35.11 32.62 29.36 34.79 37.27 35.89 37.95 39.35 38.29 34.50 33.96 36.00 37.82
44.50 44.61 44.95 44.94 44.77 44.58 39.49 34.67 25.02 33.56 26.25 29.93 32.97 33.52 33.17 32.08 31.78 37.43 38.02 34.44 34.36 33.35 30.42 32.06 31.33 35.58 37.77 41.72 42.79 39.67 37.20 31.39 35.43 35.93 37.83 38.15 38.09 38.06 38.57 37.50 37.77 34.73 37.78 38.78
44.46 44.87 45.35 45.13 45.02 44.85 37.49 31.80 26.78 32.09 31.24 33.59 32.01 32.24 30.20 30.52 32.65 34.38 33.57 33.67 35.68 35.06 31.01 32.53 30.74 35.20 35.23 34.89 39.48 37.99 39.03 30.90 34.39 32.69 37.15 37.10 35.89 38.61 38.53 37.45 38.67 38.81 39.31 38.57
44.45 45.02 45.56 44.89 45.11 43.70 36.75 37.59 35.60 31.78 30.55 30.48 30.07 29.89 32.23 32.47 34.49 35.37 37.35 36.54 34.83 33.59 35.38 37.28 38.55 38.64 38.89 38.92 37.07 35.81 36.35 33.41 31.26 27.45 35.27 35.94 30.51 35.55 38.32 39.35 41.12 39.95 36.08 41.56
44.67 45.72 45.93 45.55 44.83 44.22 36.97 36.69 33.50 27.57 23.06 26.37 28.55 31.51 33.78 33.36 34.34 33.25 36.33 38.02 34.55 39.04 42.63 41.06 40.80 39.49 39.41 38.99 38.53 39.64 34.36 33.53 31.77 26.62 30.42 23.57 36.55 43.10 42.60 39.89 41.23 42.13 42.18 43.90
45.21 45.98 46.00 46.21 45.01 45.25 39.26 37.55 34.92 30.60 20.96 29.00 29.70 30.91 32.02 34.87 35.87 34.33 35.10 38.74 40.68 41.09 39.12 34.52 31.32 29.49 31.05 34.38 37.83 37.36 37.32 33.19 26.34 24.85 25.87 31.84 35.38 40.21 38.78 37.04 37.18 43.37 41.91 44.44
45.46 46.00 46.21 46.07 46.14 45.88 41.45 39.05 39.36 34.62 29.80 26.21 33.31 31.24 32.93 28.88 28.78 31.52 34.40 40.92 41.32 39.75 36.63 32.78 25.56 22.47 27.88 27.60 31.94 38.19 36.65 35.10 29.13 26.05 25.68 20.89 33.77 41.43 44.76 43.82 32.88 43.34 44.12 43.09
45.61 45.72 45.96 46.16 46.28 46.17 42.99 38.77 40.51 36.63 31.15 32.50 33.85 29.84 30.03 34.44 32.55 29.83 33.33 34.59 35.91 38.13 31.36 29.04 23.49 23.90 32.83 26.09 27.86 27.95 29.20 28.56 27.18 26.07 25.89 30.45 39.73 43.16 45.19 32.01 34.19 43.14 43.22 42.89
45.67 45.72 45.84 45.95 46.25 46.54 43.96 39.58 41.88 37.79 33.95 33.87 36.02 36.52 33.40 34.53 33.89 30.09 33.50 31.91 33.83 33.65 24.52 26.60 25.70 24.42 29.54 30.84 33.24 32.44 29.39 27.33 26.18 27.31 23.89 22.54 41.86 42.48 36.56 40.52 42.84 42.93 42.87 42.84
45.42 45.47 45.95 46.16 46.37 46.54 45.85 38.10 41.58 43.02 35.53 32.92 39.22 39.06 39.86 38.32 37.42 36.16 36.30 32.70 35.42 36.98 31.39 29.99 30.16 26.00 29.60 31.55 27.53 37.33 30.53 33.84 29.88 31.05 29.90 40.63 43.60 43.11 44.65 44.85 42.96 42.81 42.33 42.49
45.31 45.99 46.16 46.49 46.67 46.61 45.42 39.89 41.19 40.21 35.68 33.70 33.37 32.48 38.34 42.67 41.47 41.91 32.54 36.87 38.95 38.87 37.34 34.44 34.22 30.41 34.69 28.18 29.58 34.42 37.73 39.48 35.94 34.61 39.00 40.48 41.37 42.90 43.21 43.27 41.94 42.61 42.17 41.06
45.62 46.35 46.42 46.42 46.47 46.07 44.63 39.71 41.68 38.86 35.15 23.56 28.88 40.12 37.29 41.34 41.17 41.97 40.01 39.31 40.45 40.64 37.15 34.06 32.75 32.27 37.61 33.16 34.06 33.43 37.55 39.20 36.18 36.57 39.06 40.46 39.61 40.21 40.93 41.19 41.66 41.74 40.38 38.60
46.10 46.33 46.35 46.71 46.51 46.05 43.86 42.36 41.43 41.41 33.84 29.37 32.52 38.93 41.04 42.24 40.74 39.02 42.11 40.24 38.88 35.89 34.65 33.93 32.75 36.31 36.11 36.73 36.52 35.59 38.08 35.59 35.66 32.40 36.91 37.67 36.79 39.05 40.21 38.26 37.77 36.34 36.58 33.15
46.26 46.40 46.42 46.69 46.40 45.89 41.85 33.25 41.29 42.45 39.88 34.27 27.99 38.57 38.84 39.20 40.74 38.46 37.75 39.72 38.23 36.73 36.10 34.34 37.03 39.93 38.14 29.61 31.84 35.45 35.39 36.81 35.57 32.99 38.42 36.69 35.57 35.75 36.86 36.43 34.96 33.33 31.20 30.58
45.94 46.14 46.53 46.55 46.07 44.24 36.93 35.67 39.85 43.92 42.50 33.93 30.94 29.50 39.25 40.32 40.07 37.20 36.24 38.95 37.42 38.97 35.98 34.74 34.87 36.45 38.09 32.84 29.84 31.32 32.30 35.71 33.87 35.36 38.14 34.92 33.57 31.37 33.99 33.93 33.22 32.10 28.84 27.79
45.99 46.07 46.33 46.31 46.24 43.76 39.49 42.92 44.62 43.73 38.87 37.28 29.37 28.91 35.36 39.45 33.98 32.01 37.74 35.30 38.15 37.51 36.34 36.48 33.71 37.03 35.91 28.27 29.07 29.75 30.27 31.77 31.38 32.97 35.71 34.39 32.69 31.04 29.62 30.34 29.99 27.13 25.65 24.92
46.00 46.17 46.28 41.38 39.30 36.50 39.62 45.54 44.52 44.41 39.28 31.51 30.33 26.95 29.52 38.24 36.06 36.49 36.42 37.82 31.33 37.74 32.98 34.28 35.72 31.70 21.87 25.93 26.38 26.79 27.89 28.02 28.05 31.37 30.71 31.05 30.10 27.60 26.91 26.46 26.20 24.01 23.21 23.10
45.66 42.08 36.16 31.75 38.80 45.41 43.93 38.56 36.10 35.72 37.47 36.84 30.15 35.00 32.14 35.60 33.85 31.23 33.68 34.98 32.07 29.91 32.41 35.87 30.14 24.19 27.17 27.57 27.17 27.10 26.80 28.20 28.54 25.69 24.67 26.05 27.25 25.15 23.88 23.28 23.66 23.05 21.54 19.97
40.17 35.51 35.21 41.46 44.70 39.67 35.09 30.24 30.79 31.72 29.53 31.57 34.10 35.17 33.22 39.42 32.01 32.13 33.55 31.71 31.48 26.75 28.73 29.23 26.09 21.33 24.35 25.62 25.10 26.66 27.00 27.10 27.13 27.26 26.33 26.77 26.34 24.71 22.64 21.67 21.54 21.19 19.83 18.32
40.53 39.69 41.43 39.51 35.57 32.85 30.77 29.64 31.08 29.91 26.99 33.40 29.82 34.62 37.04 35.76 38.19 31.27 32.25 29.46 30.08 24.53 33.55 30.40 19.01 21.66 24.31 24.62 23.31 23.72 25.45 24.85 23.83 24.14 23.17 23.22 22.79 22.26 20.87 20.04 19.69 19.46 19.64 18.61
42.24 37.56 34.39 33.85 30.61 28.02 27.39 21.83 23.95 28.06 31.93 33.40 34.44 32.27 33.47 34.98 35.85 32.11 31.89 27.26 27.06 31.71 27.81 16.83 18.28 21.92 22.96 22.98 22.76 21.80 22.63 22.45 21.80 20.97 20.90 20.48 20.17 20.55 19.22 17.21 17.58 17.02 16.28 16.39
33.10 29.09 21.38 25.65 23.98 22.22 22.41 26.46 27.97 30.32 31.92 32.84 32.66 32.61 30.73 32.04 30.53 29.20 27.89 27.57 28.38 24.66 18.77 12.21 17.41 18.31 21.68 22.79 22.69 20.73 18.44 17.33 17.20 16.17 16.21 16.98 17.49 16.80 17.22 17.08 16.91 16.08 15.39 15.90
27.37 26.95 20.55 20.07 23.45 26.93 29.33 30.98 30.53 31.15 32.31 32.85 33.11 29.44 30.38 26.04 23.56 24.00 22.78 20.16 18.64 17.48 9.98 13.00 16.65 17.31 19.30 17.25 19.54 16.81 17.18 14.87 16.22 14.59 15.60 14.43 15.25 16.19 15.68 16.40 16.69 16.78 15.79 15.26
26.17 25.05 24.66 27.06 24.41 23.87 26.66 28.84 28.74 31.83 31.69 32.66 31.98 28.99 24.51 24.40 24.38 22.98 16.56 19.67 10.47 11.75 16.03 17.67 16.11 17.95 18.64 18.67 19.14 18.82 18.89 18.98 18.98 18.87 18.43 17.58 16.31 15.88 15.88 16.30 15.74 14.91 13.90 12.15
24.76 20.85 23.98 25.86 23.48 24.82 25.08 27.77 28.32 32.84 31.36 24.69 27.51 23.53 22.51 26.56 22.09 14.03 14.02 8.49 12.99 17.00 18.95 20.53 18.28 16.26 15.88 18.50 19.32 19.86 20.50 20.41 20.39 20.14 19.72 18.67 18.79 18.42 17.49 14.99 15.70 16.15 15.61 14.07

GFSNW_sfc_wetblb_084.txt.gz
Wetbulb
44.79 44.75 44.99 45.01 44.97 44.75 40.82 35.18 27.79 39.67 44.03 28.49 30.62 25.16 31.93 36.53 35.17 38.01 35.94 36.77 35.71 33.35 33.87 32.36 33.76 34.87 36.76 40.77 40.77 36.06 37.70 33.80 29.34 32.47 39.88 41.07 40.03 37.97 37.38 32.60 32.15 33.68 33.86 33.81
44.55 44.74 45.11 45.04 44.80 43.75 37.47 33.23 32.58 38.26 41.43 24.38 25.75 31.92 32.07 33.68 33.16 33.96 34.55 33.40 35.85 35.84 32.83 29.25 34.31 35.96 40.72 40.47 38.15 34.55 35.81 33.26 27.23 30.64 36.88 40.73 37.62 39.38 39.30 38.46 36.70 32.02 30.13 34.36
44.49 44.65 44.94 45.11 44.81 43.97 38.43 32.61 26.67 29.42 34.85 33.80 31.12 30.61 30.29 30.99 37.44 35.37 36.27 34.70 36.10 34.26 32.02 35.14 32.14 33.62 40.04 40.51 39.64 42.24 39.30 32.92 30.86 26.96 32.01 37.06 34.45 36.28 38.91 38.09 33.53 32.37 32.87 36.32
44.10 44.41 44.63 45.02 45.05 44.06 37.74 32.19 25.30 30.57 26.09 30.39 31.40 32.15 33.19 30.49 30.76 36.47 37.15 33.74 34.32 32.85 29.16 30.61 29.95 34.27 36.65 39.79 41.54 38.41 35.50 28.36 32.30 34.72 36.52 36.71 35.81 36.44 37.40 35.62 37.77 34.77 35.86 37.43
44.07 44.39 44.70 45.05 45.53 44.41 36.76 29.16 26.61 29.74 28.50 32.51 31.21 31.72 29.80 29.78 31.45 32.73 31.92 31.90 34.84 35.04 31.27 32.59 31.09 34.03 33.77 33.39 37.96 36.31 37.45 29.60 31.80 29.94 35.28 35.42 34.01 35.93 39.11 37.71 37.32 37.54 38.52 36.33
44.03 44.66 44.78 45.20 45.15 43.64 35.90 36.67 34.22 29.98 27.63 28.09 27.18 29.14 29.92 30.14 33.47 35.51 36.18 35.02 34.51 33.23 35.27 37.35 37.22 37.48 37.64 37.07 35.00 33.68 34.08 32.10 28.79 26.33 32.98 32.93 29.01 34.78 37.31 38.18 39.37 37.97 35.68 40.30
44.48 44.92 45.17 45.58 45.44 43.41 37.01 35.12 31.68 27.44 22.15 25.02 26.63 28.79 30.30 30.86 32.49 31.41 35.07 36.98 34.24 37.91 41.83 40.15 39.18 38.04 37.72 37.23 36.98 37.88 33.03 32.22 32.18 26.67 28.80 21.22 33.86 38.75 39.60 39.70 40.64 41.96 42.30 43.45
44.31 44.79 45.24 45.50 46.06 44.59 40.14 34.79 33.26 31.25 18.90 27.07 27.90 29.01 30.02 32.35 33.10 34.03 34.00 35.99 39.47 40.86 38.31 32.65 29.31 28.01 29.40 32.19 36.47 36.24 36.24 31.72 24.87 23.34 24.36 29.27 32.16 36.77 37.83 36.53 37.07 41.59 42.59 43.77
44.28 44.88 45.31 45.55 46.01 45.78 42.48 38.62 36.18 33.80 29.12 24.04 31.58 29.71 31.02 26.68 26.98 29.44 33.05 39.90 40.36 39.04 34.01 29.44 22.94 22.58 26.83 26.77 30.46 36.93 35.64 33.86 27.74 23.94 22.75 18.74 31.39 39.84 43.88 42.91 32.57 41.47 42.95 42.86
44.50 44.81 45.24 45.66 45.87 46.16 43.78 39.73 37.93 33.56 29.95 30.49 31.68 27.69 28.61 32.97 31.09 28.04 31.63 33.74 33.38 35.65 29.45 27.47 23.53 23.45 31.11 24.35 27.04 26.78 27.07 26.01 26.01 23.62 21.82 27.64 37.08 41.39 43.74 31.56 32.66 41.07 41.93 41.56
44.41 45.06 45.24 45.59 45.95 46.01 44.35 40.83 40.79 35.66 29.13 32.17 34.48 35.15 31.05 31.96 33.52 29.84 33.12 28.77 30.75 32.90 25.96 25.47 25.81 23.02 27.65 27.57 31.36 29.90 29.36 27.46 24.58 25.30 22.76 21.74 40.85 40.97 34.86 38.54 40.43 40.78 41.43 41.17
44.35 44.89 45.17 45.65 46.04 46.23 45.94 39.23 42.04 41.35 33.12 31.53 36.98 36.95 37.56 36.18 36.85 33.02 35.38 32.39 33.81 36.02 32.80 29.79 30.14 24.54 25.41 28.27 24.96 36.63 29.09 33.32 29.46 29.04 27.99 39.21 41.78 41.41 42.92 42.63 40.45 40.45 40.14 41.02
44.40 44.87 45.51 45.85 46.20 46.38 45.32 40.26 40.53 39.95 35.22 33.46 32.93 31.96 37.08 39.33 38.62 40.57 29.51 34.40 36.93 33.81 35.49 33.73 31.56 28.84 33.41 25.74 28.74 33.70 34.14 37.06 34.65 34.77 37.41 38.16 39.44 40.60 40.96 41.35 39.99 40.11 40.38 38.86
44.88 45.12 45.40 46.13 46.52 46.59 45.88 40.33 41.22 38.66 34.44 24.90 28.70 38.44 35.01 39.15 38.72 39.40 39.09 38.11 39.25 38.01 38.88 33.40 31.38 28.82 35.13 30.38 32.75 32.62 36.30 38.39 34.72 34.83 37.10 38.28 38.02 38.26 38.76 37.25 38.60 35.85 34.57 34.53
45.00 45.39 45.95 46.50 46.82 46.50 43.23 42.27 42.04 41.53 34.38 26.30 29.33 36.86 39.21 39.89 37.88 36.85 38.87 39.80 38.71 36.23 34.87 32.01 29.81 32.81 34.85 35.84 35.57 30.98 34.26 33.23 31.88 29.87 33.63 35.67 34.03 36.97 38.13 34.57 32.10 32.38 31.29 28.53
45.52 46.02 46.54 46.52 46.57 44.59 41.04 33.13 40.97 42.36 40.70 31.00 24.74 35.24 37.67 39.12 38.42 36.54 36.27 39.01 38.82 38.26 34.53 31.57 36.28 37.93 36.41 31.00 31.24 31.25 34.55 34.04 33.58 34.03 34.33 32.93 32.95 32.76 34.77 31.95 30.03 29.49 28.03 26.98
45.80 46.04 46.11 46.38 46.25 43.05 37.75 32.97 38.11 42.80 40.69 32.95 28.84 27.63 35.26 39.02 36.96 35.84 33.88 37.57 38.71 35.94 36.39 34.39 34.34 34.10 36.21 31.99 27.09 29.41 30.63 31.53 32.99 36.38 37.57 31.62 31.66 28.79 32.30 30.42 29.10 28.26 25.94 25.47
46.16 46.23 46.08 46.13 46.28 43.74 38.81 42.92 43.69 42.53 37.88 36.56 28.43 25.60 33.02 37.47 31.20 34.33 37.80 33.62 37.15 34.77 35.06 35.95 34.34 34.17 33.53 24.64 27.54 27.52 28.39 30.82 29.95 31.27 32.61 30.66 30.00 29.18 28.78 29.28 27.87 25.08 23.58 23.28
46.05 46.16 46.04 42.93 39.06 36.59 39.85 44.76 43.90 43.96 38.26 29.91 30.27 25.18 23.90 38.63 33.67 36.57 35.58 36.77 30.68 34.92 32.45 33.11 32.38 27.40 19.25 22.98 23.77 24.20 25.67 25.98 26.80 29.75 29.66 29.70 26.88 25.59 25.24 24.88 24.57 23.08 22.22 21.77
46.16 41.86 35.78 30.91 37.99 45.08 43.91 39.78 34.33 35.56 36.91 37.08 30.90 30.98 29.57 36.46 32.48 31.48 33.29 33.22 30.64 27.94 31.55 35.72 26.37 21.50 24.69 24.91 25.51 25.42 25.82 26.67 27.00 25.00 23.88 26.38 24.64 23.51 22.56 22.14 22.03 20.47 18.62 18.12
39.16 33.78 33.61 40.59 44.76 39.20 34.95 29.75 29.71 31.23 28.74 31.75 31.21 32.33 32.42 38.97 31.73 30.80 32.18 31.35 31.56 26.33 27.91 29.10 24.24 20.10 21.65 24.26 23.79 25.15 25.30 24.96 24.71 24.36 24.24 24.25 25.03 22.67 21.35 21.12 20.61 19.85 18.94 17.20
39.38 40.13 41.17 39.52 34.72 32.37 29.68 28.17 30.26 27.43 25.02 29.86 27.45 31.59 36.49 35.54 38.52 32.49 31.14 27.52 30.75 24.36 33.70 23.86 13.56 19.93 23.03 22.58 22.02 22.48 23.44 22.38 21.74 22.75 22.16 22.22 21.79 21.18 20.23 19.47 18.61 17.99 17.28 16.02
41.58 37.21 33.55 32.75 30.49 26.27 24.41 23.70 26.41 26.28 32.12 33.43 33.63 31.35 33.50 34.71 35.48 32.15 30.82 26.58 25.85 31.88 20.82 14.41 16.44 21.83 22.27 21.45 20.60 20.05 20.89 21.03 20.08 19.41 20.12 19.99 19.11 19.00 17.86 15.68 16.14 16.07 14.82 14.72
32.37 28.23 17.04 24.89 16.91 15.93 18.07 23.39 27.48 29.97 32.15 32.99 32.47 31.89 31.57 31.95 28.76 27.31 26.51 23.05 25.55 19.65 11.36 12.36 16.16 18.09 19.40 21.38 21.07 18.49 13.52 13.90 13.46 11.91 12.15 12.73 14.15 13.71 14.56 14.56 15.10 14.93 13.75 13.64
26.52 25.85 14.89 13.18 18.45 21.39 28.80 30.82 30.18 30.97 32.39 32.90 31.55 28.55 29.32 26.21 23.76 24.86 22.75 21.03 15.35 14.64 8.72 9.80 15.03 16.49 17.36 15.67 17.91 15.34 15.32 11.81 12.68 9.91 12.01 10.98 12.13 13.78 14.06 15.16 15.59 15.49 14.49 14.49
26.36 24.02 22.45 23.97 20.32 22.14 25.77 27.84 28.26 31.94 31.59 32.92 30.03 25.29 19.62 18.99 20.42 16.86 11.84 16.34 8.58 8.17 9.34 15.67 13.09 12.81 12.25 13.49 15.71 14.68 13.70 13.35 14.10 14.56 14.98 15.23 14.18 14.29 14.56 15.51 14.95 13.96 13.39 12.37
23.61 20.86 22.01 21.68 20.05 19.67 24.42 25.70 26.31 31.54 30.94 22.08 24.35 19.63 20.15 24.86 15.09 9.56 10.66 3.49 5.90 13.68 16.29 15.15 13.81 16.04 14.04 14.72 15.72 15.06 14.59 13.92 11.75 11.93 13.55 13.07 15.78 16.60 15.62 13.60 14.55 15.31 14.17 11.98

GFSNW_sfc_wetblb_087.txt.gz
Wetbulb
44.42 44.27 44.72 45.03 45.20 44.56 39.50 33.83 24.84 39.51 41.28 29.99 24.01 22.19 30.70 35.49 33.87 36.70 34.45 35.45 33.90 31.45 32.91 31.82 32.60 33.79 36.98 40.41 40.59 35.73 36.78 33.82 28.88 32.06 38.65 39.33 36.45 34.94 35.49 30.50 29.71 34.42 32.36 32.14
43.95 44.25 44.85 45.11 45.19 43.64 35.15 31.11 31.02 39.47 39.69 24.78 21.08 29.00 30.17 32.47 31.45 32.10 32.28 32.26 34.81 35.26 32.39 29.18 33.31 34.46 39.79 40.53 38.04 35.10 35.99 31.70 26.32 28.93 34.38 38.74 35.79 38.15 38.27 38.09 36.43 31.88 28.47 31.75
43.64 44.10 44.51 44.84 45.08 43.96 36.10 31.62 25.25 29.60 34.12 34.16 29.05 27.32 28.20 30.36 35.95 34.03 35.78 34.38 35.92 33.42 31.43 33.82 31.44 32.97 38.38 40.27 39.34 41.78 38.64 32.36 29.26 23.08 28.03 35.49 33.46 36.60 37.53 36.88 32.36 33.02 33.18 35.00
43.56 43.76 44.20 44.63 44.89 44.13 35.81 32.12 24.22 28.45 24.66 28.34 29.24 30.18 30.85 29.99 29.48 35.31 36.61 34.07 34.30 32.44 27.75 29.35 30.00 33.58 35.33 39.27 40.85 37.83 34.92 28.03 30.21 32.09 34.05 34.55 34.23 34.42 35.52 34.36 35.99 33.22 35.37 36.40
43.84 44.06 44.34 44.61 44.75 44.10 35.53 27.09 27.48 29.70 28.51 30.48 28.76 29.10 29.23 29.71 31.33 32.11 30.93 31.12 33.56 33.96 30.16 31.85 29.36 32.52 33.14 33.03 35.87 35.29 36.21 29.23 29.64 28.21 33.02 32.99 31.38 33.84 35.00 36.50 37.65 37.43 37.28 37.21
42.93 43.65 44.41 45.05 45.20 43.81 36.23 35.32 34.25 31.65 27.33 26.65 25.63 26.46 26.96 28.28 31.65 34.70 35.15 33.59 33.19 31.63 34.54 36.45 36.55 36.32 36.63 35.68 33.86 32.18 32.63 30.76 28.34 25.84 30.41 30.01 26.18 31.54 32.48 37.49 39.14 37.85 34.61 39.48
43.17 44.16 44.62 44.89 45.38 44.15 38.93 35.85 34.24 29.02 21.71 25.32 25.94 27.76 29.03 28.60 30.96 30.50 34.00 35.49 33.85 36.84 40.86 39.70 37.67 36.93 37.03 35.57 35.22 36.32 31.22 30.98 29.72 25.27 27.31 18.64 30.96 36.95 37.52 35.97 40.23 40.58 40.83 42.22
43.32 44.06 44.43 44.84 45.38 45.71 40.11 38.24 34.42 29.84 20.75 26.72 27.48 28.36 29.38 31.09 31.75 30.89 33.13 35.88 38.87 39.91 36.96 31.00 29.09 28.21 29.14 31.32 33.92 34.02 34.70 30.22 24.76 22.89 23.46 26.99 30.56 34.47 35.02 35.27 34.49 40.89 39.07 42.63
43.13 43.63 44.26 44.74 45.26 45.73 42.01 38.70 38.43 31.69 22.55 23.33 30.08 28.36 30.06 26.91 27.82 29.55 32.39 37.98 39.16 38.03 32.07 28.64 23.99 22.35 26.73 26.54 29.91 35.07 33.69 32.09 27.14 23.51 21.60 15.79 28.38 37.19 41.77 41.19 30.68 39.80 42.43 42.60
42.81 43.38 43.95 44.72 45.22 45.59 43.70 40.57 39.78 34.68 21.64 28.73 30.49 27.00 28.45 31.96 29.92 28.19 32.25 31.86 33.14 34.61 29.49 25.91 24.70 24.36 29.88 24.12 26.43 26.35 26.96 27.24 26.06 24.43 23.63 25.92 34.33 39.37 41.86 29.69 31.13 40.02 40.91 40.66
42.66 43.39 43.88 44.38 44.96 45.26 43.96 40.90 40.61 36.20 26.47 28.22 32.92 33.67 29.20 31.03 31.03 25.47 29.63 28.15 28.65 31.43 27.61 25.40 25.50 23.15 27.10 26.78 28.95 28.03 26.12 24.66 23.52 25.63 24.18 21.50 39.55 39.23 32.33 36.26 39.69 40.03 40.70 39.42
43.23 43.60 43.72 44.15 44.79 45.47 45.55 39.77 41.20 40.95 34.18 29.35 35.22 35.71 36.61 34.83 34.45 30.57 31.27 31.34 31.55 34.80 31.36 30.49 30.65 25.77 24.18 27.04 22.43 34.14 23.11 29.82 29.99 29.69 27.45 38.23 39.72 38.85 40.65 41.78 39.91 40.12 39.75 39.70
43.36 43.87 44.11 44.39 44.60 45.52 45.13 41.28 40.61 38.98 34.00 31.95 31.01 29.86 36.42 38.92 37.26 38.37 27.56 30.78 36.10 35.01 35.00 32.72 31.76 27.12 31.71 23.98 25.72 31.22 33.10 35.29 31.42 33.48 37.17 37.54 38.17 37.64 38.52 37.17 34.63 35.58 36.82 36.55
43.91 44.27 44.69 44.94 45.29 45.68 46.09 40.33 41.56 38.79 35.74 27.84 28.39 37.18 33.93 37.66 37.74 36.72 36.85 36.12 38.79 38.10 37.74 34.16 31.33 29.03 32.83 28.82 30.79 32.20 34.27 34.21 33.45 32.74 34.98 36.02 36.68 37.72 35.87 35.07 34.79 32.73 30.90 31.12
45.11 44.94 44.85 45.25 45.76 46.36 45.10 42.11 41.84 40.68 35.52 25.28 26.67 34.27 37.82 38.14 35.84 34.87 36.30 37.27 36.90 34.96 34.32 31.84 29.50 30.62 34.11 33.16 35.08 28.31 33.58 29.92 28.80 28.44 32.04 32.55 32.00 35.76 35.60 32.31 30.31 29.74 28.95 26.43
45.51 45.28 45.41 45.64 46.52 44.34 40.28 32.77 41.30 42.08 40.83 31.07 22.70 32.52 35.02 36.69 35.87 34.71 35.79 37.24 36.88 37.40 34.77 32.75 33.22 36.62 36.13 25.47 27.38 29.66 32.21 33.20 34.54 33.38 33.28 31.65 31.86 33.02 31.71 29.00 27.97 27.31 25.85 24.60
45.84 45.82 46.07 46.34 44.89 42.45 37.36 33.13 37.20 43.14 41.31 31.53 27.06 26.59 33.95 37.94 35.32 33.31 32.82 36.05 35.96 36.64 35.44 32.54 33.27 32.46 35.67 31.24 25.74 27.55 29.98 30.87 31.54 34.09 34.61 31.10 29.32 27.59 29.59 28.03 27.16 26.78 24.93 23.95
45.79 45.98 45.95 45.70 44.99 43.48 39.16 42.94 43.66 42.42 37.33 35.13 26.83 26.66 29.99 36.44 30.23 31.53 36.92 33.37 34.19 36.73 32.92 35.75 33.41 34.47 33.01 24.21 25.65 26.33 27.86 29.64 29.14 29.83 31.23 29.43 29.38 28.84 27.55 27.60 26.29 23.74 22.54 22.33
45.86 46.02 45.88 43.61 38.75 36.78 38.07 44.54 43.54 43.22 37.15 28.96 29.51 23.94 21.34 36.29 33.22 36.34 34.68 32.10 24.34 32.98 28.51 30.19 33.20 28.23 20.58 21.83 23.54 23.96 25.40 25.52 25.98 28.83 29.79 28.00 25.86 24.78 24.22 23.64 23.78 22.30 21.06 20.18
45.69 42.82 37.09 30.71 36.89 44.49 43.09 39.10 34.71 35.05 36.22 36.65 29.17 30.94 28.46 36.21 33.59 32.74 32.24 31.65 24.31 27.88 30.37 33.88 25.83 18.57 23.83 24.62 25.04 25.35 25.29 25.24 25.15 25.03 23.83 25.25 22.98 22.12 21.36 20.74 20.42 19.78 18.51 17.16
39.21 32.74 33.99 39.69 44.20 38.87 35.15 29.58 29.44 30.58 29.08 32.26 31.49 30.34 29.32 37.64 30.55 27.99 29.89 29.72 30.62 25.97 26.11 29.90 22.45 17.59 20.73 23.18 22.88 24.23 24.10 24.09 24.17 23.96 23.26 23.58 23.62 21.82 20.90 19.69 20.15 19.39 18.26 15.97
36.81 39.72 41.42 39.65 35.50 32.21 29.07 26.50 28.94 27.72 25.02 27.50 28.23 33.22 35.70 34.34 37.40 32.33 32.06 27.83 30.10 23.63 31.92 22.41 11.91 18.82 22.03 21.71 21.43 21.85 21.87 21.36 20.87 22.29 21.53 21.93 21.43 21.28 20.11 19.08 17.27 16.43 15.86 14.25
40.83 37.40 33.78 33.25 30.50 25.41 17.49 20.45 25.14 24.76 30.37 31.54 33.48 31.60 33.20 34.17 32.03 30.68 27.86 26.33 22.28 31.02 19.37 12.36 14.15 20.59 21.84 20.35 20.04 19.27 20.22 20.18 19.56 19.63 19.89 19.40 18.17 18.29 16.90 14.58 14.76 14.43 12.90 12.78
32.27 29.05 21.10 25.37 12.09 15.47 17.26 18.53 24.88 30.31 31.97 32.02 32.78 31.34 30.12 31.38 27.09 29.21 26.64 26.61 24.54 16.11 8.22 9.00 14.33 18.53 19.81 20.36 20.07 17.11 13.06 12.83 11.68 10.29 10.19 10.04 10.55 11.00 11.80 11.97 13.00 13.17 11.32 10.86
27.67 25.79 13.87 13.53 17.24 21.16 25.84 28.89 30.01 31.21 32.58 32.54 30.66 28.84 27.88 23.65 23.65 22.37 19.07 17.42 10.90 13.33 8.51 7.54 12.04 17.11 17.23 15.26 16.54 13.20 12.38 8.85 9.44 7.55 10.22 8.39 9.28 11.86 11.88 14.27 14.88 14.92 13.36 11.98
26.37 23.13 22.54 22.59 18.14 21.83 23.31 27.30 28.47 31.94 32.19 32.33 30.75 24.42 19.61 19.13 18.23 16.19 10.61 16.06 11.78 8.53 8.37 11.30 13.52 15.35 9.89 11.65 13.69 11.38 11.13 10.89 8.23 7.57 9.00 9.67 7.47 7.54 8.81 11.62 11.22 9.90 10.79 9.29
22.87 19.11 20.66 14.83 11.58 15.06 23.92 25.49 26.13 30.03 29.99 23.27 22.17 15.43 17.25 21.92 14.69 11.98 11.92 4.71 2.89 12.23 11.32 12.02 9.91 12.45 14.27 13.72 12.68 10.75 12.09 11.77 9.98 9.58 11.07 9.95 11.52 12.25 13.80 11.74 13.10 13.88 12.82 8.03

GFSNW_sfc_wetblb_090.txt.gz
Wetbulb
44.00 43.88 44.13 44.87 45.41 44.42 38.87 32.54 23.13 34.81 40.11 26.80 29.51 18.38 27.31 32.80 31.78 35.25 32.25 33.70 32.99 31.16 31.47 31.06 32.46 32.58 36.47 40.14 39.54 34.38 36.79 33.61 29.42 32.24 37.95 38.71 36.46 34.68 34.44 26.19 25.45 32.28 31.18 28.78
43.32 43.53 44.03 44.59 45.09 43.31 33.74 29.60 30.38 36.33 38.83 23.16 24.60 26.39 28.54 30.37 29.68 30.65 31.27 31.02 33.40 33.54 30.69 28.58 33.12 33.49 38.93 40.12 37.06 34.29 35.28 31.55 25.40 30.32 34.47 36.99 35.54 37.09 38.16 37.08 34.43 30.53 27.36 28.11
43.22 43.27 43.67 44.07 44.66 43.94 35.28 30.29 22.68 26.12 34.44 33.97 27.68 26.91 26.26 26.06 34.38 31.45 35.33 33.75 34.66 32.66 30.75 33.91 31.30 33.04 37.67 40.52 38.94 41.72 39.12 32.33 28.44 23.80 26.93 33.96 32.61 35.42 36.86 35.37 29.87 31.36 32.13 32.81
42.92 42.92 43.32 44.20 44.57 44.20 37.38 31.25 23.06 28.74 20.54 24.10 27.33 28.31 29.12 28.67 30.21 34.55 35.01 32.72 33.05 32.32 29.25 30.36 30.40 33.29 34.75 37.90 39.40 38.31 35.02 27.85 30.78 31.47 32.22 33.07 32.29 32.05 33.63 33.67 33.79 30.42 31.51 34.02
42.79 43.34 43.32 43.89 44.59 44.43 37.08 27.51 26.89 28.11 26.28 28.08 26.77 27.07 26.47 26.61 28.10 32.18 30.92 29.87 33.24 33.89 30.79 31.79 29.28 31.42 33.02 32.50 35.60 34.69 35.77 28.69 29.57 28.42 31.75 30.71 28.36 31.13 31.29 32.20 33.76 34.80 36.00 35.43
42.87 42.36 43.02 43.93 44.85 43.30 36.54 35.69 35.61 29.32 25.54 25.19 23.54 26.40 26.51 26.00 29.86 32.29 34.13 32.27 32.52 30.97 33.04 34.75 35.24 35.05 34.87 35.26 33.68 31.78 32.19 29.82 27.00 24.67 29.21 28.31 24.55 28.52 29.94 30.62 36.70 36.28 32.48 37.68
43.26 42.46 43.36 44.54 44.94 43.89 39.09 37.34 35.39 28.76 18.87 24.15 24.85 26.68 28.01 27.78 29.29 29.33 32.92 34.34 32.10 36.33 39.74 37.86 36.71 36.00 35.68 35.61 35.24 36.04 31.06 29.88 28.68 24.90 27.13 16.47 29.03 34.14 33.93 33.66 35.53 39.38 39.23 39.58
41.64 42.23 43.49 44.34 44.58 45.01 39.75 38.68 35.44 30.07 17.12 26.15 26.14 27.23 27.38 28.94 30.85 30.55 31.25 35.37 37.01 38.72 35.92 29.61 28.18 27.61 28.49 30.19 33.05 32.57 33.65 29.64 24.60 21.95 22.92 25.67 29.35 33.09 33.74 31.58 31.73 37.90 38.16 40.55
41.63 42.18 43.27 43.90 44.46 45.08 41.84 38.74 39.63 34.80 22.89 21.77 28.43 27.34 28.53 27.19 27.58 28.51 31.65 37.01 37.28 36.22 30.88 27.88 23.92 21.83 26.07 25.78 28.08 33.92 32.28 30.77 26.25 23.65 20.70 14.48 27.08 34.44 39.14 37.51 25.87 38.76 39.33 41.04
41.83 42.23 43.02 43.59 44.41 45.04 43.09 40.04 40.19 35.66 27.91 28.26 29.31 26.25 27.47 30.68 28.08 27.10 30.59 30.65 32.13 33.66 28.27 24.67 24.58 24.31 28.95 23.73 25.07 25.55 26.61 26.92 25.82 24.29 23.10 25.69 33.10 38.21 39.94 25.60 27.05 38.17 38.21 40.82
41.57 41.98 42.75 43.59 44.13 44.90 43.29 40.83 40.79 36.53 29.29 27.95 31.67 32.11 28.51 28.81 29.41 23.97 28.64 27.53 27.79 31.38 26.06 26.18 25.61 23.04 26.31 26.72 28.19 27.72 25.45 23.75 23.18 26.75 23.61 20.02 37.62 37.41 30.25 36.26 39.00 38.71 37.84 36.52
41.53 41.94 42.86 43.80 44.04 44.44 44.76 39.55 41.26 41.37 35.07 31.18 34.07 34.16 34.95 34.33 33.46 29.89 29.85 28.93 28.60 33.82 26.15 28.23 29.20 27.54 25.29 26.71 23.18 32.52 21.77 29.82 29.07 28.96 27.45 36.91 37.48 35.80 37.34 38.41 36.12 37.35 37.10 36.37
41.71 42.54 43.21 43.99 44.13 44.34 43.76 41.36 40.47 38.58 34.09 34.01 31.88 30.90 35.19 37.05 36.02 36.42 26.71 29.79 34.39 33.63 34.42 30.52 31.39 27.56 30.69 23.98 24.98 29.77 29.96 34.93 30.97 31.33 33.29 35.10 36.56 36.87 35.10 34.29 32.84 33.85 34.42 34.04
42.08 42.75 43.20 44.17 44.54 44.75 44.54 41.29 40.94 38.13 35.54 25.63 27.90 35.83 32.93 36.44 37.10 36.01 34.48 34.57 36.13 35.87 36.02 32.78 31.18 28.65 33.51 29.02 30.66 30.94 31.25 33.19 29.42 32.24 32.95 34.72 33.59 34.23 35.10 33.55 32.47 29.59 28.86 29.23
42.42 43.25 44.30 44.56 44.97 45.13 44.68 43.36 41.62 41.29 35.55 25.70 26.80 32.52 35.43 36.31 35.28 34.60 34.73 34.46 33.26 33.64 33.23 32.33 28.63 30.65 33.29 33.79 33.49 25.86 31.57 28.55 25.41 27.26 30.79 31.68 29.58 31.66 32.33 29.22 27.98 28.58 27.54 25.43
43.03 44.98 45.82 45.26 45.30 45.70 39.62 32.43 41.31 42.12 41.01 33.64 22.89 31.82 32.61 34.90 33.82 32.31 32.48 32.82 33.77 36.63 35.25 33.82 33.50 35.13 33.91 27.44 21.27 29.13 31.83 32.90 33.37 32.33 33.32 31.48 31.06 30.58 30.06 27.20 26.29 25.02 24.10 23.92
44.29 45.61 45.49 45.68 45.84 42.61 37.45 33.05 38.23 42.91 41.18 31.84 25.05 25.35 32.93 35.40 33.77 31.49 31.04 33.76 35.77 35.25 34.24 32.51 29.99 30.31 35.43 30.70 26.39 26.95 30.25 30.33 30.26 31.86 32.38 31.38 28.64 26.19 27.99 26.72 25.35 25.31 23.41 22.82
44.93 45.71 45.80 45.94 44.88 42.63 39.47 42.63 43.59 42.51 37.40 34.65 26.93 25.44 29.82 35.92 30.74 29.20 33.10 30.00 32.36 35.11 34.54 35.01 33.43 34.02 32.60 23.80 25.31 26.11 26.80 28.31 27.55 28.75 29.97 28.30 28.40 26.67 25.54 26.07 24.67 22.30 21.09 20.70
45.04 45.32 46.05 42.60 39.91 36.44 38.63 44.15 43.53 42.66 36.00 28.37 26.52 23.02 20.91 36.43 33.97 35.47 34.29 32.39 25.41 31.44 29.78 29.06 30.14 26.48 24.80 19.94 23.17 24.11 24.89 24.43 23.51 26.93 28.35 26.06 24.10 22.71 22.25 22.02 22.37 20.66 19.67 18.61
44.86 43.07 36.99 30.38 36.53 44.65 42.51 38.75 34.53 34.38 35.80 35.20 28.73 28.31 24.11 32.86 32.42 31.92 30.20 27.99 22.39 24.37 27.45 32.06 28.19 17.99 23.47 23.85 24.10 24.17 24.10 23.46 23.79 23.65 23.96 22.87 23.06 21.11 20.16 19.36 19.78 18.88 16.75 15.55
40.09 33.14 33.34 39.47 43.67 38.70 35.01 29.94 29.29 30.25 28.41 31.38 31.86 28.05 27.34 34.46 30.44 28.44 30.48 25.51 23.40 20.08 25.42 26.96 20.89 18.11 21.08 23.23 22.88 23.09 23.04 23.20 23.11 22.96 22.55 22.97 23.10 21.60 19.95 19.24 19.41 18.54 16.90 14.83
37.09 39.03 41.33 39.94 35.19 32.24 29.12 24.38 28.19 27.31 24.02 28.01 29.17 30.08 32.32 34.51 35.40 29.43 30.49 28.66 29.39 21.52 31.23 23.21 13.84 18.39 21.62 21.66 21.22 21.34 21.33 20.87 20.75 21.61 20.76 20.85 21.17 20.17 18.53 16.77 15.44 15.08 14.52 12.32
41.85 37.72 33.11 32.39 30.91 24.82 16.64 17.94 24.69 24.72 27.91 25.70 32.34 31.56 33.59 32.73 32.24 30.14 30.22 25.89 20.77 29.17 18.50 17.27 13.27 20.64 21.05 19.98 19.43 18.14 19.71 19.83 19.75 19.28 19.19 17.95 16.40 16.60 15.56 12.58 11.85 11.04 10.19 9.67
32.02 29.09 23.74 23.11 19.86 16.49 17.96 19.82 20.24 25.76 31.25 32.14 32.36 31.41 30.84 31.62 29.19 29.78 25.17 21.60 24.65 15.94 9.81 11.29 13.04 17.51 19.67 19.54 19.18 15.90 10.55 10.99 10.87 8.71 8.97 8.48 9.36 7.57 7.16 4.68 4.15 6.15 6.73 4.84
28.63 25.92 18.02 15.19 17.30 19.17 26.10 29.86 30.61 31.41 33.11 26.65 30.62 29.19 27.05 20.41 19.26 22.90 18.73 20.89 16.25 13.84 8.56 5.75 12.51 16.29 17.43 15.44 16.05 12.63 11.05 6.24 6.29 4.57 6.79 4.86 6.36 9.91 10.14 9.79 8.96 9.72 6.40 5.14
25.17 20.81 17.58 22.50 24.22 23.71 25.84 28.09 28.90 31.80 32.22 26.18 29.06 25.47 19.65 15.68 15.84 16.23 12.53 16.96 13.26 8.98 8.18 11.76 12.86 10.60 7.40 7.22 9.12 8.00 8.01 8.34 7.59 6.70 8.46 8.42 6.03 7.05 7.38 10.05 10.03 6.05 6.42 3.05
21.87 15.40 18.25 13.52 15.04 17.55 21.44 25.70 26.73 30.01 29.23 17.27 21.27 14.84 15.20 19.94 11.22 10.34 11.81 8.45 7.71 11.54 11.11 9.19 7.95 11.49 9.84 5.39 6.27 6.25 8.72 9.11 7.27 7.44 9.13 8.01 10.26 10.69 12.47 10.84 12.25 13.51 11.53 4.87

GFSNW_sfc_wetblb_093.txt.gz
Wetbulb
43.91 43.42 43.59 44.24 44.87 44.23 38.52 32.92 22.92 35.93 41.14 28.41 29.98 25.22 27.27 31.30 29.08 32.41 31.85 32.32 31.12 30.95 31.22 30.81 32.75 31.84 34.90 40.02 40.16 35.66 38.50 36.22 30.80 33.04 39.11 40.88 39.04 36.14 35.75 30.98 27.91 30.98 30.12 30.86
43.41 43.07 43.14 43.78 44.55 42.97 35.46 29.05 28.89 36.69 39.61 21.90 23.52 28.18 27.62 29.87 28.56 28.98 30.26 29.18 31.74 33.71 32.10 29.84 34.55 34.24 38.93 40.56 38.23 35.21 37.52 32.95 30.24 30.73 35.44 38.27 36.09 38.36 39.00 37.20 34.64 29.18 28.42 31.42
42.79 42.92 42.90 43.40 44.19 43.45 36.58 28.57 20.94 27.62 32.67 32.67 26.98 25.76 25.42 26.35 32.95 30.84 32.70 33.39 34.12 33.26 31.85 35.04 31.57 33.07 36.78 40.08 40.00 42.09 40.84 33.81 30.44 26.97 30.00 35.12 32.05 34.08 37.16 36.19 30.00 29.79 31.16 33.24
42.50 42.40 42.43 43.37 44.09 44.32 38.85 30.93 22.44 28.49 21.45 24.62 26.61 28.01 26.78 25.29 25.70 34.98 36.06 33.16 33.31 32.72 29.58 31.12 30.75 33.32 35.34 37.94 39.11 39.44 37.45 30.16 32.51 32.98 34.17 34.89 33.43 32.84 33.74 33.09 34.39 30.52 32.64 33.40
42.37 42.48 42.80 42.97 43.55 44.18 37.36 29.16 26.84 29.64 27.48 28.15 26.11 26.91 25.71 25.18 26.87 30.94 31.30 29.60 31.61 33.82 30.70 31.62 29.51 32.21 33.48 32.61 36.68 35.62 37.46 31.10 32.15 29.33 32.88 32.42 30.48 32.77 32.88 33.50 34.37 34.39 35.34 35.55
42.22 42.87 42.09 42.67 43.67 43.28 37.21 36.05 35.66 31.16 26.64 25.96 24.11 25.46 25.63 25.93 29.14 31.47 33.18 32.22 31.75 32.05 33.59 36.07 36.91 37.23 36.37 35.45 34.50 33.39 33.91 31.94 28.57 25.00 30.70 30.03 25.81 30.52 31.61 32.66 34.58 36.94 33.14 38.79
42.60 43.62 42.27 43.07 44.23 43.84 39.88 37.73 35.96 28.87 22.22 24.99 24.96 26.21 27.01 26.76 28.17 28.28 32.83 34.77 32.82 36.66 38.78 38.69 37.71 37.09 36.18 36.30 36.38 36.74 32.93 31.35 30.41 25.89 28.28 17.96 30.39 36.38 35.81 34.38 36.08 38.79 39.79 41.75
42.97 41.83 41.80 43.12 44.19 44.42 40.39 39.00 35.74 31.41 22.83 26.66 26.75 27.36 27.42 28.87 31.25 30.73 32.21 35.19 36.04 37.97 36.46 31.91 29.34 29.26 30.46 31.79 34.88 34.04 35.63 32.24 27.78 24.06 23.76 27.52 30.55 35.25 34.29 33.10 32.85 38.60 38.33 41.53
42.83 41.59 41.75 43.00 43.62 44.19 41.29 38.81 40.14 35.21 27.47 24.59 28.76 27.37 28.96 27.59 28.39 28.67 32.32 37.15 37.89 36.73 32.12 29.82 24.55 22.79 26.74 26.67 30.04 35.07 33.83 33.84 29.79 26.62 20.64 17.95 29.29 36.26 40.46 39.35 28.48 37.62 39.11 43.04
42.77 41.91 41.78 42.78 43.25 43.99 42.67 39.98 41.00 36.05 29.28 30.39 30.52 28.10 28.26 30.86 29.12 26.71 30.21 31.30 32.51 35.57 29.45 27.76 25.66 25.03 29.59 24.36 25.34 27.23 29.09 29.24 25.85 24.84 23.10 27.20 34.96 38.47 40.04 27.36 29.41 37.20 37.59 36.48
42.60 41.71 41.73 42.45 43.06 43.82 42.96 40.71 41.22 37.01 30.67 30.51 31.70 32.70 29.77 29.69 30.11 25.79 30.48 29.35 29.84 30.59 27.42 27.29 27.69 26.32 28.01 27.81 29.67 29.32 27.65 26.27 25.38 26.50 23.75 20.75 37.20 37.83 32.50 36.36 38.31 37.95 36.20 34.42
42.05 41.68 41.55 42.20 42.91 43.77 43.74 39.34 41.53 41.63 35.37 32.68 35.11 35.50 36.58 35.21 34.85 32.64 31.44 30.12 30.10 32.57 28.19 28.87 28.88 27.21 28.58 26.79 24.76 33.66 27.97 31.70 28.68 30.13 29.97 35.07 36.12 34.53 35.27 36.91 34.44 35.16 34.81 34.45
41.74 41.59 41.63 42.29 43.41 43.99 43.56 40.88 40.39 38.68 33.62 34.22 34.02 33.23 37.32 37.70 37.13 38.94 30.61 31.37 34.29 33.92 35.06 31.27 30.10 27.26 31.14 25.21 26.70 29.79 32.67 34.62 31.32 31.76 32.72 31.66 33.56 34.70 34.37 32.99 30.23 31.57 33.40 33.44
40.89 41.33 42.05 43.17 43.31 44.16 44.03 40.69 41.18 38.87 35.00 28.71 29.50 36.62 34.51 38.15 38.18 37.06 37.20 35.91 38.25 36.85 36.55 32.31 29.72 28.07 33.95 29.76 30.83 30.42 31.04 31.95 28.58 31.59 31.59 33.38 30.67 32.19 32.15 31.04 31.32 29.54 28.50 29.39
40.88 41.51 42.33 43.25 43.90 44.54 44.20 43.51 41.70 41.51 36.22 28.74 29.29 34.23 36.14 37.28 36.60 36.30 37.05 37.04 35.32 34.78 31.88 32.16 30.41 32.82 33.08 34.97 33.06 27.70 30.90 28.75 26.99 26.80 30.44 29.94 28.28 30.22 30.35 27.85 26.50 26.74 26.93 25.72
40.94 41.85 42.41 43.59 44.16 44.79 40.90 33.08 41.03 42.07 41.30 33.23 28.10 34.07 33.88 35.29 35.11 34.62 34.39 35.32 34.64 35.21 34.05 33.67 35.10 36.56 34.91 29.29 27.34 29.41 31.56 32.58 32.28 31.16 33.26 30.27 29.70 29.30 29.16 26.53 25.43 25.42 24.46 24.41
41.15 42.17 43.79 45.46 45.85 43.56 36.83 34.97 38.98 43.19 40.36 32.49 27.87 27.86 34.07 35.08 34.17 33.79 33.58 35.13 35.56 36.05 34.84 33.76 33.82 33.68 35.56 31.55 27.14 27.83 30.11 29.96 30.06 30.87 32.34 28.67 27.54 25.60 27.48 26.16 24.71 24.51 23.24 22.88
42.22 43.49 45.35 45.39 45.60 43.01 38.90 43.02 43.49 42.56 36.95 34.93 26.65 26.56 31.03 36.82 31.54 30.74 34.21 32.65 34.65 35.27 34.16 34.39 33.25 34.93 33.52 27.71 26.15 26.71 27.03 29.09 27.19 28.87 29.63 28.46 27.41 25.87 25.08 26.01 24.79 22.53 21.47 20.87
42.93 44.53 45.35 42.29 40.19 36.73 39.42 44.19 43.61 42.99 36.56 28.79 28.89 25.09 24.92 37.58 34.48 34.57 34.66 34.83 28.83 34.11 31.37 31.28 32.83 29.42 26.85 23.62 25.07 24.69 24.57 23.90 23.57 27.33 27.32 26.28 24.26 22.73 22.35 22.47 22.42 20.73 18.89 18.28
43.87 42.57 35.63 30.86 36.86 44.49 42.60 38.85 34.30 34.67 35.66 35.27 29.71 29.97 28.12 35.10 33.02 30.65 30.89 30.97 28.78 25.33 29.25 33.53 29.89 24.88 24.30 24.44 24.77 24.57 24.23 23.81 24.59 24.97 23.46 23.49 22.53 21.50 20.48 19.65 19.73 18.55 16.99 16.18
38.50 32.70 32.91 39.59 43.67 38.71 35.13 30.27 29.27 29.23 28.09 31.53 31.50 30.06 29.58 36.18 30.92 29.64 30.87 27.77 27.72 24.11 27.60 27.12 25.44 22.20 21.78 24.16 22.81 23.24 23.27 23.56 23.42 23.46 23.06 23.50 23.18 21.72 20.29 19.44 19.11 18.25 17.03 15.36
36.88 38.64 41.12 39.69 33.89 32.55 27.43 25.56 28.46 26.76 24.71 29.79 29.12 30.51 32.38 34.70 35.67 31.60 30.95 28.21 28.53 22.45 32.06 27.19 20.73 19.77 22.32 22.57 21.42 21.37 21.66 21.88 21.29 21.88 20.83 21.13 20.40 19.96 18.62 17.53 16.57 16.05 15.13 13.39
41.17 36.91 33.41 32.58 30.88 25.73 20.97 18.59 24.32 25.08 28.58 28.10 30.87 30.87 33.01 32.83 33.28 31.99 30.55 25.36 25.22 30.59 24.99 21.63 17.83 21.00 21.38 20.68 19.86 18.59 19.80 20.34 19.41 18.25 18.29 17.85 16.82 17.20 16.00 13.26 12.93 13.26 11.87 12.48
32.61 30.38 26.20 23.15 20.95 23.01 20.26 23.72 24.15 26.42 27.30 28.98 33.25 31.07 31.97 32.46 30.69 31.21 25.91 27.21 27.55 22.05 18.57 18.59 18.64 20.01 19.96 20.09 19.15 16.51 13.21 12.90 12.62 12.05 12.30 11.28 11.49 10.44 10.32 9.57 10.09 10.45 10.17 9.30
28.98 28.99 23.63 21.09 19.60 20.37 25.24 30.82 30.79 32.69 33.56 30.90 31.57 31.34 30.65 26.54 26.58 25.83 24.01 23.54 21.94 21.23 20.06 15.80 18.80 19.88 18.64 17.03 16.47 14.79 12.81 10.87 11.05 11.64 11.77 10.53 11.28 12.00 11.64 11.30 12.17 11.32 9.03 8.60
26.54 23.55 19.09 23.27 24.91 24.73 28.35 29.88 30.13 32.46 32.60 29.45 30.23 26.09 23.78 21.39 21.76 21.70 21.27 20.87 19.54 18.04 15.33 16.00 18.08 15.34 13.78 13.22 13.59 11.72 11.55 12.36 12.27 12.55 12.79 12.13 10.62 11.66 12.66 12.85 12.56 10.56 11.04 9.27
22.71 19.26 19.41 19.27 15.97 17.85 24.99 27.82 27.88 30.48 31.70 26.94 24.84 18.95 20.50 21.97 16.67 16.82 16.41 17.23 15.04 14.00 15.01 16.08 16.04 16.14 13.66 11.67 11.81 11.14 12.64 12.91 13.06 13.08 13.70 13.03 13.55 14.00 14.47 13.12 13.73 14.37 12.86 9.73

GFSNW_sfc_wetblb_096.txt.gz
Wetbulb
43.10 43.57 43.13 43.77 44.79 44.89 42.55 40.92 33.91 42.56 46.03 34.97 34.62 29.14 29.96 32.75 32.59 35.23 31.86 32.93 30.70 29.16 30.44 31.42 33.55 34.06 36.77 42.28 42.33 37.61 41.34 38.23 32.18 35.44 41.26 43.72 41.97 39.38 39.42 34.06 30.87 35.30 34.46 36.69
43.31 42.99 42.82 43.31 44.32 43.06 43.12 37.28 36.78 43.22 43.45 28.10 28.75 32.68 31.79 32.50 31.00 32.33 30.43 30.08 31.52 32.93 31.19 30.24 33.00 35.88 39.46 41.96 40.68 37.77 40.60 36.90 30.94 32.47 38.28 41.69 39.02 40.55 40.87 40.19 38.76 32.51 32.90 36.37
43.22 42.68 42.84 42.89 43.80 43.13 43.53 38.12 32.47 37.51 38.93 36.37 30.45 28.24 29.34 28.69 34.62 34.38 34.34 32.17 35.82 34.09 32.99 35.21 33.12 34.50 37.99 39.84 40.39 42.63 42.47 36.97 34.48 30.96 34.65 38.90 36.02 38.40 40.00 38.36 35.48 34.34 35.63 36.61
43.23 43.06 42.39 42.63 43.67 44.48 42.74 37.80 31.97 32.87 30.30 32.41 31.21 30.32 29.67 27.80 28.01 33.40 36.28 33.64 33.39 33.06 29.62 31.28 31.40 34.12 36.32 37.81 39.39 40.37 40.18 33.28 35.98 36.88 37.55 37.95 36.55 35.54 35.97 35.22 36.34 32.70 35.97 36.54
42.09 42.23 42.60 42.88 43.15 44.42 40.49 33.89 34.82 34.75 31.70 32.71 31.25 29.31 28.67 27.32 29.29 31.51 31.58 31.74 34.66 35.82 31.58 32.03 30.49 32.74 33.73 33.84 37.61 35.79 38.08 32.46 34.90 32.43 35.76 35.20 32.79 34.47 35.13 35.54 36.03 36.47 37.43 38.19
41.97 42.61 42.85 42.17 42.96 44.26 38.95 39.57 38.71 35.79 31.42 31.27 29.87 29.59 28.93 28.54 31.77 33.29 35.54 35.49 34.58 34.75 34.60 36.31 37.81 38.62 38.64 38.04 35.93 35.67 35.30 33.87 31.85 28.60 33.00 32.18 29.27 33.49 34.65 36.17 38.46 38.03 34.87 40.25
41.98 42.40 43.15 42.42 43.30 44.45 42.10 39.53 38.80 33.57 29.13 30.70 29.97 30.18 30.72 30.21 31.25 30.63 35.39 37.20 34.50 38.34 41.34 42.33 41.36 40.13 38.84 38.80 39.20 38.91 34.36 32.95 33.65 29.41 30.28 21.79 33.63 39.31 39.54 37.30 38.80 40.59 41.19 43.48
42.16 43.15 43.20 42.65 43.53 44.60 42.30 40.80 38.21 34.78 29.69 32.04 30.77 30.93 30.85 33.56 34.78 33.64 34.46 36.86 38.92 41.65 40.07 35.56 31.45 33.51 33.93 35.52 38.17 37.36 39.29 35.48 30.24 27.52 27.62 30.50 34.13 36.82 36.13 34.97 35.16 39.66 39.38 42.24
42.45 42.91 42.01 42.22 43.28 44.07 44.32 40.70 41.70 37.33 33.16 32.96 32.34 31.62 32.96 31.43 31.88 32.45 34.35 39.43 41.75 40.82 37.33 34.15 27.42 26.23 29.12 28.99 32.35 38.70 37.49 37.82 33.79 30.14 23.87 21.26 32.98 38.84 42.43 41.42 32.02 37.69 38.24 39.83
42.29 43.00 42.06 41.78 43.28 43.58 43.90 41.00 42.23 37.51 33.62 37.10 34.81 32.82 31.49 34.70 32.68 30.41 33.50 34.78 36.42 39.93 34.82 31.46 29.18 28.97 32.62 27.79 27.32 29.07 31.91 32.08 28.83 28.42 26.73 30.49 36.25 40.41 42.47 30.21 31.57 38.01 37.00 34.29
42.11 42.62 42.25 42.12 43.01 43.40 43.92 41.25 42.60 38.63 34.65 37.69 36.88 37.06 34.74 34.96 34.71 30.52 34.59 35.30 34.92 34.88 31.23 29.85 29.58 29.93 31.64 31.38 32.76 31.18 30.67 30.15 29.84 30.25 26.24 22.77 35.01 39.19 33.20 33.93 36.99 36.36 35.33 33.86
42.28 42.99 42.35 41.99 42.46 43.21 44.29 39.31 42.42 42.62 36.21 35.76 40.66 41.08 41.60 40.09 38.91 35.86 37.27 33.53 32.97 35.37 32.49 32.33 30.86 28.39 30.68 29.50 27.60 35.95 29.99 31.36 29.84 29.79 28.17 33.65 33.63 32.70 33.50 34.38 32.92 34.70 35.05 34.94
41.93 42.16 42.29 41.91 42.13 43.10 44.08 42.70 41.51 39.76 34.98 36.17 36.24 37.68 42.20 43.69 42.45 43.31 34.60 37.70 36.85 36.90 37.71 33.05 31.09 28.95 34.20 28.07 28.96 30.55 33.89 35.83 33.69 32.80 31.21 31.17 33.33 33.44 33.29 32.97 31.94 31.83 33.56 33.77
42.50 42.30 42.02 41.99 42.39 43.50 44.04 42.70 42.88 39.97 36.90 31.37 35.50 41.27 39.43 42.54 43.05 41.95 41.42 39.44 40.22 40.48 38.52 34.51 31.04 29.84 37.02 32.95 33.45 31.61 34.51 35.10 31.02 31.73 33.03 33.01 32.20 32.00 32.74 32.10 32.66 31.35 31.76 32.04
41.93 41.33 41.21 42.17 43.07 43.77 44.82 45.16 44.49 43.76 37.19 32.33 35.15 40.59 41.33 41.30 41.10 40.37 40.78 39.39 38.02 37.12 35.64 34.52 32.99 37.56 35.78 36.84 35.99 32.66 32.98 29.93 30.69 28.97 31.75 32.10 29.96 31.29 31.47 29.31 28.70 29.97 30.54 29.50
41.84 41.42 41.69 42.52 43.22 43.94 42.47 34.07 43.62 45.53 43.58 33.88 31.86 39.75 37.78 39.48 39.59 38.95 38.79 39.42 38.80 38.22 36.00 35.52 35.92 39.05 36.72 31.73 29.18 31.45 33.47 33.57 33.67 31.05 33.11 31.55 30.64 31.33 31.06 29.04 28.87 29.18 29.10 29.01
41.51 41.39 41.82 41.94 42.94 43.41 37.08 37.71 41.91 44.64 42.97 33.55 32.48 33.59 38.71 38.56 38.36 38.75 38.20 39.50 39.22 37.74 37.24 35.40 35.68 37.72 38.26 33.47 28.94 30.12 31.98 32.42 32.89 33.50 33.64 29.71 30.81 29.05 30.40 29.46 28.76 27.90 27.83 27.38
40.96 41.32 41.56 42.77 44.09 43.88 39.94 44.12 44.15 43.21 36.82 36.06 31.39 32.23 34.22 38.76 35.59 34.69 40.20 36.72 35.76 36.49 36.12 35.87 35.05 37.96 37.91 30.64 30.12 31.19 31.63 31.37 30.62 31.11 32.62 31.65 30.59 29.60 28.98 29.47 28.46 26.94 25.84 25.05
41.21 41.69 43.65 43.31 40.17 36.83 39.12 44.42 43.77 44.24 38.63 32.89 31.18 30.14 29.46 38.74 35.64 36.17 36.09 37.62 31.04 39.29 33.37 33.80 35.42 32.89 29.86 28.41 30.52 29.41 28.71 28.98 28.31 29.88 29.78 29.20 27.49 26.60 26.26 26.30 25.83 24.25 22.87 22.71
41.31 41.16 36.65 31.91 38.40 44.84 43.07 39.10 35.11 35.60 38.16 37.12 30.26 36.93 32.21 36.61 35.04 33.02 33.20 35.79 33.01 28.61 31.96 35.44 31.82 30.98 27.85 28.03 28.36 27.90 27.43 27.54 28.83 27.73 25.89 26.53 24.39 24.02 23.40 22.57 22.82 22.39 20.90 20.22
38.31 32.64 34.63 40.69 43.81 39.56 36.48 31.51 30.97 32.08 29.54 33.01 32.85 34.61 33.29 38.48 33.29 32.82 34.95 32.70 33.55 27.02 31.49 30.12 28.95 28.05 25.44 26.92 26.49 27.39 27.45 27.67 27.19 26.95 25.95 25.61 25.63 24.35 23.20 22.02 21.69 21.44 20.71 19.41
37.67 38.78 41.26 39.51 35.93 34.01 31.04 29.08 30.37 28.18 28.01 33.02 30.44 31.80 36.42 37.08 38.26 35.00 33.55 29.76 31.77 25.36 34.10 29.42 26.86 23.94 25.06 25.81 24.69 25.08 25.70 25.60 24.64 25.38 24.31 23.86 23.24 23.42 22.88 21.86 20.70 19.91 18.51 16.75
40.59 37.20 33.51 33.79 33.00 28.09 26.13 22.79 26.42 27.89 31.99 33.59 33.89 31.48 35.59 35.18 35.85 33.55 32.67 26.91 26.89 34.61 29.96 28.78 26.44 24.31 24.60 24.64 23.75 22.86 24.27 23.81 22.94 21.85 22.32 21.88 21.06 21.09 20.24 17.49 17.52 17.24 15.95 15.58
33.73 32.76 28.64 29.69 26.87 29.59 30.53 30.65 32.87 35.59 35.22 34.72 35.15 32.94 31.86 33.62 31.31 33.55 28.56 30.84 31.22 26.38 24.61 25.27 24.31 23.97 23.46 23.21 22.26 20.41 17.74 17.48 18.04 17.80 17.73 16.64 15.99 15.35 15.36 15.60 16.02 15.47 14.58 13.92
33.17 33.45 28.13 27.16 31.39 30.89 31.99 34.86 34.84 33.48 38.13 34.72 34.13 34.50 36.07 32.58 30.64 31.63 29.30 26.55 24.75 26.70 27.71 25.41 24.87 23.98 22.60 21.07 20.72 18.99 17.26 15.98 16.90 17.73 16.48 15.85 15.93 16.19 15.56 16.10 17.10 15.56 13.80 13.26
30.77 28.00 27.23 29.05 29.78 28.84 31.15 32.64 32.99 35.82 36.77 38.26 38.28 30.95 30.22 29.12 29.97 26.36 26.30 25.75 25.62 25.97 24.40 24.56 24.01 21.37 20.18 19.36 18.88 18.14 18.54 18.68 18.56 18.55 18.26 17.48 16.60 17.48 17.77 17.68 16.68 15.61 15.29 13.58
24.67 26.53 28.55 29.84 31.64 31.21 30.17 32.04 33.36 35.61 36.69 33.62 33.87 27.88 27.37 29.34 26.98 25.14 26.66 27.59 24.32 23.09 23.39 25.04 24.40 21.77 19.74 18.79 18.11 17.37 18.45 19.02 19.39 19.21 19.12 18.52 18.93 18.54 18.96 18.36 18.50 18.71 17.23 14.86

GFSNW_sfc_wetblb_102.txt.gz
Wetbulb
44.51 44.71 44.21 43.49 44.24 45.55 43.96 44.83 37.98 46.93 49.59 38.89 39.78 34.37 35.49 38.36 37.44 39.99 38.23 37.14 34.25 31.82 32.02 31.18 31.15 30.83 35.57 40.59 43.81 37.43 41.31 37.62 31.42 34.13 40.59 43.38 40.85 37.89 37.64 32.05 31.42 34.36 32.73 32.66
43.78 44.76 43.88 43.04 43.98 45.25 45.77 41.65 41.56 47.41 46.36 33.13 33.54 36.98 36.64 37.74 36.51 36.80 36.51 35.07 36.78 36.55 32.11 29.46 33.41 33.26 37.29 41.49 42.16 38.73 41.07 36.11 29.52 31.67 36.92 39.72 37.87 39.79 40.91 40.06 37.23 34.13 31.27 33.35
43.93 44.03 43.52 42.88 43.60 45.10 43.85 41.90 36.28 41.10 42.74 40.49 35.18 33.59 33.98 33.41 38.89 37.21 38.11 37.08 38.46 36.84 34.14 34.82 31.75 32.33 36.76 41.44 41.27 42.49 43.41 37.62 33.14 28.99 33.51 37.16 34.90 37.04 39.05 38.68 32.13 33.53 33.56 34.29
43.81 44.13 43.56 42.83 43.52 44.92 43.53 41.63 37.13 38.85 34.68 36.23 35.54 35.95 34.56 32.03 31.96 37.72 38.94 35.76 36.07 34.67 31.57 31.06 30.50 33.71 35.96 39.24 40.84 40.05 39.28 32.99 35.50 36.57 38.51 38.57 36.85 37.07 37.93 37.22 37.43 32.23 35.82 37.11
43.67 43.73 43.30 42.67 43.20 44.44 43.54 34.29 38.35 39.85 36.60 37.30 35.41 33.60 33.14 32.17 33.59 34.89 33.99 33.92 36.25 36.27 32.09 31.68 29.68 33.76 35.18 34.26 38.58 36.35 38.26 33.29 32.94 32.47 38.98 36.98 33.91 36.74 37.05 37.61 38.43 38.86 38.65 36.52
43.79 43.62 42.65 42.97 42.81 43.65 42.24 43.35 43.02 39.31 37.29 35.79 33.94 33.98 33.17 32.94 35.35 36.62 37.91 36.88 36.11 34.55 34.46 37.54 38.80 40.81 40.57 39.51 36.90 35.46 35.05 34.04 32.67 27.94 35.63 34.74 29.99 35.32 37.42 37.05 37.50 37.40 33.46 37.66
43.08 42.90 43.38 42.61 42.62 43.43 44.65 42.58 40.75 36.61 32.71 34.92 33.91 33.92 34.70 34.32 35.27 33.74 37.02 38.84 35.91 38.52 42.69 43.37 43.87 41.87 41.15 40.33 39.27 40.08 34.93 34.51 34.65 29.08 31.60 23.62 34.74 41.45 39.79 36.57 36.67 37.97 38.33 38.61
42.64 42.76 43.16 43.26 42.68 43.36 44.53 44.80 40.68 37.03 32.40 35.85 35.22 34.24 35.02 36.26 37.71 36.54 36.68 38.94 40.54 43.03 40.90 36.52 34.08 34.45 34.80 36.62 38.45 38.48 39.44 35.97 32.19 29.48 28.70 32.10 35.03 36.02 34.66 35.00 32.28 37.13 37.01 37.39
42.86 42.55 42.80 43.64 42.73 43.63 44.41 44.44 45.33 39.94 33.94 34.36 36.88 34.78 36.64 33.37 33.59 34.56 36.73 41.66 43.60 42.63 38.05 35.14 28.73 26.62 30.49 30.29 33.98 40.05 39.34 39.47 35.19 33.18 26.97 23.97 29.82 34.49 39.65 39.85 27.75 35.90 36.44 35.13
42.35 43.09 43.36 42.90 42.88 43.58 44.60 44.83 45.78 41.68 34.89 38.76 38.89 34.49 33.55 37.36 35.73 33.35 36.74 36.67 38.34 41.22 34.67 31.62 29.70 28.96 34.68 28.25 29.40 30.91 33.01 33.79 30.72 31.34 29.05 28.98 31.77 36.19 38.85 29.75 26.80 35.40 35.25 33.45
42.57 43.21 43.35 42.52 41.98 43.53 43.89 44.26 45.78 41.26 36.33 38.05 40.31 40.22 37.04 37.22 36.38 31.88 35.74 35.34 36.56 34.84 31.45 30.29 29.95 29.65 31.91 31.73 34.16 32.38 29.81 29.36 28.64 30.20 27.66 23.46 33.32 35.65 29.20 30.85 34.28 35.33 35.63 35.12
42.89 42.91 43.03 43.05 42.17 43.58 43.11 41.13 44.43 43.94 37.13 37.74 42.35 42.90 43.76 42.07 41.35 37.75 37.76 35.97 36.01 36.37 32.49 31.89 30.83 29.57 33.83 31.87 28.03 36.79 29.37 32.53 29.03 28.84 26.69 32.85 33.74 32.34 34.82 35.34 32.85 34.78 34.53 34.94
43.06 43.01 42.87 42.72 42.14 43.07 42.95 42.97 42.69 40.02 35.53 36.97 38.46 39.19 44.65 46.74 45.83 46.11 36.16 38.35 39.64 37.83 39.92 35.05 33.29 28.58 34.84 29.51 30.84 33.60 35.90 38.21 32.49 31.38 31.41 31.44 32.86 34.43 34.78 35.33 34.39 35.22 35.59 35.54
42.42 42.77 43.30 43.06 42.37 42.07 42.48 41.32 42.93 41.46 37.95 33.03 36.71 45.13 42.05 46.00 45.91 45.11 44.50 41.96 42.31 41.26 39.93 35.67 33.37 29.87 38.03 33.38 34.85 33.86 35.13 36.39 33.09 30.47 31.76 32.45 31.77 32.41 33.78 33.95 35.05 34.90 35.49 34.96
42.38 42.69 42.76 42.71 42.38 42.20 42.48 43.66 45.03 44.91 38.75 32.69 34.95 41.67 43.85 45.25 44.91 43.35 43.63 41.89 39.63 38.02 35.26 34.87 32.37 36.63 36.32 37.29 36.88 31.46 34.35 30.24 29.78 27.47 32.30 31.79 30.37 31.82 33.32 31.48 31.99 33.69 33.51 33.35
42.48 42.44 43.05 42.85 42.23 42.27 41.09 35.40 44.33 45.72 44.20 36.85 31.34 40.03 41.71 43.48 43.35 42.12 41.23 40.99 39.42 38.54 35.69 35.09 37.01 39.87 36.95 32.15 30.80 32.51 34.36 34.84 35.20 32.36 33.41 32.22 32.72 33.30 33.66 32.24 31.66 32.81 32.29 31.81
42.15 42.85 42.27 41.57 41.98 43.00 38.96 36.93 40.43 44.34 45.48 36.80 31.76 34.54 40.76 41.81 40.67 40.35 39.64 40.89 39.67 37.83 36.27 35.16 35.90 37.06 37.92 34.78 30.39 32.37 34.03 35.13 35.18 35.79 34.99 32.49 33.08 31.69 34.37 34.09 33.54 33.20 31.96 31.09
42.01 42.54 41.95 41.46 42.05 41.65 39.61 43.04 43.52 43.78 39.01 37.76 30.57 32.68 36.03 41.21 36.05 35.12 40.21 35.93 36.82 36.64 35.36 36.54 34.95 37.35 37.57 31.19 32.91 33.90 34.35 34.52 33.97 34.21 35.25 34.25 34.42 34.30 33.36 33.95 33.22 31.55 28.66 28.02
42.50 42.15 41.68 41.42 39.94 36.32 39.30 44.66 44.47 44.33 38.04 32.70 33.36 29.60 29.70 39.95 37.73 38.53 37.59 38.22 31.74 38.07 33.47 34.50 36.52 33.93 30.74 31.01 33.55 33.44 33.44 32.63 32.88 33.61 33.82 32.88 31.35 30.36 29.67 29.25 28.30 26.21 24.45 24.32
41.91 41.04 36.21 31.92 36.92 43.82 43.79 40.04 35.97 35.30 35.27 37.13 32.48 36.77 33.03 38.02 36.69 35.19 34.32 36.53 32.20 30.24 33.78 38.23 33.85 31.11 31.75 32.72 32.99 32.66 32.18 32.58 33.13 30.31 29.12 29.24 28.25 27.81 26.27 25.13 25.16 24.16 23.24 22.68
39.25 34.05 33.71 40.18 44.33 39.77 35.76 32.29 31.83 32.82 30.73 35.42 35.44 35.86 34.07 40.44 33.41 33.21 36.68 33.33 34.74 27.75 32.08 31.68 30.81 28.67 28.64 31.85 31.34 31.99 32.30 32.34 31.43 30.88 29.93 29.64 29.04 27.36 26.14 24.65 24.45 23.73 22.27 19.78
38.89 39.12 40.02 40.27 36.17 33.56 32.04 29.39 32.56 31.43 29.30 35.65 33.50 34.26 37.63 37.99 41.35 35.96 36.13 31.14 33.21 26.13 36.48 30.89 27.29 26.35 29.49 29.24 28.62 29.19 29.55 29.32 28.74 29.38 27.40 27.00 26.62 26.57 25.26 23.64 21.40 20.14 19.72 19.42
39.84 34.83 32.28 32.93 33.18 28.81 27.52 24.69 27.75 29.27 35.27 37.78 37.55 34.23 37.74 38.51 38.72 33.85 33.25 27.88 28.55 36.69 29.91 28.12 27.15 27.70 28.32 28.25 27.97 26.65 27.66 27.49 26.64 25.42 25.19 24.09 22.61 22.94 21.87 19.64 20.36 20.01 18.33 18.29
32.66 31.01 28.01 30.47 28.14 30.53 32.32 33.27 35.19 39.48 38.88 37.86 36.56 35.16 34.75 36.74 32.50 32.81 28.94 33.58 32.79 27.14 25.70 26.53 27.17 26.88 26.46 26.23 25.61 22.95 21.36 21.98 22.14 20.87 20.19 19.14 18.71 18.39 18.54 18.06 17.57 17.26 16.56 14.78
31.01 31.90 28.91 29.70 35.79 35.68 36.63 39.33 37.54 38.33 40.16 37.89 36.10 35.45 36.09 33.73 32.06 32.93 31.10 28.31 25.73 28.15 27.77 27.17 27.06 26.72 25.66 24.50 23.59 21.84 20.56 20.37 20.51 20.46 19.01 17.88 18.07 18.72 18.75 19.50 20.02 17.98 15.09 13.98
31.65 32.40 31.55 34.67 33.03 31.06 33.56 33.56 34.11 39.66 38.93 40.44 38.42 33.10 31.00 29.49 30.98 29.03 28.03 27.18 26.37 27.37 26.68 27.01 26.82 25.21 24.50 23.20 22.34 21.58 22.66 22.75 22.03 20.96 20.50 20.20 18.37 19.11 20.22 20.46 19.50 16.24 16.69 13.23
30.90 30.77 32.66 33.38 33.73 32.78 33.02 34.47 36.43 39.46 38.20 33.74 34.48 29.93 27.41 32.88 27.59 26.55 31.73 28.59 27.98 27.18 26.82 27.77 26.61 24.26 22.88 22.53 22.12 21.60 23.01 22.92 22.75 21.94 21.75 21.03 22.19 21.71 20.50 18.74 19.78 19.53 19.96 16.45

GFSNW_sfc_wetblb_105.txt.gz
Wetbulb
45.12 44.95 44.81 43.33 43.53 44.76 42.89 39.12 30.49 42.12 43.67 31.14 29.75 25.00 33.23 37.89 36.12 38.55 36.52 35.63 33.43 30.91 31.71 29.25 26.98 27.29 32.82 37.88 39.09 35.82 38.94 34.79 29.82 33.13 39.13 41.16 39.30 35.92 36.31 30.37 30.75 32.97 31.99 29.94
44.80 45.18 44.37 43.30 43.00 44.76 39.29 35.45 35.03 42.22 41.62 22.24 23.69 33.07 35.43 36.43 34.89 35.21 35.00 33.69 34.98 34.76 32.05 24.40 29.00 29.35 36.92 39.17 38.35 36.51 38.35 34.02 28.22 31.03 35.08 37.82 35.98 38.09 38.13 37.54 36.31 32.02 27.76 29.04
44.05 44.74 43.94 42.88 42.85 44.40 40.08 36.06 28.30 34.85 36.10 35.06 30.52 29.87 32.19 31.66 37.34 35.71 36.30 35.08 35.21 32.17 29.85 32.94 27.91 29.73 36.26 39.23 39.44 42.30 41.27 36.15 31.61 27.27 32.23 36.42 34.34 37.10 38.46 36.56 31.48 32.12 33.51 33.33
43.95 44.15 43.49 42.77 42.75 44.39 39.58 34.73 28.46 33.46 24.95 28.65 29.92 31.36 32.16 29.96 28.93 35.28 36.27 33.45 33.13 31.26 29.77 27.28 26.51 32.02 34.06 38.34 40.54 38.64 37.07 31.40 33.46 35.64 36.56 35.82 35.33 35.33 35.85 34.77 36.46 32.71 33.49 33.52
44.05 44.12 43.56 42.64 42.94 44.09 36.94 26.71 32.02 33.48 29.85 34.21 31.47 32.16 29.98 30.19 31.77 31.97 32.03 30.42 33.26 32.77 28.90 28.53 27.07 31.16 32.64 33.97 38.00 36.01 37.53 31.58 33.50 33.61 33.87 34.77 32.77 33.41 34.65 34.72 36.85 36.50 35.26 34.19
43.82 43.86 42.98 42.51 42.85 42.68 36.26 36.99 37.09 33.17 32.87 31.22 27.56 28.65 31.21 31.19 33.22 35.05 35.30 33.11 32.47 30.98 32.36 34.68 35.96 37.29 37.66 37.46 36.36 34.09 34.95 32.65 31.12 27.87 34.15 34.49 29.02 32.30 32.67 32.84 34.85 34.73 30.92 34.97
44.06 43.68 42.91 42.70 42.38 42.52 39.87 37.71 35.35 29.44 25.25 28.78 30.53 33.31 33.52 32.79 33.24 31.26 35.34 35.57 32.71 35.85 39.45 39.41 39.36 40.10 39.52 38.87 38.71 38.73 33.36 32.67 32.76 27.03 30.77 23.78 30.29 36.31 35.91 31.82 32.54 34.99 35.10 33.52
43.63 43.23 43.54 42.60 42.26 43.67 40.96 40.72 36.18 32.19 23.56 31.13 33.47 33.48 33.72 34.61 34.44 32.93 34.21 35.92 37.50 38.02 36.73 32.29 31.34 31.26 33.07 35.54 38.17 37.44 37.95 33.94 29.53 27.45 27.15 30.77 31.51 31.37 30.66 32.33 29.60 33.63 32.56 34.59
43.77 43.76 43.56 43.27 42.62 43.49 39.53 40.26 40.17 35.11 26.70 29.78 36.19 31.80 33.66 27.56 27.30 29.81 34.03 37.27 38.14 37.71 32.65 30.79 27.55 25.10 28.88 29.12 33.08 38.37 38.13 37.33 32.15 29.75 25.42 22.08 27.57 31.11 34.83 36.01 23.97 34.04 32.58 31.11
43.40 43.51 43.30 43.47 43.12 43.66 41.22 40.21 41.36 36.56 26.52 34.14 35.29 30.04 29.84 33.61 30.40 27.46 31.86 32.86 33.89 35.84 27.10 27.18 26.33 27.36 33.04 26.57 27.92 28.63 28.78 29.09 26.61 27.13 26.21 26.22 29.50 32.38 35.13 25.77 24.71 35.01 32.96 30.56
43.45 43.30 43.38 43.07 42.64 43.39 40.84 40.18 41.97 38.30 34.17 33.43 37.93 38.49 33.55 33.37 31.43 25.61 30.34 29.09 30.27 28.51 26.27 26.51 25.91 26.32 28.94 30.13 32.48 30.74 26.99 27.12 23.92 26.16 23.61 19.15 31.88 31.82 26.28 30.93 34.43 34.89 34.40 32.84
43.42 43.48 43.43 42.67 41.95 43.24 42.05 39.22 42.01 40.65 34.58 32.26 37.99 38.82 39.75 38.38 36.65 33.18 32.87 30.75 33.13 32.61 25.81 27.36 27.81 25.85 27.98 29.25 26.64 34.60 26.32 30.38 25.55 26.90 25.40 32.08 32.88 31.83 34.45 34.95 33.48 34.64 34.76 33.26
43.30 43.23 43.43 43.14 42.00 42.90 41.57 40.97 39.77 37.81 34.08 32.68 32.83 34.63 40.76 43.07 41.23 41.30 30.73 35.57 37.05 33.40 34.83 27.50 26.92 25.88 31.35 26.54 29.30 32.30 34.25 36.26 26.84 28.97 30.59 30.81 32.25 33.94 34.56 35.90 33.75 33.96 34.21 35.17
43.32 43.15 43.09 43.18 42.31 42.23 41.72 36.92 38.81 38.80 35.55 26.23 33.94 43.51 39.76 43.68 42.70 41.33 40.30 38.08 38.70 36.53 34.93 29.73 26.28 25.34 34.49 30.23 33.14 30.69 31.44 33.69 31.04 29.16 30.63 30.58 31.38 31.93 33.10 32.80 34.45 34.51 33.93 32.63
42.87 42.94 43.29 43.06 42.33 41.76 39.21 37.91 40.12 40.32 37.36 30.51 29.71 37.12 40.40 43.43 41.67 40.32 39.44 38.23 35.90 32.55 30.43 29.14 27.64 31.77 32.08 33.16 33.93 29.13 31.77 29.63 28.57 25.08 32.41 30.58 29.87 32.27 33.12 31.47 31.52 31.70 31.06 28.94
42.72 42.85 43.24 42.92 42.39 41.88 37.00 31.79 39.03 42.00 40.62 33.64 27.17 36.79 38.38 40.54 40.11 38.86 37.86 37.77 35.17 33.55 30.95 28.75 31.31 36.15 33.02 25.24 24.52 31.94 34.22 34.34 34.89 29.90 32.67 30.49 30.73 33.06 33.72 30.49 30.64 30.72 29.65 28.86
42.54 42.85 43.05 42.44 42.04 38.36 35.28 33.94 39.61 43.54 42.77 32.32 29.27 28.65 38.40 40.11 37.83 35.88 36.16 38.07 35.23 33.08 31.62 29.93 30.64 31.60 34.79 27.74 25.92 32.16 34.19 34.35 34.20 34.86 33.62 31.30 33.22 30.84 33.59 32.96 32.23 31.14 28.54 27.48
42.54 42.78 42.30 42.07 42.22 40.19 36.03 41.23 43.59 43.10 38.78 34.58 28.17 26.50 31.83 37.55 31.52 30.04 35.27 31.36 32.30 32.19 30.28 31.51 29.95 32.73 33.23 27.96 31.17 33.02 33.72 34.15 34.03 34.28 34.52 32.97 33.05 31.68 29.78 29.57 29.52 26.07 23.84 23.35
42.56 42.51 42.23 38.71 35.71 32.74 35.10 44.43 44.37 42.63 37.75 30.09 29.77 26.84 22.30 36.90 33.43 34.50 32.87 33.93 25.00 33.11 25.69 29.11 31.01 25.74 25.52 29.35 31.16 31.23 32.22 31.78 32.04 33.43 32.82 30.47 28.95 26.75 25.54 25.23 24.50 22.20 21.27 21.27
42.27 38.94 32.52 28.10 34.28 42.88 43.30 39.04 35.21 34.42 35.63 34.92 29.35 30.88 24.50 34.34 30.11 32.53 30.06 29.52 26.64 27.29 29.58 32.48 24.07 26.49 30.85 31.45 30.93 31.25 30.71 30.27 30.34 29.37 28.28 28.50 24.99 23.42 22.84 21.97 22.14 22.04 20.60 17.73
35.63 30.98 30.74 38.00 43.72 38.64 34.36 30.69 29.58 29.92 27.99 30.75 30.68 30.97 28.35 36.02 26.12 26.77 29.56 28.10 26.62 23.45 29.55 24.72 23.29 25.30 28.06 30.03 29.34 30.04 29.59 29.69 27.85 27.29 26.03 25.62 26.14 24.52 23.02 22.35 21.55 20.18 18.73 16.29
35.79 36.78 39.28 39.86 35.58 32.39 29.78 25.44 26.12 26.54 25.19 30.09 27.22 29.08 32.99 33.34 36.92 32.58 31.07 25.07 24.62 19.57 30.61 23.29 17.01 25.54 27.20 27.08 26.50 25.27 25.36 25.25 24.94 25.20 23.37 23.22 23.62 22.83 21.29 19.69 18.12 17.02 16.73 13.16
38.23 35.55 31.46 31.97 31.07 26.25 23.16 20.53 23.10 24.99 26.43 29.46 28.55 29.06 33.15 34.12 34.87 29.58 27.09 21.29 18.50 28.98 25.22 21.53 24.22 26.40 26.67 25.92 22.62 21.74 23.22 23.23 22.53 21.47 21.19 20.33 19.55 20.21 18.85 15.56 13.38 11.31 9.72 7.93
31.41 29.36 25.28 26.32 24.61 23.87 23.98 24.77 25.58 28.76 29.12 29.62 30.36 27.69 27.78 27.21 24.75 30.14 26.40 24.81 26.45 18.40 14.53 22.77 24.55 25.07 22.84 23.34 22.84 20.67 16.94 16.65 15.80 13.60 13.15 12.00 11.64 8.61 7.62 6.89 5.88 7.43 6.23 2.93
29.23 29.94 24.53 22.95 29.01 32.67 33.09 32.18 30.41 30.51 29.72 30.27 28.63 27.28 30.37 28.57 25.11 28.30 28.57 21.91 16.21 21.10 23.19 23.94 24.54 24.24 22.26 20.61 20.34 17.31 15.38 12.81 13.52 10.85 9.80 7.35 7.84 9.42 8.33 10.67 8.35 9.48 4.37 3.22
30.54 29.52 27.15 32.09 31.03 30.66 32.39 32.21 32.58 31.99 29.26 30.43 30.17 26.79 26.70 25.83 27.36 24.29 18.53 23.35 22.72 23.92 23.87 24.76 24.38 21.76 19.26 16.53 15.59 13.81 18.81 21.00 14.14 11.98 11.67 11.29 9.14 9.89 10.18 10.26 10.01 5.72 5.83 2.98
29.71 29.21 31.83 29.96 32.02 31.08 32.23 32.61 31.80 32.21 30.95 28.69 27.29 23.56 25.74 28.12 25.01 24.77 27.83 24.21 24.88 24.76 25.03 25.37 23.73 20.16 15.47 14.96 21.01 21.58 21.84 19.85 13.76 12.84 13.99 12.75 14.83 14.14 16.77 13.81 12.30 13.62 16.06 7.86

GFSNW_sfc_wetblb_108.txt.gz
Wetbulb
45.71 45.49 45.33 44.60 44.49 44.89 42.59 38.06 29.92 40.71 42.88 29.42 24.10 24.37 32.02 37.60 34.85 37.28 35.23 34.31 32.17 28.97 27.54 30.52 27.99 25.12 32.29 37.86 37.96 34.54 37.75 33.90 29.89 32.84 39.05 39.75 37.93 35.51 35.83 27.96 27.15 31.10 30.36 25.84
45.41 45.63 44.88 43.99 44.29 45.09 39.32 35.59 34.66 40.77 40.47 22.69 22.03 30.64 34.42 34.96 33.42 33.44 33.65 32.25 34.01 32.65 26.43 23.46 25.70 28.39 36.73 37.50 36.09 35.85 37.75 33.63 26.33 29.98 34.99 37.92 35.59 37.05 37.53 36.65 34.42 30.57 27.12 26.25
45.21 45.23 44.39 43.66 44.04 44.98 39.60 35.47 28.72 34.12 34.65 31.81 29.36 27.98 30.73 30.34 35.88 34.08 34.74 33.17 32.84 29.26 26.41 32.22 24.88 26.34 34.01 36.52 37.27 41.82 39.36 34.53 30.30 25.39 29.30 32.12 32.86 36.36 37.69 35.72 31.38 30.02 30.46 30.66
44.82 44.89 43.92 43.50 43.72 44.84 39.60 32.51 30.11 33.52 24.70 27.66 29.05 29.47 30.26 27.85 27.38 33.36 33.38 31.27 30.61 28.96 22.73 25.74 25.06 29.39 31.48 35.52 39.15 38.25 36.70 30.35 32.32 35.01 35.00 35.69 33.88 33.63 35.42 35.09 33.83 29.44 30.91 29.83
44.60 44.34 43.84 43.33 43.64 43.91 37.22 30.01 31.87 31.43 28.72 33.47 29.80 30.22 28.81 29.21 30.29 30.16 29.51 27.94 30.74 30.74 26.64 27.24 25.85 29.02 30.72 30.53 35.75 35.29 37.35 30.77 32.03 31.58 34.06 33.54 30.95 31.98 33.29 34.11 33.96 33.55 31.56 28.39
44.36 44.07 43.51 43.24 43.34 41.89 35.60 35.08 35.02 31.90 30.65 28.47 25.76 26.17 29.69 29.80 31.66 33.19 33.79 31.58 30.01 29.40 31.16 32.80 33.61 34.89 35.46 34.99 33.24 33.59 33.58 32.12 30.84 27.91 33.09 32.36 24.99 29.49 30.15 30.79 33.08 32.96 29.02 31.15
44.29 43.62 43.20 43.04 43.32 41.71 37.73 36.32 33.33 27.74 23.08 27.81 28.29 31.76 32.03 31.63 32.26 29.79 33.45 33.52 30.56 34.03 37.46 36.63 36.81 36.64 36.85 37.49 37.93 38.59 33.50 31.83 32.24 27.81 31.12 18.92 28.65 33.82 33.42 30.06 30.32 32.30 33.13 31.47
43.93 43.57 43.24 42.94 43.44 44.01 38.06 37.58 34.64 29.32 21.67 29.26 31.87 32.14 32.09 31.93 32.43 31.18 32.65 34.02 35.31 35.99 34.21 30.35 30.10 29.24 31.06 35.35 37.61 37.42 37.58 33.12 29.89 27.78 26.75 28.57 28.98 29.67 28.53 30.02 27.97 31.52 30.99 31.90
44.22 43.76 43.49 43.12 43.73 44.06 38.23 37.73 37.13 32.35 26.14 27.05 33.92 30.54 31.62 26.22 25.78 27.94 32.15 35.77 37.00 35.22 30.91 28.80 27.00 25.52 28.07 29.17 32.56 37.80 36.37 35.38 31.62 29.50 22.91 20.01 26.58 29.41 33.44 33.27 23.32 32.44 30.50 29.54
44.23 43.62 43.98 43.32 43.93 44.23 39.79 37.23 38.01 33.11 24.35 30.88 33.12 28.54 28.41 31.96 28.31 25.75 29.30 31.09 32.18 33.07 25.46 24.33 24.96 25.04 31.60 27.13 26.86 28.03 28.57 29.06 25.09 26.12 23.87 25.60 28.26 30.97 34.48 25.05 23.30 33.78 31.27 29.26
43.84 43.39 43.55 43.34 43.54 43.93 40.66 39.31 38.20 34.15 27.62 30.54 36.30 36.97 31.78 31.70 29.38 24.30 28.60 26.94 28.59 27.02 23.49 24.15 25.20 26.10 27.51 29.33 31.65 29.94 27.17 25.98 23.11 25.04 21.22 18.17 31.02 30.93 25.84 30.66 34.08 34.06 32.34 30.87
43.66 43.72 43.13 42.44 43.17 43.69 42.22 35.11 39.46 38.40 30.70 29.54 35.78 36.69 37.87 37.04 35.97 31.37 30.99 29.62 31.68 30.49 24.24 25.00 26.75 25.24 26.79 28.95 22.97 34.32 25.70 28.46 24.76 26.22 24.35 31.26 33.72 32.20 34.96 35.59 33.60 33.96 32.80 31.99
43.91 43.60 43.13 42.47 42.42 43.34 42.38 37.24 36.07 34.46 26.12 28.84 31.39 33.11 39.17 40.28 38.87 38.61 29.82 32.12 35.54 31.78 31.88 25.62 26.51 25.32 29.07 26.53 29.43 29.78 33.96 34.37 25.82 25.80 29.42 30.21 32.32 33.93 34.18 34.19 32.01 32.18 33.19 34.36
43.52 43.63 43.31 42.53 42.42 43.00 41.04 35.79 36.33 36.95 33.93 22.89 30.10 40.71 37.61 42.08 40.58 39.53 38.27 36.41 37.13 35.05 32.44 27.90 24.51 25.49 32.24 27.20 32.55 28.18 29.46 31.94 29.43 27.94 29.78 30.43 30.46 31.35 31.50 31.51 33.00 30.08 28.74 28.40
43.30 43.27 42.96 42.73 42.32 42.14 38.42 35.93 36.97 39.29 35.22 27.82 27.91 34.82 38.79 40.23 40.35 39.16 38.27 36.87 34.31 30.75 28.41 24.88 24.62 30.62 31.20 31.17 32.43 27.60 31.59 29.77 28.15 24.63 31.84 30.42 29.57 31.56 32.69 29.21 27.73 28.66 27.13 25.54
43.40 43.04 43.38 42.89 42.36 41.25 34.83 26.23 37.38 39.48 37.93 32.63 23.97 33.95 35.98 38.68 38.99 37.61 36.40 35.88 33.34 31.58 30.04 26.78 28.37 33.38 31.53 24.77 25.93 31.82 33.78 34.00 33.67 29.11 31.85 26.69 27.28 30.21 31.60 28.45 28.02 27.85 26.44 25.54
43.04 43.40 43.29 42.75 42.17 36.44 35.33 30.64 39.53 42.81 41.00 30.89 25.63 26.34 35.69 41.11 37.35 34.05 33.95 37.74 33.39 31.64 30.11 28.77 28.56 30.17 33.24 27.69 24.41 31.54 33.58 33.61 33.08 32.77 32.57 30.36 31.40 26.42 30.30 29.07 27.08 27.09 25.62 25.23
42.63 42.88 42.46 41.85 42.16 38.54 36.24 40.95 43.69 43.32 35.11 32.45 27.66 25.75 32.82 36.07 29.63 29.05 33.07 29.98 30.50 30.42 29.02 29.96 28.69 31.21 32.00 25.98 31.05 32.73 33.86 34.44 34.33 34.39 32.59 29.34 28.15 27.52 26.14 26.31 24.90 22.47 21.36 21.47
42.79 42.41 42.35 36.76 33.64 29.33 32.55 43.97 43.27 40.30 36.85 29.31 29.31 25.16 25.02 34.89 31.34 31.62 30.83 31.12 22.15 30.49 23.46 27.10 29.97 26.44 23.57 28.30 28.74 29.87 30.86 30.60 31.76 31.71 30.28 28.27 25.56 24.28 24.45 23.53 22.65 20.68 19.85 19.34
42.54 36.85 29.10 21.56 30.32 41.02 41.93 37.74 33.51 33.99 35.12 34.24 27.71 28.29 22.56 31.89 26.53 27.26 29.33 26.35 24.01 24.11 28.67 29.93 28.33 25.94 30.46 30.63 29.49 29.50 28.23 28.83 31.17 27.96 26.57 24.20 22.63 22.09 21.52 21.06 21.28 19.82 17.57 15.13
33.25 29.90 27.04 36.92 41.16 37.81 32.43 29.43 28.27 29.65 26.91 30.02 28.94 28.12 26.86 33.25 25.42 24.83 26.84 22.55 24.01 22.58 28.75 23.99 22.41 23.74 26.16 27.69 26.76 26.74 27.35 26.22 24.90 24.66 24.18 25.38 23.86 22.17 21.56 20.67 20.05 18.81 17.67 14.20
33.50 34.64 38.43 38.17 33.90 31.54 28.26 25.24 26.53 26.32 24.03 27.12 25.80 27.42 30.39 31.12 34.21 28.69 27.68 23.75 22.40 19.03 28.84 24.75 13.08 21.39 25.64 25.09 24.44 24.11 23.73 23.53 22.86 23.47 22.42 22.51 22.63 21.84 20.46 18.94 17.28 15.70 15.01 8.54
36.03 34.81 31.04 31.28 29.26 23.80 20.33 15.27 20.25 17.08 23.52 25.86 25.45 27.71 33.39 30.86 31.17 29.91 24.16 17.57 16.82 27.32 23.12 19.97 18.57 24.03 24.65 23.17 22.34 21.56 22.17 22.07 21.07 20.18 20.55 20.26 19.16 19.32 17.64 13.03 8.44 7.86 6.63 1.19
28.33 27.09 23.66 24.47 22.72 24.07 20.76 21.48 21.87 25.58 25.14 26.90 26.67 24.73 26.25 24.75 21.94 28.68 21.42 22.16 24.72 15.52 11.55 19.93 19.19 24.47 22.88 22.60 22.66 19.93 15.34 14.40 13.53 11.50 11.28 10.77 11.12 6.27 4.34 3.91 3.24 4.22 4.11 0.78
26.47 27.68 17.06 23.73 25.39 30.16 32.15 31.87 26.97 27.04 26.79 27.93 26.04 26.19 26.76 21.44 23.87 27.72 27.64 22.77 14.49 18.01 15.81 15.55 22.73 23.25 21.36 19.79 19.01 15.26 13.48 10.33 9.81 6.77 8.18 4.22 4.72 8.30 6.83 5.15 4.80 7.21 1.05 -0.06
28.28 27.51 24.72 28.35 29.74 29.70 32.03 30.22 28.48 26.86 26.16 26.57 27.72 24.72 19.95 23.71 23.82 25.38 21.86 21.39 17.42 18.11 20.35 22.60 22.53 19.58 14.83 14.41 14.26 12.26 11.12 11.10 9.57 8.71 9.26 9.09 6.15 7.71 9.24 6.79 6.77 1.78 2.58 0.49
26.97 26.46 31.02 29.92 28.65 31.06 32.03 32.27 30.59 30.36 27.93 25.80 24.93 19.77 19.27 25.73 19.29 23.63 19.93 22.93 22.18 22.68 23.04 20.60 19.15 16.08 12.61 11.73 12.35 13.22 15.63 13.22 12.12 10.80 11.92 12.18 13.35 11.37 14.40 12.68 10.26 11.71 14.03 6.99

GFSNW_sfc_wetblb_111.txt.gz
Wetbulb
46.31 46.64 46.12 45.08 45.12 46.10 42.29 38.64 31.02 40.50 43.08 31.52 26.63 26.54 31.10 37.07 33.73 35.93 33.92 32.97 30.42 26.13 24.20 27.97 23.63 25.95 31.71 37.26 36.26 31.49 36.99 34.55 27.73 32.02 38.76 39.42 37.42 34.22 34.61 26.40 25.85 29.84 27.39 24.40
46.59 46.67 45.26 44.64 45.30 45.42 39.37 35.11 34.49 40.97 40.37 25.88 24.79 30.50 33.38 34.12 32.23 31.99 32.17 30.70 31.63 29.20 22.70 22.86 24.56 25.18 34.62 35.49 34.33 34.80 36.98 32.35 26.00 27.43 33.34 37.20 34.47 35.56 37.24 36.15 34.34 28.12 24.67 24.60
46.31 45.93 44.76 44.52 45.32 45.70 40.01 35.18 29.36 34.45 35.34 32.07 29.63 28.76 29.97 29.29 34.54 32.63 32.56 31.50 31.06 27.41 24.90 29.91 23.84 24.33 31.87 34.62 34.69 39.97 39.10 33.95 30.28 24.95 28.53 33.85 31.72 34.87 36.81 35.01 29.69 27.48 26.96 27.41
45.90 44.49 43.96 44.33 45.39 45.22 39.98 34.11 30.61 34.12 27.64 28.72 29.26 29.65 29.88 28.04 27.28 31.54 31.57 29.39 28.68 26.72 20.93 25.36 25.21 27.51 29.04 33.59 36.96 37.23 36.88 29.86 32.87 32.64 33.31 31.90 30.92 32.27 36.08 33.47 31.91 26.83 27.60 26.59
45.07 44.09 43.65 43.94 45.03 44.71 38.17 31.68 32.12 30.75 31.47 33.28 29.39 29.96 28.25 28.30 29.41 28.74 27.15 26.83 29.18 27.75 25.86 27.11 25.68 27.74 28.12 28.67 34.03 33.76 37.54 29.68 31.83 30.04 30.93 30.25 27.37 29.81 29.87 33.01 32.12 30.18 28.40 25.77
44.33 43.62 43.44 43.74 44.25 42.75 35.90 35.31 35.25 32.80 29.97 28.75 26.71 26.66 29.67 29.37 30.37 31.50 32.00 30.08 28.33 27.94 29.33 31.48 32.66 33.28 33.46 32.96 31.13 30.86 33.70 31.89 30.72 26.45 32.59 30.84 23.66 27.30 28.23 29.00 30.50 31.63 26.46 28.57
44.04 43.50 43.27 43.77 43.93 42.39 38.54 36.23 33.56 29.87 25.34 27.75 28.40 30.75 30.70 30.36 30.77 28.37 32.03 31.62 28.57 32.36 35.80 34.65 34.75 33.61 33.09 33.78 33.83 35.49 32.76 31.94 32.76 28.00 30.09 18.86 27.67 32.13 33.13 28.22 28.57 31.46 30.08 28.94
43.72 43.14 42.99 43.88 44.30 43.68 38.86 37.67 34.77 29.76 24.24 28.75 30.42 31.27 30.66 30.31 31.03 29.54 31.31 32.64 33.75 34.80 32.19 29.13 29.00 28.49 29.41 34.60 36.65 35.96 36.51 32.98 30.19 27.48 24.25 27.12 28.11 28.62 27.53 28.45 26.54 30.27 30.72 29.46
44.21 42.92 43.45 44.13 44.69 44.28 39.05 37.27 36.36 32.25 28.63 27.43 33.33 29.26 29.87 25.69 25.18 27.01 30.19 34.52 34.88 33.44 29.80 28.31 23.82 23.69 26.98 26.90 31.32 35.86 35.54 33.77 30.54 28.89 22.51 19.25 24.80 28.67 32.65 32.33 23.29 30.64 29.93 28.48
44.35 43.18 43.81 44.16 45.05 44.98 39.83 36.93 36.86 32.36 26.83 30.38 31.49 27.43 27.96 30.09 26.99 25.19 27.80 30.04 30.97 31.56 23.88 23.14 22.64 21.77 30.13 26.37 26.07 27.28 27.81 28.65 24.95 26.00 23.50 24.62 27.86 31.23 34.18 24.06 23.52 32.05 29.68 28.01
44.31 43.79 43.69 44.16 44.86 44.76 40.01 36.59 36.97 33.16 28.14 29.46 35.10 35.61 31.37 30.06 27.99 22.93 27.42 25.39 27.19 25.58 21.75 23.22 22.98 23.78 28.01 28.82 30.65 29.66 25.61 25.34 22.85 24.90 20.00 16.55 30.01 30.83 25.46 30.04 33.44 31.70 30.60 29.17
43.96 43.95 43.51 44.06 44.20 44.13 41.26 34.14 37.70 36.42 30.26 29.89 34.46 35.28 36.51 35.30 33.55 30.07 29.61 28.65 30.15 29.41 23.81 24.32 24.72 24.55 27.55 27.92 25.49 33.75 24.64 27.23 24.70 25.38 23.14 30.84 33.62 31.68 33.76 33.85 31.25 33.80 30.90 30.63
43.81 43.21 42.71 43.62 44.04 44.72 41.19 35.05 34.67 33.01 27.08 28.64 31.10 32.93 37.55 38.28 36.87 37.22 29.05 30.60 34.27 30.43 30.34 24.39 23.46 23.22 28.67 25.38 27.02 29.16 31.58 33.22 26.07 25.21 28.96 29.46 31.10 31.03 32.84 33.46 28.98 28.98 33.32 33.10
43.83 43.22 42.69 43.36 43.75 43.37 40.73 35.68 35.73 34.69 30.71 24.16 30.42 38.59 36.29 39.79 38.65 37.52 36.73 35.27 35.69 33.86 31.17 27.02 22.36 23.27 31.94 28.72 32.14 27.86 29.95 31.28 28.24 26.69 29.08 28.74 29.41 29.90 29.95 29.67 29.17 27.35 27.32 27.11
43.67 43.00 42.59 42.76 43.06 42.02 38.13 36.44 36.55 37.84 31.34 25.98 27.33 33.71 37.56 39.37 38.85 37.82 37.16 35.77 33.08 29.75 27.67 23.83 23.40 28.33 29.47 31.75 31.11 28.11 31.48 29.45 26.81 20.99 29.45 29.23 27.22 30.32 29.67 27.67 26.92 26.84 25.16 23.60
43.65 43.14 42.64 42.36 42.04 39.48 33.13 26.33 36.94 39.69 36.80 26.93 22.57 31.80 33.96 37.23 37.58 36.55 35.13 34.77 32.10 30.21 28.57 26.08 27.08 30.98 29.73 26.08 25.75 31.70 33.19 32.33 32.97 30.20 30.77 27.52 29.38 30.61 29.22 26.62 25.95 25.44 24.59 24.14
43.64 43.55 42.66 42.41 41.70 37.44 32.38 29.01 39.20 42.00 37.58 28.17 22.94 25.69 33.71 39.88 35.90 33.28 33.61 36.78 32.11 30.66 28.48 27.36 27.72 28.92 31.86 27.05 24.88 31.86 32.60 32.20 31.62 31.81 31.72 28.69 26.11 25.06 27.19 26.59 25.84 25.71 23.80 22.93
43.40 42.92 42.13 41.96 40.87 38.77 35.93 40.94 43.14 41.28 32.78 30.42 21.05 27.32 32.87 36.68 31.60 28.75 31.47 29.19 29.08 29.04 27.35 28.03 27.74 29.60 28.84 23.15 31.35 32.79 33.41 33.76 33.31 31.02 30.72 27.29 25.87 25.52 24.47 24.75 23.59 21.73 20.79 20.94
43.03 42.40 41.22 36.10 32.64 32.40 34.44 43.30 42.28 39.93 32.17 22.48 22.35 21.64 25.33 33.61 31.34 30.04 29.77 29.37 21.17 29.05 22.52 26.20 28.52 27.05 22.85 26.72 29.80 30.93 31.89 30.85 29.38 29.67 28.87 27.67 25.68 23.54 23.33 22.84 21.78 20.00 18.95 18.70
40.93 35.61 28.66 21.26 30.36 39.65 41.40 35.27 29.47 31.15 33.26 33.33 24.44 26.29 24.15 30.46 25.15 23.65 28.67 25.19 23.20 22.84 27.08 28.97 28.10 25.41 28.97 27.46 27.66 28.21 26.94 28.42 29.70 25.04 23.55 23.23 22.04 21.69 21.17 20.10 19.86 18.86 16.47 13.85
32.28 26.16 29.93 34.29 40.13 33.41 30.55 27.87 26.72 25.78 25.79 29.53 27.68 26.87 26.82 31.87 24.46 24.13 25.72 21.38 23.49 21.81 26.12 24.50 19.97 22.09 22.79 25.97 25.49 25.93 26.17 25.62 24.87 25.30 26.23 25.72 23.82 21.96 20.60 19.58 19.21 18.00 16.63 12.99
33.02 35.66 36.58 37.86 32.82 30.12 26.54 24.82 27.26 26.45 22.84 25.96 25.05 26.39 28.90 31.30 31.58 24.69 26.40 24.05 21.54 18.02 29.07 26.27 14.18 18.34 22.70 24.15 24.55 24.33 23.48 23.53 22.89 23.67 22.93 22.97 22.74 21.89 20.29 18.64 16.68 14.67 13.70 6.67
35.51 33.89 30.91 31.06 28.44 22.36 19.63 15.22 18.82 20.64 23.10 23.83 24.55 26.63 28.39 29.25 31.09 29.08 27.94 18.08 15.74 28.72 20.69 17.31 15.86 22.07 23.93 24.03 22.92 21.24 21.60 21.69 21.19 20.56 20.97 20.26 18.95 18.64 16.85 11.49 6.60 5.66 4.45 -0.99
26.13 21.21 22.72 23.90 21.51 23.38 18.74 19.98 20.01 24.29 22.77 24.64 25.37 27.37 30.23 23.91 21.75 19.29 14.89 19.57 26.42 17.68 10.72 18.42 19.04 21.05 23.46 22.89 22.57 20.09 14.30 13.38 13.57 11.00 10.77 10.40 10.56 4.45 3.25 3.17 1.81 2.94 4.27 -0.59
22.53 23.41 14.12 23.04 23.77 26.55 30.06 30.74 29.04 30.27 24.04 26.67 25.64 25.37 25.86 19.93 22.19 27.37 26.74 24.73 17.67 16.47 15.24 13.86 16.28 21.64 21.22 19.66 18.48 14.68 12.55 8.37 8.19 5.33 7.07 2.25 2.87 6.38 5.00 2.46 1.61 4.90 -0.41 -1.17
26.86 26.86 21.46 26.74 27.95 28.00 31.80 31.22 30.80 30.82 23.77 29.67 27.60 23.90 17.55 17.08 19.78 24.54 23.05 21.52 14.52 15.50 14.53 19.06 20.59 18.69 14.42 12.99 13.76 11.04 9.11 8.91 8.11 7.43 7.78 7.14 4.39 6.31 6.43 5.69 5.30 -0.29 -0.01 -1.21
25.79 21.79 26.43 28.78 26.92 26.11 32.01 32.19 31.75 31.80 25.74 24.35 24.14 17.91 17.95 23.28 23.56 22.53 22.05 19.73 15.23 20.41 22.31 18.64 17.35 16.71 12.57 11.29 11.05 10.04 11.26 10.88 9.67 8.18 10.00 10.10 10.79 9.57 13.03 11.85 8.93 10.54 12.55 5.42

GFSNW_sfc_wetblb_114.txt.gz
Wetbulb
48.95 48.27 47.60 46.95 46.31 46.49 43.47 37.99 31.05 40.46 42.54 30.42 27.18 26.88 29.99 36.38 33.21 35.50 33.38 32.38 29.74 26.15 23.62 24.19 19.56 22.31 29.76 34.37 33.93 29.09 34.15 34.07 25.99 29.43 36.57 38.57 36.41 33.70 33.85 28.25 25.17 29.23 26.78 21.98
48.05 47.32 46.63 45.89 45.72 45.91 39.67 34.29 34.99 40.32 39.41 24.45 26.95 31.03 32.83 33.30 31.91 31.80 32.10 30.62 30.89 27.87 21.56 15.60 22.83 23.71 32.84 34.68 31.79 32.47 36.13 31.52 25.32 26.05 31.57 36.11 33.14 34.89 35.49 35.04 34.39 26.63 23.60 22.92
47.23 46.58 45.77 45.25 45.49 46.35 41.08 35.59 29.09 32.99 34.40 32.60 30.55 29.60 29.60 29.48 34.31 32.34 32.61 30.70 30.44 27.35 24.48 28.11 20.92 22.52 31.42 33.24 33.32 38.09 38.61 34.68 30.36 23.08 27.44 30.96 28.40 33.63 36.51 35.03 27.25 25.09 24.74 25.06
46.32 45.91 45.79 45.91 46.37 46.53 40.07 34.69 30.33 33.52 28.01 29.53 30.31 31.33 30.18 28.47 27.89 31.55 31.35 29.01 28.01 26.76 20.02 24.40 25.05 27.32 28.31 31.87 36.03 35.54 36.65 30.23 31.28 31.24 31.03 30.15 28.19 30.55 31.64 28.80 29.10 23.88 24.75 23.81
45.51 45.37 45.46 45.71 45.99 45.87 37.31 32.37 31.17 32.62 31.83 32.42 29.98 31.79 28.62 28.43 29.20 28.43 26.95 27.20 27.87 27.42 25.05 26.11 23.96 26.72 26.60 26.46 32.48 31.30 36.04 29.11 31.76 30.53 33.40 32.38 25.64 27.85 28.22 29.83 29.85 27.51 26.37 23.73
43.87 44.47 45.41 45.75 45.75 43.64 35.85 34.85 35.61 33.91 31.12 29.59 28.29 27.98 29.31 29.77 29.98 31.19 31.31 29.63 27.72 27.37 28.14 29.70 30.64 31.57 31.64 31.00 28.84 29.80 32.10 32.29 29.93 26.89 30.69 29.16 22.27 25.72 26.47 27.07 29.45 30.21 24.05 26.87
43.64 43.88 44.37 45.08 45.01 42.93 37.90 35.41 34.50 31.64 26.98 29.02 28.61 30.59 30.60 29.51 29.81 28.26 31.15 30.33 28.16 30.78 33.96 33.24 32.65 31.17 31.14 31.13 31.52 33.68 31.40 32.40 32.22 28.66 29.05 18.24 25.93 31.44 31.18 27.23 27.29 30.00 27.81 27.49
43.21 43.37 44.08 44.72 44.64 43.88 38.93 37.51 34.79 32.07 26.44 29.56 29.82 30.28 29.77 29.99 30.53 29.15 30.10 31.34 32.31 33.41 30.95 28.58 28.54 27.79 28.15 31.55 35.56 35.86 34.80 33.12 29.57 26.93 23.99 26.23 27.68 27.41 26.92 26.89 25.27 29.13 30.11 30.23
43.84 44.85 45.41 45.37 45.08 44.09 39.07 36.99 36.48 34.66 30.76 28.60 32.40 28.81 29.55 26.12 25.49 26.42 29.35 32.60 33.80 32.23 29.32 28.02 22.99 22.25 26.11 25.91 29.73 35.65 34.06 33.37 29.79 27.60 22.33 17.53 23.98 28.24 32.64 31.81 22.30 29.12 28.36 26.79
44.44 45.11 45.67 45.84 45.09 44.18 39.59 36.56 36.78 35.03 29.70 31.07 30.96 27.78 27.99 29.28 26.54 24.15 27.23 29.10 29.90 29.91 23.25 22.50 22.45 20.66 28.07 22.97 25.21 26.89 26.95 28.35 24.71 25.44 22.72 23.60 27.42 30.78 34.18 23.31 22.07 29.50 27.91 25.90
44.50 45.14 45.65 45.42 44.80 43.64 39.50 36.74 37.37 34.53 29.69 29.97 34.93 34.94 30.56 29.28 26.87 21.39 26.14 24.64 26.32 24.84 20.75 22.88 22.43 22.85 25.78 24.59 30.07 29.14 24.27 24.05 22.87 25.60 21.10 18.53 31.06 31.43 25.33 29.93 31.28 30.30 28.55 28.17
44.41 45.02 45.19 45.16 44.37 43.60 40.81 35.46 37.47 36.72 32.45 31.21 34.57 34.94 35.54 34.04 31.72 29.09 28.74 27.74 29.53 28.55 23.08 23.94 24.25 23.18 24.79 27.22 25.10 32.60 24.82 26.82 24.72 24.58 22.84 30.36 32.21 30.70 32.34 31.39 32.84 30.85 29.84 29.24
44.19 44.74 44.80 44.95 44.78 43.63 40.52 35.45 34.74 33.37 30.05 30.78 32.36 33.38 36.64 37.25 36.23 35.84 28.94 29.64 32.90 29.59 28.95 23.82 22.91 22.04 27.36 24.64 26.79 28.55 31.42 32.72 26.39 26.18 28.32 29.25 30.12 30.59 32.04 29.99 28.45 30.82 32.15 29.82
43.72 44.36 44.65 44.31 43.94 43.43 40.84 35.97 35.68 34.05 30.62 27.67 30.95 37.69 34.89 38.24 37.12 36.26 35.48 34.75 34.18 32.32 29.79 26.39 21.77 23.58 29.44 27.36 30.20 27.59 29.89 31.20 28.10 26.33 28.30 28.89 29.29 29.13 29.21 28.04 27.81 25.93 25.80 25.89
43.27 43.93 43.82 43.72 43.39 42.38 39.53 37.31 36.74 37.40 32.34 26.66 28.40 33.08 35.96 38.18 37.17 36.82 36.26 34.81 31.60 28.88 27.08 23.42 23.00 27.45 27.87 31.21 29.18 27.77 31.63 29.05 27.24 24.78 29.58 28.40 28.09 29.48 30.31 27.35 25.57 25.38 23.84 22.68
43.01 42.85 43.04 42.72 41.29 38.30 32.90 27.66 35.34 39.56 35.70 28.92 24.46 31.26 33.64 35.61 36.92 35.90 34.68 33.63 30.65 29.39 27.89 25.78 26.50 29.45 28.72 24.46 24.87 31.09 32.06 32.26 33.06 30.30 30.48 28.32 29.55 28.43 27.78 24.90 24.36 24.58 23.39 22.17
43.02 42.37 42.28 42.48 42.25 38.30 32.41 29.25 35.62 41.13 36.58 27.49 24.44 26.76 33.35 37.76 35.66 33.31 32.99 34.87 30.09 29.52 27.66 26.83 27.20 28.42 30.01 26.69 23.62 30.81 31.40 30.95 30.89 31.57 30.26 26.79 26.57 24.47 26.06 25.15 24.36 24.15 21.93 21.54
42.43 42.18 42.09 42.05 42.61 40.19 37.82 40.88 42.63 38.36 31.93 30.23 22.80 27.60 31.72 37.19 31.55 29.82 30.06 29.14 28.59 28.48 26.59 27.22 27.04 29.10 30.52 23.36 31.09 32.08 32.18 31.96 32.16 29.63 30.11 26.19 25.20 24.60 23.15 23.22 22.47 21.04 19.99 19.92
41.90 41.18 39.61 35.24 32.86 31.83 37.00 42.63 40.82 37.09 31.56 24.14 21.28 23.37 24.66 34.82 31.05 29.24 28.98 28.58 20.90 28.19 21.82 25.64 27.42 24.37 22.83 27.41 31.41 31.61 32.92 29.63 28.10 28.10 26.80 25.80 24.56 22.63 22.81 22.16 21.28 19.60 18.66 18.22
39.57 34.42 29.25 22.35 32.41 39.69 39.18 33.62 29.14 28.70 30.08 29.65 22.55 25.52 27.90 29.48 26.75 23.12 25.01 24.32 22.64 21.49 26.92 28.62 27.78 24.32 27.36 27.04 26.26 26.14 27.13 28.11 27.66 24.39 23.19 23.47 22.41 21.88 20.96 19.83 19.58 18.52 15.83 12.79
32.07 28.14 29.65 34.57 40.08 33.27 29.95 21.50 21.92 25.12 22.99 26.32 25.90 26.56 27.67 31.03 24.13 23.76 24.67 20.49 22.96 21.07 25.53 24.92 20.03 22.30 25.63 25.62 25.47 25.70 26.36 26.67 25.68 26.33 26.86 27.14 24.73 21.90 19.83 18.97 18.39 17.07 15.61 11.34
32.89 34.57 37.85 35.85 32.07 28.39 23.94 24.45 26.66 24.62 22.40 25.51 24.26 25.65 28.41 33.47 30.89 23.96 27.48 22.32 22.12 17.15 29.55 25.67 13.79 17.34 23.14 24.17 25.11 24.92 24.60 23.74 23.18 23.75 22.86 23.23 23.12 21.86 19.80 17.99 16.13 13.86 12.88 5.67
34.18 32.32 27.45 27.07 24.98 19.45 20.61 15.90 20.18 20.89 21.75 22.46 23.74 26.20 27.58 29.82 32.05 26.62 28.40 18.91 14.74 28.44 19.71 16.23 16.85 20.57 23.06 23.30 23.49 22.07 21.90 22.19 21.80 20.93 20.89 20.05 18.68 18.11 16.31 11.08 6.04 5.60 3.91 -2.66
25.69 20.88 18.67 20.07 20.31 23.34 17.95 18.60 18.84 21.98 21.80 23.82 24.19 26.59 29.57 23.89 24.27 13.22 13.75 17.97 27.57 20.86 11.36 17.68 14.85 19.94 21.36 22.75 22.41 19.39 13.58 14.08 14.25 11.64 11.04 10.42 10.00 4.29 2.43 2.39 -0.03 1.68 2.92 -2.85
24.96 22.59 18.91 22.37 23.95 26.67 26.46 25.68 28.64 30.11 22.75 24.70 24.94 24.55 25.01 18.56 19.94 25.54 24.91 24.29 16.10 15.54 14.38 14.17 13.29 20.87 21.41 20.47 19.47 16.00 13.38 9.17 8.13 5.31 7.34 4.86 4.30 7.85 3.32 0.42 0.12 2.91 -2.24 -2.84
25.38 26.39 20.14 25.61 26.73 26.72 31.31 31.19 29.92 30.20 23.02 29.37 27.86 22.63 16.32 15.75 17.95 17.90 17.97 21.51 12.87 14.58 12.60 15.70 16.20 18.16 16.99 16.08 14.88 12.02 9.53 8.66 7.33 6.98 7.33 6.85 5.49 6.33 5.78 3.93 3.86 -1.24 -0.26 -1.10
23.62 20.68 24.35 27.25 26.75 25.08 30.65 31.96 31.69 30.04 30.93 20.91 23.13 16.97 16.75 22.29 16.56 17.04 21.01 21.15 14.27 17.81 22.21 19.42 14.76 18.50 14.44 11.77 10.66 9.08 9.92 9.75 9.07 7.58 8.86 7.96 9.11 8.25 12.25 11.30 8.29 9.64 12.37 4.04

GFSNW_sfc_wetblb_117.txt.gz
Wetbulb
48.42 49.41 51.52 49.37 47.95 45.74 42.36 36.15 30.77 41.15 43.52 34.19 33.48 28.65 31.85 36.56 34.48 36.59 34.56 33.61 31.03 28.75 27.02 27.85 25.30 27.06 30.37 35.81 34.81 29.93 34.23 32.97 26.12 30.45 37.15 39.75 37.55 34.95 34.83 28.00 26.97 31.15 26.23 22.43
48.60 50.02 50.39 48.01 46.16 45.41 40.30 33.72 33.95 41.62 41.93 28.52 28.22 32.22 32.88 34.29 33.06 33.40 33.31 31.86 32.30 29.49 26.62 22.39 26.58 27.69 34.26 35.31 32.93 33.51 35.59 31.04 26.42 28.79 33.46 34.20 32.13 34.71 35.62 35.26 34.12 29.91 25.17 23.32
49.15 50.35 48.24 46.88 45.66 46.30 42.85 36.31 30.22 35.09 36.80 34.31 32.30 30.77 31.03 30.33 35.11 33.32 34.12 32.11 32.45 29.69 27.98 29.79 25.85 27.73 32.55 34.63 33.83 37.77 38.33 33.29 28.59 23.90 26.43 31.12 27.07 30.14 34.06 34.89 28.02 24.02 23.82 23.55
50.56 48.55 47.46 45.91 46.20 46.88 41.90 36.28 32.03 35.09 28.23 30.96 32.31 33.32 31.91 29.83 29.28 33.13 33.44 30.66 30.40 28.97 24.34 26.50 26.72 29.24 30.71 32.80 35.83 36.30 35.75 29.75 32.02 32.44 31.72 30.39 28.73 27.60 29.40 27.72 29.42 24.12 24.40 23.02
48.38 47.29 45.79 45.35 46.42 46.39 38.78 32.76 32.30 34.83 32.74 33.60 32.44 32.83 30.29 30.07 29.09 30.23 28.93 29.65 29.53 29.92 27.64 28.48 25.63 29.01 29.16 28.82 32.66 31.91 36.24 29.61 32.02 29.92 33.65 32.48 26.91 27.80 28.25 29.74 28.44 26.37 26.16 23.64
46.72 45.63 45.06 45.73 46.81 44.02 37.12 36.38 37.05 35.80 33.60 31.47 30.83 29.93 30.81 30.66 31.76 32.34 32.55 31.65 30.54 28.96 30.52 32.37 33.19 33.99 34.04 33.24 30.85 29.46 30.87 29.97 30.13 27.17 32.19 29.93 24.08 26.01 26.78 27.57 29.08 29.51 24.50 26.74
45.91 45.35 45.22 46.05 46.83 43.62 38.95 37.14 37.24 33.17 28.09 31.09 30.85 31.79 32.37 30.56 31.39 30.14 32.01 32.80 31.00 32.71 35.91 35.45 34.35 32.33 32.17 32.18 32.10 33.48 31.26 29.74 31.32 28.58 29.73 19.91 27.89 31.35 30.76 26.91 27.52 29.82 28.11 27.83
45.15 44.57 44.80 46.09 46.07 44.18 39.21 37.92 36.83 33.81 28.79 31.16 31.06 31.42 31.12 31.89 32.95 31.28 31.67 32.82 34.20 35.76 34.23 31.03 29.77 30.19 30.95 31.97 33.41 32.68 33.73 31.85 28.63 27.40 25.20 27.11 27.81 27.93 27.92 27.33 25.16 28.84 28.44 29.82
44.51 45.28 45.54 45.44 45.16 43.38 38.97 37.35 37.85 36.77 31.47 30.13 33.47 30.81 32.05 28.10 27.68 28.99 31.28 34.27 36.19 35.22 32.24 30.44 25.04 23.40 27.03 27.24 31.38 36.19 35.01 34.23 30.21 28.70 24.01 20.42 24.49 29.14 32.71 32.60 22.86 28.91 28.24 27.54
43.19 44.50 44.91 45.58 44.68 43.95 39.84 37.27 37.39 37.10 31.30 32.61 33.58 29.85 29.84 30.94 29.07 27.30 29.62 31.47 32.29 33.21 28.58 26.71 25.48 24.97 29.38 25.25 25.30 27.20 27.80 28.59 25.23 25.24 24.07 23.88 27.83 31.52 34.80 23.74 23.80 29.06 28.24 27.42
45.02 45.72 45.95 45.46 44.46 43.40 39.52 36.93 37.99 36.91 32.45 33.39 36.07 35.99 31.73 30.79 29.70 26.59 29.20 29.09 30.18 28.57 25.26 25.65 25.39 26.23 27.65 27.63 29.96 28.75 24.93 24.21 23.71 25.34 22.59 19.81 30.75 32.45 26.88 28.95 31.52 29.88 29.70 28.32
45.52 45.54 45.16 45.01 44.37 43.59 41.06 35.99 37.65 38.36 35.11 34.12 36.08 36.55 36.89 35.90 33.85 32.26 31.08 30.39 31.37 30.83 27.13 27.73 27.85 26.57 28.43 27.86 25.66 32.25 25.49 27.74 25.01 24.85 23.53 30.18 32.83 30.41 32.26 34.55 31.39 30.90 29.84 28.62
45.23 45.47 45.41 44.96 44.39 43.36 40.07 35.87 35.74 37.37 35.23 34.53 34.99 34.03 37.71 39.28 38.23 38.96 32.56 32.82 34.44 32.65 32.92 30.57 29.63 26.38 30.12 26.79 27.06 29.33 30.91 32.93 27.13 27.12 28.79 29.15 30.30 31.80 30.35 31.02 30.53 32.07 30.44 28.48
45.05 44.91 44.73 44.54 43.81 43.33 40.89 36.72 37.34 36.62 35.03 30.61 32.08 38.62 36.67 39.19 39.69 38.79 37.97 36.55 35.50 34.60 33.59 30.95 29.68 28.52 32.13 30.11 30.06 28.66 30.66 32.05 28.15 26.64 28.23 28.62 29.25 29.85 29.42 28.48 28.83 27.57 27.33 26.94
44.77 44.76 44.41 44.24 43.46 42.89 40.67 39.19 39.19 38.63 35.89 30.28 31.10 35.38 37.22 38.44 39.42 38.13 38.17 36.65 34.26 33.02 31.30 30.67 28.92 31.18 31.84 32.46 31.42 27.96 32.01 29.52 28.00 26.17 30.23 29.44 28.29 30.34 30.18 27.75 26.39 26.50 25.64 23.91
44.13 43.76 42.49 41.53 40.56 37.80 35.44 32.48 37.22 40.13 37.23 33.25 28.03 33.40 36.23 37.37 38.02 37.34 36.31 35.62 33.49 33.08 31.93 30.49 30.80 31.87 32.37 28.37 25.46 30.87 31.94 33.00 33.90 30.83 31.33 30.47 30.04 28.95 28.55 26.36 25.49 25.01 23.92 23.34
43.07 43.38 44.18 43.68 43.39 40.56 34.27 31.95 36.88 41.14 38.15 32.23 28.80 31.27 35.66 37.68 36.29 35.44 35.05 35.45 33.34 33.39 31.44 30.76 31.10 32.09 33.67 30.01 25.21 30.62 31.50 32.39 31.25 31.70 30.97 28.14 28.10 25.97 26.87 26.23 24.99 24.47 22.83 22.53
43.83 44.16 43.22 42.70 42.71 40.97 38.18 41.12 42.17 38.68 33.75 32.86 27.72 29.20 33.47 37.85 32.49 32.10 32.85 32.04 32.18 31.31 30.56 30.96 30.69 32.58 32.48 26.42 30.78 30.85 31.22 31.90 31.83 31.24 31.82 29.66 27.33 26.27 25.04 24.86 24.24 22.42 21.40 20.89
41.43 40.34 39.12 36.67 35.09 36.23 37.83 42.43 39.98 38.17 34.24 27.32 26.72 26.95 26.33 35.90 32.09 32.33 32.05 31.49 27.75 31.10 29.31 29.41 31.33 28.13 26.16 29.98 31.19 31.08 32.01 30.78 27.58 27.43 27.23 26.98 25.86 24.14 23.91 23.68 22.73 21.70 20.47 20.25
39.65 35.85 30.11 28.37 35.06 40.80 38.31 34.28 30.15 30.80 31.58 31.08 26.94 28.63 29.05 32.59 29.72 28.76 29.30 28.70 27.31 26.18 29.78 31.84 29.41 26.85 27.81 27.77 30.51 31.89 31.83 30.22 28.97 25.65 24.08 24.78 23.77 23.84 23.26 22.50 21.98 20.84 19.19 17.00
32.91 29.81 29.19 35.88 40.11 34.54 31.10 25.51 25.94 26.76 25.48 28.23 27.83 29.72 30.50 33.23 29.03 28.27 28.29 26.48 27.14 23.73 28.22 27.65 24.78 25.19 27.05 27.66 27.19 28.57 29.55 29.66 28.97 29.36 29.52 28.68 27.21 24.07 21.54 20.17 19.47 18.70 17.49 15.51
33.98 35.90 38.14 35.58 31.29 28.04 24.67 24.16 26.30 25.12 23.64 27.13 26.91 28.67 32.45 34.17 32.90 29.26 28.52 26.35 25.95 22.32 30.31 27.46 22.29 24.90 26.36 26.82 26.61 26.90 27.34 26.93 26.00 26.99 25.96 25.83 25.04 23.80 21.71 20.03 18.43 17.18 15.62 11.21
34.77 31.49 28.87 27.81 26.50 18.60 17.16 17.03 21.23 22.43 25.54 26.95 28.95 27.84 32.39 32.91 33.69 29.79 29.58 23.47 22.27 29.88 25.05 23.12 25.01 23.75 26.10 25.84 25.35 24.19 24.93 24.74 24.16 23.33 22.94 22.22 21.01 20.64 19.00 14.93 13.39 12.26 9.91 6.64
26.84 22.93 19.65 19.27 20.42 21.51 20.98 22.67 23.29 25.43 25.96 27.50 29.81 27.97 29.81 28.54 27.77 23.80 21.97 24.32 27.85 22.17 18.61 21.90 24.68 23.25 24.02 24.12 23.57 21.76 19.19 18.57 18.69 17.65 16.91 14.98 13.83 11.07 10.82 10.64 9.79 10.13 11.03 6.47
25.15 24.36 20.74 22.20 25.63 27.86 28.29 25.86 29.25 29.74 26.93 28.69 28.59 27.95 28.15 23.83 23.33 25.00 25.92 24.34 19.59 20.93 21.71 24.53 22.56 23.37 23.04 22.00 21.39 18.73 17.09 14.70 13.60 13.97 12.82 10.44 10.08 12.26 10.08 8.41 9.71 10.92 7.29 7.36
27.39 25.80 23.52 25.03 25.99 28.10 30.27 29.61 29.72 30.57 27.97 28.98 29.73 24.57 21.71 21.54 22.43 21.82 19.53 21.26 18.32 22.92 23.63 23.36 20.66 21.68 20.34 19.64 19.08 17.67 15.35 14.98 13.15 13.13 12.85 11.91 11.15 13.04 14.64 11.14 11.51 8.67 10.32 9.39
25.21 23.36 25.35 27.76 26.99 26.21 29.67 32.27 31.33 28.16 30.81 25.27 25.97 20.37 20.33 24.36 21.17 20.77 23.61 22.25 24.20 23.47 24.18 23.07 20.77 21.59 19.67 17.25 15.22 13.28 13.60 13.61 13.51 12.77 13.99 13.69 13.87 13.65 15.84 16.30 16.93 14.35 16.06 11.41

GFSNW_sfc_wetblb_120.txt.gz
Wetbulb
49.07 49.99 49.58 49.17 49.88 48.47 44.10 38.41 31.34 39.81 45.07 32.84 33.92 31.79 35.55 37.56 37.09 39.13 36.70 36.53 34.44 32.99 32.92 31.71 33.32 32.74 34.70 38.93 37.27 34.42 36.99 34.44 30.50 34.16 40.48 40.18 39.19 36.63 35.91 30.71 29.89 33.19 31.82 26.39
48.40 48.51 48.90 48.70 49.55 47.49 41.60 35.68 32.70 40.12 42.09 28.43 30.31 34.44 35.04 36.15 35.66 35.66 35.61 33.62 35.61 34.83 33.24 29.72 32.50 33.66 37.61 38.47 36.12 36.73 38.63 33.38 29.68 33.70 37.27 38.72 33.64 34.25 34.36 34.26 35.11 31.13 28.65 25.69
47.69 47.95 48.46 48.83 49.25 47.90 44.61 35.47 27.96 33.27 35.27 38.41 33.48 33.36 32.24 32.24 37.04 35.85 36.71 34.93 35.79 33.56 31.45 33.67 30.80 32.70 35.75 37.95 36.51 36.84 39.37 34.80 31.81 28.19 28.18 31.80 29.31 30.88 33.72 35.11 32.22 28.68 27.82 25.78
47.69 47.52 47.56 48.10 48.80 48.08 44.51 37.61 33.47 36.02 29.34 31.04 34.45 35.50 34.18 31.90 30.41 35.70 37.02 33.55 34.18 33.04 28.47 30.62 30.27 33.10 34.26 35.60 37.61 38.38 38.14 30.52 33.80 33.51 33.35 33.93 30.82 29.69 31.26 29.74 31.46 29.32 27.06 24.93
51.65 50.30 47.65 47.92 48.08 48.42 43.83 33.41 34.48 37.87 36.22 34.03 34.04 35.05 33.10 32.27 33.59 34.65 33.12 32.19 34.97 34.93 30.92 31.65 29.83 33.07 33.09 32.06 36.88 35.43 38.03 32.31 33.49 31.51 35.25 34.52 29.21 30.04 31.20 31.28 30.76 28.63 28.34 25.23
51.88 50.30 48.07 48.32 47.37 48.44 43.00 39.84 42.46 38.20 33.81 32.93 34.26 34.56 34.98 34.57 35.13 33.27 36.62 36.08 34.25 32.68 34.46 36.59 37.46 37.78 36.55 36.03 33.83 32.99 34.21 31.78 30.37 28.99 33.93 32.47 28.35 28.05 29.45 30.00 31.16 31.54 27.64 28.16
50.25 48.31 48.00 47.58 48.21 48.49 43.58 40.94 40.89 37.18 30.73 34.31 34.14 35.43 35.92 34.65 35.29 32.44 34.81 36.98 34.90 36.47 39.94 39.43 38.35 37.01 36.42 36.21 36.33 37.42 33.12 30.90 30.73 30.25 32.00 24.77 29.41 33.48 33.15 29.83 29.79 31.71 30.82 29.68
48.19 47.13 46.87 47.79 47.74 45.88 42.59 41.92 41.14 39.38 31.88 34.71 33.70 34.35 34.67 35.38 36.33 34.28 34.85 35.89 37.83 40.33 37.57 32.48 32.01 33.18 34.18 35.17 37.47 36.97 37.11 31.82 30.46 28.34 30.03 28.16 29.01 30.52 30.68 29.81 26.88 31.07 30.25 30.77
46.55 46.39 46.12 46.02 45.09 44.36 40.75 39.99 45.65 42.05 34.72 32.98 36.69 34.71 35.29 32.11 32.27 33.29 33.85 37.97 40.50 39.31 35.37 33.13 28.07 26.64 30.62 29.47 32.58 37.86 36.04 36.03 32.06 31.31 26.29 23.64 28.15 31.19 33.98 33.91 25.59 31.15 31.55 30.86
45.82 46.23 45.78 45.23 44.58 44.25 43.38 39.73 43.41 41.99 34.35 35.92 38.14 34.28 34.17 37.03 35.23 32.55 33.83 35.35 35.46 37.96 34.02 30.81 29.40 29.05 33.65 28.68 28.47 29.41 31.28 30.99 28.46 28.91 27.77 26.93 29.84 32.44 35.45 25.48 25.86 32.67 32.95 32.71
45.44 45.96 45.43 45.02 44.47 44.04 43.65 39.54 41.96 42.38 36.65 36.17 38.84 38.60 35.11 35.48 36.76 31.61 34.38 33.58 34.10 33.89 31.30 31.07 31.26 30.93 32.65 31.21 32.44 30.96 29.70 27.95 27.81 28.88 26.64 23.00 32.28 33.41 29.09 30.75 33.23 33.72 33.46 32.60
45.55 45.26 44.84 44.35 44.49 43.56 44.49 39.94 41.04 46.21 41.05 37.33 40.98 39.54 39.95 40.19 39.33 36.53 36.43 35.07 35.26 36.21 33.68 34.26 34.56 31.62 33.95 32.42 27.14 35.02 28.50 31.90 29.52 27.97 26.95 32.01 33.54 32.14 35.16 35.28 32.97 32.88 33.49 33.15
45.15 45.19 44.83 45.15 44.75 44.49 44.30 42.27 44.96 44.48 40.30 38.95 38.72 36.58 41.26 43.18 42.73 44.84 36.22 38.09 37.70 37.08 40.45 37.79 36.46 31.00 36.66 30.60 31.19 31.47 32.46 34.70 30.96 29.84 29.93 30.81 31.21 32.98 34.68 35.02 33.72 34.12 34.17 32.99
45.03 45.00 44.85 44.68 44.51 44.21 45.10 42.22 43.68 44.73 41.25 34.55 34.53 41.70 38.59 42.79 44.80 43.88 43.73 40.38 40.64 40.33 40.98 37.66 36.64 33.70 37.23 32.26 33.16 32.80 33.85 34.17 30.38 28.58 29.87 30.59 31.32 32.07 32.34 32.15 32.27 31.32 31.96 31.40
44.91 44.88 44.75 44.70 44.53 44.54 44.75 43.98 43.70 43.70 41.22 33.15 33.72 39.05 40.41 43.50 43.92 42.21 42.63 41.24 39.78 38.66 36.69 36.69 34.71 37.67 36.05 35.98 35.27 31.73 34.61 31.69 31.04 30.39 31.74 32.55 30.62 31.93 31.95 30.22 29.91 30.26 29.23 28.36
43.32 43.40 42.53 41.59 40.19 41.39 44.60 38.21 44.04 44.73 46.02 38.81 31.14 38.55 38.57 41.56 42.40 41.26 40.46 40.73 39.53 40.38 38.10 36.36 37.56 37.60 37.57 31.67 29.31 32.81 33.74 34.68 35.54 32.35 34.70 33.09 32.35 31.67 31.64 30.11 29.64 29.63 28.93 28.59
44.08 44.06 44.27 44.48 44.28 43.77 38.76 38.23 42.28 42.11 46.23 39.78 32.52 33.35 38.29 40.24 40.37 39.77 40.02 40.84 39.87 39.91 37.95 37.16 37.39 37.50 38.80 33.30 27.53 33.03 33.06 35.03 35.17 34.85 32.73 29.31 29.90 28.33 30.50 29.81 28.62 28.08 27.55 27.20
43.63 43.47 43.40 43.99 44.32 43.51 39.34 41.63 41.83 42.73 41.23 39.82 32.37 31.85 34.94 39.61 35.57 35.45 39.57 37.83 39.67 38.19 37.43 37.90 36.04 37.20 37.12 29.34 32.29 34.46 34.69 34.65 34.45 34.62 35.27 33.87 31.46 30.43 29.08 29.29 28.77 26.91 25.54 24.98
40.65 40.73 42.57 43.54 40.81 39.04 39.36 42.20 41.91 44.19 41.15 33.68 33.95 29.79 28.36 38.91 36.65 38.45 37.95 38.86 33.48 38.03 35.29 35.35 36.57 33.58 29.57 33.14 33.19 33.93 34.77 33.97 32.73 32.31 32.37 31.42 30.04 28.82 28.24 28.34 27.59 25.97 24.52 24.08
40.68 40.53 37.86 33.12 38.37 40.89 41.15 41.07 37.92 36.86 36.84 37.44 32.44 35.80 31.13 36.48 35.84 35.05 34.69 36.86 32.67 30.19 34.11 37.12 33.48 32.87 33.19 35.49 36.85 36.92 36.47 34.76 33.63 30.23 28.62 29.64 28.35 28.21 27.40 27.08 26.65 25.44 23.58 22.23
38.98 35.58 33.35 40.02 41.22 40.47 36.69 32.43 31.89 32.76 30.16 34.44 33.68 34.69 32.09 38.16 33.07 32.25 35.34 32.44 33.66 27.95 31.16 31.15 29.65 29.96 31.89 33.36 35.87 37.54 37.12 35.52 35.20 34.96 34.31 33.46 32.02 29.15 26.25 24.59 23.99 23.40 22.49 20.99
38.78 39.54 40.64 39.70 36.25 33.35 29.15 27.56 29.15 29.11 26.99 31.72 32.35 34.00 34.84 36.01 39.53 34.52 34.35 29.69 31.96 25.47 33.31 30.56 27.20 32.05 32.54 31.94 31.91 34.54 35.15 34.42 33.28 34.18 33.15 31.95 30.49 29.12 26.80 24.61 23.18 22.16 20.41 17.13
40.99 36.81 33.65 33.12 30.74 25.28 23.41 21.18 24.94 26.28 30.65 32.51 34.18 31.97 36.22 37.03 37.47 33.41 31.55 27.34 27.95 32.73 28.73 28.10 32.26 31.27 31.92 32.56 31.71 30.96 31.29 31.67 31.03 30.15 30.18 29.13 27.47 26.54 24.86 21.37 19.80 18.15 15.74 14.58
33.06 30.56 24.10 26.33 24.49 26.52 27.08 27.55 29.05 30.55 33.14 34.68 34.56 31.94 34.39 34.36 32.35 32.38 27.68 30.60 31.44 25.57 23.73 25.16 32.75 30.13 30.34 31.06 30.11 28.21 26.39 26.00 26.25 25.60 24.68 22.34 20.37 18.83 18.59 17.99 17.80 16.84 15.54 14.37
30.29 30.53 23.95 26.21 29.65 31.09 30.83 31.62 31.85 32.59 36.57 35.77 34.39 33.96 35.18 31.49 29.48 31.34 29.50 26.20 23.88 26.25 28.38 33.29 32.73 30.23 29.23 28.00 27.70 25.76 24.17 22.43 22.64 22.49 20.19 17.98 16.74 17.24 16.47 16.51 18.55 18.88 15.80 14.50
31.37 29.49 27.89 30.50 31.19 30.32 31.42 32.20 31.45 34.55 35.43 36.54 36.23 30.87 29.75 27.99 29.59 26.77 25.70 25.07 24.26 30.48 33.78 31.96 29.94 28.27 28.00 26.99 25.79 24.43 23.72 23.49 22.59 21.33 19.78 18.75 17.88 18.29 19.26 18.01 18.08 16.15 16.67 15.82
28.85 28.29 30.72 31.61 31.14 29.53 31.84 33.61 33.53 35.87 36.30 32.61 33.06 27.35 25.13 30.56 27.78 25.49 30.71 29.05 32.91 32.41 29.75 29.61 30.38 28.61 27.01 25.44 23.76 21.05 21.17 21.73 21.67 20.50 20.53 20.20 21.17 20.13 19.67 19.22 20.14 19.87 21.13 18.46

GFSNW_sfc_wetblb_123.txt.gz
Wetbulb
49.66 49.66 50.05 49.83 49.84 49.47 47.13 40.79 34.23 44.06 45.53 32.28 34.40 33.79 37.06 40.65 39.58 41.49 39.06 40.36 37.94 36.77 36.78 34.80 36.96 35.04 37.99 41.84 40.45 36.88 40.55 36.60 32.60 37.00 42.51 42.52 40.58 37.96 37.61 30.57 30.62 32.58 34.23 27.59
49.14 49.14 49.57 49.39 49.16 48.79 43.78 37.61 33.50 42.81 41.97 32.69 32.13 35.97 36.94 39.19 36.97 38.31 38.23 36.92 38.09 37.96 35.07 32.21 34.09 35.44 40.32 40.24 39.26 38.36 39.60 35.57 32.06 34.94 39.08 40.97 37.03 37.72 36.91 35.23 34.27 30.82 28.73 27.52
48.52 48.91 49.05 49.18 49.13 48.88 45.88 35.36 29.30 32.79 33.68 39.19 37.93 33.99 36.00 35.09 40.76 39.42 39.00 37.23 37.57 34.63 33.23 36.13 32.38 35.16 38.65 40.34 39.20 38.21 40.15 36.69 33.77 32.10 33.80 36.10 31.08 33.93 34.58 33.92 30.17 33.26 29.78 27.13
48.13 48.28 48.71 48.68 49.03 48.70 44.90 38.14 35.66 38.61 28.37 31.40 36.19 38.30 36.97 33.96 33.18 38.76 38.91 35.10 34.95 33.84 30.37 31.83 31.73 35.86 37.07 38.55 38.89 38.41 39.82 32.71 34.02 36.06 36.07 35.53 32.51 28.67 32.45 30.25 33.49 29.56 28.87 27.07
47.64 47.70 48.00 48.29 48.63 48.70 42.80 35.39 39.90 41.13 40.03 36.22 36.10 37.17 36.09 34.48 36.05 35.74 34.41 33.56 34.57 34.38 31.24 32.25 30.57 35.16 35.91 35.03 39.93 39.66 39.69 32.89 34.58 32.34 36.14 35.29 31.37 31.27 32.80 32.12 31.18 30.14 30.32 27.10
46.67 46.96 47.25 47.53 48.07 48.24 41.88 44.30 47.28 42.20 38.15 35.87 33.22 37.09 37.26 37.16 38.46 37.36 37.86 36.14 34.80 33.57 35.59 39.30 40.07 40.97 39.92 38.68 38.48 37.14 36.78 33.91 31.53 30.14 35.85 34.27 30.46 30.43 31.95 31.77 33.82 33.83 30.60 30.52
46.43 46.74 47.01 47.07 47.81 48.12 46.66 46.47 46.31 40.63 36.34 37.36 35.35 37.92 38.58 37.42 37.64 34.04 37.19 39.48 36.01 39.13 42.71 41.85 39.90 38.42 37.85 38.25 37.91 39.27 34.44 32.87 33.29 31.01 33.25 24.48 30.46 37.33 36.70 33.87 33.40 34.69 32.81 31.70
48.99 49.41 49.65 48.16 47.32 48.45 48.08 46.62 44.51 42.21 37.90 37.97 36.54 37.42 37.65 38.04 38.24 36.86 37.75 39.82 41.85 43.14 39.48 33.61 31.11 32.28 33.79 35.43 38.68 39.12 39.77 34.34 31.11 29.86 30.18 29.34 30.09 33.17 33.29 32.31 30.25 33.96 32.93 32.67
49.16 49.15 49.76 50.56 47.98 48.42 47.35 46.72 48.47 45.23 40.61 37.48 40.26 38.43 38.22 35.30 35.73 36.46 37.28 40.33 43.39 41.61 36.38 33.02 28.34 27.09 31.18 30.77 33.53 39.28 38.12 37.44 32.69 31.71 26.43 25.11 30.75 33.97 37.10 36.80 27.81 34.37 34.67 33.54
48.51 48.59 49.29 49.34 47.91 48.44 46.46 44.43 50.48 46.93 41.36 42.75 41.66 37.62 36.95 38.89 36.70 33.93 35.34 36.11 36.95 40.35 34.10 30.90 30.27 31.13 35.92 30.54 29.83 30.65 32.10 32.58 30.02 30.51 29.23 29.36 31.81 33.68 36.08 26.78 29.05 34.61 35.28 35.63
47.22 47.30 47.12 47.12 47.28 47.03 46.17 43.07 48.28 45.36 40.24 40.09 41.29 40.82 38.33 38.19 38.46 32.55 36.29 35.09 36.13 34.75 32.10 32.55 32.91 32.71 34.30 33.78 35.73 33.78 32.12 30.69 30.34 31.32 27.93 25.09 33.56 34.13 29.89 33.42 35.48 35.22 34.68 34.37
45.44 45.42 45.35 45.80 45.88 46.02 48.48 41.80 45.49 45.88 40.29 38.74 42.95 42.34 43.49 43.25 43.31 40.15 39.98 37.60 36.75 37.08 35.20 35.85 36.66 33.45 35.86 34.54 28.98 37.27 30.32 35.22 32.59 31.43 28.87 32.33 33.65 35.28 36.76 36.28 34.50 34.69 34.20 34.44
44.84 45.23 45.26 45.45 45.93 46.79 46.40 43.58 45.44 42.92 38.14 38.29 39.07 38.81 43.88 46.67 46.94 48.02 38.62 40.76 41.23 39.73 43.62 40.13 39.13 33.38 37.29 31.61 33.42 33.76 34.93 37.18 31.80 31.57 30.83 31.11 33.62 35.85 36.51 36.00 34.72 35.16 35.14 34.34
44.73 44.95 44.97 45.36 46.02 47.10 47.17 45.27 47.17 44.66 41.63 34.87 36.11 44.59 41.91 46.84 46.85 46.26 46.15 43.65 44.14 43.49 43.31 39.55 37.89 34.96 39.69 36.62 36.84 35.41 35.74 35.95 32.08 30.23 31.73 32.51 33.21 34.60 34.65 33.93 33.97 34.05 34.79 34.35
45.06 45.28 45.48 45.83 46.39 46.65 47.54 47.51 47.23 48.56 41.43 35.17 36.41 42.61 44.30 45.40 45.52 44.16 44.85 43.74 42.25 40.66 37.86 38.06 36.82 39.05 37.46 36.66 36.21 32.48 36.43 33.92 32.18 33.31 34.04 33.71 31.62 34.00 34.82 32.72 31.35 32.25 31.51 31.18
44.54 44.25 44.18 44.13 44.75 47.18 46.33 40.33 47.73 48.68 47.32 39.89 32.36 40.96 41.05 43.74 44.01 42.84 42.28 42.63 41.93 41.11 39.57 38.64 40.63 40.63 39.01 34.22 30.82 34.66 35.71 36.89 37.45 33.95 35.74 33.98 32.90 34.01 33.46 31.35 31.61 32.23 31.52 31.52
44.81 44.88 44.92 44.61 44.63 46.18 43.37 40.20 44.10 44.82 48.16 41.08 33.30 34.06 39.61 42.56 42.11 41.90 41.23 42.41 41.50 41.67 39.49 39.18 38.76 38.32 39.60 34.91 31.85 34.07 35.38 36.82 36.36 36.31 34.44 30.77 31.77 30.33 33.40 32.81 31.84 31.49 30.90 30.72
44.42 44.66 44.54 44.23 44.42 44.65 41.08 42.56 44.52 46.05 43.74 41.87 33.62 31.72 35.89 41.91 37.24 36.28 42.31 38.92 40.59 40.32 39.14 39.33 37.84 38.61 39.11 31.37 33.87 35.14 35.50 35.77 35.00 35.16 36.68 33.95 34.62 33.14 31.95 32.16 31.11 29.16 28.03 28.01
43.41 44.57 45.20 45.39 43.19 40.36 40.41 41.63 44.42 48.85 44.15 36.41 35.87 31.00 28.94 40.75 38.23 38.69 39.50 41.17 35.14 40.05 36.47 37.46 38.59 35.23 31.51 34.55 35.31 34.96 35.37 34.55 34.28 36.09 35.00 33.09 31.81 31.28 31.07 31.14 30.40 28.69 27.40 27.33
43.71 44.23 39.90 35.49 40.76 40.64 42.70 44.43 40.89 40.97 40.65 40.69 35.63 38.28 32.21 38.27 37.29 35.55 35.79 38.58 33.71 30.58 35.48 38.37 34.80 33.43 36.66 38.32 38.11 37.20 36.58 37.56 37.40 33.48 31.55 32.18 30.82 30.30 30.36 30.17 30.16 28.78 26.81 25.72
42.99 38.07 36.80 41.90 41.73 44.14 40.52 35.89 35.09 36.69 33.02 36.61 36.00 36.91 33.87 40.66 34.34 33.66 38.09 34.13 34.63 28.50 32.12 32.43 30.61 31.22 34.62 38.19 36.64 37.52 38.52 38.34 37.69 37.48 36.58 35.42 33.74 31.74 30.25 28.62 28.42 27.33 26.07 24.41
41.77 41.75 43.29 43.96 40.17 37.46 32.73 30.54 32.89 32.80 29.57 35.07 34.49 35.46 37.46 38.81 41.58 35.45 35.84 30.28 33.45 26.81 36.53 31.38 28.08 33.97 36.78 37.23 36.35 36.88 38.11 37.80 36.81 37.22 35.99 35.70 34.02 32.72 30.20 28.20 26.78 25.85 24.97 21.96
43.82 39.92 34.72 36.34 34.28 28.87 29.53 24.00 28.23 29.31 32.59 35.33 36.21 34.42 37.52 38.64 39.22 35.48 33.59 29.26 29.01 34.49 29.95 28.49 33.82 35.55 35.90 35.84 36.51 36.22 37.31 36.72 36.21 35.30 35.10 33.92 32.10 30.84 28.31 25.63 23.86 21.37 19.11 18.51
36.88 34.41 26.64 30.25 28.43 29.23 29.71 31.19 32.09 33.17 36.22 38.11 37.56 36.20 36.08 35.65 33.39 33.70 28.59 31.58 32.49 26.91 25.69 28.01 34.78 34.33 34.00 34.23 34.69 33.56 31.01 30.82 31.09 30.63 29.40 26.98 25.22 23.33 22.73 22.00 21.22 19.09 17.27 17.83
33.46 33.21 25.87 27.59 31.41 32.65 32.28 33.24 34.09 37.09 40.24 38.64 36.97 36.72 36.63 33.04 30.43 32.55 30.38 26.84 25.47 28.55 29.97 33.23 33.83 33.19 33.12 32.70 32.47 29.80 28.43 27.69 27.81 27.01 23.82 21.91 20.58 20.38 20.03 20.74 22.01 21.44 18.59 18.04
33.48 31.82 30.58 33.29 32.19 31.13 32.61 32.59 32.61 38.76 39.40 40.22 38.65 33.63 31.88 30.04 31.45 28.44 27.51 27.01 26.58 31.08 32.67 31.86 31.90 31.65 31.55 30.52 29.65 28.73 27.83 27.83 27.12 25.03 22.94 22.01 21.05 21.05 21.67 22.06 21.56 19.59 19.71 18.78
30.85 30.49 33.70 33.70 33.32 31.51 32.61 36.20 35.76 40.88 39.24 34.04 34.77 29.99 28.06 33.05 29.54 27.66 33.73 31.24 32.16 31.44 30.60 32.03 32.74 30.16 29.78 29.35 28.39 26.53 26.90 26.70 25.87 24.67 24.00 23.14 24.57 22.89 21.90 20.95 21.27 22.05 22.26 21.30

GFSNW_sfc_wetblb_126.txt.gz
Wetbulb
48.78 49.44 50.28 50.28 50.78 49.94 47.44 42.38 35.17 44.09 45.75 33.08 34.92 33.67 37.41 40.90 41.37 44.24 42.23 40.81 39.01 36.12 36.30 35.41 34.40 33.10 37.03 42.91 41.64 36.55 39.67 37.00 30.87 35.74 42.70 43.64 41.07 38.54 37.07 30.04 28.78 32.54 30.03 27.94
48.59 49.05 49.20 49.54 49.97 49.42 44.66 38.60 34.80 43.93 43.32 29.85 32.23 36.93 36.98 39.46 39.27 40.94 39.79 38.21 39.23 39.40 36.80 32.02 37.05 37.71 41.85 41.65 39.40 37.49 39.73 33.96 28.96 33.78 38.47 40.46 37.93 38.61 37.23 35.83 34.06 28.36 25.78 27.06
48.03 48.31 48.78 48.90 49.36 49.33 46.53 36.25 30.17 33.35 37.10 38.07 36.50 35.09 35.21 35.09 41.24 40.71 41.38 39.06 40.43 36.78 33.56 36.63 33.68 35.38 39.50 40.48 39.10 40.06 40.21 35.79 32.85 29.22 33.21 36.63 33.54 34.69 35.63 33.94 29.47 30.70 31.47 26.93
46.82 47.67 48.22 48.61 48.96 49.03 44.84 39.26 34.62 37.46 28.03 30.16 34.00 37.09 36.66 34.08 34.60 40.36 41.63 38.11 37.96 35.66 31.62 33.29 32.36 35.91 37.29 38.83 40.20 37.08 37.59 32.25 34.55 35.51 36.42 37.01 34.42 32.21 33.14 31.05 32.19 29.81 29.81 27.71
46.29 47.18 47.52 48.35 48.43 48.72 42.99 34.05 37.52 39.74 37.08 36.60 32.56 35.16 36.13 35.46 36.90 38.47 37.01 36.03 37.49 37.76 33.24 33.78 31.65 34.80 35.58 34.49 37.57 35.60 38.60 33.11 32.84 30.80 35.17 36.15 33.71 32.66 32.30 33.14 31.65 30.41 30.48 27.00
46.45 46.93 47.19 47.67 48.30 47.69 40.76 42.88 44.61 42.00 38.70 36.82 33.29 32.83 36.02 37.19 39.39 39.90 40.92 39.33 37.63 35.40 36.45 38.55 39.67 40.54 40.64 39.37 37.00 36.01 37.08 34.34 31.88 28.23 36.25 34.38 29.60 32.30 32.15 33.52 35.02 33.85 29.94 31.51
46.39 46.60 47.23 47.50 47.82 47.73 45.42 43.74 44.19 39.03 34.37 37.26 35.55 36.25 37.62 38.38 39.20 37.70 40.26 40.48 37.03 38.96 43.33 41.80 40.27 39.50 38.63 38.49 37.91 40.18 35.96 34.17 32.73 29.36 33.45 24.35 30.93 37.80 37.02 34.92 34.84 35.17 33.05 32.51
46.67 46.68 47.00 47.22 47.37 47.82 45.89 45.63 44.12 41.38 34.97 38.46 37.99 37.15 37.64 39.48 40.96 39.23 39.11 39.69 41.06 43.49 39.71 33.29 29.77 30.28 31.34 32.95 36.06 36.35 37.61 35.07 30.00 27.17 28.67 29.43 31.33 34.88 34.79 33.02 31.63 35.97 33.98 33.78
45.53 45.82 46.29 46.68 47.20 47.64 46.95 45.36 48.30 43.97 38.63 37.12 40.56 37.97 38.66 37.52 37.54 35.62 37.54 41.96 44.81 42.18 36.20 32.32 25.59 24.48 28.72 28.43 31.98 36.72 37.15 38.41 32.28 30.71 25.59 23.09 30.83 36.32 38.61 38.00 28.39 36.31 36.28 34.09
45.46 45.51 45.77 46.23 46.96 47.10 46.28 44.68 47.82 45.04 38.47 42.23 42.96 38.81 38.46 41.77 39.37 35.72 37.96 37.45 38.06 41.61 33.79 29.13 28.07 28.86 35.20 29.37 29.30 30.45 32.13 32.39 28.60 29.25 26.74 28.74 33.16 35.05 37.16 26.58 28.50 36.49 37.03 36.33
47.77 47.96 47.35 45.92 46.30 46.89 45.93 43.87 48.43 46.06 40.55 43.50 45.25 45.04 41.13 40.91 39.95 34.19 36.64 35.17 36.50 35.29 31.18 30.30 31.40 32.27 34.77 33.86 35.68 33.18 31.32 29.24 29.19 30.56 27.10 24.47 34.35 33.62 30.17 33.73 36.70 36.24 35.38 33.69
47.53 47.76 48.02 48.27 47.20 46.83 47.06 42.62 47.09 48.78 44.90 40.37 46.39 46.85 48.64 46.34 44.38 39.66 38.49 37.25 35.61 36.77 33.70 35.31 36.03 34.11 37.06 34.32 30.50 38.35 30.70 34.48 31.93 29.55 28.22 32.51 34.34 35.48 37.58 37.51 35.53 34.59 32.91 32.51
46.47 48.40 49.30 49.08 49.23 47.51 47.12 45.85 46.88 46.17 40.15 39.57 40.64 39.90 44.19 46.54 46.43 48.67 36.75 39.30 41.36 40.91 44.54 41.04 39.25 33.48 37.30 32.06 33.56 34.83 36.24 38.46 32.57 31.28 30.53 31.25 34.65 36.14 36.95 36.56 35.24 35.03 34.38 32.79
46.12 46.01 46.90 47.81 47.52 47.76 48.50 46.68 48.47 45.95 41.79 35.09 36.11 44.10 42.24 46.46 47.60 47.49 47.11 45.35 45.34 45.67 44.79 39.96 38.04 35.59 40.05 36.13 36.95 35.24 36.44 36.48 32.27 30.25 31.06 31.47 33.89 34.98 35.31 35.36 35.54 34.41 34.58 33.56
45.80 46.18 46.59 47.12 47.66 47.77 48.16 48.00 47.77 48.29 42.02 34.36 35.46 41.22 43.54 45.64 45.93 45.19 45.75 45.02 43.16 41.27 38.76 38.66 35.73 38.63 37.93 37.62 37.00 33.60 37.10 34.73 31.60 31.89 33.74 33.70 31.91 34.41 34.88 33.31 32.28 32.14 31.79 31.43
45.60 46.11 46.74 46.87 46.82 47.05 45.02 37.99 46.78 46.94 45.34 37.40 32.35 41.18 40.77 43.73 44.68 43.79 43.42 43.54 43.21 42.06 39.51 39.43 39.84 41.93 38.91 33.78 32.12 35.78 37.84 38.90 38.69 34.54 36.02 33.14 33.29 34.53 33.92 32.16 32.24 32.19 31.42 31.35
45.75 46.13 46.39 46.55 46.21 45.53 41.80 39.75 44.91 47.25 48.04 39.21 32.69 34.13 40.35 42.54 42.18 41.99 41.69 43.48 42.08 41.67 39.45 37.80 38.00 38.14 38.77 35.67 31.28 34.91 36.32 37.11 36.42 35.71 33.75 30.48 31.99 30.83 33.47 32.79 32.29 32.54 31.51 31.11
44.78 45.00 44.96 44.52 44.52 45.34 42.73 43.83 45.68 45.91 44.49 41.30 33.46 31.97 35.31 41.85 37.03 35.65 41.70 38.77 40.36 40.06 38.54 38.62 37.27 37.73 38.15 31.68 34.94 35.91 35.96 35.63 34.66 35.16 37.28 34.52 34.54 33.67 32.63 32.50 31.20 29.06 27.95 27.83
45.28 45.55 45.71 46.74 44.58 40.73 41.93 41.49 44.70 51.69 45.26 36.54 36.05 30.57 28.73 40.64 38.43 38.85 38.87 40.04 35.89 39.11 36.20 36.46 37.73 35.01 31.42 34.90 34.49 33.97 34.76 34.24 33.92 36.30 35.57 34.69 32.34 31.53 30.99 30.88 30.14 28.10 26.89 27.39
45.17 45.16 41.22 35.88 39.70 40.23 41.50 43.97 41.30 41.66 41.47 40.91 35.32 37.29 31.89 38.02 37.28 36.12 35.97 38.50 33.93 30.42 34.72 37.79 35.29 33.16 37.35 38.30 37.80 37.48 37.06 36.96 36.58 32.76 31.06 31.73 30.81 30.36 30.58 30.24 30.65 28.94 27.48 26.18
43.04 40.25 38.37 41.45 41.80 43.52 41.23 36.73 35.99 37.04 33.36 37.66 37.45 36.85 34.29 40.52 34.67 34.43 37.44 34.90 34.72 28.46 32.34 32.12 30.50 30.49 35.23 38.43 37.81 38.32 38.18 38.13 37.22 37.03 36.18 35.29 33.42 31.53 30.70 29.95 29.41 28.04 26.66 24.84
42.38 42.09 43.85 43.87 40.88 39.73 32.64 31.27 33.74 33.22 29.17 35.89 35.33 36.51 38.29 39.04 41.27 35.69 36.08 31.39 33.34 28.00 36.80 31.86 27.46 33.62 36.76 37.02 36.62 36.92 37.86 37.62 36.88 37.32 35.80 35.30 34.13 33.33 30.90 28.89 27.58 26.68 25.26 20.82
44.58 40.36 35.00 36.21 35.78 29.74 31.13 24.57 28.52 29.08 34.25 36.40 36.84 34.69 36.98 38.06 39.56 36.29 33.66 28.83 28.98 35.30 30.14 27.69 32.24 35.11 36.87 36.15 36.01 35.48 36.94 36.61 35.53 34.83 34.63 34.08 32.94 31.98 29.51 25.33 22.47 21.44 19.19 18.16
38.72 34.31 27.16 31.48 28.58 29.61 30.67 32.53 32.59 35.36 36.97 37.26 37.92 36.93 35.03 36.28 33.03 33.35 29.67 31.94 32.60 26.99 25.30 27.59 33.38 35.03 35.22 34.37 33.68 32.57 31.56 31.66 31.20 30.33 28.04 24.97 23.75 22.51 21.93 20.96 20.18 17.83 16.62 17.37
34.06 33.49 26.04 27.63 31.50 32.66 33.85 35.86 37.31 39.56 40.75 39.18 37.48 37.46 35.69 33.12 30.14 33.00 30.16 26.95 24.81 27.71 28.60 31.63 34.45 34.58 33.44 32.62 31.25 30.17 28.58 27.64 27.37 26.32 23.86 21.67 20.78 20.67 20.20 20.13 20.19 19.67 17.19 16.83
33.74 32.77 31.55 33.77 32.08 31.26 32.81 33.54 35.17 41.55 41.07 41.93 39.39 34.14 31.25 29.97 30.85 28.47 27.56 26.79 25.98 30.32 30.64 32.27 33.67 32.72 32.21 30.88 30.82 30.35 30.07 29.56 28.04 25.88 22.86 21.88 20.46 20.19 21.36 22.28 20.92 19.04 18.74 16.82
32.03 31.23 33.90 33.72 32.61 31.24 32.45 35.35 37.36 41.65 39.52 33.79 34.94 30.01 28.13 33.55 29.46 27.83 32.83 29.90 29.86 31.33 30.49 32.58 33.05 31.88 30.94 30.46 29.52 28.02 28.36 27.50 26.27 24.52 23.68 22.78 23.93 22.63 21.80 19.81 19.50 20.92 20.82 20.01

GFSNW_sfc_wetblb_129.txt.gz
Wetbulb
48.54 49.04 50.10 50.30 50.61 49.53 47.27 40.98 33.16 43.98 46.61 33.58 34.71 29.44 35.09 39.39 37.62 40.74 39.57 39.34 38.10 33.84 33.27 32.20 29.58 31.94 36.92 41.52 40.63 36.42 38.06 35.36 30.14 32.78 40.20 41.45 39.85 37.80 37.20 26.17 25.21 25.52 26.01 20.49
47.32 48.14 49.03 49.81 50.09 49.35 44.29 37.29 35.65 43.96 42.81 29.34 29.88 32.67 34.91 36.26 36.11 36.84 37.17 36.62 38.49 36.44 30.78 26.26 32.32 34.23 41.82 41.13 40.23 37.43 38.90 32.17 25.81 29.93 35.79 40.28 37.31 37.29 36.28 33.63 29.75 22.43 16.14 17.45
47.44 47.79 48.32 49.12 49.56 49.33 44.32 35.60 28.83 34.76 37.86 37.34 31.93 30.96 31.41 32.48 38.33 37.06 38.30 37.76 38.45 34.76 31.10 34.58 29.04 33.53 40.41 40.22 39.99 41.18 40.95 34.73 30.67 24.96 30.59 35.00 33.90 34.87 35.06 31.55 19.36 22.52 25.34 25.92
46.70 47.30 47.88 48.54 48.81 48.84 42.51 37.85 31.06 33.11 27.72 30.45 33.44 32.97 33.72 31.02 30.90 37.81 38.22 35.11 36.40 33.61 28.04 29.94 29.44 35.33 37.37 39.72 40.02 38.45 36.60 28.23 33.14 33.81 34.88 34.80 34.23 33.37 33.07 30.70 30.14 27.53 27.57 25.54
46.13 46.59 47.05 47.70 48.23 48.61 41.92 34.02 32.21 33.84 31.68 32.88 31.54 31.84 30.58 31.89 34.13 34.56 32.85 33.77 36.15 36.10 30.69 30.54 29.15 33.66 34.23 33.87 37.23 35.25 35.60 27.44 30.70 27.71 33.04 33.28 30.84 31.25 30.38 32.63 31.13 29.13 29.76 25.79
45.86 46.05 46.25 46.65 47.70 47.59 41.24 41.74 39.85 36.26 32.96 30.57 29.12 29.17 31.21 32.29 36.01 37.17 37.54 36.73 35.23 33.67 35.05 37.71 35.37 36.04 37.03 38.17 35.36 32.80 32.12 30.47 29.74 25.96 33.60 33.50 27.81 29.07 28.95 32.46 33.87 32.88 26.75 29.37
45.64 45.75 45.41 46.12 47.01 47.33 43.93 41.66 40.96 34.01 28.46 32.08 30.90 33.25 32.48 31.83 33.77 34.25 37.58 38.73 35.67 37.07 39.97 39.35 37.39 37.45 37.99 38.26 37.48 38.15 33.50 33.03 31.81 27.23 27.91 19.70 30.43 37.16 36.03 34.96 35.07 32.04 30.05 29.55
45.39 45.53 45.54 45.49 46.12 47.45 43.85 43.81 39.19 35.81 30.52 32.68 34.17 34.77 34.12 34.15 35.41 35.56 36.88 39.25 40.79 40.40 36.38 31.04 28.79 28.76 30.68 32.55 35.94 35.63 36.11 33.60 28.00 23.94 24.37 28.19 31.15 34.03 33.85 33.32 30.75 33.34 30.85 29.41
44.79 44.86 45.32 45.54 45.73 47.01 44.90 43.75 43.51 38.00 33.23 32.17 36.24 34.61 35.75 31.54 30.44 32.54 37.27 41.16 40.13 38.52 33.46 30.21 24.13 21.23 25.85 26.22 29.44 35.72 34.80 36.14 28.25 26.47 23.51 19.09 28.42 33.26 36.73 36.79 25.92 34.68 33.27 29.79
44.38 44.48 44.93 45.17 45.77 46.45 45.01 42.83 44.26 40.67 33.76 36.33 37.07 33.11 33.52 37.14 33.32 31.04 33.98 37.12 36.70 37.79 30.19 28.04 25.01 23.82 32.00 26.03 26.65 25.32 27.14 28.90 26.75 26.07 24.59 26.48 32.06 34.11 36.12 25.10 24.35 36.12 36.18 33.68
43.84 44.14 44.59 45.05 45.79 46.49 45.54 42.72 44.70 41.31 36.79 37.76 39.56 39.92 36.09 37.82 36.83 30.87 35.65 33.59 33.90 33.70 28.51 27.64 26.36 26.40 29.48 29.57 33.95 30.78 27.61 27.60 27.01 27.13 24.48 20.86 34.09 32.75 28.90 31.61 33.92 31.81 31.18 30.03
43.62 44.04 44.86 45.52 45.97 46.48 46.67 40.83 44.87 46.05 39.77 36.99 41.45 42.10 43.02 43.77 43.01 36.08 36.00 33.12 33.68 33.67 29.68 30.42 29.91 27.86 30.13 32.08 27.30 37.56 29.61 32.10 28.53 27.74 25.93 31.66 35.17 34.88 35.92 36.00 31.09 30.37 30.14 30.40
43.82 44.70 45.31 45.41 45.53 46.17 46.07 42.60 43.87 43.60 39.13 38.89 38.16 38.58 41.76 46.44 45.19 44.61 33.69 35.74 37.96 36.15 39.09 35.13 33.27 28.82 33.07 27.66 28.06 31.42 34.67 37.11 28.31 27.51 30.18 31.05 34.49 35.89 35.89 35.68 34.11 33.22 32.22 30.98
44.98 46.21 46.25 46.02 45.80 46.16 46.20 42.96 44.53 43.16 39.78 32.99 35.64 43.80 40.75 44.33 44.04 43.32 42.22 40.39 41.83 41.00 40.37 35.17 32.78 30.49 36.59 30.89 32.57 31.64 33.31 33.51 29.74 28.33 30.88 32.13 33.79 34.68 34.90 34.90 35.78 34.19 33.67 31.52
46.43 46.68 46.76 47.20 47.02 46.42 46.08 45.30 45.26 45.68 39.50 32.57 33.76 39.12 41.46 43.31 43.47 43.05 41.92 41.36 39.82 38.04 34.90 32.92 31.30 33.58 33.81 33.67 33.83 30.50 34.46 31.17 26.06 24.81 29.97 28.89 30.50 33.52 33.94 31.63 31.57 32.56 32.65 31.46
48.28 48.36 48.13 47.34 47.50 46.58 44.02 38.32 45.13 46.54 44.19 36.11 30.81 38.77 39.29 41.13 43.21 42.71 41.73 41.61 39.52 37.37 34.39 33.66 34.78 39.56 34.37 27.95 26.54 34.25 35.51 36.15 35.48 30.42 32.81 31.48 32.70 33.67 32.53 31.13 31.77 32.41 31.58 31.31
46.09 46.84 47.36 47.39 46.62 45.34 39.49 36.95 43.39 46.83 44.69 35.86 31.67 32.42 38.71 41.44 41.33 39.98 39.16 40.23 37.92 36.88 34.77 32.49 34.16 34.15 35.74 28.26 27.00 34.11 34.43 34.41 32.98 32.86 32.36 30.36 31.43 30.29 32.69 32.50 32.13 32.70 31.17 30.15
45.92 46.14 46.17 46.25 46.44 45.51 41.35 44.31 46.04 45.81 40.08 38.45 30.30 31.60 34.53 40.54 34.50 33.11 37.85 34.60 35.61 35.58 34.17 33.69 32.80 33.65 33.64 26.16 32.53 34.01 34.36 34.39 33.44 32.39 34.95 31.89 33.22 32.52 31.41 31.28 30.02 28.14 26.78 26.18
45.67 45.60 45.78 44.01 42.06 38.57 39.43 42.95 45.48 46.19 40.29 32.17 31.41 27.97 26.94 38.33 34.93 34.64 34.42 35.77 29.34 34.82 30.70 31.17 33.40 28.95 25.48 31.01 32.24 32.86 33.35 32.90 33.13 34.50 32.76 32.22 30.73 30.26 28.98 28.44 27.68 25.70 24.71 24.98
45.69 43.66 37.27 32.68 36.93 42.38 43.82 41.74 36.94 37.91 38.51 37.73 31.03 33.69 29.55 35.30 32.91 31.66 31.48 32.21 28.77 26.21 30.21 33.05 27.94 28.11 34.56 35.70 34.42 34.49 34.79 35.74 35.82 31.63 30.37 29.64 27.56 27.09 26.76 26.88 26.40 25.75 24.42 21.94
41.08 35.50 33.86 38.98 41.93 41.59 37.21 28.49 29.86 31.66 29.11 33.43 32.44 33.84 31.55 37.22 30.63 29.28 32.11 28.40 29.00 25.40 27.86 26.91 24.72 25.10 29.06 34.95 34.05 34.49 36.61 36.80 34.75 34.18 31.69 30.74 29.00 27.24 26.77 26.09 26.27 25.10 23.70 20.65
40.31 39.37 41.88 41.00 38.07 33.43 28.59 25.01 28.69 27.22 28.05 32.22 31.27 32.04 34.13 34.44 36.22 29.72 30.75 27.55 27.92 24.29 30.26 24.44 21.21 27.90 32.70 33.61 33.05 33.95 35.34 35.87 35.17 34.65 32.03 30.04 29.50 28.08 26.85 26.04 25.07 23.99 21.98 18.43
41.66 37.58 32.51 33.13 30.49 23.31 21.36 18.98 24.38 24.24 29.06 32.42 33.30 30.74 32.69 33.74 34.03 28.08 28.57 23.68 22.46 29.41 21.19 20.77 26.75 29.53 33.15 32.47 32.66 32.48 33.53 33.58 32.95 32.34 31.68 30.84 29.08 27.20 25.40 19.48 19.35 18.81 17.18 14.93
33.04 28.92 22.53 25.71 22.55 26.77 28.68 28.98 28.67 30.34 33.03 33.80 33.05 30.53 30.32 29.67 27.07 28.67 22.95 25.95 28.26 20.80 16.59 24.62 28.85 30.80 29.83 31.89 32.03 30.64 25.73 29.74 28.88 27.35 25.07 22.68 20.29 16.76 15.77 16.99 15.64 15.83 13.95 11.81
29.85 29.44 22.18 25.13 28.74 30.91 29.05 29.16 32.25 34.51 34.59 32.37 31.68 30.72 30.87 26.76 26.87 28.00 25.97 24.20 18.57 22.43 21.52 28.93 30.72 29.83 28.84 30.00 29.46 26.97 22.25 21.23 20.75 19.18 18.58 16.85 17.36 17.04 13.62 12.29 13.66 13.67 11.23 10.22
30.85 30.66 26.15 26.68 25.69 30.47 32.95 32.01 33.01 34.13 31.18 32.18 32.43 29.10 24.34 24.51 25.47 24.56 21.23 23.57 19.93 26.56 28.90 30.89 31.21 28.44 28.77 28.99 28.35 27.69 24.74 22.49 19.95 17.59 17.33 16.62 16.01 15.90 14.27 14.67 12.83 9.52 10.68 8.94
29.78 29.36 31.78 27.34 31.38 31.06 32.04 33.67 32.03 34.20 32.17 26.56 29.06 23.58 25.19 28.74 24.16 24.20 27.76 25.77 27.61 28.59 29.25 30.99 31.32 30.06 29.30 28.60 27.49 26.88 23.59 22.75 20.05 17.32 17.77 17.66 19.67 19.49 18.49 15.12 13.52 17.35 16.72 13.49